<?xml version="1.0" encoding="UTF-8" standalone="no" ?>
<gpx xmlns="http://www.topografix.com/GPX/1/1" xmlns:xsi="http://www.w3.org/2001/XMLSchema-instance" xsi:schemaLocation="http://www.topografix.com/GPX/1/1 http://www.topografix.com/GPX/1/1/gpx.xsd" version="1.1" creator="VisuGPX - https://www.visugpx.com">
  <metadata>
    <name>Peyre Martine et Grotte Susterranne (ok)</name>
    <desc><![CDATA[Belle rando. A améliorer sur le retour vers St Jean de Buèges, le long de la Buèges depuis sa source...]]></desc>
  </metadata>
  <trk>
    <name><![CDATA[11-JAN-15 17:08:40]]></name>
    <trkseg>
      <trkpt lat="43.82564" lon="3.61813">
        <ele>161.16</ele>
        <time>2015-01-11T08:58:52Z</time>
      </trkpt>
      <trkpt lat="43.82564" lon="3.61811">
        <ele>161.64</ele>
        <time>2015-01-11T08:59:21Z</time>
      </trkpt>
      <trkpt lat="43.82564" lon="3.61812">
        <ele>161.64</ele>
        <time>2015-01-11T08:59:42Z</time>
      </trkpt>
      <trkpt lat="43.82565" lon="3.61812">
        <ele>161.64</ele>
        <time>2015-01-11T08:59:54Z</time>
      </trkpt>
      <trkpt lat="43.82565" lon="3.61812">
        <ele>162.12</ele>
        <time>2015-01-11T09:00:14Z</time>
      </trkpt>
      <trkpt lat="43.82563" lon="3.61812">
        <ele>162.12</ele>
        <time>2015-01-11T09:00:32Z</time>
      </trkpt>
      <trkpt lat="43.82567" lon="3.61811">
        <ele>165.48</ele>
        <time>2015-01-11T09:00:58Z</time>
      </trkpt>
      <trkpt lat="43.82566" lon="3.61811">
        <ele>164.04</ele>
        <time>2015-01-11T09:01:03Z</time>
      </trkpt>
      <trkpt lat="43.82565" lon="3.61812">
        <ele>164.04</ele>
        <time>2015-01-11T09:01:30Z</time>
      </trkpt>
      <trkpt lat="43.82565" lon="3.6181">
        <ele>163.08</ele>
        <time>2015-01-11T09:01:57Z</time>
      </trkpt>
      <trkpt lat="43.82566" lon="3.61812">
        <ele>162.6</ele>
        <time>2015-01-11T09:02:21Z</time>
      </trkpt>
      <trkpt lat="43.82564" lon="3.61812">
        <ele>161.64</ele>
        <time>2015-01-11T09:02:46Z</time>
      </trkpt>
      <trkpt lat="43.82565" lon="3.61812">
        <ele>162.12</ele>
        <time>2015-01-11T09:03:02Z</time>
      </trkpt>
      <trkpt lat="43.82563" lon="3.61811">
        <ele>162.12</ele>
        <time>2015-01-11T09:03:24Z</time>
      </trkpt>
      <trkpt lat="43.82563" lon="3.61812">
        <ele>162.12</ele>
        <time>2015-01-11T09:03:39Z</time>
      </trkpt>
      <trkpt lat="43.82563" lon="3.61812">
        <ele>162.12</ele>
        <time>2015-01-11T09:03:55Z</time>
      </trkpt>
      <trkpt lat="43.82562" lon="3.61814">
        <ele>161.64</ele>
        <time>2015-01-11T09:04:14Z</time>
      </trkpt>
      <trkpt lat="43.82564" lon="3.61816">
        <ele>161.16</ele>
        <time>2015-01-11T09:04:30Z</time>
      </trkpt>
      <trkpt lat="43.82565" lon="3.61816">
        <ele>160.68</ele>
        <time>2015-01-11T09:04:48Z</time>
      </trkpt>
      <trkpt lat="43.82564" lon="3.61817">
        <ele>160.68</ele>
        <time>2015-01-11T09:05:02Z</time>
      </trkpt>
      <trkpt lat="43.82565" lon="3.61818">
        <ele>160.2</ele>
        <time>2015-01-11T09:05:17Z</time>
      </trkpt>
      <trkpt lat="43.82568" lon="3.61817">
        <ele>163.08</ele>
        <time>2015-01-11T09:05:19Z</time>
      </trkpt>
      <trkpt lat="43.82569" lon="3.61817">
        <ele>160.68</ele>
        <time>2015-01-11T09:05:21Z</time>
      </trkpt>
      <trkpt lat="43.82571" lon="3.61818">
        <ele>161.16</ele>
        <time>2015-01-11T09:05:23Z</time>
      </trkpt>
      <trkpt lat="43.82578" lon="3.61807">
        <ele>162.12</ele>
        <time>2015-01-11T09:05:34Z</time>
      </trkpt>
      <trkpt lat="43.82578" lon="3.61805">
        <ele>162.6</ele>
        <time>2015-01-11T09:05:36Z</time>
      </trkpt>
      <trkpt lat="43.82584" lon="3.61781">
        <ele>162.12</ele>
        <time>2015-01-11T09:05:50Z</time>
      </trkpt>
      <trkpt lat="43.82584" lon="3.61781">
        <ele>162.12</ele>
        <time>2015-01-11T09:05:51Z</time>
      </trkpt>
      <trkpt lat="43.82585" lon="3.61778">
        <ele>162.12</ele>
        <time>2015-01-11T09:05:53Z</time>
      </trkpt>
      <trkpt lat="43.82587" lon="3.61767">
        <ele>163.08</ele>
        <time>2015-01-11T09:05:59Z</time>
      </trkpt>
      <trkpt lat="43.82588" lon="3.61765">
        <ele>163.08</ele>
        <time>2015-01-11T09:06:00Z</time>
      </trkpt>
      <trkpt lat="43.82589" lon="3.61764">
        <ele>163.08</ele>
        <time>2015-01-11T09:06:01Z</time>
      </trkpt>
      <trkpt lat="43.8259" lon="3.61763">
        <ele>162.6</ele>
        <time>2015-01-11T09:06:02Z</time>
      </trkpt>
      <trkpt lat="43.82592" lon="3.61763">
        <ele>162.6</ele>
        <time>2015-01-11T09:06:03Z</time>
      </trkpt>
      <trkpt lat="43.82593" lon="3.61762">
        <ele>163.08</ele>
        <time>2015-01-11T09:06:04Z</time>
      </trkpt>
      <trkpt lat="43.82596" lon="3.61762">
        <ele>163.08</ele>
        <time>2015-01-11T09:06:06Z</time>
      </trkpt>
      <trkpt lat="43.82597" lon="3.61762">
        <ele>163.08</ele>
        <time>2015-01-11T09:06:07Z</time>
      </trkpt>
      <trkpt lat="43.82598" lon="3.61762">
        <ele>162.6</ele>
        <time>2015-01-11T09:06:08Z</time>
      </trkpt>
      <trkpt lat="43.826" lon="3.61762">
        <ele>162.6</ele>
        <time>2015-01-11T09:06:09Z</time>
      </trkpt>
      <trkpt lat="43.82602" lon="3.61762">
        <ele>162.12</ele>
        <time>2015-01-11T09:06:10Z</time>
      </trkpt>
      <trkpt lat="43.82618" lon="3.61769">
        <ele>162.12</ele>
        <time>2015-01-11T09:06:23Z</time>
      </trkpt>
      <trkpt lat="43.82636" lon="3.61781">
        <ele>160.68</ele>
        <time>2015-01-11T09:06:40Z</time>
      </trkpt>
      <trkpt lat="43.82642" lon="3.61784">
        <ele>159.72</ele>
        <time>2015-01-11T09:06:46Z</time>
      </trkpt>
      <trkpt lat="43.82643" lon="3.61785">
        <ele>159.72</ele>
        <time>2015-01-11T09:06:47Z</time>
      </trkpt>
      <trkpt lat="43.82644" lon="3.61786">
        <ele>159.24</ele>
        <time>2015-01-11T09:06:48Z</time>
      </trkpt>
      <trkpt lat="43.82645" lon="3.61787">
        <ele>159.24</ele>
        <time>2015-01-11T09:06:49Z</time>
      </trkpt>
      <trkpt lat="43.82658" lon="3.61797">
        <ele>158.75</ele>
        <time>2015-01-11T09:07:02Z</time>
      </trkpt>
      <trkpt lat="43.82676" lon="3.61804">
        <ele>157.79</ele>
        <time>2015-01-11T09:07:18Z</time>
      </trkpt>
      <trkpt lat="43.82685" lon="3.61804">
        <ele>157.31</ele>
        <time>2015-01-11T09:07:25Z</time>
      </trkpt>
      <trkpt lat="43.82686" lon="3.61804">
        <ele>157.79</ele>
        <time>2015-01-11T09:07:26Z</time>
      </trkpt>
      <trkpt lat="43.82702" lon="3.61799">
        <ele>157.79</ele>
        <time>2015-01-11T09:07:39Z</time>
      </trkpt>
      <trkpt lat="43.82719" lon="3.6179">
        <ele>157.31</ele>
        <time>2015-01-11T09:07:52Z</time>
      </trkpt>
      <trkpt lat="43.82734" lon="3.61778">
        <ele>158.27</ele>
        <time>2015-01-11T09:08:05Z</time>
      </trkpt>
      <trkpt lat="43.82751" lon="3.61765">
        <ele>159.72</ele>
        <time>2015-01-11T09:08:21Z</time>
      </trkpt>
      <trkpt lat="43.8277" lon="3.61755">
        <ele>161.64</ele>
        <time>2015-01-11T09:08:40Z</time>
      </trkpt>
      <trkpt lat="43.82778" lon="3.61756">
        <ele>161.16</ele>
        <time>2015-01-11T09:08:44Z</time>
      </trkpt>
      <trkpt lat="43.82781" lon="3.6175">
        <ele>162.12</ele>
        <time>2015-01-11T09:08:50Z</time>
      </trkpt>
      <trkpt lat="43.82776" lon="3.61725">
        <ele>163.08</ele>
        <time>2015-01-11T09:09:04Z</time>
      </trkpt>
      <trkpt lat="43.82778" lon="3.61711">
        <ele>162.12</ele>
        <time>2015-01-11T09:09:13Z</time>
      </trkpt>
      <trkpt lat="43.82779" lon="3.61709">
        <ele>162.12</ele>
        <time>2015-01-11T09:09:14Z</time>
      </trkpt>
      <trkpt lat="43.8278" lon="3.61704">
        <ele>162.12</ele>
        <time>2015-01-11T09:09:16Z</time>
      </trkpt>
      <trkpt lat="43.82789" lon="3.61686">
        <ele>162.12</ele>
        <time>2015-01-11T09:09:32Z</time>
      </trkpt>
      <trkpt lat="43.82793" lon="3.61686">
        <ele>163.56</ele>
        <time>2015-01-11T09:09:48Z</time>
      </trkpt>
      <trkpt lat="43.82794" lon="3.61686">
        <ele>162.6</ele>
        <time>2015-01-11T09:09:50Z</time>
      </trkpt>
      <trkpt lat="43.82802" lon="3.61677">
        <ele>162.12</ele>
        <time>2015-01-11T09:10:14Z</time>
      </trkpt>
      <trkpt lat="43.82802" lon="3.61674">
        <ele>161.64</ele>
        <time>2015-01-11T09:10:33Z</time>
      </trkpt>
      <trkpt lat="43.82796" lon="3.61665">
        <ele>162.6</ele>
        <time>2015-01-11T09:10:49Z</time>
      </trkpt>
      <trkpt lat="43.82794" lon="3.61665">
        <ele>162.12</ele>
        <time>2015-01-11T09:10:50Z</time>
      </trkpt>
      <trkpt lat="43.82784" lon="3.61656">
        <ele>162.12</ele>
        <time>2015-01-11T09:10:59Z</time>
      </trkpt>
      <trkpt lat="43.8278" lon="3.61639">
        <ele>163.56</ele>
        <time>2015-01-11T09:11:07Z</time>
      </trkpt>
      <trkpt lat="43.8278" lon="3.61637">
        <ele>164.04</ele>
        <time>2015-01-11T09:11:08Z</time>
      </trkpt>
      <trkpt lat="43.82777" lon="3.61614">
        <ele>165</ele>
        <time>2015-01-11T09:11:25Z</time>
      </trkpt>
      <trkpt lat="43.82778" lon="3.61613">
        <ele>165</ele>
        <time>2015-01-11T09:11:26Z</time>
      </trkpt>
      <trkpt lat="43.82778" lon="3.61605">
        <ele>165.96</ele>
        <time>2015-01-11T09:11:30Z</time>
      </trkpt>
      <trkpt lat="43.8278" lon="3.61573">
        <ele>166.93</ele>
        <time>2015-01-11T09:11:46Z</time>
      </trkpt>
      <trkpt lat="43.82779" lon="3.6157">
        <ele>168.37</ele>
        <time>2015-01-11T09:11:48Z</time>
      </trkpt>
      <trkpt lat="43.82772" lon="3.6157">
        <ele>167.89</ele>
        <time>2015-01-11T09:11:54Z</time>
      </trkpt>
      <trkpt lat="43.8277" lon="3.61571">
        <ele>171.25</ele>
        <time>2015-01-11T09:11:56Z</time>
      </trkpt>
      <trkpt lat="43.82769" lon="3.6157">
        <ele>170.29</ele>
        <time>2015-01-11T09:11:57Z</time>
      </trkpt>
      <trkpt lat="43.82768" lon="3.61571">
        <ele>168.37</ele>
        <time>2015-01-11T09:11:58Z</time>
      </trkpt>
      <trkpt lat="43.82766" lon="3.61572">
        <ele>172.21</ele>
        <time>2015-01-11T09:12:00Z</time>
      </trkpt>
      <trkpt lat="43.82765" lon="3.61573">
        <ele>170.77</ele>
        <time>2015-01-11T09:12:01Z</time>
      </trkpt>
      <trkpt lat="43.82758" lon="3.61572">
        <ele>170.77</ele>
        <time>2015-01-11T09:12:07Z</time>
      </trkpt>
      <trkpt lat="43.8275" lon="3.61565">
        <ele>172.69</ele>
        <time>2015-01-11T09:12:16Z</time>
      </trkpt>
      <trkpt lat="43.82749" lon="3.61564">
        <ele>173.17</ele>
        <time>2015-01-11T09:12:17Z</time>
      </trkpt>
      <trkpt lat="43.82748" lon="3.61563">
        <ele>172.21</ele>
        <time>2015-01-11T09:12:18Z</time>
      </trkpt>
      <trkpt lat="43.82734" lon="3.61546">
        <ele>172.69</ele>
        <time>2015-01-11T09:12:33Z</time>
      </trkpt>
      <trkpt lat="43.82722" lon="3.6153">
        <ele>176.06</ele>
        <time>2015-01-11T09:12:48Z</time>
      </trkpt>
      <trkpt lat="43.82721" lon="3.61529">
        <ele>175.1</ele>
        <time>2015-01-11T09:12:49Z</time>
      </trkpt>
      <trkpt lat="43.82706" lon="3.61514">
        <ele>174.14</ele>
        <time>2015-01-11T09:13:04Z</time>
      </trkpt>
      <trkpt lat="43.82705" lon="3.61514">
        <ele>175.58</ele>
        <time>2015-01-11T09:13:05Z</time>
      </trkpt>
      <trkpt lat="43.82704" lon="3.61514">
        <ele>175.1</ele>
        <time>2015-01-11T09:13:06Z</time>
      </trkpt>
      <trkpt lat="43.82702" lon="3.61514">
        <ele>174.14</ele>
        <time>2015-01-11T09:13:07Z</time>
      </trkpt>
      <trkpt lat="43.82701" lon="3.61513">
        <ele>173.17</ele>
        <time>2015-01-11T09:13:08Z</time>
      </trkpt>
      <trkpt lat="43.82694" lon="3.61511">
        <ele>176.54</ele>
        <time>2015-01-11T09:13:15Z</time>
      </trkpt>
      <trkpt lat="43.82691" lon="3.61508">
        <ele>176.06</ele>
        <time>2015-01-11T09:13:19Z</time>
      </trkpt>
      <trkpt lat="43.8269" lon="3.61505">
        <ele>175.58</ele>
        <time>2015-01-11T09:13:21Z</time>
      </trkpt>
      <trkpt lat="43.8269" lon="3.61504">
        <ele>178.46</ele>
        <time>2015-01-11T09:13:22Z</time>
      </trkpt>
      <trkpt lat="43.8269" lon="3.61502">
        <ele>177.5</ele>
        <time>2015-01-11T09:13:23Z</time>
      </trkpt>
      <trkpt lat="43.8269" lon="3.61499">
        <ele>176.54</ele>
        <time>2015-01-11T09:13:25Z</time>
      </trkpt>
      <trkpt lat="43.82689" lon="3.61496">
        <ele>177.98</ele>
        <time>2015-01-11T09:13:27Z</time>
      </trkpt>
      <trkpt lat="43.82689" lon="3.61494">
        <ele>177.98</ele>
        <time>2015-01-11T09:13:28Z</time>
      </trkpt>
      <trkpt lat="43.82687" lon="3.61487">
        <ele>178.46</ele>
        <time>2015-01-11T09:13:32Z</time>
      </trkpt>
      <trkpt lat="43.82681" lon="3.61465">
        <ele>181.35</ele>
        <time>2015-01-11T09:13:47Z</time>
      </trkpt>
      <trkpt lat="43.82679" lon="3.61458">
        <ele>181.35</ele>
        <time>2015-01-11T09:13:52Z</time>
      </trkpt>
      <trkpt lat="43.82675" lon="3.61446">
        <ele>180.38</ele>
        <time>2015-01-11T09:14:00Z</time>
      </trkpt>
      <trkpt lat="43.82675" lon="3.61445">
        <ele>184.23</ele>
        <time>2015-01-11T09:14:01Z</time>
      </trkpt>
      <trkpt lat="43.82674" lon="3.61443">
        <ele>182.31</ele>
        <time>2015-01-11T09:14:02Z</time>
      </trkpt>
      <trkpt lat="43.82672" lon="3.61438">
        <ele>182.79</ele>
        <time>2015-01-11T09:14:06Z</time>
      </trkpt>
      <trkpt lat="43.82669" lon="3.61429">
        <ele>183.27</ele>
        <time>2015-01-11T09:14:13Z</time>
      </trkpt>
      <trkpt lat="43.82668" lon="3.61424">
        <ele>181.35</ele>
        <time>2015-01-11T09:14:16Z</time>
      </trkpt>
      <trkpt lat="43.82667" lon="3.61423">
        <ele>184.71</ele>
        <time>2015-01-11T09:14:17Z</time>
      </trkpt>
      <trkpt lat="43.82667" lon="3.61421">
        <ele>183.27</ele>
        <time>2015-01-11T09:14:18Z</time>
      </trkpt>
      <trkpt lat="43.82663" lon="3.61409">
        <ele>180.38</ele>
        <time>2015-01-11T09:14:25Z</time>
      </trkpt>
      <trkpt lat="43.82662" lon="3.61408">
        <ele>183.75</ele>
        <time>2015-01-11T09:14:26Z</time>
      </trkpt>
      <trkpt lat="43.82661" lon="3.61406">
        <ele>183.27</ele>
        <time>2015-01-11T09:14:27Z</time>
      </trkpt>
      <trkpt lat="43.8266" lon="3.61403">
        <ele>181.83</ele>
        <time>2015-01-11T09:14:29Z</time>
      </trkpt>
      <trkpt lat="43.82658" lon="3.61399">
        <ele>183.75</ele>
        <time>2015-01-11T09:14:32Z</time>
      </trkpt>
      <trkpt lat="43.82646" lon="3.6138">
        <ele>184.23</ele>
        <time>2015-01-11T09:14:46Z</time>
      </trkpt>
      <trkpt lat="43.82644" lon="3.61379">
        <ele>182.31</ele>
        <time>2015-01-11T09:14:48Z</time>
      </trkpt>
      <trkpt lat="43.82643" lon="3.61378">
        <ele>186.15</ele>
        <time>2015-01-11T09:14:49Z</time>
      </trkpt>
      <trkpt lat="43.82642" lon="3.61378">
        <ele>184.23</ele>
        <time>2015-01-11T09:14:50Z</time>
      </trkpt>
      <trkpt lat="43.82636" lon="3.61367">
        <ele>183.27</ele>
        <time>2015-01-11T09:15:07Z</time>
      </trkpt>
      <trkpt lat="43.82634" lon="3.61359">
        <ele>185.19</ele>
        <time>2015-01-11T09:15:14Z</time>
      </trkpt>
      <trkpt lat="43.82635" lon="3.61348">
        <ele>189.04</ele>
        <time>2015-01-11T09:15:24Z</time>
      </trkpt>
      <trkpt lat="43.82635" lon="3.61347">
        <ele>184.23</ele>
        <time>2015-01-11T09:15:25Z</time>
      </trkpt>
      <trkpt lat="43.82635" lon="3.61346">
        <ele>186.15</ele>
        <time>2015-01-11T09:15:26Z</time>
      </trkpt>
      <trkpt lat="43.82636" lon="3.61341">
        <ele>187.11</ele>
        <time>2015-01-11T09:15:30Z</time>
      </trkpt>
      <trkpt lat="43.82638" lon="3.61326">
        <ele>188.08</ele>
        <time>2015-01-11T09:15:40Z</time>
      </trkpt>
      <trkpt lat="43.82639" lon="3.61325">
        <ele>187.11</ele>
        <time>2015-01-11T09:15:41Z</time>
      </trkpt>
      <trkpt lat="43.82643" lon="3.61305">
        <ele>190</ele>
        <time>2015-01-11T09:15:54Z</time>
      </trkpt>
      <trkpt lat="43.82643" lon="3.61304">
        <ele>189.52</ele>
        <time>2015-01-11T09:15:55Z</time>
      </trkpt>
      <trkpt lat="43.82644" lon="3.61299">
        <ele>190</ele>
        <time>2015-01-11T09:15:59Z</time>
      </trkpt>
      <trkpt lat="43.82644" lon="3.61293">
        <ele>189.52</ele>
        <time>2015-01-11T09:16:03Z</time>
      </trkpt>
      <trkpt lat="43.82645" lon="3.61287">
        <ele>190.96</ele>
        <time>2015-01-11T09:16:07Z</time>
      </trkpt>
      <trkpt lat="43.82646" lon="3.61283">
        <ele>192.4</ele>
        <time>2015-01-11T09:16:10Z</time>
      </trkpt>
      <trkpt lat="43.82646" lon="3.61279">
        <ele>189.04</ele>
        <time>2015-01-11T09:16:12Z</time>
      </trkpt>
      <trkpt lat="43.82646" lon="3.61276">
        <ele>192.88</ele>
        <time>2015-01-11T09:16:14Z</time>
      </trkpt>
      <trkpt lat="43.82646" lon="3.61274">
        <ele>191.44</ele>
        <time>2015-01-11T09:16:15Z</time>
      </trkpt>
      <trkpt lat="43.82648" lon="3.61267">
        <ele>194.8</ele>
        <time>2015-01-11T09:16:20Z</time>
      </trkpt>
      <trkpt lat="43.82649" lon="3.61264">
        <ele>190.96</ele>
        <time>2015-01-11T09:16:22Z</time>
      </trkpt>
      <trkpt lat="43.8265" lon="3.61262">
        <ele>191.44</ele>
        <time>2015-01-11T09:16:23Z</time>
      </trkpt>
      <trkpt lat="43.8265" lon="3.61261">
        <ele>195.28</ele>
        <time>2015-01-11T09:16:24Z</time>
      </trkpt>
      <trkpt lat="43.8265" lon="3.61259">
        <ele>192.4</ele>
        <time>2015-01-11T09:16:25Z</time>
      </trkpt>
      <trkpt lat="43.82651" lon="3.61255">
        <ele>196.25</ele>
        <time>2015-01-11T09:16:28Z</time>
      </trkpt>
      <trkpt lat="43.82651" lon="3.61253">
        <ele>192.88</ele>
        <time>2015-01-11T09:16:29Z</time>
      </trkpt>
      <trkpt lat="43.82651" lon="3.61245">
        <ele>195.77</ele>
        <time>2015-01-11T09:16:35Z</time>
      </trkpt>
      <trkpt lat="43.82652" lon="3.61242">
        <ele>192.4</ele>
        <time>2015-01-11T09:16:37Z</time>
      </trkpt>
      <trkpt lat="43.82653" lon="3.61238">
        <ele>196.73</ele>
        <time>2015-01-11T09:16:41Z</time>
      </trkpt>
      <trkpt lat="43.82655" lon="3.61235">
        <ele>194.32</ele>
        <time>2015-01-11T09:16:44Z</time>
      </trkpt>
      <trkpt lat="43.82661" lon="3.61223">
        <ele>198.65</ele>
        <time>2015-01-11T09:16:57Z</time>
      </trkpt>
      <trkpt lat="43.82663" lon="3.61202">
        <ele>197.69</ele>
        <time>2015-01-11T09:17:12Z</time>
      </trkpt>
      <trkpt lat="43.82662" lon="3.612">
        <ele>201.05</ele>
        <time>2015-01-11T09:17:13Z</time>
      </trkpt>
      <trkpt lat="43.82661" lon="3.61195">
        <ele>199.13</ele>
        <time>2015-01-11T09:17:16Z</time>
      </trkpt>
      <trkpt lat="43.8266" lon="3.61179">
        <ele>202.01</ele>
        <time>2015-01-11T09:17:31Z</time>
      </trkpt>
      <trkpt lat="43.8266" lon="3.61176">
        <ele>197.21</ele>
        <time>2015-01-11T09:17:33Z</time>
      </trkpt>
      <trkpt lat="43.82661" lon="3.61174">
        <ele>202.49</ele>
        <time>2015-01-11T09:17:34Z</time>
      </trkpt>
      <trkpt lat="43.8266" lon="3.61167">
        <ele>198.17</ele>
        <time>2015-01-11T09:17:40Z</time>
      </trkpt>
      <trkpt lat="43.82659" lon="3.61166">
        <ele>203.46</ele>
        <time>2015-01-11T09:17:41Z</time>
      </trkpt>
      <trkpt lat="43.82659" lon="3.61164">
        <ele>198.65</ele>
        <time>2015-01-11T09:17:43Z</time>
      </trkpt>
      <trkpt lat="43.82658" lon="3.61163">
        <ele>203.46</ele>
        <time>2015-01-11T09:17:44Z</time>
      </trkpt>
      <trkpt lat="43.82655" lon="3.61154">
        <ele>199.61</ele>
        <time>2015-01-11T09:17:51Z</time>
      </trkpt>
      <trkpt lat="43.82652" lon="3.61148">
        <ele>202.98</ele>
        <time>2015-01-11T09:17:56Z</time>
      </trkpt>
      <trkpt lat="43.82651" lon="3.61147">
        <ele>202.98</ele>
        <time>2015-01-11T09:17:57Z</time>
      </trkpt>
      <trkpt lat="43.82646" lon="3.61139">
        <ele>205.86</ele>
        <time>2015-01-11T09:18:03Z</time>
      </trkpt>
      <trkpt lat="43.82645" lon="3.61137">
        <ele>200.57</ele>
        <time>2015-01-11T09:18:05Z</time>
      </trkpt>
      <trkpt lat="43.82645" lon="3.61136">
        <ele>204.42</ele>
        <time>2015-01-11T09:18:06Z</time>
      </trkpt>
      <trkpt lat="43.8264" lon="3.6113">
        <ele>203.46</ele>
        <time>2015-01-11T09:18:13Z</time>
      </trkpt>
      <trkpt lat="43.82637" lon="3.61122">
        <ele>203.94</ele>
        <time>2015-01-11T09:18:20Z</time>
      </trkpt>
      <trkpt lat="43.82637" lon="3.6112">
        <ele>207.3</ele>
        <time>2015-01-11T09:18:21Z</time>
      </trkpt>
      <trkpt lat="43.82636" lon="3.61118">
        <ele>206.82</ele>
        <time>2015-01-11T09:18:22Z</time>
      </trkpt>
      <trkpt lat="43.82635" lon="3.61114">
        <ele>209.7</ele>
        <time>2015-01-11T09:18:25Z</time>
      </trkpt>
      <trkpt lat="43.82635" lon="3.61113">
        <ele>206.82</ele>
        <time>2015-01-11T09:18:26Z</time>
      </trkpt>
      <trkpt lat="43.82632" lon="3.61094">
        <ele>208.26</ele>
        <time>2015-01-11T09:18:38Z</time>
      </trkpt>
      <trkpt lat="43.82629" lon="3.61076">
        <ele>207.3</ele>
        <time>2015-01-11T09:18:49Z</time>
      </trkpt>
      <trkpt lat="43.82617" lon="3.61058">
        <ele>205.38</ele>
        <time>2015-01-11T09:19:04Z</time>
      </trkpt>
      <trkpt lat="43.82605" lon="3.61049">
        <ele>207.3</ele>
        <time>2015-01-11T09:19:16Z</time>
      </trkpt>
      <trkpt lat="43.826" lon="3.61039">
        <ele>203.94</ele>
        <time>2015-01-11T09:19:23Z</time>
      </trkpt>
      <trkpt lat="43.826" lon="3.61037">
        <ele>209.7</ele>
        <time>2015-01-11T09:19:24Z</time>
      </trkpt>
      <trkpt lat="43.826" lon="3.61032">
        <ele>204.42</ele>
        <time>2015-01-11T09:19:27Z</time>
      </trkpt>
      <trkpt lat="43.82599" lon="3.61031">
        <ele>210.67</ele>
        <time>2015-01-11T09:19:28Z</time>
      </trkpt>
      <trkpt lat="43.82599" lon="3.61029">
        <ele>210.19</ele>
        <time>2015-01-11T09:19:29Z</time>
      </trkpt>
      <trkpt lat="43.82599" lon="3.61025">
        <ele>207.78</ele>
        <time>2015-01-11T09:19:32Z</time>
      </trkpt>
      <trkpt lat="43.82598" lon="3.61025">
        <ele>211.63</ele>
        <time>2015-01-11T09:19:33Z</time>
      </trkpt>
      <trkpt lat="43.82598" lon="3.61024">
        <ele>212.11</ele>
        <time>2015-01-11T09:19:34Z</time>
      </trkpt>
      <trkpt lat="43.82597" lon="3.61023">
        <ele>210.19</ele>
        <time>2015-01-11T09:19:35Z</time>
      </trkpt>
      <trkpt lat="43.82596" lon="3.61021">
        <ele>206.82</ele>
        <time>2015-01-11T09:19:36Z</time>
      </trkpt>
      <trkpt lat="43.82595" lon="3.61021">
        <ele>214.03</ele>
        <time>2015-01-11T09:19:37Z</time>
      </trkpt>
      <trkpt lat="43.82594" lon="3.6102">
        <ele>209.22</ele>
        <time>2015-01-11T09:19:38Z</time>
      </trkpt>
      <trkpt lat="43.82591" lon="3.61019">
        <ele>214.03</ele>
        <time>2015-01-11T09:19:42Z</time>
      </trkpt>
      <trkpt lat="43.82591" lon="3.61019">
        <ele>210.67</ele>
        <time>2015-01-11T09:19:43Z</time>
      </trkpt>
      <trkpt lat="43.8259" lon="3.61018">
        <ele>206.82</ele>
        <time>2015-01-11T09:19:44Z</time>
      </trkpt>
      <trkpt lat="43.82589" lon="3.61017">
        <ele>214.03</ele>
        <time>2015-01-11T09:19:45Z</time>
      </trkpt>
      <trkpt lat="43.82588" lon="3.61016">
        <ele>213.07</ele>
        <time>2015-01-11T09:19:46Z</time>
      </trkpt>
      <trkpt lat="43.82587" lon="3.61015">
        <ele>210.19</ele>
        <time>2015-01-11T09:19:48Z</time>
      </trkpt>
      <trkpt lat="43.82584" lon="3.61012">
        <ele>211.15</ele>
        <time>2015-01-11T09:19:52Z</time>
      </trkpt>
      <trkpt lat="43.82581" lon="3.61009">
        <ele>210.19</ele>
        <time>2015-01-11T09:19:56Z</time>
      </trkpt>
      <trkpt lat="43.82569" lon="3.61">
        <ele>209.22</ele>
        <time>2015-01-11T09:20:10Z</time>
      </trkpt>
      <trkpt lat="43.82563" lon="3.60993">
        <ele>210.19</ele>
        <time>2015-01-11T09:20:17Z</time>
      </trkpt>
      <trkpt lat="43.82561" lon="3.6099">
        <ele>209.22</ele>
        <time>2015-01-11T09:20:19Z</time>
      </trkpt>
      <trkpt lat="43.82547" lon="3.60972">
        <ele>209.22</ele>
        <time>2015-01-11T09:20:34Z</time>
      </trkpt>
      <trkpt lat="43.82544" lon="3.6097">
        <ele>208.26</ele>
        <time>2015-01-11T09:20:37Z</time>
      </trkpt>
      <trkpt lat="43.8253" lon="3.60975">
        <ele>212.59</ele>
        <time>2015-01-11T09:20:51Z</time>
      </trkpt>
      <trkpt lat="43.82528" lon="3.60974">
        <ele>209.22</ele>
        <time>2015-01-11T09:20:53Z</time>
      </trkpt>
      <trkpt lat="43.82524" lon="3.60974">
        <ele>214.03</ele>
        <time>2015-01-11T09:20:57Z</time>
      </trkpt>
      <trkpt lat="43.82524" lon="3.60974">
        <ele>213.07</ele>
        <time>2015-01-11T09:20:58Z</time>
      </trkpt>
      <trkpt lat="43.82518" lon="3.60971">
        <ele>209.22</ele>
        <time>2015-01-11T09:21:04Z</time>
      </trkpt>
      <trkpt lat="43.82518" lon="3.6097">
        <ele>216.91</ele>
        <time>2015-01-11T09:21:05Z</time>
      </trkpt>
      <trkpt lat="43.82517" lon="3.6097">
        <ele>214.03</ele>
        <time>2015-01-11T09:21:06Z</time>
      </trkpt>
      <trkpt lat="43.82516" lon="3.60969">
        <ele>211.15</ele>
        <time>2015-01-11T09:21:07Z</time>
      </trkpt>
      <trkpt lat="43.82513" lon="3.60969">
        <ele>216.91</ele>
        <time>2015-01-11T09:21:09Z</time>
      </trkpt>
      <trkpt lat="43.8251" lon="3.60965">
        <ele>217.4</ele>
        <time>2015-01-11T09:21:13Z</time>
      </trkpt>
      <trkpt lat="43.82508" lon="3.60964">
        <ele>213.07</ele>
        <time>2015-01-11T09:21:15Z</time>
      </trkpt>
      <trkpt lat="43.82507" lon="3.60964">
        <ele>216.43</ele>
        <time>2015-01-11T09:21:16Z</time>
      </trkpt>
      <trkpt lat="43.82504" lon="3.60963">
        <ele>220.76</ele>
        <time>2015-01-11T09:21:20Z</time>
      </trkpt>
      <trkpt lat="43.82502" lon="3.60963">
        <ele>217.4</ele>
        <time>2015-01-11T09:21:22Z</time>
      </trkpt>
      <trkpt lat="43.82502" lon="3.60963">
        <ele>217.4</ele>
        <time>2015-01-11T09:21:23Z</time>
      </trkpt>
      <trkpt lat="43.82501" lon="3.60962">
        <ele>220.76</ele>
        <time>2015-01-11T09:21:24Z</time>
      </trkpt>
      <trkpt lat="43.825" lon="3.60962">
        <ele>219.32</ele>
        <time>2015-01-11T09:21:25Z</time>
      </trkpt>
      <trkpt lat="43.825" lon="3.60962">
        <ele>216.43</ele>
        <time>2015-01-11T09:21:26Z</time>
      </trkpt>
      <trkpt lat="43.82499" lon="3.60961">
        <ele>222.68</ele>
        <time>2015-01-11T09:21:27Z</time>
      </trkpt>
      <trkpt lat="43.82498" lon="3.6096">
        <ele>214.51</ele>
        <time>2015-01-11T09:21:29Z</time>
      </trkpt>
      <trkpt lat="43.82497" lon="3.60959">
        <ele>221.72</ele>
        <time>2015-01-11T09:21:30Z</time>
      </trkpt>
      <trkpt lat="43.82496" lon="3.60958">
        <ele>221.24</ele>
        <time>2015-01-11T09:21:31Z</time>
      </trkpt>
      <trkpt lat="43.82494" lon="3.60957">
        <ele>217.88</ele>
        <time>2015-01-11T09:21:33Z</time>
      </trkpt>
      <trkpt lat="43.82494" lon="3.60956">
        <ele>223.16</ele>
        <time>2015-01-11T09:21:34Z</time>
      </trkpt>
      <trkpt lat="43.82492" lon="3.60954">
        <ele>219.32</ele>
        <time>2015-01-11T09:21:36Z</time>
      </trkpt>
      <trkpt lat="43.82491" lon="3.60953">
        <ele>223.64</ele>
        <time>2015-01-11T09:21:38Z</time>
      </trkpt>
      <trkpt lat="43.8249" lon="3.60951">
        <ele>218.84</ele>
        <time>2015-01-11T09:21:40Z</time>
      </trkpt>
      <trkpt lat="43.82489" lon="3.6095">
        <ele>223.64</ele>
        <time>2015-01-11T09:21:41Z</time>
      </trkpt>
      <trkpt lat="43.82488" lon="3.60945">
        <ele>220.76</ele>
        <time>2015-01-11T09:21:44Z</time>
      </trkpt>
      <trkpt lat="43.82485" lon="3.60943">
        <ele>225.57</ele>
        <time>2015-01-11T09:21:48Z</time>
      </trkpt>
      <trkpt lat="43.82484" lon="3.60943">
        <ele>220.28</ele>
        <time>2015-01-11T09:21:50Z</time>
      </trkpt>
      <trkpt lat="43.82483" lon="3.60943">
        <ele>228.45</ele>
        <time>2015-01-11T09:21:51Z</time>
      </trkpt>
      <trkpt lat="43.82482" lon="3.60943">
        <ele>224.12</ele>
        <time>2015-01-11T09:21:52Z</time>
      </trkpt>
      <trkpt lat="43.82479" lon="3.60941">
        <ele>228.93</ele>
        <time>2015-01-11T09:21:58Z</time>
      </trkpt>
      <trkpt lat="43.82478" lon="3.60941">
        <ele>225.09</ele>
        <time>2015-01-11T09:21:59Z</time>
      </trkpt>
      <trkpt lat="43.82476" lon="3.60939">
        <ele>229.41</ele>
        <time>2015-01-11T09:22:02Z</time>
      </trkpt>
      <trkpt lat="43.82475" lon="3.60938">
        <ele>224.61</ele>
        <time>2015-01-11T09:22:03Z</time>
      </trkpt>
      <trkpt lat="43.82474" lon="3.60937">
        <ele>228.45</ele>
        <time>2015-01-11T09:22:05Z</time>
      </trkpt>
      <trkpt lat="43.82473" lon="3.60936">
        <ele>227.97</ele>
        <time>2015-01-11T09:22:06Z</time>
      </trkpt>
      <trkpt lat="43.82467" lon="3.60927">
        <ele>231.81</ele>
        <time>2015-01-11T09:22:16Z</time>
      </trkpt>
      <trkpt lat="43.82465" lon="3.60925">
        <ele>227.49</ele>
        <time>2015-01-11T09:22:18Z</time>
      </trkpt>
      <trkpt lat="43.82464" lon="3.60922">
        <ele>233.26</ele>
        <time>2015-01-11T09:22:20Z</time>
      </trkpt>
      <trkpt lat="43.82462" lon="3.60912">
        <ele>227.97</ele>
        <time>2015-01-11T09:22:28Z</time>
      </trkpt>
      <trkpt lat="43.82459" lon="3.60907">
        <ele>231.81</ele>
        <time>2015-01-11T09:22:33Z</time>
      </trkpt>
      <trkpt lat="43.82459" lon="3.60905">
        <ele>230.37</ele>
        <time>2015-01-11T09:22:34Z</time>
      </trkpt>
      <trkpt lat="43.82456" lon="3.60895">
        <ele>231.33</ele>
        <time>2015-01-11T09:22:41Z</time>
      </trkpt>
      <trkpt lat="43.82455" lon="3.60891">
        <ele>229.41</ele>
        <time>2015-01-11T09:22:44Z</time>
      </trkpt>
      <trkpt lat="43.82452" lon="3.60884">
        <ele>233.26</ele>
        <time>2015-01-11T09:22:50Z</time>
      </trkpt>
      <trkpt lat="43.82452" lon="3.60879">
        <ele>229.89</ele>
        <time>2015-01-11T09:22:53Z</time>
      </trkpt>
      <trkpt lat="43.82453" lon="3.60878">
        <ele>234.22</ele>
        <time>2015-01-11T09:22:54Z</time>
      </trkpt>
      <trkpt lat="43.82453" lon="3.60876">
        <ele>231.81</ele>
        <time>2015-01-11T09:22:55Z</time>
      </trkpt>
      <trkpt lat="43.82453" lon="3.60873">
        <ele>228.45</ele>
        <time>2015-01-11T09:22:57Z</time>
      </trkpt>
      <trkpt lat="43.82453" lon="3.60871">
        <ele>232.3</ele>
        <time>2015-01-11T09:22:58Z</time>
      </trkpt>
      <trkpt lat="43.82453" lon="3.6087">
        <ele>231.81</ele>
        <time>2015-01-11T09:22:59Z</time>
      </trkpt>
      <trkpt lat="43.82454" lon="3.6085">
        <ele>233.26</ele>
        <time>2015-01-11T09:23:14Z</time>
      </trkpt>
      <trkpt lat="43.82456" lon="3.60847">
        <ele>232.78</ele>
        <time>2015-01-11T09:23:37Z</time>
      </trkpt>
      <trkpt lat="43.82458" lon="3.60846">
        <ele>232.3</ele>
        <time>2015-01-11T09:24:03Z</time>
      </trkpt>
      <trkpt lat="43.82457" lon="3.60845">
        <ele>228.45</ele>
        <time>2015-01-11T09:24:20Z</time>
      </trkpt>
      <trkpt lat="43.82457" lon="3.60844">
        <ele>233.74</ele>
        <time>2015-01-11T09:24:21Z</time>
      </trkpt>
      <trkpt lat="43.82457" lon="3.60843">
        <ele>230.37</ele>
        <time>2015-01-11T09:24:23Z</time>
      </trkpt>
      <trkpt lat="43.82458" lon="3.60842">
        <ele>232.3</ele>
        <time>2015-01-11T09:24:24Z</time>
      </trkpt>
      <trkpt lat="43.82455" lon="3.60835">
        <ele>233.74</ele>
        <time>2015-01-11T09:24:33Z</time>
      </trkpt>
      <trkpt lat="43.82453" lon="3.60829">
        <ele>237.58</ele>
        <time>2015-01-11T09:24:41Z</time>
      </trkpt>
      <trkpt lat="43.82452" lon="3.60828">
        <ele>233.74</ele>
        <time>2015-01-11T09:24:43Z</time>
      </trkpt>
      <trkpt lat="43.82451" lon="3.60826">
        <ele>237.1</ele>
        <time>2015-01-11T09:24:45Z</time>
      </trkpt>
      <trkpt lat="43.8245" lon="3.60824">
        <ele>233.74</ele>
        <time>2015-01-11T09:24:47Z</time>
      </trkpt>
      <trkpt lat="43.8245" lon="3.60823">
        <ele>238.54</ele>
        <time>2015-01-11T09:24:48Z</time>
      </trkpt>
      <trkpt lat="43.82448" lon="3.60821">
        <ele>235.18</ele>
        <time>2015-01-11T09:24:50Z</time>
      </trkpt>
      <trkpt lat="43.82448" lon="3.60821">
        <ele>235.66</ele>
        <time>2015-01-11T09:24:51Z</time>
      </trkpt>
      <trkpt lat="43.82446" lon="3.60819">
        <ele>237.58</ele>
        <time>2015-01-11T09:24:53Z</time>
      </trkpt>
      <trkpt lat="43.82441" lon="3.60807">
        <ele>240.47</ele>
        <time>2015-01-11T09:25:06Z</time>
      </trkpt>
      <trkpt lat="43.8244" lon="3.60805">
        <ele>237.58</ele>
        <time>2015-01-11T09:25:08Z</time>
      </trkpt>
      <trkpt lat="43.82439" lon="3.60804">
        <ele>240.95</ele>
        <time>2015-01-11T09:25:09Z</time>
      </trkpt>
      <trkpt lat="43.82439" lon="3.60802">
        <ele>240.47</ele>
        <time>2015-01-11T09:25:10Z</time>
      </trkpt>
      <trkpt lat="43.82437" lon="3.60798">
        <ele>241.43</ele>
        <time>2015-01-11T09:25:14Z</time>
      </trkpt>
      <trkpt lat="43.82436" lon="3.60797">
        <ele>237.58</ele>
        <time>2015-01-11T09:25:15Z</time>
      </trkpt>
      <trkpt lat="43.82436" lon="3.60797">
        <ele>242.39</ele>
        <time>2015-01-11T09:25:16Z</time>
      </trkpt>
      <trkpt lat="43.82435" lon="3.60795">
        <ele>239.51</ele>
        <time>2015-01-11T09:25:18Z</time>
      </trkpt>
      <trkpt lat="43.82434" lon="3.60792">
        <ele>244.31</ele>
        <time>2015-01-11T09:25:22Z</time>
      </trkpt>
      <trkpt lat="43.82433" lon="3.6079">
        <ele>239.02</ele>
        <time>2015-01-11T09:25:24Z</time>
      </trkpt>
      <trkpt lat="43.82433" lon="3.60789">
        <ele>244.79</ele>
        <time>2015-01-11T09:25:25Z</time>
      </trkpt>
      <trkpt lat="43.82433" lon="3.60789">
        <ele>241.43</ele>
        <time>2015-01-11T09:25:26Z</time>
      </trkpt>
      <trkpt lat="43.82432" lon="3.60788">
        <ele>244.31</ele>
        <time>2015-01-11T09:25:28Z</time>
      </trkpt>
      <trkpt lat="43.82431" lon="3.60787">
        <ele>239.02</ele>
        <time>2015-01-11T09:25:29Z</time>
      </trkpt>
      <trkpt lat="43.82431" lon="3.60786">
        <ele>246.23</ele>
        <time>2015-01-11T09:25:30Z</time>
      </trkpt>
      <trkpt lat="43.8243" lon="3.60785">
        <ele>243.35</ele>
        <time>2015-01-11T09:25:31Z</time>
      </trkpt>
      <trkpt lat="43.8243" lon="3.60783">
        <ele>246.72</ele>
        <time>2015-01-11T09:25:33Z</time>
      </trkpt>
      <trkpt lat="43.8243" lon="3.60782">
        <ele>243.35</ele>
        <time>2015-01-11T09:25:34Z</time>
      </trkpt>
      <trkpt lat="43.8243" lon="3.6078">
        <ele>240.47</ele>
        <time>2015-01-11T09:25:35Z</time>
      </trkpt>
      <trkpt lat="43.82429" lon="3.60779">
        <ele>246.72</ele>
        <time>2015-01-11T09:25:36Z</time>
      </trkpt>
      <trkpt lat="43.82429" lon="3.60778">
        <ele>243.35</ele>
        <time>2015-01-11T09:25:37Z</time>
      </trkpt>
      <trkpt lat="43.82427" lon="3.60775">
        <ele>239.99</ele>
        <time>2015-01-11T09:25:41Z</time>
      </trkpt>
      <trkpt lat="43.82426" lon="3.60774">
        <ele>245.75</ele>
        <time>2015-01-11T09:25:42Z</time>
      </trkpt>
      <trkpt lat="43.82425" lon="3.60773">
        <ele>245.27</ele>
        <time>2015-01-11T09:25:43Z</time>
      </trkpt>
      <trkpt lat="43.82425" lon="3.60772">
        <ele>241.43</ele>
        <time>2015-01-11T09:25:44Z</time>
      </trkpt>
      <trkpt lat="43.82424" lon="3.60771">
        <ele>244.79</ele>
        <time>2015-01-11T09:25:45Z</time>
      </trkpt>
      <trkpt lat="43.82421" lon="3.60766">
        <ele>240.95</ele>
        <time>2015-01-11T09:25:50Z</time>
      </trkpt>
      <trkpt lat="43.82421" lon="3.60765">
        <ele>248.64</ele>
        <time>2015-01-11T09:25:51Z</time>
      </trkpt>
      <trkpt lat="43.8242" lon="3.60764">
        <ele>245.27</ele>
        <time>2015-01-11T09:25:52Z</time>
      </trkpt>
      <trkpt lat="43.82419" lon="3.60763">
        <ele>249.6</ele>
        <time>2015-01-11T09:25:54Z</time>
      </trkpt>
      <trkpt lat="43.82418" lon="3.60762">
        <ele>245.75</ele>
        <time>2015-01-11T09:25:55Z</time>
      </trkpt>
      <trkpt lat="43.82418" lon="3.60761">
        <ele>249.12</ele>
        <time>2015-01-11T09:25:56Z</time>
      </trkpt>
      <trkpt lat="43.82417" lon="3.6076">
        <ele>245.27</ele>
        <time>2015-01-11T09:25:58Z</time>
      </trkpt>
      <trkpt lat="43.82415" lon="3.60755">
        <ele>250.08</ele>
        <time>2015-01-11T09:26:05Z</time>
      </trkpt>
      <trkpt lat="43.82414" lon="3.60753">
        <ele>246.23</ele>
        <time>2015-01-11T09:26:07Z</time>
      </trkpt>
      <trkpt lat="43.82414" lon="3.60752">
        <ele>251.04</ele>
        <time>2015-01-11T09:26:08Z</time>
      </trkpt>
      <trkpt lat="43.82414" lon="3.60751">
        <ele>247.68</ele>
        <time>2015-01-11T09:26:09Z</time>
      </trkpt>
      <trkpt lat="43.82413" lon="3.60749">
        <ele>251.04</ele>
        <time>2015-01-11T09:26:11Z</time>
      </trkpt>
      <trkpt lat="43.82412" lon="3.60747">
        <ele>245.75</ele>
        <time>2015-01-11T09:26:13Z</time>
      </trkpt>
      <trkpt lat="43.82412" lon="3.60746">
        <ele>252</ele>
        <time>2015-01-11T09:26:14Z</time>
      </trkpt>
      <trkpt lat="43.82411" lon="3.60744">
        <ele>247.2</ele>
        <time>2015-01-11T09:26:15Z</time>
      </trkpt>
      <trkpt lat="43.8241" lon="3.60742">
        <ele>251.04</ele>
        <time>2015-01-11T09:26:17Z</time>
      </trkpt>
      <trkpt lat="43.8241" lon="3.60741">
        <ele>249.12</ele>
        <time>2015-01-11T09:26:18Z</time>
      </trkpt>
      <trkpt lat="43.82408" lon="3.60737">
        <ele>255.37</ele>
        <time>2015-01-11T09:26:22Z</time>
      </trkpt>
      <trkpt lat="43.82408" lon="3.60736">
        <ele>250.56</ele>
        <time>2015-01-11T09:26:23Z</time>
      </trkpt>
      <trkpt lat="43.82408" lon="3.60735">
        <ele>247.2</ele>
        <time>2015-01-11T09:26:24Z</time>
      </trkpt>
      <trkpt lat="43.82407" lon="3.60734">
        <ele>252</ele>
        <time>2015-01-11T09:26:25Z</time>
      </trkpt>
      <trkpt lat="43.82404" lon="3.6073">
        <ele>248.64</ele>
        <time>2015-01-11T09:26:30Z</time>
      </trkpt>
      <trkpt lat="43.82404" lon="3.60729">
        <ele>254.89</ele>
        <time>2015-01-11T09:26:31Z</time>
      </trkpt>
      <trkpt lat="43.82402" lon="3.60726">
        <ele>252</ele>
        <time>2015-01-11T09:26:34Z</time>
      </trkpt>
      <trkpt lat="43.824" lon="3.60722">
        <ele>255.37</ele>
        <time>2015-01-11T09:26:38Z</time>
      </trkpt>
      <trkpt lat="43.824" lon="3.60721">
        <ele>253.44</ele>
        <time>2015-01-11T09:26:39Z</time>
      </trkpt>
      <trkpt lat="43.82399" lon="3.60719">
        <ele>256.81</ele>
        <time>2015-01-11T09:26:41Z</time>
      </trkpt>
      <trkpt lat="43.82399" lon="3.60718">
        <ele>253.44</ele>
        <time>2015-01-11T09:26:42Z</time>
      </trkpt>
      <trkpt lat="43.82398" lon="3.60715">
        <ele>257.29</ele>
        <time>2015-01-11T09:26:44Z</time>
      </trkpt>
      <trkpt lat="43.82397" lon="3.60714">
        <ele>253.44</ele>
        <time>2015-01-11T09:26:45Z</time>
      </trkpt>
      <trkpt lat="43.82395" lon="3.60709">
        <ele>256.33</ele>
        <time>2015-01-11T09:26:50Z</time>
      </trkpt>
      <trkpt lat="43.82391" lon="3.60698">
        <ele>261.14</ele>
        <time>2015-01-11T09:27:04Z</time>
      </trkpt>
      <trkpt lat="43.82391" lon="3.60698">
        <ele>256.81</ele>
        <time>2015-01-11T09:27:05Z</time>
      </trkpt>
      <trkpt lat="43.82386" lon="3.60687">
        <ele>261.62</ele>
        <time>2015-01-11T09:27:15Z</time>
      </trkpt>
      <trkpt lat="43.82385" lon="3.60685">
        <ele>255.85</ele>
        <time>2015-01-11T09:27:17Z</time>
      </trkpt>
      <trkpt lat="43.82385" lon="3.60684">
        <ele>260.65</ele>
        <time>2015-01-11T09:27:18Z</time>
      </trkpt>
      <trkpt lat="43.82383" lon="3.60672">
        <ele>261.14</ele>
        <time>2015-01-11T09:27:29Z</time>
      </trkpt>
      <trkpt lat="43.82379" lon="3.60664">
        <ele>264.5</ele>
        <time>2015-01-11T09:27:37Z</time>
      </trkpt>
      <trkpt lat="43.82379" lon="3.60663">
        <ele>262.58</ele>
        <time>2015-01-11T09:27:38Z</time>
      </trkpt>
      <trkpt lat="43.82377" lon="3.60656">
        <ele>262.58</ele>
        <time>2015-01-11T09:27:43Z</time>
      </trkpt>
      <trkpt lat="43.82377" lon="3.60654">
        <ele>264.5</ele>
        <time>2015-01-11T09:27:45Z</time>
      </trkpt>
      <trkpt lat="43.82375" lon="3.60648">
        <ele>263.54</ele>
        <time>2015-01-11T09:27:50Z</time>
      </trkpt>
      <trkpt lat="43.82375" lon="3.60647">
        <ele>266.42</ele>
        <time>2015-01-11T09:27:51Z</time>
      </trkpt>
      <trkpt lat="43.82375" lon="3.60645">
        <ele>264.98</ele>
        <time>2015-01-11T09:27:52Z</time>
      </trkpt>
      <trkpt lat="43.82374" lon="3.60643">
        <ele>264.02</ele>
        <time>2015-01-11T09:27:54Z</time>
      </trkpt>
      <trkpt lat="43.82373" lon="3.60643">
        <ele>266.9</ele>
        <time>2015-01-11T09:27:55Z</time>
      </trkpt>
      <trkpt lat="43.82372" lon="3.60635">
        <ele>262.58</ele>
        <time>2015-01-11T09:28:04Z</time>
      </trkpt>
      <trkpt lat="43.82373" lon="3.60634">
        <ele>269.31</ele>
        <time>2015-01-11T09:28:05Z</time>
      </trkpt>
      <trkpt lat="43.82372" lon="3.60633">
        <ele>264.5</ele>
        <time>2015-01-11T09:28:06Z</time>
      </trkpt>
      <trkpt lat="43.82371" lon="3.60631">
        <ele>268.83</ele>
        <time>2015-01-11T09:28:08Z</time>
      </trkpt>
      <trkpt lat="43.82371" lon="3.60631">
        <ele>265.94</ele>
        <time>2015-01-11T09:28:09Z</time>
      </trkpt>
      <trkpt lat="43.8237" lon="3.60626">
        <ele>267.38</ele>
        <time>2015-01-11T09:28:28Z</time>
      </trkpt>
      <trkpt lat="43.82377" lon="3.60629">
        <ele>270.75</ele>
        <time>2015-01-11T09:28:40Z</time>
      </trkpt>
      <trkpt lat="43.82379" lon="3.6063">
        <ele>265.46</ele>
        <time>2015-01-11T09:28:42Z</time>
      </trkpt>
      <trkpt lat="43.82379" lon="3.6063">
        <ele>271.23</ele>
        <time>2015-01-11T09:28:43Z</time>
      </trkpt>
      <trkpt lat="43.8238" lon="3.6063">
        <ele>269.79</ele>
        <time>2015-01-11T09:28:44Z</time>
      </trkpt>
      <trkpt lat="43.8239" lon="3.60631">
        <ele>272.67</ele>
        <time>2015-01-11T09:28:55Z</time>
      </trkpt>
      <trkpt lat="43.82398" lon="3.60633">
        <ele>276.04</ele>
        <time>2015-01-11T09:29:05Z</time>
      </trkpt>
      <trkpt lat="43.82399" lon="3.60632">
        <ele>273.15</ele>
        <time>2015-01-11T09:29:07Z</time>
      </trkpt>
      <trkpt lat="43.82401" lon="3.60632">
        <ele>277</ele>
        <time>2015-01-11T09:29:09Z</time>
      </trkpt>
      <trkpt lat="43.82402" lon="3.60632">
        <ele>273.63</ele>
        <time>2015-01-11T09:29:11Z</time>
      </trkpt>
      <trkpt lat="43.82403" lon="3.60631">
        <ele>277.96</ele>
        <time>2015-01-11T09:29:12Z</time>
      </trkpt>
      <trkpt lat="43.82404" lon="3.6063">
        <ele>275.56</ele>
        <time>2015-01-11T09:29:13Z</time>
      </trkpt>
      <trkpt lat="43.82405" lon="3.60626">
        <ele>277.48</ele>
        <time>2015-01-11T09:29:18Z</time>
      </trkpt>
      <trkpt lat="43.8241" lon="3.60624">
        <ele>276.04</ele>
        <time>2015-01-11T09:29:32Z</time>
      </trkpt>
      <trkpt lat="43.82411" lon="3.60623">
        <ele>280.36</ele>
        <time>2015-01-11T09:29:33Z</time>
      </trkpt>
      <trkpt lat="43.82411" lon="3.60623">
        <ele>277.96</ele>
        <time>2015-01-11T09:29:34Z</time>
      </trkpt>
      <trkpt lat="43.8241" lon="3.60614">
        <ele>281.32</ele>
        <time>2015-01-11T09:29:42Z</time>
      </trkpt>
      <trkpt lat="43.82412" lon="3.6061">
        <ele>280.36</ele>
        <time>2015-01-11T09:29:46Z</time>
      </trkpt>
      <trkpt lat="43.82413" lon="3.60609">
        <ele>284.21</ele>
        <time>2015-01-11T09:29:48Z</time>
      </trkpt>
      <trkpt lat="43.82413" lon="3.60608">
        <ele>280.84</ele>
        <time>2015-01-11T09:29:49Z</time>
      </trkpt>
      <trkpt lat="43.82415" lon="3.60597">
        <ele>285.65</ele>
        <time>2015-01-11T09:29:59Z</time>
      </trkpt>
      <trkpt lat="43.82415" lon="3.60596">
        <ele>281.32</ele>
        <time>2015-01-11T09:30:00Z</time>
      </trkpt>
      <trkpt lat="43.82415" lon="3.60591">
        <ele>284.69</ele>
        <time>2015-01-11T09:30:04Z</time>
      </trkpt>
      <trkpt lat="43.82415" lon="3.6059">
        <ele>281.8</ele>
        <time>2015-01-11T09:30:05Z</time>
      </trkpt>
      <trkpt lat="43.82416" lon="3.60586">
        <ele>286.13</ele>
        <time>2015-01-11T09:30:11Z</time>
      </trkpt>
      <trkpt lat="43.82417" lon="3.60584">
        <ele>282.28</ele>
        <time>2015-01-11T09:30:13Z</time>
      </trkpt>
      <trkpt lat="43.82418" lon="3.60582">
        <ele>285.65</ele>
        <time>2015-01-11T09:30:15Z</time>
      </trkpt>
      <trkpt lat="43.82418" lon="3.60581">
        <ele>282.28</ele>
        <time>2015-01-11T09:30:16Z</time>
      </trkpt>
      <trkpt lat="43.82418" lon="3.6058">
        <ele>286.61</ele>
        <time>2015-01-11T09:30:17Z</time>
      </trkpt>
      <trkpt lat="43.82419" lon="3.6058">
        <ele>282.77</ele>
        <time>2015-01-11T09:30:18Z</time>
      </trkpt>
      <trkpt lat="43.82419" lon="3.60579">
        <ele>286.61</ele>
        <time>2015-01-11T09:30:19Z</time>
      </trkpt>
      <trkpt lat="43.8242" lon="3.60579">
        <ele>283.25</ele>
        <time>2015-01-11T09:30:21Z</time>
      </trkpt>
      <trkpt lat="43.8242" lon="3.60578">
        <ele>286.61</ele>
        <time>2015-01-11T09:30:22Z</time>
      </trkpt>
      <trkpt lat="43.82421" lon="3.60577">
        <ele>283.25</ele>
        <time>2015-01-11T09:30:24Z</time>
      </trkpt>
      <trkpt lat="43.82422" lon="3.60577">
        <ele>286.61</ele>
        <time>2015-01-11T09:30:25Z</time>
      </trkpt>
      <trkpt lat="43.82431" lon="3.60568">
        <ele>289.97</ele>
        <time>2015-01-11T09:30:39Z</time>
      </trkpt>
      <trkpt lat="43.82433" lon="3.60567">
        <ele>284.21</ele>
        <time>2015-01-11T09:30:41Z</time>
      </trkpt>
      <trkpt lat="43.82434" lon="3.60567">
        <ele>289.49</ele>
        <time>2015-01-11T09:30:42Z</time>
      </trkpt>
      <trkpt lat="43.82449" lon="3.6056">
        <ele>288.53</ele>
        <time>2015-01-11T09:30:59Z</time>
      </trkpt>
      <trkpt lat="43.82463" lon="3.60558">
        <ele>288.53</ele>
        <time>2015-01-11T09:31:13Z</time>
      </trkpt>
      <trkpt lat="43.82469" lon="3.60558">
        <ele>292.38</ele>
        <time>2015-01-11T09:31:19Z</time>
      </trkpt>
      <trkpt lat="43.82471" lon="3.60558">
        <ele>289.01</ele>
        <time>2015-01-11T09:31:21Z</time>
      </trkpt>
      <trkpt lat="43.82471" lon="3.60558">
        <ele>293.34</ele>
        <time>2015-01-11T09:31:22Z</time>
      </trkpt>
      <trkpt lat="43.82472" lon="3.60558">
        <ele>289.97</ele>
        <time>2015-01-11T09:31:23Z</time>
      </trkpt>
      <trkpt lat="43.82474" lon="3.60558">
        <ele>293.34</ele>
        <time>2015-01-11T09:31:25Z</time>
      </trkpt>
      <trkpt lat="43.82475" lon="3.60558">
        <ele>291.42</ele>
        <time>2015-01-11T09:31:26Z</time>
      </trkpt>
      <trkpt lat="43.8248" lon="3.60557">
        <ele>290.94</ele>
        <time>2015-01-11T09:31:31Z</time>
      </trkpt>
      <trkpt lat="43.82482" lon="3.60558">
        <ele>292.86</ele>
        <time>2015-01-11T09:31:33Z</time>
      </trkpt>
      <trkpt lat="43.8249" lon="3.60557">
        <ele>289.97</ele>
        <time>2015-01-11T09:31:44Z</time>
      </trkpt>
      <trkpt lat="43.8249" lon="3.60556">
        <ele>294.78</ele>
        <time>2015-01-11T09:31:45Z</time>
      </trkpt>
      <trkpt lat="43.82504" lon="3.60551">
        <ele>293.82</ele>
        <time>2015-01-11T09:32:00Z</time>
      </trkpt>
      <trkpt lat="43.82514" lon="3.60534">
        <ele>297.18</ele>
        <time>2015-01-11T09:32:16Z</time>
      </trkpt>
      <trkpt lat="43.8252" lon="3.60515">
        <ele>297.18</ele>
        <time>2015-01-11T09:32:32Z</time>
      </trkpt>
      <trkpt lat="43.82521" lon="3.60513">
        <ele>299.59</ele>
        <time>2015-01-11T09:32:35Z</time>
      </trkpt>
      <trkpt lat="43.82523" lon="3.6051">
        <ele>299.59</ele>
        <time>2015-01-11T09:32:39Z</time>
      </trkpt>
      <trkpt lat="43.82526" lon="3.605">
        <ele>302.47</ele>
        <time>2015-01-11T09:32:50Z</time>
      </trkpt>
      <trkpt lat="43.82526" lon="3.60499">
        <ele>301.51</ele>
        <time>2015-01-11T09:32:51Z</time>
      </trkpt>
      <trkpt lat="43.82526" lon="3.60496">
        <ele>300.55</ele>
        <time>2015-01-11T09:32:53Z</time>
      </trkpt>
      <trkpt lat="43.82526" lon="3.60495">
        <ele>303.91</ele>
        <time>2015-01-11T09:32:54Z</time>
      </trkpt>
      <trkpt lat="43.82525" lon="3.60494">
        <ele>300.07</ele>
        <time>2015-01-11T09:32:55Z</time>
      </trkpt>
      <trkpt lat="43.82526" lon="3.60492">
        <ele>303.91</ele>
        <time>2015-01-11T09:32:57Z</time>
      </trkpt>
      <trkpt lat="43.82526" lon="3.60492">
        <ele>301.99</ele>
        <time>2015-01-11T09:32:58Z</time>
      </trkpt>
      <trkpt lat="43.82529" lon="3.60491">
        <ele>305.84</ele>
        <time>2015-01-11T09:33:03Z</time>
      </trkpt>
      <trkpt lat="43.8253" lon="3.60491">
        <ele>301.99</ele>
        <time>2015-01-11T09:33:05Z</time>
      </trkpt>
      <trkpt lat="43.8253" lon="3.60491">
        <ele>306.32</ele>
        <time>2015-01-11T09:33:06Z</time>
      </trkpt>
      <trkpt lat="43.8253" lon="3.60491">
        <ele>301.51</ele>
        <time>2015-01-11T09:33:07Z</time>
      </trkpt>
      <trkpt lat="43.82531" lon="3.60491">
        <ele>304.88</ele>
        <time>2015-01-11T09:33:08Z</time>
      </trkpt>
      <trkpt lat="43.82529" lon="3.60479">
        <ele>307.28</ele>
        <time>2015-01-11T09:33:25Z</time>
      </trkpt>
      <trkpt lat="43.82529" lon="3.60478">
        <ele>303.43</ele>
        <time>2015-01-11T09:33:26Z</time>
      </trkpt>
      <trkpt lat="43.82529" lon="3.60477">
        <ele>307.28</ele>
        <time>2015-01-11T09:33:27Z</time>
      </trkpt>
      <trkpt lat="43.82533" lon="3.60473">
        <ele>313.05</ele>
        <time>2015-01-11T09:33:35Z</time>
      </trkpt>
      <trkpt lat="43.82534" lon="3.60473">
        <ele>308.72</ele>
        <time>2015-01-11T09:33:36Z</time>
      </trkpt>
      <trkpt lat="43.8254" lon="3.60467">
        <ele>312.09</ele>
        <time>2015-01-11T09:33:49Z</time>
      </trkpt>
      <trkpt lat="43.8254" lon="3.60466">
        <ele>309.2</ele>
        <time>2015-01-11T09:33:50Z</time>
      </trkpt>
      <trkpt lat="43.8254" lon="3.60464">
        <ele>313.05</ele>
        <time>2015-01-11T09:33:52Z</time>
      </trkpt>
      <trkpt lat="43.8254" lon="3.60463">
        <ele>308.72</ele>
        <time>2015-01-11T09:33:53Z</time>
      </trkpt>
      <trkpt lat="43.82539" lon="3.60459">
        <ele>314.49</ele>
        <time>2015-01-11T09:33:56Z</time>
      </trkpt>
      <trkpt lat="43.82539" lon="3.60458">
        <ele>312.09</ele>
        <time>2015-01-11T09:33:57Z</time>
      </trkpt>
      <trkpt lat="43.8254" lon="3.60447">
        <ele>316.41</ele>
        <time>2015-01-11T09:34:11Z</time>
      </trkpt>
      <trkpt lat="43.8254" lon="3.60447">
        <ele>313.05</ele>
        <time>2015-01-11T09:34:12Z</time>
      </trkpt>
      <trkpt lat="43.82542" lon="3.60446">
        <ele>316.89</ele>
        <time>2015-01-11T09:34:17Z</time>
      </trkpt>
      <trkpt lat="43.82543" lon="3.60445">
        <ele>313.53</ele>
        <time>2015-01-11T09:34:18Z</time>
      </trkpt>
      <trkpt lat="43.82544" lon="3.60441">
        <ele>318.81</ele>
        <time>2015-01-11T09:34:22Z</time>
      </trkpt>
      <trkpt lat="43.82544" lon="3.60439">
        <ele>314.97</ele>
        <time>2015-01-11T09:34:24Z</time>
      </trkpt>
      <trkpt lat="43.82544" lon="3.60436">
        <ele>318.81</ele>
        <time>2015-01-11T09:34:28Z</time>
      </trkpt>
      <trkpt lat="43.82544" lon="3.60435">
        <ele>316.89</ele>
        <time>2015-01-11T09:34:29Z</time>
      </trkpt>
      <trkpt lat="43.82543" lon="3.60427">
        <ele>316.89</ele>
        <time>2015-01-11T09:34:37Z</time>
      </trkpt>
      <trkpt lat="43.82543" lon="3.60426">
        <ele>320.74</ele>
        <time>2015-01-11T09:34:38Z</time>
      </trkpt>
      <trkpt lat="43.82543" lon="3.60425">
        <ele>316.89</ele>
        <time>2015-01-11T09:34:39Z</time>
      </trkpt>
      <trkpt lat="43.82543" lon="3.60421">
        <ele>320.26</ele>
        <time>2015-01-11T09:34:43Z</time>
      </trkpt>
      <trkpt lat="43.82549" lon="3.60414">
        <ele>321.7</ele>
        <time>2015-01-11T09:34:56Z</time>
      </trkpt>
      <trkpt lat="43.82554" lon="3.60402">
        <ele>325.06</ele>
        <time>2015-01-11T09:35:09Z</time>
      </trkpt>
      <trkpt lat="43.82557" lon="3.60379">
        <ele>326.99</ele>
        <time>2015-01-11T09:35:27Z</time>
      </trkpt>
      <trkpt lat="43.82557" lon="3.60377">
        <ele>323.62</ele>
        <time>2015-01-11T09:35:29Z</time>
      </trkpt>
      <trkpt lat="43.82557" lon="3.60376">
        <ele>329.39</ele>
        <time>2015-01-11T09:35:30Z</time>
      </trkpt>
      <trkpt lat="43.82557" lon="3.60375">
        <ele>325.54</ele>
        <time>2015-01-11T09:35:31Z</time>
      </trkpt>
      <trkpt lat="43.82557" lon="3.6037">
        <ele>330.35</ele>
        <time>2015-01-11T09:35:36Z</time>
      </trkpt>
      <trkpt lat="43.82558" lon="3.6037">
        <ele>327.95</ele>
        <time>2015-01-11T09:35:37Z</time>
      </trkpt>
      <trkpt lat="43.82558" lon="3.60368">
        <ele>326.99</ele>
        <time>2015-01-11T09:35:39Z</time>
      </trkpt>
      <trkpt lat="43.82564" lon="3.60361">
        <ele>329.39</ele>
        <time>2015-01-11T09:35:50Z</time>
      </trkpt>
      <trkpt lat="43.82565" lon="3.60362">
        <ele>331.31</ele>
        <time>2015-01-11T09:35:53Z</time>
      </trkpt>
      <trkpt lat="43.82565" lon="3.60362">
        <ele>329.87</ele>
        <time>2015-01-11T09:35:55Z</time>
      </trkpt>
      <trkpt lat="43.82569" lon="3.60365">
        <ele>332.75</ele>
        <time>2015-01-11T09:36:01Z</time>
      </trkpt>
      <trkpt lat="43.8258" lon="3.60374">
        <ele>337.08</ele>
        <time>2015-01-11T09:36:18Z</time>
      </trkpt>
      <trkpt lat="43.8258" lon="3.60374">
        <ele>336.12</ele>
        <time>2015-01-11T09:36:19Z</time>
      </trkpt>
      <trkpt lat="43.82581" lon="3.60375">
        <ele>330.35</ele>
        <time>2015-01-11T09:36:20Z</time>
      </trkpt>
      <trkpt lat="43.82582" lon="3.60376">
        <ele>337.56</ele>
        <time>2015-01-11T09:36:21Z</time>
      </trkpt>
      <trkpt lat="43.82584" lon="3.60379">
        <ele>334.68</ele>
        <time>2015-01-11T09:36:25Z</time>
      </trkpt>
      <trkpt lat="43.82585" lon="3.60379">
        <ele>339.96</ele>
        <time>2015-01-11T09:36:27Z</time>
      </trkpt>
      <trkpt lat="43.82586" lon="3.60379">
        <ele>336.6</ele>
        <time>2015-01-11T09:36:28Z</time>
      </trkpt>
      <trkpt lat="43.82591" lon="3.60374">
        <ele>339.96</ele>
        <time>2015-01-11T09:36:38Z</time>
      </trkpt>
      <trkpt lat="43.82592" lon="3.60373">
        <ele>336.12</ele>
        <time>2015-01-11T09:36:39Z</time>
      </trkpt>
      <trkpt lat="43.82592" lon="3.60372">
        <ele>340.44</ele>
        <time>2015-01-11T09:36:40Z</time>
      </trkpt>
      <trkpt lat="43.82594" lon="3.60367">
        <ele>340.92</ele>
        <time>2015-01-11T09:36:45Z</time>
      </trkpt>
      <trkpt lat="43.82596" lon="3.60363">
        <ele>343.81</ele>
        <time>2015-01-11T09:36:50Z</time>
      </trkpt>
      <trkpt lat="43.82597" lon="3.60363">
        <ele>340.44</ele>
        <time>2015-01-11T09:36:51Z</time>
      </trkpt>
      <trkpt lat="43.82598" lon="3.60357">
        <ele>339.96</ele>
        <time>2015-01-11T09:36:56Z</time>
      </trkpt>
      <trkpt lat="43.82599" lon="3.60355">
        <ele>343.81</ele>
        <time>2015-01-11T09:36:57Z</time>
      </trkpt>
      <trkpt lat="43.826" lon="3.60351">
        <ele>340.92</ele>
        <time>2015-01-11T09:37:00Z</time>
      </trkpt>
      <trkpt lat="43.82602" lon="3.60339">
        <ele>343.81</ele>
        <time>2015-01-11T09:37:09Z</time>
      </trkpt>
      <trkpt lat="43.8261" lon="3.60321">
        <ele>346.69</ele>
        <time>2015-01-11T09:37:24Z</time>
      </trkpt>
      <trkpt lat="43.82611" lon="3.60317">
        <ele>346.69</ele>
        <time>2015-01-11T09:37:28Z</time>
      </trkpt>
      <trkpt lat="43.82615" lon="3.60296">
        <ele>350.54</ele>
        <time>2015-01-11T09:37:42Z</time>
      </trkpt>
      <trkpt lat="43.82615" lon="3.60294">
        <ele>348.62</ele>
        <time>2015-01-11T09:37:43Z</time>
      </trkpt>
      <trkpt lat="43.82615" lon="3.60291">
        <ele>348.13</ele>
        <time>2015-01-11T09:37:45Z</time>
      </trkpt>
      <trkpt lat="43.82616" lon="3.60286">
        <ele>349.58</ele>
        <time>2015-01-11T09:37:47Z</time>
      </trkpt>
      <trkpt lat="43.82616" lon="3.60284">
        <ele>348.62</ele>
        <time>2015-01-11T09:37:49Z</time>
      </trkpt>
      <trkpt lat="43.82617" lon="3.60278">
        <ele>351.98</ele>
        <time>2015-01-11T09:37:54Z</time>
      </trkpt>
      <trkpt lat="43.82618" lon="3.60274">
        <ele>348.13</ele>
        <time>2015-01-11T09:37:57Z</time>
      </trkpt>
      <trkpt lat="43.82618" lon="3.60272">
        <ele>353.42</ele>
        <time>2015-01-11T09:37:58Z</time>
      </trkpt>
      <trkpt lat="43.82618" lon="3.60271">
        <ele>350.06</ele>
        <time>2015-01-11T09:37:59Z</time>
      </trkpt>
      <trkpt lat="43.82619" lon="3.60267">
        <ele>352.46</ele>
        <time>2015-01-11T09:38:02Z</time>
      </trkpt>
      <trkpt lat="43.8262" lon="3.60259">
        <ele>351.02</ele>
        <time>2015-01-11T09:38:08Z</time>
      </trkpt>
      <trkpt lat="43.8262" lon="3.60258">
        <ele>354.38</ele>
        <time>2015-01-11T09:38:09Z</time>
      </trkpt>
      <trkpt lat="43.82621" lon="3.60256">
        <ele>352.94</ele>
        <time>2015-01-11T09:38:10Z</time>
      </trkpt>
      <trkpt lat="43.82621" lon="3.60237">
        <ele>352.94</ele>
        <time>2015-01-11T09:38:24Z</time>
      </trkpt>
      <trkpt lat="43.82621" lon="3.60231">
        <ele>356.31</ele>
        <time>2015-01-11T09:38:30Z</time>
      </trkpt>
      <trkpt lat="43.82621" lon="3.60229">
        <ele>356.79</ele>
        <time>2015-01-11T09:38:31Z</time>
      </trkpt>
      <trkpt lat="43.8262" lon="3.60228">
        <ele>352.94</ele>
        <time>2015-01-11T09:38:32Z</time>
      </trkpt>
      <trkpt lat="43.8262" lon="3.60227">
        <ele>358.23</ele>
        <time>2015-01-11T09:38:33Z</time>
      </trkpt>
      <trkpt lat="43.8262" lon="3.60225">
        <ele>351.98</ele>
        <time>2015-01-11T09:38:35Z</time>
      </trkpt>
      <trkpt lat="43.82619" lon="3.60223">
        <ele>359.67</ele>
        <time>2015-01-11T09:38:36Z</time>
      </trkpt>
      <trkpt lat="43.82619" lon="3.60222">
        <ele>355.83</ele>
        <time>2015-01-11T09:38:37Z</time>
      </trkpt>
      <trkpt lat="43.82619" lon="3.60218">
        <ele>357.27</ele>
        <time>2015-01-11T09:38:40Z</time>
      </trkpt>
      <trkpt lat="43.8262" lon="3.60217">
        <ele>353.42</ele>
        <time>2015-01-11T09:38:41Z</time>
      </trkpt>
      <trkpt lat="43.8262" lon="3.60216">
        <ele>360.15</ele>
        <time>2015-01-11T09:38:42Z</time>
      </trkpt>
      <trkpt lat="43.8262" lon="3.60214">
        <ele>353.9</ele>
        <time>2015-01-11T09:38:43Z</time>
      </trkpt>
      <trkpt lat="43.8262" lon="3.60213">
        <ele>358.23</ele>
        <time>2015-01-11T09:38:44Z</time>
      </trkpt>
      <trkpt lat="43.8262" lon="3.60211">
        <ele>352.46</ele>
        <time>2015-01-11T09:38:46Z</time>
      </trkpt>
      <trkpt lat="43.8262" lon="3.6021">
        <ele>360.15</ele>
        <time>2015-01-11T09:38:47Z</time>
      </trkpt>
      <trkpt lat="43.8262" lon="3.60209">
        <ele>356.79</ele>
        <time>2015-01-11T09:38:48Z</time>
      </trkpt>
      <trkpt lat="43.82621" lon="3.60205">
        <ele>357.75</ele>
        <time>2015-01-11T09:38:52Z</time>
      </trkpt>
      <trkpt lat="43.82619" lon="3.60201">
        <ele>359.19</ele>
        <time>2015-01-11T09:38:54Z</time>
      </trkpt>
      <trkpt lat="43.82618" lon="3.60184">
        <ele>361.11</ele>
        <time>2015-01-11T09:39:08Z</time>
      </trkpt>
      <trkpt lat="43.82621" lon="3.60171">
        <ele>361.59</ele>
        <time>2015-01-11T09:39:21Z</time>
      </trkpt>
      <trkpt lat="43.82621" lon="3.6017">
        <ele>358.71</ele>
        <time>2015-01-11T09:39:22Z</time>
      </trkpt>
      <trkpt lat="43.82621" lon="3.60169">
        <ele>364</ele>
        <time>2015-01-11T09:39:23Z</time>
      </trkpt>
      <trkpt lat="43.82621" lon="3.60168">
        <ele>363.04</ele>
        <time>2015-01-11T09:39:24Z</time>
      </trkpt>
      <trkpt lat="43.82622" lon="3.60166">
        <ele>362.07</ele>
        <time>2015-01-11T09:39:26Z</time>
      </trkpt>
      <trkpt lat="43.82625" lon="3.60155">
        <ele>365.44</ele>
        <time>2015-01-11T09:39:36Z</time>
      </trkpt>
      <trkpt lat="43.82625" lon="3.60154">
        <ele>364</ele>
        <time>2015-01-11T09:39:37Z</time>
      </trkpt>
      <trkpt lat="43.82626" lon="3.6015">
        <ele>360.15</ele>
        <time>2015-01-11T09:39:41Z</time>
      </trkpt>
      <trkpt lat="43.82626" lon="3.60149">
        <ele>365.92</ele>
        <time>2015-01-11T09:39:42Z</time>
      </trkpt>
      <trkpt lat="43.82626" lon="3.60145">
        <ele>365.92</ele>
        <time>2015-01-11T09:39:46Z</time>
      </trkpt>
      <trkpt lat="43.82626" lon="3.6014">
        <ele>366.88</ele>
        <time>2015-01-11T09:39:50Z</time>
      </trkpt>
      <trkpt lat="43.82626" lon="3.60137">
        <ele>364.96</ele>
        <time>2015-01-11T09:39:52Z</time>
      </trkpt>
      <trkpt lat="43.82626" lon="3.60135">
        <ele>368.8</ele>
        <time>2015-01-11T09:39:53Z</time>
      </trkpt>
      <trkpt lat="43.82627" lon="3.60132">
        <ele>364</ele>
        <time>2015-01-11T09:39:55Z</time>
      </trkpt>
      <trkpt lat="43.82628" lon="3.60131">
        <ele>369.28</ele>
        <time>2015-01-11T09:39:56Z</time>
      </trkpt>
      <trkpt lat="43.82628" lon="3.6013">
        <ele>367.36</ele>
        <time>2015-01-11T09:39:57Z</time>
      </trkpt>
      <trkpt lat="43.82628" lon="3.60128">
        <ele>366.4</ele>
        <time>2015-01-11T09:39:59Z</time>
      </trkpt>
      <trkpt lat="43.82629" lon="3.60124">
        <ele>370.24</ele>
        <time>2015-01-11T09:40:03Z</time>
      </trkpt>
      <trkpt lat="43.82629" lon="3.60121">
        <ele>364</ele>
        <time>2015-01-11T09:40:05Z</time>
      </trkpt>
      <trkpt lat="43.82629" lon="3.6012">
        <ele>369.28</ele>
        <time>2015-01-11T09:40:06Z</time>
      </trkpt>
      <trkpt lat="43.82634" lon="3.60114">
        <ele>369.28</ele>
        <time>2015-01-11T09:40:14Z</time>
      </trkpt>
      <trkpt lat="43.82635" lon="3.60116">
        <ele>369.76</ele>
        <time>2015-01-11T09:40:18Z</time>
      </trkpt>
      <trkpt lat="43.82639" lon="3.60124">
        <ele>369.28</ele>
        <time>2015-01-11T09:40:27Z</time>
      </trkpt>
      <trkpt lat="43.8264" lon="3.60126">
        <ele>370.73</ele>
        <time>2015-01-11T09:40:29Z</time>
      </trkpt>
      <trkpt lat="43.82641" lon="3.60128">
        <ele>369.76</ele>
        <time>2015-01-11T09:40:31Z</time>
      </trkpt>
      <trkpt lat="43.82642" lon="3.6013">
        <ele>371.21</ele>
        <time>2015-01-11T09:40:33Z</time>
      </trkpt>
      <trkpt lat="43.82645" lon="3.60135">
        <ele>374.57</ele>
        <time>2015-01-11T09:40:39Z</time>
      </trkpt>
      <trkpt lat="43.82646" lon="3.60137">
        <ele>370.24</ele>
        <time>2015-01-11T09:40:41Z</time>
      </trkpt>
      <trkpt lat="43.82647" lon="3.60137">
        <ele>373.61</ele>
        <time>2015-01-11T09:40:42Z</time>
      </trkpt>
      <trkpt lat="43.82648" lon="3.60138">
        <ele>373.61</ele>
        <time>2015-01-11T09:40:43Z</time>
      </trkpt>
      <trkpt lat="43.82651" lon="3.60145">
        <ele>370.24</ele>
        <time>2015-01-11T09:40:49Z</time>
      </trkpt>
      <trkpt lat="43.82651" lon="3.60146">
        <ele>375.05</ele>
        <time>2015-01-11T09:40:50Z</time>
      </trkpt>
      <trkpt lat="43.82651" lon="3.60148">
        <ele>374.09</ele>
        <time>2015-01-11T09:40:51Z</time>
      </trkpt>
      <trkpt lat="43.82653" lon="3.60152">
        <ele>377.45</ele>
        <time>2015-01-11T09:40:54Z</time>
      </trkpt>
      <trkpt lat="43.82654" lon="3.60157">
        <ele>376.01</ele>
        <time>2015-01-11T09:40:58Z</time>
      </trkpt>
      <trkpt lat="43.82662" lon="3.60171">
        <ele>376.97</ele>
        <time>2015-01-11T09:41:13Z</time>
      </trkpt>
      <trkpt lat="43.82663" lon="3.60182">
        <ele>377.94</ele>
        <time>2015-01-11T09:41:31Z</time>
      </trkpt>
      <trkpt lat="43.82666" lon="3.60176">
        <ele>381.78</ele>
        <time>2015-01-11T09:41:53Z</time>
      </trkpt>
      <trkpt lat="43.82666" lon="3.60175">
        <ele>376.01</ele>
        <time>2015-01-11T09:41:54Z</time>
      </trkpt>
      <trkpt lat="43.82666" lon="3.60175">
        <ele>381.78</ele>
        <time>2015-01-11T09:41:55Z</time>
      </trkpt>
      <trkpt lat="43.82668" lon="3.60172">
        <ele>376.97</ele>
        <time>2015-01-11T09:41:59Z</time>
      </trkpt>
      <trkpt lat="43.82668" lon="3.60172">
        <ele>383.22</ele>
        <time>2015-01-11T09:42:00Z</time>
      </trkpt>
      <trkpt lat="43.82668" lon="3.60171">
        <ele>379.86</ele>
        <time>2015-01-11T09:42:01Z</time>
      </trkpt>
      <trkpt lat="43.82669" lon="3.60165">
        <ele>383.7</ele>
        <time>2015-01-11T09:42:08Z</time>
      </trkpt>
      <trkpt lat="43.8267" lon="3.60163">
        <ele>383.22</ele>
        <time>2015-01-11T09:42:12Z</time>
      </trkpt>
      <trkpt lat="43.8267" lon="3.60161">
        <ele>379.86</ele>
        <time>2015-01-11T09:42:14Z</time>
      </trkpt>
      <trkpt lat="43.82671" lon="3.60161">
        <ele>385.15</ele>
        <time>2015-01-11T09:42:15Z</time>
      </trkpt>
      <trkpt lat="43.82672" lon="3.6016">
        <ele>381.78</ele>
        <time>2015-01-11T09:42:16Z</time>
      </trkpt>
      <trkpt lat="43.82673" lon="3.60159">
        <ele>385.15</ele>
        <time>2015-01-11T09:42:18Z</time>
      </trkpt>
      <trkpt lat="43.82673" lon="3.60158">
        <ele>383.22</ele>
        <time>2015-01-11T09:42:19Z</time>
      </trkpt>
      <trkpt lat="43.82675" lon="3.60154">
        <ele>387.07</ele>
        <time>2015-01-11T09:42:23Z</time>
      </trkpt>
      <trkpt lat="43.82675" lon="3.60153">
        <ele>383.7</ele>
        <time>2015-01-11T09:42:24Z</time>
      </trkpt>
      <trkpt lat="43.82676" lon="3.60151">
        <ele>387.55</ele>
        <time>2015-01-11T09:42:26Z</time>
      </trkpt>
      <trkpt lat="43.82676" lon="3.6015">
        <ele>384.18</ele>
        <time>2015-01-11T09:42:27Z</time>
      </trkpt>
      <trkpt lat="43.82677" lon="3.60146">
        <ele>380.82</ele>
        <time>2015-01-11T09:42:31Z</time>
      </trkpt>
      <trkpt lat="43.82677" lon="3.60145">
        <ele>387.07</ele>
        <time>2015-01-11T09:42:32Z</time>
      </trkpt>
      <trkpt lat="43.82677" lon="3.60144">
        <ele>386.59</ele>
        <time>2015-01-11T09:42:33Z</time>
      </trkpt>
      <trkpt lat="43.82675" lon="3.60122">
        <ele>388.51</ele>
        <time>2015-01-11T09:42:46Z</time>
      </trkpt>
      <trkpt lat="43.82679" lon="3.60118">
        <ele>388.99</ele>
        <time>2015-01-11T09:43:00Z</time>
      </trkpt>
      <trkpt lat="43.82683" lon="3.60122">
        <ele>392.36</ele>
        <time>2015-01-11T09:43:08Z</time>
      </trkpt>
      <trkpt lat="43.82691" lon="3.6013">
        <ele>393.32</ele>
        <time>2015-01-11T09:43:24Z</time>
      </trkpt>
      <trkpt lat="43.82697" lon="3.60138">
        <ele>393.8</ele>
        <time>2015-01-11T09:43:36Z</time>
      </trkpt>
      <trkpt lat="43.82701" lon="3.60147">
        <ele>397.16</ele>
        <time>2015-01-11T09:43:46Z</time>
      </trkpt>
      <trkpt lat="43.82707" lon="3.60158">
        <ele>398.12</ele>
        <time>2015-01-11T09:43:59Z</time>
      </trkpt>
      <trkpt lat="43.82712" lon="3.60163">
        <ele>400.05</ele>
        <time>2015-01-11T09:44:09Z</time>
      </trkpt>
      <trkpt lat="43.82719" lon="3.60172">
        <ele>401.01</ele>
        <time>2015-01-11T09:44:23Z</time>
      </trkpt>
      <trkpt lat="43.8273" lon="3.60182">
        <ele>404.37</ele>
        <time>2015-01-11T09:44:38Z</time>
      </trkpt>
      <trkpt lat="43.82738" lon="3.60186">
        <ele>405.33</ele>
        <time>2015-01-11T09:44:52Z</time>
      </trkpt>
      <trkpt lat="43.82747" lon="3.60191">
        <ele>406.77</ele>
        <time>2015-01-11T09:45:06Z</time>
      </trkpt>
      <trkpt lat="43.82755" lon="3.60196">
        <ele>410.14</ele>
        <time>2015-01-11T09:45:19Z</time>
      </trkpt>
      <trkpt lat="43.82765" lon="3.60203">
        <ele>410.62</ele>
        <time>2015-01-11T09:45:33Z</time>
      </trkpt>
      <trkpt lat="43.82774" lon="3.60209">
        <ele>413.5</ele>
        <time>2015-01-11T09:45:47Z</time>
      </trkpt>
      <trkpt lat="43.82786" lon="3.60216">
        <ele>414.47</ele>
        <time>2015-01-11T09:46:00Z</time>
      </trkpt>
      <trkpt lat="43.82788" lon="3.60217">
        <ele>414.47</ele>
        <time>2015-01-11T09:46:02Z</time>
      </trkpt>
      <trkpt lat="43.82799" lon="3.6022">
        <ele>416.87</ele>
        <time>2015-01-11T09:46:17Z</time>
      </trkpt>
      <trkpt lat="43.82795" lon="3.6021">
        <ele>417.35</ele>
        <time>2015-01-11T09:46:30Z</time>
      </trkpt>
      <trkpt lat="43.8279" lon="3.602">
        <ele>420.23</ele>
        <time>2015-01-11T09:46:44Z</time>
      </trkpt>
      <trkpt lat="43.82786" lon="3.60187">
        <ele>422.64</ele>
        <time>2015-01-11T09:46:59Z</time>
      </trkpt>
      <trkpt lat="43.82782" lon="3.60176">
        <ele>423.12</ele>
        <time>2015-01-11T09:47:12Z</time>
      </trkpt>
      <trkpt lat="43.82777" lon="3.60164">
        <ele>425.04</ele>
        <time>2015-01-11T09:47:23Z</time>
      </trkpt>
      <trkpt lat="43.82773" lon="3.60154">
        <ele>426.48</ele>
        <time>2015-01-11T09:47:35Z</time>
      </trkpt>
      <trkpt lat="43.82773" lon="3.60146">
        <ele>422.64</ele>
        <time>2015-01-11T09:47:42Z</time>
      </trkpt>
      <trkpt lat="43.82773" lon="3.60145">
        <ele>429.37</ele>
        <time>2015-01-11T09:47:43Z</time>
      </trkpt>
      <trkpt lat="43.82773" lon="3.60144">
        <ele>422.16</ele>
        <time>2015-01-11T09:47:45Z</time>
      </trkpt>
      <trkpt lat="43.82772" lon="3.60143">
        <ele>432.25</ele>
        <time>2015-01-11T09:47:46Z</time>
      </trkpt>
      <trkpt lat="43.82772" lon="3.60142">
        <ele>426.96</ele>
        <time>2015-01-11T09:47:47Z</time>
      </trkpt>
      <trkpt lat="43.82772" lon="3.60139">
        <ele>430.33</ele>
        <time>2015-01-11T09:47:51Z</time>
      </trkpt>
      <trkpt lat="43.82772" lon="3.60136">
        <ele>427.44</ele>
        <time>2015-01-11T09:47:55Z</time>
      </trkpt>
      <trkpt lat="43.82772" lon="3.60135">
        <ele>430.33</ele>
        <time>2015-01-11T09:47:56Z</time>
      </trkpt>
      <trkpt lat="43.82774" lon="3.60127">
        <ele>426.48</ele>
        <time>2015-01-11T09:48:04Z</time>
      </trkpt>
      <trkpt lat="43.82774" lon="3.60126">
        <ele>433.21</ele>
        <time>2015-01-11T09:48:05Z</time>
      </trkpt>
      <trkpt lat="43.82774" lon="3.60124">
        <ele>429.85</ele>
        <time>2015-01-11T09:48:06Z</time>
      </trkpt>
      <trkpt lat="43.82773" lon="3.60117">
        <ele>434.65</ele>
        <time>2015-01-11T09:48:13Z</time>
      </trkpt>
      <trkpt lat="43.82773" lon="3.60116">
        <ele>430.81</ele>
        <time>2015-01-11T09:48:14Z</time>
      </trkpt>
      <trkpt lat="43.82773" lon="3.60108">
        <ele>435.61</ele>
        <time>2015-01-11T09:48:21Z</time>
      </trkpt>
      <trkpt lat="43.82773" lon="3.60107">
        <ele>427.44</ele>
        <time>2015-01-11T09:48:22Z</time>
      </trkpt>
      <trkpt lat="43.82773" lon="3.60107">
        <ele>436.1</ele>
        <time>2015-01-11T09:48:23Z</time>
      </trkpt>
      <trkpt lat="43.82774" lon="3.60106">
        <ele>432.73</ele>
        <time>2015-01-11T09:48:24Z</time>
      </trkpt>
      <trkpt lat="43.82774" lon="3.60106">
        <ele>429.85</ele>
        <time>2015-01-11T09:48:25Z</time>
      </trkpt>
      <trkpt lat="43.82774" lon="3.60105">
        <ele>430.81</ele>
        <time>2015-01-11T09:48:26Z</time>
      </trkpt>
      <trkpt lat="43.82775" lon="3.60105">
        <ele>436.1</ele>
        <time>2015-01-11T09:48:28Z</time>
      </trkpt>
      <trkpt lat="43.82775" lon="3.60104">
        <ele>430.33</ele>
        <time>2015-01-11T09:48:29Z</time>
      </trkpt>
      <trkpt lat="43.82776" lon="3.60104">
        <ele>438.5</ele>
        <time>2015-01-11T09:48:30Z</time>
      </trkpt>
      <trkpt lat="43.82776" lon="3.60104">
        <ele>431.29</ele>
        <time>2015-01-11T09:48:31Z</time>
      </trkpt>
      <trkpt lat="43.82777" lon="3.60104">
        <ele>436.1</ele>
        <time>2015-01-11T09:48:32Z</time>
      </trkpt>
      <trkpt lat="43.82777" lon="3.60105">
        <ele>433.21</ele>
        <time>2015-01-11T09:48:34Z</time>
      </trkpt>
      <trkpt lat="43.82778" lon="3.60105">
        <ele>436.1</ele>
        <time>2015-01-11T09:48:35Z</time>
      </trkpt>
      <trkpt lat="43.8278" lon="3.60111">
        <ele>432.73</ele>
        <time>2015-01-11T09:48:42Z</time>
      </trkpt>
      <trkpt lat="43.8278" lon="3.60111">
        <ele>437.54</ele>
        <time>2015-01-11T09:48:43Z</time>
      </trkpt>
      <trkpt lat="43.82787" lon="3.60123">
        <ele>440.9</ele>
        <time>2015-01-11T09:49:00Z</time>
      </trkpt>
      <trkpt lat="43.82787" lon="3.60123">
        <ele>436.58</ele>
        <time>2015-01-11T09:49:01Z</time>
      </trkpt>
      <trkpt lat="43.82788" lon="3.60124">
        <ele>439.46</ele>
        <time>2015-01-11T09:49:03Z</time>
      </trkpt>
      <trkpt lat="43.82788" lon="3.60125">
        <ele>436.1</ele>
        <time>2015-01-11T09:49:04Z</time>
      </trkpt>
      <trkpt lat="43.82789" lon="3.60125">
        <ele>440.9</ele>
        <time>2015-01-11T09:49:05Z</time>
      </trkpt>
      <trkpt lat="43.8279" lon="3.60127">
        <ele>438.02</ele>
        <time>2015-01-11T09:49:07Z</time>
      </trkpt>
      <trkpt lat="43.8279" lon="3.60127">
        <ele>440.9</ele>
        <time>2015-01-11T09:49:08Z</time>
      </trkpt>
      <trkpt lat="43.82792" lon="3.60129">
        <ele>437.54</ele>
        <time>2015-01-11T09:49:10Z</time>
      </trkpt>
      <trkpt lat="43.82793" lon="3.6013">
        <ele>441.86</ele>
        <time>2015-01-11T09:49:11Z</time>
      </trkpt>
      <trkpt lat="43.82794" lon="3.60131">
        <ele>434.65</ele>
        <time>2015-01-11T09:49:13Z</time>
      </trkpt>
      <trkpt lat="43.82795" lon="3.60131">
        <ele>441.86</ele>
        <time>2015-01-11T09:49:14Z</time>
      </trkpt>
      <trkpt lat="43.82797" lon="3.60133">
        <ele>438.5</ele>
        <time>2015-01-11T09:49:18Z</time>
      </trkpt>
      <trkpt lat="43.82797" lon="3.60134">
        <ele>441.86</ele>
        <time>2015-01-11T09:49:19Z</time>
      </trkpt>
      <trkpt lat="43.82798" lon="3.60136">
        <ele>438.5</ele>
        <time>2015-01-11T09:49:21Z</time>
      </trkpt>
      <trkpt lat="43.82799" lon="3.60136">
        <ele>441.86</ele>
        <time>2015-01-11T09:49:22Z</time>
      </trkpt>
      <trkpt lat="43.82802" lon="3.60139">
        <ele>438.02</ele>
        <time>2015-01-11T09:49:27Z</time>
      </trkpt>
      <trkpt lat="43.82803" lon="3.6014">
        <ele>442.82</ele>
        <time>2015-01-11T09:49:28Z</time>
      </trkpt>
      <trkpt lat="43.82804" lon="3.6014">
        <ele>439.46</ele>
        <time>2015-01-11T09:49:29Z</time>
      </trkpt>
      <trkpt lat="43.82805" lon="3.60141">
        <ele>444.27</ele>
        <time>2015-01-11T09:49:31Z</time>
      </trkpt>
      <trkpt lat="43.82806" lon="3.60142">
        <ele>441.86</ele>
        <time>2015-01-11T09:49:32Z</time>
      </trkpt>
      <trkpt lat="43.82806" lon="3.60142">
        <ele>438.02</ele>
        <time>2015-01-11T09:49:33Z</time>
      </trkpt>
      <trkpt lat="43.82807" lon="3.60142">
        <ele>444.75</ele>
        <time>2015-01-11T09:49:34Z</time>
      </trkpt>
      <trkpt lat="43.82808" lon="3.60143">
        <ele>439.46</ele>
        <time>2015-01-11T09:49:36Z</time>
      </trkpt>
      <trkpt lat="43.82809" lon="3.60144">
        <ele>444.27</ele>
        <time>2015-01-11T09:49:37Z</time>
      </trkpt>
      <trkpt lat="43.8281" lon="3.60144">
        <ele>438.5</ele>
        <time>2015-01-11T09:49:39Z</time>
      </trkpt>
      <trkpt lat="43.82811" lon="3.60144">
        <ele>443.79</ele>
        <time>2015-01-11T09:49:40Z</time>
      </trkpt>
      <trkpt lat="43.82811" lon="3.60143">
        <ele>446.67</ele>
        <time>2015-01-11T09:49:45Z</time>
      </trkpt>
      <trkpt lat="43.8281" lon="3.60142">
        <ele>441.38</ele>
        <time>2015-01-11T09:49:47Z</time>
      </trkpt>
      <trkpt lat="43.8281" lon="3.60142">
        <ele>446.67</ele>
        <time>2015-01-11T09:49:48Z</time>
      </trkpt>
      <trkpt lat="43.82809" lon="3.6014">
        <ele>445.23</ele>
        <time>2015-01-11T09:49:51Z</time>
      </trkpt>
      <trkpt lat="43.82806" lon="3.60133">
        <ele>448.59</ele>
        <time>2015-01-11T09:50:01Z</time>
      </trkpt>
      <trkpt lat="43.82805" lon="3.60132">
        <ele>444.75</ele>
        <time>2015-01-11T09:50:02Z</time>
      </trkpt>
      <trkpt lat="43.82805" lon="3.60131">
        <ele>449.07</ele>
        <time>2015-01-11T09:50:03Z</time>
      </trkpt>
      <trkpt lat="43.82809" lon="3.60118">
        <ele>452.92</ele>
        <time>2015-01-11T09:50:19Z</time>
      </trkpt>
      <trkpt lat="43.8281" lon="3.60118">
        <ele>447.15</ele>
        <time>2015-01-11T09:50:21Z</time>
      </trkpt>
      <trkpt lat="43.8281" lon="3.60118">
        <ele>453.4</ele>
        <time>2015-01-11T09:50:22Z</time>
      </trkpt>
      <trkpt lat="43.82811" lon="3.60118">
        <ele>448.11</ele>
        <time>2015-01-11T09:50:24Z</time>
      </trkpt>
      <trkpt lat="43.82812" lon="3.60118">
        <ele>451.48</ele>
        <time>2015-01-11T09:50:25Z</time>
      </trkpt>
      <trkpt lat="43.82813" lon="3.60119">
        <ele>448.11</ele>
        <time>2015-01-11T09:50:28Z</time>
      </trkpt>
      <trkpt lat="43.82813" lon="3.60119">
        <ele>454.84</ele>
        <time>2015-01-11T09:50:29Z</time>
      </trkpt>
      <trkpt lat="43.82814" lon="3.60119">
        <ele>450.03</ele>
        <time>2015-01-11T09:50:30Z</time>
      </trkpt>
      <trkpt lat="43.82814" lon="3.6012">
        <ele>453.4</ele>
        <time>2015-01-11T09:50:31Z</time>
      </trkpt>
      <trkpt lat="43.82819" lon="3.60125">
        <ele>456.76</ele>
        <time>2015-01-11T09:50:45Z</time>
      </trkpt>
      <trkpt lat="43.82819" lon="3.60125">
        <ele>453.4</ele>
        <time>2015-01-11T09:50:47Z</time>
      </trkpt>
      <trkpt lat="43.8282" lon="3.60123">
        <ele>456.76</ele>
        <time>2015-01-11T09:50:51Z</time>
      </trkpt>
      <trkpt lat="43.8282" lon="3.60122">
        <ele>451.48</ele>
        <time>2015-01-11T09:50:52Z</time>
      </trkpt>
      <trkpt lat="43.8282" lon="3.60122">
        <ele>459.17</ele>
        <time>2015-01-11T09:50:53Z</time>
      </trkpt>
      <trkpt lat="43.8282" lon="3.6012">
        <ele>455.8</ele>
        <time>2015-01-11T09:50:54Z</time>
      </trkpt>
      <trkpt lat="43.82822" lon="3.60111">
        <ele>461.09</ele>
        <time>2015-01-11T09:51:06Z</time>
      </trkpt>
      <trkpt lat="43.82822" lon="3.6011">
        <ele>455.32</ele>
        <time>2015-01-11T09:51:08Z</time>
      </trkpt>
      <trkpt lat="43.82822" lon="3.60109">
        <ele>461.09</ele>
        <time>2015-01-11T09:51:09Z</time>
      </trkpt>
      <trkpt lat="43.82822" lon="3.60107">
        <ele>455.8</ele>
        <time>2015-01-11T09:51:11Z</time>
      </trkpt>
      <trkpt lat="43.82822" lon="3.60106">
        <ele>461.09</ele>
        <time>2015-01-11T09:51:12Z</time>
      </trkpt>
      <trkpt lat="43.82822" lon="3.60105">
        <ele>455.8</ele>
        <time>2015-01-11T09:51:14Z</time>
      </trkpt>
      <trkpt lat="43.82822" lon="3.60104">
        <ele>462.05</ele>
        <time>2015-01-11T09:51:15Z</time>
      </trkpt>
      <trkpt lat="43.82822" lon="3.60103">
        <ele>457.72</ele>
        <time>2015-01-11T09:51:16Z</time>
      </trkpt>
      <trkpt lat="43.82822" lon="3.60102">
        <ele>461.09</ele>
        <time>2015-01-11T09:51:18Z</time>
      </trkpt>
      <trkpt lat="43.82822" lon="3.60101">
        <ele>456.28</ele>
        <time>2015-01-11T09:51:19Z</time>
      </trkpt>
      <trkpt lat="43.82822" lon="3.60098">
        <ele>462.53</ele>
        <time>2015-01-11T09:51:22Z</time>
      </trkpt>
      <trkpt lat="43.82822" lon="3.60097">
        <ele>461.09</ele>
        <time>2015-01-11T09:51:23Z</time>
      </trkpt>
      <trkpt lat="43.82826" lon="3.60095">
        <ele>464.45</ele>
        <time>2015-01-11T09:51:35Z</time>
      </trkpt>
      <trkpt lat="43.82826" lon="3.60094">
        <ele>461.09</ele>
        <time>2015-01-11T09:51:37Z</time>
      </trkpt>
      <trkpt lat="43.82826" lon="3.60087">
        <ele>464.45</ele>
        <time>2015-01-11T09:51:44Z</time>
      </trkpt>
      <trkpt lat="43.82827" lon="3.60073">
        <ele>466.86</ele>
        <time>2015-01-11T09:51:58Z</time>
      </trkpt>
      <trkpt lat="43.82826" lon="3.60071">
        <ele>463.49</ele>
        <time>2015-01-11T09:52:02Z</time>
      </trkpt>
      <trkpt lat="43.82826" lon="3.6007">
        <ele>468.78</ele>
        <time>2015-01-11T09:52:03Z</time>
      </trkpt>
      <trkpt lat="43.82826" lon="3.6007">
        <ele>465.42</ele>
        <time>2015-01-11T09:52:04Z</time>
      </trkpt>
      <trkpt lat="43.82828" lon="3.60067">
        <ele>469.74</ele>
        <time>2015-01-11T09:52:08Z</time>
      </trkpt>
      <trkpt lat="43.82828" lon="3.60067">
        <ele>465.42</ele>
        <time>2015-01-11T09:52:09Z</time>
      </trkpt>
      <trkpt lat="43.8283" lon="3.60067">
        <ele>469.26</ele>
        <time>2015-01-11T09:52:11Z</time>
      </trkpt>
      <trkpt lat="43.8283" lon="3.60068">
        <ele>464.93</ele>
        <time>2015-01-11T09:52:12Z</time>
      </trkpt>
      <trkpt lat="43.82831" lon="3.60068">
        <ele>469.26</ele>
        <time>2015-01-11T09:52:13Z</time>
      </trkpt>
      <trkpt lat="43.82832" lon="3.60069">
        <ele>465.42</ele>
        <time>2015-01-11T09:52:15Z</time>
      </trkpt>
      <trkpt lat="43.82832" lon="3.60069">
        <ele>471.66</ele>
        <time>2015-01-11T09:52:16Z</time>
      </trkpt>
      <trkpt lat="43.82833" lon="3.6007">
        <ele>468.3</ele>
        <time>2015-01-11T09:52:17Z</time>
      </trkpt>
      <trkpt lat="43.82833" lon="3.6007">
        <ele>471.66</ele>
        <time>2015-01-11T09:52:19Z</time>
      </trkpt>
      <trkpt lat="43.82834" lon="3.60071">
        <ele>467.82</ele>
        <time>2015-01-11T09:52:20Z</time>
      </trkpt>
      <trkpt lat="43.82834" lon="3.60072">
        <ele>471.18</ele>
        <time>2015-01-11T09:52:22Z</time>
      </trkpt>
      <trkpt lat="43.82834" lon="3.60073">
        <ele>466.38</ele>
        <time>2015-01-11T09:52:23Z</time>
      </trkpt>
      <trkpt lat="43.82835" lon="3.60073">
        <ele>472.63</ele>
        <time>2015-01-11T09:52:24Z</time>
      </trkpt>
      <trkpt lat="43.82836" lon="3.60073">
        <ele>468.78</ele>
        <time>2015-01-11T09:52:26Z</time>
      </trkpt>
      <trkpt lat="43.82836" lon="3.60071">
        <ele>472.14</ele>
        <time>2015-01-11T09:52:33Z</time>
      </trkpt>
      <trkpt lat="43.82836" lon="3.6007">
        <ele>468.3</ele>
        <time>2015-01-11T09:52:34Z</time>
      </trkpt>
      <trkpt lat="43.82837" lon="3.60069">
        <ele>471.66</ele>
        <time>2015-01-11T09:52:35Z</time>
      </trkpt>
      <trkpt lat="43.82837" lon="3.60069">
        <ele>468.3</ele>
        <time>2015-01-11T09:52:36Z</time>
      </trkpt>
      <trkpt lat="43.82837" lon="3.60068">
        <ele>475.03</ele>
        <time>2015-01-11T09:52:37Z</time>
      </trkpt>
      <trkpt lat="43.82837" lon="3.60068">
        <ele>470.7</ele>
        <time>2015-01-11T09:52:38Z</time>
      </trkpt>
      <trkpt lat="43.82838" lon="3.60064">
        <ele>475.03</ele>
        <time>2015-01-11T09:52:43Z</time>
      </trkpt>
      <trkpt lat="43.82838" lon="3.60063">
        <ele>469.74</ele>
        <time>2015-01-11T09:52:44Z</time>
      </trkpt>
      <trkpt lat="43.82838" lon="3.60063">
        <ele>475.51</ele>
        <time>2015-01-11T09:52:45Z</time>
      </trkpt>
      <trkpt lat="43.82839" lon="3.60063">
        <ele>471.18</ele>
        <time>2015-01-11T09:52:47Z</time>
      </trkpt>
      <trkpt lat="43.82839" lon="3.60064">
        <ele>475.99</ele>
        <time>2015-01-11T09:52:48Z</time>
      </trkpt>
      <trkpt lat="43.8284" lon="3.60065">
        <ele>470.7</ele>
        <time>2015-01-11T09:52:50Z</time>
      </trkpt>
      <trkpt lat="43.8284" lon="3.60065">
        <ele>476.47</ele>
        <time>2015-01-11T09:52:51Z</time>
      </trkpt>
      <trkpt lat="43.82841" lon="3.60066">
        <ele>472.14</ele>
        <time>2015-01-11T09:52:52Z</time>
      </trkpt>
      <trkpt lat="43.82841" lon="3.60067">
        <ele>477.43</ele>
        <time>2015-01-11T09:52:54Z</time>
      </trkpt>
      <trkpt lat="43.82842" lon="3.60068">
        <ele>473.11</ele>
        <time>2015-01-11T09:52:55Z</time>
      </trkpt>
      <trkpt lat="43.82842" lon="3.6007">
        <ele>477.43</ele>
        <time>2015-01-11T09:52:57Z</time>
      </trkpt>
      <trkpt lat="43.82842" lon="3.60075">
        <ele>474.07</ele>
        <time>2015-01-11T09:53:01Z</time>
      </trkpt>
      <trkpt lat="43.82842" lon="3.60077">
        <ele>477.91</ele>
        <time>2015-01-11T09:53:02Z</time>
      </trkpt>
      <trkpt lat="43.82843" lon="3.60078">
        <ele>473.59</ele>
        <time>2015-01-11T09:53:03Z</time>
      </trkpt>
      <trkpt lat="43.82843" lon="3.60079">
        <ele>476.95</ele>
        <time>2015-01-11T09:53:04Z</time>
      </trkpt>
      <trkpt lat="43.82844" lon="3.6008">
        <ele>473.11</ele>
        <time>2015-01-11T09:53:06Z</time>
      </trkpt>
      <trkpt lat="43.82845" lon="3.60081">
        <ele>478.87</ele>
        <time>2015-01-11T09:53:07Z</time>
      </trkpt>
      <trkpt lat="43.82847" lon="3.60084">
        <ele>475.03</ele>
        <time>2015-01-11T09:53:13Z</time>
      </trkpt>
      <trkpt lat="43.82848" lon="3.60084">
        <ele>480.8</ele>
        <time>2015-01-11T09:53:14Z</time>
      </trkpt>
      <trkpt lat="43.82848" lon="3.60084">
        <ele>476.95</ele>
        <time>2015-01-11T09:53:15Z</time>
      </trkpt>
      <trkpt lat="43.82848" lon="3.60083">
        <ele>470.22</ele>
        <time>2015-01-11T09:53:18Z</time>
      </trkpt>
      <trkpt lat="43.82848" lon="3.60083">
        <ele>484.16</ele>
        <time>2015-01-11T09:53:19Z</time>
      </trkpt>
      <trkpt lat="43.82848" lon="3.60082">
        <ele>478.87</ele>
        <time>2015-01-11T09:53:20Z</time>
      </trkpt>
      <trkpt lat="43.82849" lon="3.6008">
        <ele>475.99</ele>
        <time>2015-01-11T09:53:24Z</time>
      </trkpt>
      <trkpt lat="43.8285" lon="3.60079">
        <ele>482.24</ele>
        <time>2015-01-11T09:53:26Z</time>
      </trkpt>
      <trkpt lat="43.8285" lon="3.60079">
        <ele>477.91</ele>
        <time>2015-01-11T09:53:27Z</time>
      </trkpt>
      <trkpt lat="43.82851" lon="3.60078">
        <ele>481.28</ele>
        <time>2015-01-11T09:53:29Z</time>
      </trkpt>
      <trkpt lat="43.82852" lon="3.60075">
        <ele>475.51</ele>
        <time>2015-01-11T09:53:33Z</time>
      </trkpt>
      <trkpt lat="43.82853" lon="3.60075">
        <ele>484.64</ele>
        <time>2015-01-11T09:53:34Z</time>
      </trkpt>
      <trkpt lat="43.82854" lon="3.60075">
        <ele>479.84</ele>
        <time>2015-01-11T09:53:35Z</time>
      </trkpt>
      <trkpt lat="43.82854" lon="3.60074">
        <ele>483.68</ele>
        <time>2015-01-11T09:53:37Z</time>
      </trkpt>
      <trkpt lat="43.82855" lon="3.60074">
        <ele>479.84</ele>
        <time>2015-01-11T09:53:38Z</time>
      </trkpt>
      <trkpt lat="43.82856" lon="3.60072">
        <ele>483.68</ele>
        <time>2015-01-11T09:53:40Z</time>
      </trkpt>
      <trkpt lat="43.82856" lon="3.60072">
        <ele>480.32</ele>
        <time>2015-01-11T09:53:41Z</time>
      </trkpt>
      <trkpt lat="43.82857" lon="3.60072">
        <ele>486.08</ele>
        <time>2015-01-11T09:53:45Z</time>
      </trkpt>
      <trkpt lat="43.82857" lon="3.60073">
        <ele>482.72</ele>
        <time>2015-01-11T09:53:46Z</time>
      </trkpt>
      <trkpt lat="43.82857" lon="3.60073">
        <ele>479.35</ele>
        <time>2015-01-11T09:53:47Z</time>
      </trkpt>
      <trkpt lat="43.82857" lon="3.60074">
        <ele>486.08</ele>
        <time>2015-01-11T09:53:48Z</time>
      </trkpt>
      <trkpt lat="43.82857" lon="3.60075">
        <ele>482.24</ele>
        <time>2015-01-11T09:53:49Z</time>
      </trkpt>
      <trkpt lat="43.82857" lon="3.60075">
        <ele>485.12</ele>
        <time>2015-01-11T09:53:50Z</time>
      </trkpt>
      <trkpt lat="43.82858" lon="3.60076">
        <ele>482.24</ele>
        <time>2015-01-11T09:53:51Z</time>
      </trkpt>
      <trkpt lat="43.82858" lon="3.60077">
        <ele>486.08</ele>
        <time>2015-01-11T09:53:55Z</time>
      </trkpt>
      <trkpt lat="43.82859" lon="3.60076">
        <ele>482.24</ele>
        <time>2015-01-11T09:53:57Z</time>
      </trkpt>
      <trkpt lat="43.8286" lon="3.60074">
        <ele>486.08</ele>
        <time>2015-01-11T09:54:01Z</time>
      </trkpt>
      <trkpt lat="43.8286" lon="3.60073">
        <ele>481.28</ele>
        <time>2015-01-11T09:54:03Z</time>
      </trkpt>
      <trkpt lat="43.8286" lon="3.60072">
        <ele>486.56</ele>
        <time>2015-01-11T09:54:04Z</time>
      </trkpt>
      <trkpt lat="43.82861" lon="3.60069">
        <ele>483.68</ele>
        <time>2015-01-11T09:54:06Z</time>
      </trkpt>
      <trkpt lat="43.82862" lon="3.60069">
        <ele>485.6</ele>
        <time>2015-01-11T09:54:07Z</time>
      </trkpt>
      <trkpt lat="43.82862" lon="3.60067">
        <ele>489.93</ele>
        <time>2015-01-11T09:54:10Z</time>
      </trkpt>
      <trkpt lat="43.82863" lon="3.60066">
        <ele>486.56</ele>
        <time>2015-01-11T09:54:11Z</time>
      </trkpt>
      <trkpt lat="43.82863" lon="3.60066">
        <ele>483.2</ele>
        <time>2015-01-11T09:54:12Z</time>
      </trkpt>
      <trkpt lat="43.82863" lon="3.60065">
        <ele>488.97</ele>
        <time>2015-01-11T09:54:13Z</time>
      </trkpt>
      <trkpt lat="43.82864" lon="3.60064">
        <ele>485.6</ele>
        <time>2015-01-11T09:54:14Z</time>
      </trkpt>
      <trkpt lat="43.82864" lon="3.60064">
        <ele>491.85</ele>
        <time>2015-01-11T09:54:15Z</time>
      </trkpt>
      <trkpt lat="43.82864" lon="3.60063">
        <ele>486.08</ele>
        <time>2015-01-11T09:54:16Z</time>
      </trkpt>
      <trkpt lat="43.82864" lon="3.60062">
        <ele>489.45</ele>
        <time>2015-01-11T09:54:18Z</time>
      </trkpt>
      <trkpt lat="43.82864" lon="3.60061">
        <ele>486.56</ele>
        <time>2015-01-11T09:54:19Z</time>
      </trkpt>
      <trkpt lat="43.82864" lon="3.6006">
        <ele>489.93</ele>
        <time>2015-01-11T09:54:21Z</time>
      </trkpt>
      <trkpt lat="43.82864" lon="3.60059">
        <ele>484.64</ele>
        <time>2015-01-11T09:54:22Z</time>
      </trkpt>
      <trkpt lat="43.82865" lon="3.60058">
        <ele>490.41</ele>
        <time>2015-01-11T09:54:23Z</time>
      </trkpt>
      <trkpt lat="43.82864" lon="3.60057">
        <ele>484.16</ele>
        <time>2015-01-11T09:54:25Z</time>
      </trkpt>
      <trkpt lat="43.82864" lon="3.60055">
        <ele>491.85</ele>
        <time>2015-01-11T09:54:26Z</time>
      </trkpt>
      <trkpt lat="43.82864" lon="3.60055">
        <ele>488.49</ele>
        <time>2015-01-11T09:54:27Z</time>
      </trkpt>
      <trkpt lat="43.82864" lon="3.60054">
        <ele>485.12</ele>
        <time>2015-01-11T09:54:28Z</time>
      </trkpt>
      <trkpt lat="43.82865" lon="3.60053">
        <ele>489.93</ele>
        <time>2015-01-11T09:54:29Z</time>
      </trkpt>
      <trkpt lat="43.82865" lon="3.60052">
        <ele>485.12</ele>
        <time>2015-01-11T09:54:31Z</time>
      </trkpt>
      <trkpt lat="43.82866" lon="3.60051">
        <ele>492.81</ele>
        <time>2015-01-11T09:54:32Z</time>
      </trkpt>
      <trkpt lat="43.82867" lon="3.60051">
        <ele>486.08</ele>
        <time>2015-01-11T09:54:34Z</time>
      </trkpt>
      <trkpt lat="43.82867" lon="3.60051">
        <ele>490.89</ele>
        <time>2015-01-11T09:54:35Z</time>
      </trkpt>
      <trkpt lat="43.82869" lon="3.60052">
        <ele>487.05</ele>
        <time>2015-01-11T09:54:37Z</time>
      </trkpt>
      <trkpt lat="43.82869" lon="3.60052">
        <ele>490.89</ele>
        <time>2015-01-11T09:54:38Z</time>
      </trkpt>
      <trkpt lat="43.82873" lon="3.60055">
        <ele>492.81</ele>
        <time>2015-01-11T09:54:47Z</time>
      </trkpt>
      <trkpt lat="43.82874" lon="3.60066">
        <ele>493.77</ele>
        <time>2015-01-11T09:54:57Z</time>
      </trkpt>
      <trkpt lat="43.82874" lon="3.60068">
        <ele>492.33</ele>
        <time>2015-01-11T09:54:59Z</time>
      </trkpt>
      <trkpt lat="43.82874" lon="3.60072">
        <ele>496.18</ele>
        <time>2015-01-11T09:55:03Z</time>
      </trkpt>
      <trkpt lat="43.82874" lon="3.60075">
        <ele>492.81</ele>
        <time>2015-01-11T09:55:06Z</time>
      </trkpt>
      <trkpt lat="43.82875" lon="3.60076">
        <ele>496.18</ele>
        <time>2015-01-11T09:55:08Z</time>
      </trkpt>
      <trkpt lat="43.82874" lon="3.60077">
        <ele>492.81</ele>
        <time>2015-01-11T09:55:09Z</time>
      </trkpt>
      <trkpt lat="43.82874" lon="3.60078">
        <ele>497.14</ele>
        <time>2015-01-11T09:55:10Z</time>
      </trkpt>
      <trkpt lat="43.82875" lon="3.60079">
        <ele>494.26</ele>
        <time>2015-01-11T09:55:12Z</time>
      </trkpt>
      <trkpt lat="43.82875" lon="3.60082">
        <ele>497.62</ele>
        <time>2015-01-11T09:55:16Z</time>
      </trkpt>
      <trkpt lat="43.82876" lon="3.60083">
        <ele>492.81</ele>
        <time>2015-01-11T09:55:18Z</time>
      </trkpt>
      <trkpt lat="43.82877" lon="3.60083">
        <ele>499.54</ele>
        <time>2015-01-11T09:55:19Z</time>
      </trkpt>
      <trkpt lat="43.82878" lon="3.60084">
        <ele>493.29</ele>
        <time>2015-01-11T09:55:21Z</time>
      </trkpt>
      <trkpt lat="43.82879" lon="3.60084">
        <ele>500.02</ele>
        <time>2015-01-11T09:55:22Z</time>
      </trkpt>
      <trkpt lat="43.8288" lon="3.60085">
        <ele>493.77</ele>
        <time>2015-01-11T09:55:24Z</time>
      </trkpt>
      <trkpt lat="43.82881" lon="3.60085">
        <ele>500.98</ele>
        <time>2015-01-11T09:55:25Z</time>
      </trkpt>
      <trkpt lat="43.82881" lon="3.60085">
        <ele>496.66</ele>
        <time>2015-01-11T09:55:26Z</time>
      </trkpt>
      <trkpt lat="43.82882" lon="3.60086">
        <ele>501.46</ele>
        <time>2015-01-11T09:55:28Z</time>
      </trkpt>
      <trkpt lat="43.82883" lon="3.60087">
        <ele>495.22</ele>
        <time>2015-01-11T09:55:29Z</time>
      </trkpt>
      <trkpt lat="43.82883" lon="3.60087">
        <ele>499.54</ele>
        <time>2015-01-11T09:55:30Z</time>
      </trkpt>
      <trkpt lat="43.82884" lon="3.60087">
        <ele>495.22</ele>
        <time>2015-01-11T09:55:31Z</time>
      </trkpt>
      <trkpt lat="43.82884" lon="3.60088">
        <ele>503.39</ele>
        <time>2015-01-11T09:55:32Z</time>
      </trkpt>
      <trkpt lat="43.82885" lon="3.60088">
        <ele>499.54</ele>
        <time>2015-01-11T09:55:33Z</time>
      </trkpt>
      <trkpt lat="43.82886" lon="3.6009">
        <ele>503.39</ele>
        <time>2015-01-11T09:55:35Z</time>
      </trkpt>
      <trkpt lat="43.82887" lon="3.60091">
        <ele>497.62</ele>
        <time>2015-01-11T09:55:36Z</time>
      </trkpt>
      <trkpt lat="43.82888" lon="3.60092">
        <ele>501.95</ele>
        <time>2015-01-11T09:55:38Z</time>
      </trkpt>
      <trkpt lat="43.8289" lon="3.60094">
        <ele>498.58</ele>
        <time>2015-01-11T09:55:40Z</time>
      </trkpt>
      <trkpt lat="43.82896" lon="3.60098">
        <ele>504.35</ele>
        <time>2015-01-11T09:55:48Z</time>
      </trkpt>
      <trkpt lat="43.82897" lon="3.601">
        <ele>498.1</ele>
        <time>2015-01-11T09:55:50Z</time>
      </trkpt>
      <trkpt lat="43.82898" lon="3.601">
        <ele>506.27</ele>
        <time>2015-01-11T09:55:51Z</time>
      </trkpt>
      <trkpt lat="43.82898" lon="3.601">
        <ele>499.06</ele>
        <time>2015-01-11T09:55:52Z</time>
      </trkpt>
      <trkpt lat="43.82899" lon="3.60101">
        <ele>504.35</ele>
        <time>2015-01-11T09:55:53Z</time>
      </trkpt>
      <trkpt lat="43.82898" lon="3.60102">
        <ele>500.5</ele>
        <time>2015-01-11T09:55:57Z</time>
      </trkpt>
      <trkpt lat="43.82898" lon="3.60101">
        <ele>505.31</ele>
        <time>2015-01-11T09:55:58Z</time>
      </trkpt>
      <trkpt lat="43.82897" lon="3.601">
        <ele>500.5</ele>
        <time>2015-01-11T09:56:00Z</time>
      </trkpt>
      <trkpt lat="43.82897" lon="3.601">
        <ele>506.27</ele>
        <time>2015-01-11T09:56:01Z</time>
      </trkpt>
      <trkpt lat="43.82897" lon="3.60098">
        <ele>501.46</ele>
        <time>2015-01-11T09:56:03Z</time>
      </trkpt>
      <trkpt lat="43.82897" lon="3.60097">
        <ele>505.31</ele>
        <time>2015-01-11T09:56:04Z</time>
      </trkpt>
      <trkpt lat="43.82895" lon="3.60086">
        <ele>508.67</ele>
        <time>2015-01-11T09:56:16Z</time>
      </trkpt>
      <trkpt lat="43.82894" lon="3.60084">
        <ele>502.43</ele>
        <time>2015-01-11T09:56:18Z</time>
      </trkpt>
      <trkpt lat="43.82894" lon="3.60084">
        <ele>508.19</ele>
        <time>2015-01-11T09:56:19Z</time>
      </trkpt>
      <trkpt lat="43.82894" lon="3.60083">
        <ele>505.31</ele>
        <time>2015-01-11T09:56:20Z</time>
      </trkpt>
      <trkpt lat="43.82893" lon="3.60078">
        <ele>510.12</ele>
        <time>2015-01-11T09:56:25Z</time>
      </trkpt>
      <trkpt lat="43.82893" lon="3.60076">
        <ele>504.83</ele>
        <time>2015-01-11T09:56:27Z</time>
      </trkpt>
      <trkpt lat="43.82893" lon="3.60075">
        <ele>510.6</ele>
        <time>2015-01-11T09:56:28Z</time>
      </trkpt>
      <trkpt lat="43.82893" lon="3.60073">
        <ele>506.27</ele>
        <time>2015-01-11T09:56:30Z</time>
      </trkpt>
      <trkpt lat="43.82893" lon="3.60072">
        <ele>506.75</ele>
        <time>2015-01-11T09:56:31Z</time>
      </trkpt>
      <trkpt lat="43.82893" lon="3.60069">
        <ele>507.71</ele>
        <time>2015-01-11T09:56:33Z</time>
      </trkpt>
      <trkpt lat="43.82894" lon="3.60058">
        <ele>511.08</ele>
        <time>2015-01-11T09:56:42Z</time>
      </trkpt>
      <trkpt lat="43.82894" lon="3.60056">
        <ele>506.75</ele>
        <time>2015-01-11T09:56:44Z</time>
      </trkpt>
      <trkpt lat="43.82894" lon="3.60055">
        <ele>513.48</ele>
        <time>2015-01-11T09:56:45Z</time>
      </trkpt>
      <trkpt lat="43.82894" lon="3.60055">
        <ele>508.19</ele>
        <time>2015-01-11T09:56:46Z</time>
      </trkpt>
      <trkpt lat="43.82894" lon="3.60054">
        <ele>511.56</ele>
        <time>2015-01-11T09:56:47Z</time>
      </trkpt>
      <trkpt lat="43.82897" lon="3.60042">
        <ele>515.4</ele>
        <time>2015-01-11T09:57:00Z</time>
      </trkpt>
      <trkpt lat="43.82897" lon="3.60041">
        <ele>511.56</ele>
        <time>2015-01-11T09:57:01Z</time>
      </trkpt>
      <trkpt lat="43.82897" lon="3.6004">
        <ele>514.92</ele>
        <time>2015-01-11T09:57:03Z</time>
      </trkpt>
      <trkpt lat="43.82897" lon="3.60039">
        <ele>511.56</ele>
        <time>2015-01-11T09:57:04Z</time>
      </trkpt>
      <trkpt lat="43.82897" lon="3.60037">
        <ele>516.37</ele>
        <time>2015-01-11T09:57:06Z</time>
      </trkpt>
      <trkpt lat="43.82897" lon="3.60037">
        <ele>512.52</ele>
        <time>2015-01-11T09:57:07Z</time>
      </trkpt>
      <trkpt lat="43.82895" lon="3.60033">
        <ele>518.77</ele>
        <time>2015-01-11T09:57:13Z</time>
      </trkpt>
      <trkpt lat="43.82895" lon="3.60032">
        <ele>514.44</ele>
        <time>2015-01-11T09:57:14Z</time>
      </trkpt>
      <trkpt lat="43.82895" lon="3.60031">
        <ele>518.77</ele>
        <time>2015-01-11T09:57:16Z</time>
      </trkpt>
      <trkpt lat="43.82895" lon="3.6003">
        <ele>514.44</ele>
        <time>2015-01-11T09:57:17Z</time>
      </trkpt>
      <trkpt lat="43.82895" lon="3.60029">
        <ele>518.29</ele>
        <time>2015-01-11T09:57:19Z</time>
      </trkpt>
      <trkpt lat="43.82895" lon="3.60028">
        <ele>513.48</ele>
        <time>2015-01-11T09:57:20Z</time>
      </trkpt>
      <trkpt lat="43.82895" lon="3.60027">
        <ele>518.29</ele>
        <time>2015-01-11T09:57:22Z</time>
      </trkpt>
      <trkpt lat="43.82896" lon="3.60027">
        <ele>515.4</ele>
        <time>2015-01-11T09:57:24Z</time>
      </trkpt>
      <trkpt lat="43.82897" lon="3.60027">
        <ele>518.77</ele>
        <time>2015-01-11T09:57:25Z</time>
      </trkpt>
      <trkpt lat="43.82898" lon="3.60028">
        <ele>515.4</ele>
        <time>2015-01-11T09:57:27Z</time>
      </trkpt>
      <trkpt lat="43.82898" lon="3.60029">
        <ele>519.25</ele>
        <time>2015-01-11T09:57:28Z</time>
      </trkpt>
      <trkpt lat="43.829" lon="3.6003">
        <ele>513.96</ele>
        <time>2015-01-11T09:57:32Z</time>
      </trkpt>
      <trkpt lat="43.829" lon="3.60031">
        <ele>520.21</ele>
        <time>2015-01-11T09:57:33Z</time>
      </trkpt>
      <trkpt lat="43.82902" lon="3.60034">
        <ele>515.4</ele>
        <time>2015-01-11T09:57:37Z</time>
      </trkpt>
      <trkpt lat="43.82903" lon="3.60035">
        <ele>522.13</ele>
        <time>2015-01-11T09:57:38Z</time>
      </trkpt>
      <trkpt lat="43.82903" lon="3.60035">
        <ele>518.77</ele>
        <time>2015-01-11T09:57:39Z</time>
      </trkpt>
      <trkpt lat="43.82905" lon="3.60041">
        <ele>522.13</ele>
        <time>2015-01-11T09:57:46Z</time>
      </trkpt>
      <trkpt lat="43.82906" lon="3.60042">
        <ele>517.81</ele>
        <time>2015-01-11T09:57:48Z</time>
      </trkpt>
      <trkpt lat="43.82907" lon="3.60043">
        <ele>523.58</ele>
        <time>2015-01-11T09:57:49Z</time>
      </trkpt>
      <trkpt lat="43.82907" lon="3.60043">
        <ele>520.21</ele>
        <time>2015-01-11T09:57:50Z</time>
      </trkpt>
      <trkpt lat="43.8291" lon="3.60054">
        <ele>524.54</ele>
        <time>2015-01-11T09:58:00Z</time>
      </trkpt>
      <trkpt lat="43.8291" lon="3.60055">
        <ele>523.09</ele>
        <time>2015-01-11T09:58:01Z</time>
      </trkpt>
      <trkpt lat="43.82919" lon="3.60074">
        <ele>525.98</ele>
        <time>2015-01-11T09:58:18Z</time>
      </trkpt>
      <trkpt lat="43.82919" lon="3.60075">
        <ele>524.06</ele>
        <time>2015-01-11T09:58:19Z</time>
      </trkpt>
      <trkpt lat="43.8292" lon="3.60079">
        <ele>526.46</ele>
        <time>2015-01-11T09:58:23Z</time>
      </trkpt>
      <trkpt lat="43.82923" lon="3.60087">
        <ele>527.9</ele>
        <time>2015-01-11T09:58:29Z</time>
      </trkpt>
      <trkpt lat="43.82924" lon="3.60087">
        <ele>526.46</ele>
        <time>2015-01-11T09:58:30Z</time>
      </trkpt>
      <trkpt lat="43.82924" lon="3.60088">
        <ele>522.61</ele>
        <time>2015-01-11T09:58:31Z</time>
      </trkpt>
      <trkpt lat="43.82924" lon="3.60089">
        <ele>527.42</ele>
        <time>2015-01-11T09:58:32Z</time>
      </trkpt>
      <trkpt lat="43.82926" lon="3.6009">
        <ele>523.58</ele>
        <time>2015-01-11T09:58:34Z</time>
      </trkpt>
      <trkpt lat="43.82926" lon="3.60089">
        <ele>528.86</ele>
        <time>2015-01-11T09:58:35Z</time>
      </trkpt>
      <trkpt lat="43.82927" lon="3.60089">
        <ele>525.5</ele>
        <time>2015-01-11T09:58:36Z</time>
      </trkpt>
      <trkpt lat="43.82927" lon="3.60089">
        <ele>528.86</ele>
        <time>2015-01-11T09:58:38Z</time>
      </trkpt>
      <trkpt lat="43.82927" lon="3.60087">
        <ele>525.02</ele>
        <time>2015-01-11T09:58:40Z</time>
      </trkpt>
      <trkpt lat="43.82927" lon="3.60087">
        <ele>525.5</ele>
        <time>2015-01-11T09:58:41Z</time>
      </trkpt>
      <trkpt lat="43.82927" lon="3.60087">
        <ele>528.86</ele>
        <time>2015-01-11T09:58:42Z</time>
      </trkpt>
      <trkpt lat="43.82926" lon="3.60086">
        <ele>526.94</ele>
        <time>2015-01-11T09:58:43Z</time>
      </trkpt>
      <trkpt lat="43.82929" lon="3.60084">
        <ele>530.3</ele>
        <time>2015-01-11T09:58:53Z</time>
      </trkpt>
      <trkpt lat="43.82929" lon="3.60082">
        <ele>525.02</ele>
        <time>2015-01-11T09:58:57Z</time>
      </trkpt>
      <trkpt lat="43.82929" lon="3.60082">
        <ele>528.86</ele>
        <time>2015-01-11T09:58:58Z</time>
      </trkpt>
      <trkpt lat="43.82929" lon="3.60077">
        <ele>524.54</ele>
        <time>2015-01-11T09:59:04Z</time>
      </trkpt>
      <trkpt lat="43.82929" lon="3.60076">
        <ele>529.34</ele>
        <time>2015-01-11T09:59:05Z</time>
      </trkpt>
      <trkpt lat="43.82929" lon="3.60072">
        <ele>529.82</ele>
        <time>2015-01-11T09:59:10Z</time>
      </trkpt>
      <trkpt lat="43.82929" lon="3.60071">
        <ele>525.98</ele>
        <time>2015-01-11T09:59:11Z</time>
      </trkpt>
      <trkpt lat="43.82929" lon="3.60071">
        <ele>531.27</ele>
        <time>2015-01-11T09:59:12Z</time>
      </trkpt>
      <trkpt lat="43.82927" lon="3.60064">
        <ele>531.27</ele>
        <time>2015-01-11T09:59:20Z</time>
      </trkpt>
      <trkpt lat="43.82929" lon="3.60062">
        <ele>529.82</ele>
        <time>2015-01-11T09:59:25Z</time>
      </trkpt>
      <trkpt lat="43.8293" lon="3.60063">
        <ele>535.11</ele>
        <time>2015-01-11T09:59:26Z</time>
      </trkpt>
      <trkpt lat="43.8293" lon="3.60064">
        <ele>531.75</ele>
        <time>2015-01-11T09:59:27Z</time>
      </trkpt>
      <trkpt lat="43.82932" lon="3.60067">
        <ele>533.19</ele>
        <time>2015-01-11T09:59:30Z</time>
      </trkpt>
      <trkpt lat="43.82933" lon="3.60069">
        <ele>530.3</ele>
        <time>2015-01-11T09:59:32Z</time>
      </trkpt>
      <trkpt lat="43.82933" lon="3.6007">
        <ele>536.07</ele>
        <time>2015-01-11T09:59:33Z</time>
      </trkpt>
      <trkpt lat="43.82933" lon="3.60071">
        <ele>532.71</ele>
        <time>2015-01-11T09:59:34Z</time>
      </trkpt>
      <trkpt lat="43.82933" lon="3.60073">
        <ele>531.27</ele>
        <time>2015-01-11T09:59:36Z</time>
      </trkpt>
      <trkpt lat="43.82934" lon="3.60073">
        <ele>536.07</ele>
        <time>2015-01-11T09:59:37Z</time>
      </trkpt>
      <trkpt lat="43.82934" lon="3.60074">
        <ele>532.71</ele>
        <time>2015-01-11T09:59:38Z</time>
      </trkpt>
      <trkpt lat="43.82935" lon="3.60075">
        <ele>537.03</ele>
        <time>2015-01-11T09:59:40Z</time>
      </trkpt>
      <trkpt lat="43.82936" lon="3.60076">
        <ele>533.67</ele>
        <time>2015-01-11T09:59:41Z</time>
      </trkpt>
      <trkpt lat="43.82937" lon="3.60077">
        <ele>537.03</ele>
        <time>2015-01-11T09:59:43Z</time>
      </trkpt>
      <trkpt lat="43.82937" lon="3.60077">
        <ele>535.59</ele>
        <time>2015-01-11T09:59:44Z</time>
      </trkpt>
      <trkpt lat="43.82937" lon="3.60077">
        <ele>534.63</ele>
        <time>2015-01-11T09:59:46Z</time>
      </trkpt>
      <trkpt lat="43.82937" lon="3.60074">
        <ele>537.99</ele>
        <time>2015-01-11T09:59:50Z</time>
      </trkpt>
      <trkpt lat="43.82937" lon="3.60073">
        <ele>534.15</ele>
        <time>2015-01-11T09:59:51Z</time>
      </trkpt>
      <trkpt lat="43.82937" lon="3.60073">
        <ele>538.96</ele>
        <time>2015-01-11T09:59:53Z</time>
      </trkpt>
      <trkpt lat="43.82938" lon="3.60073">
        <ele>536.07</ele>
        <time>2015-01-11T09:59:54Z</time>
      </trkpt>
      <trkpt lat="43.8294" lon="3.60072">
        <ele>533.19</ele>
        <time>2015-01-11T10:00:17Z</time>
      </trkpt>
      <trkpt lat="43.8294" lon="3.60072">
        <ele>538.48</ele>
        <time>2015-01-11T10:00:18Z</time>
      </trkpt>
      <trkpt lat="43.82941" lon="3.60071">
        <ele>533.19</ele>
        <time>2015-01-11T10:00:23Z</time>
      </trkpt>
      <trkpt lat="43.82941" lon="3.60071">
        <ele>538.48</ele>
        <time>2015-01-11T10:00:24Z</time>
      </trkpt>
      <trkpt lat="43.82944" lon="3.60072">
        <ele>535.11</ele>
        <time>2015-01-11T10:00:30Z</time>
      </trkpt>
      <trkpt lat="43.82945" lon="3.60072">
        <ele>541.84</ele>
        <time>2015-01-11T10:00:31Z</time>
      </trkpt>
      <trkpt lat="43.82945" lon="3.60072">
        <ele>534.15</ele>
        <time>2015-01-11T10:00:32Z</time>
      </trkpt>
      <trkpt lat="43.82946" lon="3.60072">
        <ele>542.8</ele>
        <time>2015-01-11T10:00:33Z</time>
      </trkpt>
      <trkpt lat="43.82946" lon="3.60072">
        <ele>527.9</ele>
        <time>2015-01-11T10:00:34Z</time>
      </trkpt>
      <trkpt lat="43.82946" lon="3.60071">
        <ele>548.57</ele>
        <time>2015-01-11T10:00:35Z</time>
      </trkpt>
      <trkpt lat="43.82946" lon="3.60072">
        <ele>540.88</ele>
        <time>2015-01-11T10:00:36Z</time>
      </trkpt>
      <trkpt lat="43.82947" lon="3.60072">
        <ele>539.44</ele>
        <time>2015-01-11T10:00:39Z</time>
      </trkpt>
      <trkpt lat="43.82949" lon="3.60074">
        <ele>542.8</ele>
        <time>2015-01-11T10:00:53Z</time>
      </trkpt>
      <trkpt lat="43.82952" lon="3.60076">
        <ele>537.03</ele>
        <time>2015-01-11T10:01:01Z</time>
      </trkpt>
      <trkpt lat="43.82952" lon="3.60076">
        <ele>548.57</ele>
        <time>2015-01-11T10:01:02Z</time>
      </trkpt>
      <trkpt lat="43.82953" lon="3.60076">
        <ele>538.96</ele>
        <time>2015-01-11T10:01:03Z</time>
      </trkpt>
      <trkpt lat="43.82953" lon="3.60075">
        <ele>547.61</ele>
        <time>2015-01-11T10:01:04Z</time>
      </trkpt>
      <trkpt lat="43.82953" lon="3.60075">
        <ele>543.28</ele>
        <time>2015-01-11T10:01:05Z</time>
      </trkpt>
      <trkpt lat="43.82956" lon="3.60086">
        <ele>541.84</ele>
        <time>2015-01-11T10:01:13Z</time>
      </trkpt>
      <trkpt lat="43.82956" lon="3.60088">
        <ele>539.92</ele>
        <time>2015-01-11T10:01:15Z</time>
      </trkpt>
      <trkpt lat="43.82956" lon="3.60089">
        <ele>544.24</ele>
        <time>2015-01-11T10:01:16Z</time>
      </trkpt>
      <trkpt lat="43.82956" lon="3.60092">
        <ele>540.4</ele>
        <time>2015-01-11T10:01:18Z</time>
      </trkpt>
      <trkpt lat="43.82956" lon="3.60093">
        <ele>546.17</ele>
        <time>2015-01-11T10:01:19Z</time>
      </trkpt>
      <trkpt lat="43.82957" lon="3.60094">
        <ele>542.32</ele>
        <time>2015-01-11T10:01:20Z</time>
      </trkpt>
      <trkpt lat="43.82958" lon="3.601">
        <ele>546.17</ele>
        <time>2015-01-11T10:01:26Z</time>
      </trkpt>
      <trkpt lat="43.82958" lon="3.60103">
        <ele>542.8</ele>
        <time>2015-01-11T10:01:28Z</time>
      </trkpt>
      <trkpt lat="43.8296" lon="3.60108">
        <ele>540.88</ele>
        <time>2015-01-11T10:01:33Z</time>
      </trkpt>
      <trkpt lat="43.8296" lon="3.60109">
        <ele>548.57</ele>
        <time>2015-01-11T10:01:34Z</time>
      </trkpt>
      <trkpt lat="43.8296" lon="3.6011">
        <ele>545.2</ele>
        <time>2015-01-11T10:01:35Z</time>
      </trkpt>
      <trkpt lat="43.82961" lon="3.6011">
        <ele>545.2</ele>
        <time>2015-01-11T10:01:36Z</time>
      </trkpt>
      <trkpt lat="43.82961" lon="3.60112">
        <ele>544.72</ele>
        <time>2015-01-11T10:01:39Z</time>
      </trkpt>
      <trkpt lat="43.82958" lon="3.60117">
        <ele>548.09</ele>
        <time>2015-01-11T10:01:42Z</time>
      </trkpt>
      <trkpt lat="43.82957" lon="3.60118">
        <ele>543.76</ele>
        <time>2015-01-11T10:01:43Z</time>
      </trkpt>
      <trkpt lat="43.82957" lon="3.60119">
        <ele>547.61</ele>
        <time>2015-01-11T10:01:44Z</time>
      </trkpt>
      <trkpt lat="43.8296" lon="3.60125">
        <ele>545.69</ele>
        <time>2015-01-11T10:01:57Z</time>
      </trkpt>
      <trkpt lat="43.82963" lon="3.60127">
        <ele>546.17</ele>
        <time>2015-01-11T10:02:12Z</time>
      </trkpt>
      <trkpt lat="43.82963" lon="3.60127">
        <ele>546.17</ele>
        <time>2015-01-11T10:02:36Z</time>
      </trkpt>
      <trkpt lat="43.82964" lon="3.60124">
        <ele>546.17</ele>
        <time>2015-01-11T10:03:02Z</time>
      </trkpt>
      <trkpt lat="43.82964" lon="3.60125">
        <ele>545.69</ele>
        <time>2015-01-11T10:03:17Z</time>
      </trkpt>
      <trkpt lat="43.82964" lon="3.60125">
        <ele>546.65</ele>
        <time>2015-01-11T10:03:35Z</time>
      </trkpt>
      <trkpt lat="43.82974" lon="3.60123">
        <ele>546.65</ele>
        <time>2015-01-11T10:03:52Z</time>
      </trkpt>
      <trkpt lat="43.82975" lon="3.60121">
        <ele>545.69</ele>
        <time>2015-01-11T10:04:07Z</time>
      </trkpt>
      <trkpt lat="43.82987" lon="3.6011">
        <ele>542.32</ele>
        <time>2015-01-11T10:04:20Z</time>
      </trkpt>
      <trkpt lat="43.82991" lon="3.60105">
        <ele>538.96</ele>
        <time>2015-01-11T10:04:29Z</time>
      </trkpt>
      <trkpt lat="43.82993" lon="3.60103">
        <ele>540.4</ele>
        <time>2015-01-11T10:04:32Z</time>
      </trkpt>
      <trkpt lat="43.82993" lon="3.60097">
        <ele>539.44</ele>
        <time>2015-01-11T10:04:43Z</time>
      </trkpt>
      <trkpt lat="43.82998" lon="3.60088">
        <ele>537.03</ele>
        <time>2015-01-11T10:04:58Z</time>
      </trkpt>
      <trkpt lat="43.82998" lon="3.60087">
        <ele>536.55</ele>
        <time>2015-01-11T10:04:59Z</time>
      </trkpt>
      <trkpt lat="43.83002" lon="3.60082">
        <ele>535.11</ele>
        <time>2015-01-11T10:05:07Z</time>
      </trkpt>
      <trkpt lat="43.83009" lon="3.60077">
        <ele>533.67</ele>
        <time>2015-01-11T10:05:20Z</time>
      </trkpt>
      <trkpt lat="43.83016" lon="3.6008">
        <ele>532.23</ele>
        <time>2015-01-11T10:05:33Z</time>
      </trkpt>
      <trkpt lat="43.83018" lon="3.60083">
        <ele>531.27</ele>
        <time>2015-01-11T10:05:48Z</time>
      </trkpt>
      <trkpt lat="43.8303" lon="3.60067">
        <ele>530.3</ele>
        <time>2015-01-11T10:06:05Z</time>
      </trkpt>
      <trkpt lat="43.83033" lon="3.60065">
        <ele>528.86</ele>
        <time>2015-01-11T10:06:23Z</time>
      </trkpt>
      <trkpt lat="43.83042" lon="3.60064">
        <ele>528.38</ele>
        <time>2015-01-11T10:06:38Z</time>
      </trkpt>
      <trkpt lat="43.83044" lon="3.6006">
        <ele>527.9</ele>
        <time>2015-01-11T10:06:56Z</time>
      </trkpt>
      <trkpt lat="43.83041" lon="3.60066">
        <ele>528.86</ele>
        <time>2015-01-11T10:07:13Z</time>
      </trkpt>
      <trkpt lat="43.8304" lon="3.60073">
        <ele>528.86</ele>
        <time>2015-01-11T10:07:38Z</time>
      </trkpt>
      <trkpt lat="43.8304" lon="3.60079">
        <ele>528.86</ele>
        <time>2015-01-11T10:08:04Z</time>
      </trkpt>
      <trkpt lat="43.83036" lon="3.60074">
        <ele>528.86</ele>
        <time>2015-01-11T10:08:18Z</time>
      </trkpt>
      <trkpt lat="43.83033" lon="3.60075">
        <ele>528.38</ele>
        <time>2015-01-11T10:08:42Z</time>
      </trkpt>
      <trkpt lat="43.83036" lon="3.60073">
        <ele>528.38</ele>
        <time>2015-01-11T10:08:58Z</time>
      </trkpt>
      <trkpt lat="43.83036" lon="3.60073">
        <ele>528.38</ele>
        <time>2015-01-11T10:09:17Z</time>
      </trkpt>
      <trkpt lat="43.8304" lon="3.60071">
        <ele>527.9</ele>
        <time>2015-01-11T10:09:46Z</time>
      </trkpt>
      <trkpt lat="43.83041" lon="3.60065">
        <ele>527.42</ele>
        <time>2015-01-11T10:10:14Z</time>
      </trkpt>
      <trkpt lat="43.83039" lon="3.60074">
        <ele>527.42</ele>
        <time>2015-01-11T10:10:32Z</time>
      </trkpt>
      <trkpt lat="43.8304" lon="3.60075">
        <ele>527.42</ele>
        <time>2015-01-11T10:10:55Z</time>
      </trkpt>
      <trkpt lat="43.83037" lon="3.60078">
        <ele>527.9</ele>
        <time>2015-01-11T10:11:11Z</time>
      </trkpt>
      <trkpt lat="43.83041" lon="3.60076">
        <ele>527.42</ele>
        <time>2015-01-11T10:11:29Z</time>
      </trkpt>
      <trkpt lat="43.83036" lon="3.60082">
        <ele>527.42</ele>
        <time>2015-01-11T10:11:54Z</time>
      </trkpt>
      <trkpt lat="43.83036" lon="3.60078">
        <ele>526.94</ele>
        <time>2015-01-11T10:12:29Z</time>
      </trkpt>
      <trkpt lat="43.83039" lon="3.60078">
        <ele>526.46</ele>
        <time>2015-01-11T10:12:57Z</time>
      </trkpt>
      <trkpt lat="43.83038" lon="3.60074">
        <ele>526.46</ele>
        <time>2015-01-11T10:13:26Z</time>
      </trkpt>
      <trkpt lat="43.83037" lon="3.60081">
        <ele>526.46</ele>
        <time>2015-01-11T10:13:59Z</time>
      </trkpt>
      <trkpt lat="43.83035" lon="3.60083">
        <ele>526.46</ele>
        <time>2015-01-11T10:14:30Z</time>
      </trkpt>
      <trkpt lat="43.83039" lon="3.60081">
        <ele>526.46</ele>
        <time>2015-01-11T10:15:06Z</time>
      </trkpt>
      <trkpt lat="43.83039" lon="3.60087">
        <ele>526.46</ele>
        <time>2015-01-11T10:15:36Z</time>
      </trkpt>
      <trkpt lat="43.83033" lon="3.60092">
        <ele>525.5</ele>
        <time>2015-01-11T10:15:56Z</time>
      </trkpt>
      <trkpt lat="43.83032" lon="3.60094">
        <ele>531.75</ele>
        <time>2015-01-11T10:15:58Z</time>
      </trkpt>
      <trkpt lat="43.83031" lon="3.60094">
        <ele>527.42</ele>
        <time>2015-01-11T10:15:59Z</time>
      </trkpt>
      <trkpt lat="43.83021" lon="3.60096">
        <ele>528.38</ele>
        <time>2015-01-11T10:16:17Z</time>
      </trkpt>
      <trkpt lat="43.83012" lon="3.601">
        <ele>529.34</ele>
        <time>2015-01-11T10:16:36Z</time>
      </trkpt>
      <trkpt lat="43.83012" lon="3.60109">
        <ele>529.82</ele>
        <time>2015-01-11T10:17:02Z</time>
      </trkpt>
      <trkpt lat="43.83013" lon="3.6011">
        <ele>529.34</ele>
        <time>2015-01-11T10:17:35Z</time>
      </trkpt>
      <trkpt lat="43.83007" lon="3.6012">
        <ele>529.82</ele>
        <time>2015-01-11T10:18:05Z</time>
      </trkpt>
      <trkpt lat="43.83004" lon="3.6012">
        <ele>532.71</ele>
        <time>2015-01-11T10:18:09Z</time>
      </trkpt>
      <trkpt lat="43.82999" lon="3.60118">
        <ele>526.46</ele>
        <time>2015-01-11T10:18:19Z</time>
      </trkpt>
      <trkpt lat="43.82999" lon="3.60118">
        <ele>532.23</ele>
        <time>2015-01-11T10:18:20Z</time>
      </trkpt>
      <trkpt lat="43.82999" lon="3.60118">
        <ele>532.23</ele>
        <time>2015-01-11T10:18:21Z</time>
      </trkpt>
      <trkpt lat="43.82998" lon="3.60117">
        <ele>537.51</ele>
        <time>2015-01-11T10:18:26Z</time>
      </trkpt>
      <trkpt lat="43.82998" lon="3.60116">
        <ele>532.71</ele>
        <time>2015-01-11T10:18:27Z</time>
      </trkpt>
      <trkpt lat="43.83001" lon="3.60124">
        <ele>532.71</ele>
        <time>2015-01-11T10:18:51Z</time>
      </trkpt>
      <trkpt lat="43.83003" lon="3.60112">
        <ele>532.71</ele>
        <time>2015-01-11T10:19:16Z</time>
      </trkpt>
      <trkpt lat="43.82991" lon="3.6011">
        <ele>536.07</ele>
        <time>2015-01-11T10:19:36Z</time>
      </trkpt>
      <trkpt lat="43.8299" lon="3.6011">
        <ele>536.07</ele>
        <time>2015-01-11T10:19:37Z</time>
      </trkpt>
      <trkpt lat="43.8299" lon="3.60103">
        <ele>536.55</ele>
        <time>2015-01-11T10:19:58Z</time>
      </trkpt>
      <trkpt lat="43.8299" lon="3.60095">
        <ele>537.03</ele>
        <time>2015-01-11T10:20:23Z</time>
      </trkpt>
      <trkpt lat="43.82987" lon="3.60097">
        <ele>537.99</ele>
        <time>2015-01-11T10:20:43Z</time>
      </trkpt>
      <trkpt lat="43.82985" lon="3.60103">
        <ele>542.32</ele>
        <time>2015-01-11T10:20:48Z</time>
      </trkpt>
      <trkpt lat="43.82985" lon="3.60108">
        <ele>537.51</ele>
        <time>2015-01-11T10:20:50Z</time>
      </trkpt>
      <trkpt lat="43.82984" lon="3.60111">
        <ele>540.4</ele>
        <time>2015-01-11T10:20:52Z</time>
      </trkpt>
      <trkpt lat="43.82978" lon="3.60114">
        <ele>544.72</ele>
        <time>2015-01-11T10:21:04Z</time>
      </trkpt>
      <trkpt lat="43.82974" lon="3.60119">
        <ele>543.76</ele>
        <time>2015-01-11T10:21:22Z</time>
      </trkpt>
      <trkpt lat="43.82974" lon="3.60118">
        <ele>540.88</ele>
        <time>2015-01-11T10:21:29Z</time>
      </trkpt>
      <trkpt lat="43.82973" lon="3.60119">
        <ele>547.13</ele>
        <time>2015-01-11T10:21:30Z</time>
      </trkpt>
      <trkpt lat="43.82973" lon="3.60119">
        <ele>539.92</ele>
        <time>2015-01-11T10:21:31Z</time>
      </trkpt>
      <trkpt lat="43.82973" lon="3.60119">
        <ele>548.57</ele>
        <time>2015-01-11T10:21:32Z</time>
      </trkpt>
      <trkpt lat="43.82973" lon="3.6012">
        <ele>545.2</ele>
        <time>2015-01-11T10:21:33Z</time>
      </trkpt>
      <trkpt lat="43.82961" lon="3.60121">
        <ele>545.69</ele>
        <time>2015-01-11T10:21:52Z</time>
      </trkpt>
      <trkpt lat="43.82961" lon="3.60121">
        <ele>545.69</ele>
        <time>2015-01-11T10:22:14Z</time>
      </trkpt>
      <trkpt lat="43.82958" lon="3.60118">
        <ele>545.69</ele>
        <time>2015-01-11T10:22:31Z</time>
      </trkpt>
      <trkpt lat="43.82955" lon="3.60115">
        <ele>544.72</ele>
        <time>2015-01-11T10:22:45Z</time>
      </trkpt>
      <trkpt lat="43.8295" lon="3.60095">
        <ele>542.8</ele>
        <time>2015-01-11T10:23:04Z</time>
      </trkpt>
      <trkpt lat="43.82951" lon="3.60086">
        <ele>542.8</ele>
        <time>2015-01-11T10:23:21Z</time>
      </trkpt>
      <trkpt lat="43.8295" lon="3.60082">
        <ele>542.8</ele>
        <time>2015-01-11T10:23:39Z</time>
      </trkpt>
      <trkpt lat="43.82948" lon="3.60081">
        <ele>543.28</ele>
        <time>2015-01-11T10:24:02Z</time>
      </trkpt>
      <trkpt lat="43.82947" lon="3.60077">
        <ele>543.76</ele>
        <time>2015-01-11T10:24:31Z</time>
      </trkpt>
      <trkpt lat="43.82948" lon="3.60076">
        <ele>549.05</ele>
        <time>2015-01-11T10:24:34Z</time>
      </trkpt>
      <trkpt lat="43.82947" lon="3.60076">
        <ele>542.8</ele>
        <time>2015-01-11T10:24:35Z</time>
      </trkpt>
      <trkpt lat="43.82946" lon="3.60073">
        <ele>538.48</ele>
        <time>2015-01-11T10:24:45Z</time>
      </trkpt>
      <trkpt lat="43.82945" lon="3.60073">
        <ele>544.24</ele>
        <time>2015-01-11T10:24:46Z</time>
      </trkpt>
      <trkpt lat="43.82945" lon="3.60073">
        <ele>543.76</ele>
        <time>2015-01-11T10:24:47Z</time>
      </trkpt>
      <trkpt lat="43.82944" lon="3.60073">
        <ele>539.44</ele>
        <time>2015-01-11T10:24:48Z</time>
      </trkpt>
      <trkpt lat="43.82944" lon="3.60074">
        <ele>543.28</ele>
        <time>2015-01-11T10:24:49Z</time>
      </trkpt>
      <trkpt lat="43.82943" lon="3.60075">
        <ele>539.92</ele>
        <time>2015-01-11T10:24:51Z</time>
      </trkpt>
      <trkpt lat="43.82942" lon="3.60075">
        <ele>539.92</ele>
        <time>2015-01-11T10:24:52Z</time>
      </trkpt>
      <trkpt lat="43.82943" lon="3.60075">
        <ele>533.19</ele>
        <time>2015-01-11T10:24:56Z</time>
      </trkpt>
      <trkpt lat="43.82944" lon="3.60075">
        <ele>543.76</ele>
        <time>2015-01-11T10:24:57Z</time>
      </trkpt>
      <trkpt lat="43.82944" lon="3.60074">
        <ele>540.4</ele>
        <time>2015-01-11T10:24:58Z</time>
      </trkpt>
      <trkpt lat="43.82942" lon="3.60071">
        <ele>538.48</ele>
        <time>2015-01-11T10:25:10Z</time>
      </trkpt>
      <trkpt lat="43.82939" lon="3.60064">
        <ele>535.11</ele>
        <time>2015-01-11T10:25:21Z</time>
      </trkpt>
      <trkpt lat="43.82939" lon="3.60064">
        <ele>538.48</ele>
        <time>2015-01-11T10:25:22Z</time>
      </trkpt>
      <trkpt lat="43.82942" lon="3.60063">
        <ele>538.96</ele>
        <time>2015-01-11T10:25:46Z</time>
      </trkpt>
      <trkpt lat="43.8294" lon="3.60057">
        <ele>539.44</ele>
        <time>2015-01-11T10:26:17Z</time>
      </trkpt>
      <trkpt lat="43.8294" lon="3.60053">
        <ele>539.92</ele>
        <time>2015-01-11T10:26:48Z</time>
      </trkpt>
      <trkpt lat="43.82941" lon="3.60046">
        <ele>543.76</ele>
        <time>2015-01-11T10:26:56Z</time>
      </trkpt>
      <trkpt lat="43.82941" lon="3.6004">
        <ele>540.4</ele>
        <time>2015-01-11T10:27:00Z</time>
      </trkpt>
      <trkpt lat="43.82941" lon="3.60037">
        <ele>544.72</ele>
        <time>2015-01-11T10:27:03Z</time>
      </trkpt>
      <trkpt lat="43.82941" lon="3.60037">
        <ele>541.36</ele>
        <time>2015-01-11T10:27:04Z</time>
      </trkpt>
      <trkpt lat="43.82939" lon="3.60023">
        <ele>544.24</ele>
        <time>2015-01-11T10:27:18Z</time>
      </trkpt>
      <trkpt lat="43.82939" lon="3.60009">
        <ele>546.65</ele>
        <time>2015-01-11T10:27:35Z</time>
      </trkpt>
      <trkpt lat="43.82938" lon="3.59996">
        <ele>548.57</ele>
        <time>2015-01-11T10:27:50Z</time>
      </trkpt>
      <trkpt lat="43.82934" lon="3.59987">
        <ele>549.53</ele>
        <time>2015-01-11T10:28:03Z</time>
      </trkpt>
      <trkpt lat="43.82926" lon="3.59979">
        <ele>551.45</ele>
        <time>2015-01-11T10:28:18Z</time>
      </trkpt>
      <trkpt lat="43.82926" lon="3.59974">
        <ele>553.86</ele>
        <time>2015-01-11T10:28:32Z</time>
      </trkpt>
      <trkpt lat="43.8293" lon="3.59969">
        <ele>555.3</ele>
        <time>2015-01-11T10:28:46Z</time>
      </trkpt>
      <trkpt lat="43.82923" lon="3.59964">
        <ele>556.74</ele>
        <time>2015-01-11T10:28:59Z</time>
      </trkpt>
      <trkpt lat="43.82915" lon="3.59963">
        <ele>558.18</ele>
        <time>2015-01-11T10:29:11Z</time>
      </trkpt>
      <trkpt lat="43.82915" lon="3.59957">
        <ele>558.18</ele>
        <time>2015-01-11T10:29:21Z</time>
      </trkpt>
      <trkpt lat="43.82916" lon="3.59951">
        <ele>558.18</ele>
        <time>2015-01-11T10:29:25Z</time>
      </trkpt>
      <trkpt lat="43.8292" lon="3.59932">
        <ele>556.26</ele>
        <time>2015-01-11T10:29:41Z</time>
      </trkpt>
      <trkpt lat="43.8292" lon="3.59926">
        <ele>555.3</ele>
        <time>2015-01-11T10:29:45Z</time>
      </trkpt>
      <trkpt lat="43.8292" lon="3.59903">
        <ele>554.82</ele>
        <time>2015-01-11T10:29:59Z</time>
      </trkpt>
      <trkpt lat="43.8292" lon="3.599">
        <ele>554.82</ele>
        <time>2015-01-11T10:30:01Z</time>
      </trkpt>
      <trkpt lat="43.82919" lon="3.59878">
        <ele>554.82</ele>
        <time>2015-01-11T10:30:16Z</time>
      </trkpt>
      <trkpt lat="43.8292" lon="3.59871">
        <ele>553.86</ele>
        <time>2015-01-11T10:30:23Z</time>
      </trkpt>
      <trkpt lat="43.82921" lon="3.59859">
        <ele>552.41</ele>
        <time>2015-01-11T10:30:36Z</time>
      </trkpt>
      <trkpt lat="43.82924" lon="3.59849">
        <ele>550.97</ele>
        <time>2015-01-11T10:30:48Z</time>
      </trkpt>
      <trkpt lat="43.82927" lon="3.59834">
        <ele>549.05</ele>
        <time>2015-01-11T10:31:00Z</time>
      </trkpt>
      <trkpt lat="43.82927" lon="3.59829">
        <ele>549.53</ele>
        <time>2015-01-11T10:31:02Z</time>
      </trkpt>
      <trkpt lat="43.82928" lon="3.59812">
        <ele>549.53</ele>
        <time>2015-01-11T10:31:15Z</time>
      </trkpt>
      <trkpt lat="43.82925" lon="3.59797">
        <ele>548.09</ele>
        <time>2015-01-11T10:31:26Z</time>
      </trkpt>
      <trkpt lat="43.82922" lon="3.5979">
        <ele>551.45</ele>
        <time>2015-01-11T10:31:31Z</time>
      </trkpt>
      <trkpt lat="43.82917" lon="3.59786">
        <ele>546.65</ele>
        <time>2015-01-11T10:31:36Z</time>
      </trkpt>
      <trkpt lat="43.82916" lon="3.59785">
        <ele>552.41</ele>
        <time>2015-01-11T10:31:37Z</time>
      </trkpt>
      <trkpt lat="43.82915" lon="3.59783">
        <ele>548.09</ele>
        <time>2015-01-11T10:31:39Z</time>
      </trkpt>
      <trkpt lat="43.82913" lon="3.59781">
        <ele>551.93</ele>
        <time>2015-01-11T10:31:41Z</time>
      </trkpt>
      <trkpt lat="43.82912" lon="3.5978">
        <ele>548.09</ele>
        <time>2015-01-11T10:31:42Z</time>
      </trkpt>
      <trkpt lat="43.82909" lon="3.59776">
        <ele>548.57</ele>
        <time>2015-01-11T10:31:46Z</time>
      </trkpt>
      <trkpt lat="43.82902" lon="3.59761">
        <ele>552.9</ele>
        <time>2015-01-11T10:31:59Z</time>
      </trkpt>
      <trkpt lat="43.82894" lon="3.59755">
        <ele>549.53</ele>
        <time>2015-01-11T10:32:09Z</time>
      </trkpt>
      <trkpt lat="43.82893" lon="3.59754">
        <ele>554.82</ele>
        <time>2015-01-11T10:32:10Z</time>
      </trkpt>
      <trkpt lat="43.82891" lon="3.59753">
        <ele>550.97</ele>
        <time>2015-01-11T10:32:12Z</time>
      </trkpt>
      <trkpt lat="43.82882" lon="3.59745">
        <ele>554.82</ele>
        <time>2015-01-11T10:32:23Z</time>
      </trkpt>
      <trkpt lat="43.8288" lon="3.59743">
        <ele>551.45</ele>
        <time>2015-01-11T10:32:25Z</time>
      </trkpt>
      <trkpt lat="43.82879" lon="3.59741">
        <ele>556.74</ele>
        <time>2015-01-11T10:32:28Z</time>
      </trkpt>
      <trkpt lat="43.82878" lon="3.5974">
        <ele>553.86</ele>
        <time>2015-01-11T10:32:29Z</time>
      </trkpt>
      <trkpt lat="43.82876" lon="3.59737">
        <ele>557.22</ele>
        <time>2015-01-11T10:32:34Z</time>
      </trkpt>
      <trkpt lat="43.82875" lon="3.59734">
        <ele>553.86</ele>
        <time>2015-01-11T10:32:37Z</time>
      </trkpt>
      <trkpt lat="43.82872" lon="3.59728">
        <ele>557.7</ele>
        <time>2015-01-11T10:32:43Z</time>
      </trkpt>
      <trkpt lat="43.82871" lon="3.59726">
        <ele>553.86</ele>
        <time>2015-01-11T10:32:45Z</time>
      </trkpt>
      <trkpt lat="43.82871" lon="3.59725">
        <ele>559.14</ele>
        <time>2015-01-11T10:32:46Z</time>
      </trkpt>
      <trkpt lat="43.8287" lon="3.59724">
        <ele>554.34</ele>
        <time>2015-01-11T10:32:47Z</time>
      </trkpt>
      <trkpt lat="43.82869" lon="3.59721">
        <ele>559.62</ele>
        <time>2015-01-11T10:32:51Z</time>
      </trkpt>
      <trkpt lat="43.82867" lon="3.59717">
        <ele>556.74</ele>
        <time>2015-01-11T10:32:57Z</time>
      </trkpt>
      <trkpt lat="43.82867" lon="3.59717">
        <ele>559.62</ele>
        <time>2015-01-11T10:32:58Z</time>
      </trkpt>
      <trkpt lat="43.82859" lon="3.59704">
        <ele>563.47</ele>
        <time>2015-01-11T10:33:18Z</time>
      </trkpt>
      <trkpt lat="43.82853" lon="3.59699">
        <ele>562.51</ele>
        <time>2015-01-11T10:33:25Z</time>
      </trkpt>
      <trkpt lat="43.82842" lon="3.59687">
        <ele>566.35</ele>
        <time>2015-01-11T10:33:38Z</time>
      </trkpt>
      <trkpt lat="43.8283" lon="3.59675">
        <ele>567.8</ele>
        <time>2015-01-11T10:33:57Z</time>
      </trkpt>
      <trkpt lat="43.82825" lon="3.5966">
        <ele>570.2</ele>
        <time>2015-01-11T10:34:15Z</time>
      </trkpt>
      <trkpt lat="43.82824" lon="3.5966">
        <ele>569.72</ele>
        <time>2015-01-11T10:34:16Z</time>
      </trkpt>
      <trkpt lat="43.82829" lon="3.59661">
        <ele>570.68</ele>
        <time>2015-01-11T10:34:29Z</time>
      </trkpt>
      <trkpt lat="43.82831" lon="3.59661">
        <ele>573.56</ele>
        <time>2015-01-11T10:34:32Z</time>
      </trkpt>
      <trkpt lat="43.8284" lon="3.5966">
        <ele>575.01</ele>
        <time>2015-01-11T10:34:50Z</time>
      </trkpt>
      <trkpt lat="43.8284" lon="3.59649">
        <ele>576.45</ele>
        <time>2015-01-11T10:35:04Z</time>
      </trkpt>
      <trkpt lat="43.82845" lon="3.59642">
        <ele>579.81</ele>
        <time>2015-01-11T10:35:16Z</time>
      </trkpt>
      <trkpt lat="43.82849" lon="3.59639">
        <ele>580.29</ele>
        <time>2015-01-11T10:35:23Z</time>
      </trkpt>
      <trkpt lat="43.82853" lon="3.59646">
        <ele>580.77</ele>
        <time>2015-01-11T10:35:36Z</time>
      </trkpt>
      <trkpt lat="43.82859" lon="3.59651">
        <ele>584.14</ele>
        <time>2015-01-11T10:35:48Z</time>
      </trkpt>
      <trkpt lat="43.8287" lon="3.59655">
        <ele>582.22</ele>
        <time>2015-01-11T10:36:04Z</time>
      </trkpt>
      <trkpt lat="43.82875" lon="3.59655">
        <ele>585.1</ele>
        <time>2015-01-11T10:36:12Z</time>
      </trkpt>
      <trkpt lat="43.82873" lon="3.5965">
        <ele>587.5</ele>
        <time>2015-01-11T10:36:20Z</time>
      </trkpt>
      <trkpt lat="43.8287" lon="3.5964">
        <ele>588.95</ele>
        <time>2015-01-11T10:36:34Z</time>
      </trkpt>
      <trkpt lat="43.8287" lon="3.59639">
        <ele>584.62</ele>
        <time>2015-01-11T10:36:35Z</time>
      </trkpt>
      <trkpt lat="43.82871" lon="3.59639">
        <ele>591.35</ele>
        <time>2015-01-11T10:36:36Z</time>
      </trkpt>
      <trkpt lat="43.82871" lon="3.59638">
        <ele>586.54</ele>
        <time>2015-01-11T10:36:37Z</time>
      </trkpt>
      <trkpt lat="43.82871" lon="3.59637">
        <ele>589.91</ele>
        <time>2015-01-11T10:36:38Z</time>
      </trkpt>
      <trkpt lat="43.82875" lon="3.59627">
        <ele>588.95</ele>
        <time>2015-01-11T10:36:49Z</time>
      </trkpt>
      <trkpt lat="43.82879" lon="3.59621">
        <ele>592.31</ele>
        <time>2015-01-11T10:36:56Z</time>
      </trkpt>
      <trkpt lat="43.82879" lon="3.5962">
        <ele>589.43</ele>
        <time>2015-01-11T10:36:57Z</time>
      </trkpt>
      <trkpt lat="43.82879" lon="3.59619">
        <ele>592.31</ele>
        <time>2015-01-11T10:36:59Z</time>
      </trkpt>
      <trkpt lat="43.82881" lon="3.59616">
        <ele>592.79</ele>
        <time>2015-01-11T10:37:02Z</time>
      </trkpt>
      <trkpt lat="43.82883" lon="3.5961">
        <ele>588.46</ele>
        <time>2015-01-11T10:37:08Z</time>
      </trkpt>
      <trkpt lat="43.82883" lon="3.5961">
        <ele>594.71</ele>
        <time>2015-01-11T10:37:09Z</time>
      </trkpt>
      <trkpt lat="43.82884" lon="3.59609">
        <ele>591.83</ele>
        <time>2015-01-11T10:37:11Z</time>
      </trkpt>
      <trkpt lat="43.82891" lon="3.59601">
        <ele>594.23</ele>
        <time>2015-01-11T10:37:24Z</time>
      </trkpt>
      <trkpt lat="43.82899" lon="3.59594">
        <ele>597.6</ele>
        <time>2015-01-11T10:37:36Z</time>
      </trkpt>
      <trkpt lat="43.82908" lon="3.59581">
        <ele>596.15</ele>
        <time>2015-01-11T10:37:51Z</time>
      </trkpt>
      <trkpt lat="43.82909" lon="3.59579">
        <ele>599.52</ele>
        <time>2015-01-11T10:37:54Z</time>
      </trkpt>
      <trkpt lat="43.82914" lon="3.59568">
        <ele>598.08</ele>
        <time>2015-01-11T10:38:07Z</time>
      </trkpt>
      <trkpt lat="43.82914" lon="3.59567">
        <ele>601.92</ele>
        <time>2015-01-11T10:38:08Z</time>
      </trkpt>
      <trkpt lat="43.8292" lon="3.59553">
        <ele>601.44</ele>
        <time>2015-01-11T10:38:22Z</time>
      </trkpt>
      <trkpt lat="43.82924" lon="3.59547">
        <ele>605.77</ele>
        <time>2015-01-11T10:38:30Z</time>
      </trkpt>
      <trkpt lat="43.82924" lon="3.59546">
        <ele>602.88</ele>
        <time>2015-01-11T10:38:31Z</time>
      </trkpt>
      <trkpt lat="43.82928" lon="3.59537">
        <ele>606.25</ele>
        <time>2015-01-11T10:38:45Z</time>
      </trkpt>
      <trkpt lat="43.82927" lon="3.59526">
        <ele>607.21</ele>
        <time>2015-01-11T10:38:58Z</time>
      </trkpt>
      <trkpt lat="43.82924" lon="3.59519">
        <ele>609.13</ele>
        <time>2015-01-11T10:39:09Z</time>
      </trkpt>
      <trkpt lat="43.82934" lon="3.59513">
        <ele>612.98</ele>
        <time>2015-01-11T10:39:24Z</time>
      </trkpt>
      <trkpt lat="43.82939" lon="3.59513">
        <ele>613.46</ele>
        <time>2015-01-11T10:39:30Z</time>
      </trkpt>
      <trkpt lat="43.82943" lon="3.59518">
        <ele>614.9</ele>
        <time>2015-01-11T10:39:38Z</time>
      </trkpt>
      <trkpt lat="43.82946" lon="3.59512">
        <ele>617.3</ele>
        <time>2015-01-11T10:39:53Z</time>
      </trkpt>
      <trkpt lat="43.82948" lon="3.59499">
        <ele>620.67</ele>
        <time>2015-01-11T10:40:08Z</time>
      </trkpt>
      <trkpt lat="43.82948" lon="3.59499">
        <ele>620.67</ele>
        <time>2015-01-11T10:40:09Z</time>
      </trkpt>
      <trkpt lat="43.82954" lon="3.59503">
        <ele>621.15</ele>
        <time>2015-01-11T10:40:23Z</time>
      </trkpt>
      <trkpt lat="43.82955" lon="3.59506">
        <ele>621.15</ele>
        <time>2015-01-11T10:40:26Z</time>
      </trkpt>
      <trkpt lat="43.82957" lon="3.59523">
        <ele>623.07</ele>
        <time>2015-01-11T10:40:38Z</time>
      </trkpt>
      <trkpt lat="43.82958" lon="3.59538">
        <ele>624.51</ele>
        <time>2015-01-11T10:40:54Z</time>
      </trkpt>
      <trkpt lat="43.82958" lon="3.59556">
        <ele>625.96</ele>
        <time>2015-01-11T10:41:08Z</time>
      </trkpt>
      <trkpt lat="43.82959" lon="3.59573">
        <ele>627.88</ele>
        <time>2015-01-11T10:41:21Z</time>
      </trkpt>
      <trkpt lat="43.8296" lon="3.59589">
        <ele>630.28</ele>
        <time>2015-01-11T10:41:35Z</time>
      </trkpt>
      <trkpt lat="43.82967" lon="3.59587">
        <ele>632.68</ele>
        <time>2015-01-11T10:41:53Z</time>
      </trkpt>
      <trkpt lat="43.82973" lon="3.59578">
        <ele>634.61</ele>
        <time>2015-01-11T10:42:05Z</time>
      </trkpt>
      <trkpt lat="43.82973" lon="3.59568">
        <ele>636.53</ele>
        <time>2015-01-11T10:42:16Z</time>
      </trkpt>
      <trkpt lat="43.82975" lon="3.59558">
        <ele>639.89</ele>
        <time>2015-01-11T10:42:26Z</time>
      </trkpt>
      <trkpt lat="43.82978" lon="3.59548">
        <ele>641.34</ele>
        <time>2015-01-11T10:42:39Z</time>
      </trkpt>
      <trkpt lat="43.82981" lon="3.5954">
        <ele>643.74</ele>
        <time>2015-01-11T10:42:52Z</time>
      </trkpt>
      <trkpt lat="43.82982" lon="3.59528">
        <ele>645.18</ele>
        <time>2015-01-11T10:43:07Z</time>
      </trkpt>
      <trkpt lat="43.82984" lon="3.59516">
        <ele>647.1</ele>
        <time>2015-01-11T10:43:19Z</time>
      </trkpt>
      <trkpt lat="43.82988" lon="3.59509">
        <ele>649.51</ele>
        <time>2015-01-11T10:43:31Z</time>
      </trkpt>
      <trkpt lat="43.82991" lon="3.59497">
        <ele>651.91</ele>
        <time>2015-01-11T10:43:41Z</time>
      </trkpt>
      <trkpt lat="43.82988" lon="3.59489">
        <ele>652.39</ele>
        <time>2015-01-11T10:43:52Z</time>
      </trkpt>
      <trkpt lat="43.82992" lon="3.59477">
        <ele>654.31</ele>
        <time>2015-01-11T10:44:06Z</time>
      </trkpt>
      <trkpt lat="43.82996" lon="3.59469">
        <ele>656.72</ele>
        <time>2015-01-11T10:44:20Z</time>
      </trkpt>
      <trkpt lat="43.82996" lon="3.59462">
        <ele>658.64</ele>
        <time>2015-01-11T10:44:33Z</time>
      </trkpt>
      <trkpt lat="43.82987" lon="3.59451">
        <ele>658.64</ele>
        <time>2015-01-11T10:44:46Z</time>
      </trkpt>
      <trkpt lat="43.82986" lon="3.59435">
        <ele>660.56</ele>
        <time>2015-01-11T10:45:03Z</time>
      </trkpt>
      <trkpt lat="43.82985" lon="3.59425">
        <ele>661.52</ele>
        <time>2015-01-11T10:45:14Z</time>
      </trkpt>
      <trkpt lat="43.82987" lon="3.59415">
        <ele>662.01</ele>
        <time>2015-01-11T10:45:23Z</time>
      </trkpt>
      <trkpt lat="43.82987" lon="3.59402">
        <ele>664.89</ele>
        <time>2015-01-11T10:45:37Z</time>
      </trkpt>
      <trkpt lat="43.82983" lon="3.59388">
        <ele>664.41</ele>
        <time>2015-01-11T10:45:51Z</time>
      </trkpt>
      <trkpt lat="43.82982" lon="3.59388">
        <ele>664.89</ele>
        <time>2015-01-11T10:46:13Z</time>
      </trkpt>
      <trkpt lat="43.82979" lon="3.59386">
        <ele>664.41</ele>
        <time>2015-01-11T10:46:31Z</time>
      </trkpt>
      <trkpt lat="43.82977" lon="3.59385">
        <ele>664.89</ele>
        <time>2015-01-11T10:46:48Z</time>
      </trkpt>
      <trkpt lat="43.82977" lon="3.59386">
        <ele>664.41</ele>
        <time>2015-01-11T10:47:10Z</time>
      </trkpt>
      <trkpt lat="43.82977" lon="3.59386">
        <ele>664.41</ele>
        <time>2015-01-11T10:47:31Z</time>
      </trkpt>
      <trkpt lat="43.82977" lon="3.59388">
        <ele>664.41</ele>
        <time>2015-01-11T10:47:56Z</time>
      </trkpt>
      <trkpt lat="43.82977" lon="3.59389">
        <ele>663.93</ele>
        <time>2015-01-11T10:48:13Z</time>
      </trkpt>
      <trkpt lat="43.82977" lon="3.59388">
        <ele>662.97</ele>
        <time>2015-01-11T10:48:39Z</time>
      </trkpt>
      <trkpt lat="43.82978" lon="3.59388">
        <ele>663.93</ele>
        <time>2015-01-11T10:48:55Z</time>
      </trkpt>
      <trkpt lat="43.82978" lon="3.59389">
        <ele>663.93</ele>
        <time>2015-01-11T10:49:18Z</time>
      </trkpt>
      <trkpt lat="43.82977" lon="3.59389">
        <ele>663.93</ele>
        <time>2015-01-11T10:49:37Z</time>
      </trkpt>
      <trkpt lat="43.82976" lon="3.5939">
        <ele>663.93</ele>
        <time>2015-01-11T10:49:59Z</time>
      </trkpt>
      <trkpt lat="43.82977" lon="3.59389">
        <ele>664.41</ele>
        <time>2015-01-11T10:50:18Z</time>
      </trkpt>
      <trkpt lat="43.82978" lon="3.59386">
        <ele>664.41</ele>
        <time>2015-01-11T10:50:44Z</time>
      </trkpt>
      <trkpt lat="43.82977" lon="3.59385">
        <ele>663.93</ele>
        <time>2015-01-11T10:51:05Z</time>
      </trkpt>
      <trkpt lat="43.82978" lon="3.59385">
        <ele>664.41</ele>
        <time>2015-01-11T10:51:30Z</time>
      </trkpt>
      <trkpt lat="43.82978" lon="3.59388">
        <ele>664.41</ele>
        <time>2015-01-11T10:51:55Z</time>
      </trkpt>
      <trkpt lat="43.82979" lon="3.59388">
        <ele>663.93</ele>
        <time>2015-01-11T10:52:14Z</time>
      </trkpt>
      <trkpt lat="43.8298" lon="3.59387">
        <ele>664.41</ele>
        <time>2015-01-11T10:52:40Z</time>
      </trkpt>
      <trkpt lat="43.8298" lon="3.59386">
        <ele>663.93</ele>
        <time>2015-01-11T10:52:59Z</time>
      </trkpt>
      <trkpt lat="43.82981" lon="3.59386">
        <ele>664.41</ele>
        <time>2015-01-11T10:53:25Z</time>
      </trkpt>
      <trkpt lat="43.82978" lon="3.59389">
        <ele>665.85</ele>
        <time>2015-01-11T10:53:56Z</time>
      </trkpt>
      <trkpt lat="43.82979" lon="3.59389">
        <ele>664.89</ele>
        <time>2015-01-11T10:54:08Z</time>
      </trkpt>
      <trkpt lat="43.82982" lon="3.59392">
        <ele>664.41</ele>
        <time>2015-01-11T10:54:23Z</time>
      </trkpt>
      <trkpt lat="43.82979" lon="3.59391">
        <ele>663.93</ele>
        <time>2015-01-11T10:54:40Z</time>
      </trkpt>
      <trkpt lat="43.8298" lon="3.5939">
        <ele>664.89</ele>
        <time>2015-01-11T10:55:12Z</time>
      </trkpt>
      <trkpt lat="43.82982" lon="3.59387">
        <ele>664.89</ele>
        <time>2015-01-11T10:55:28Z</time>
      </trkpt>
      <trkpt lat="43.82982" lon="3.59379">
        <ele>664.89</ele>
        <time>2015-01-11T10:55:43Z</time>
      </trkpt>
      <trkpt lat="43.82985" lon="3.59366">
        <ele>664.41</ele>
        <time>2015-01-11T10:55:53Z</time>
      </trkpt>
      <trkpt lat="43.82984" lon="3.59356">
        <ele>663.93</ele>
        <time>2015-01-11T10:56:01Z</time>
      </trkpt>
      <trkpt lat="43.82983" lon="3.59355">
        <ele>665.37</ele>
        <time>2015-01-11T10:56:03Z</time>
      </trkpt>
      <trkpt lat="43.82975" lon="3.59342">
        <ele>666.33</ele>
        <time>2015-01-11T10:56:15Z</time>
      </trkpt>
      <trkpt lat="43.8297" lon="3.5933">
        <ele>666.81</ele>
        <time>2015-01-11T10:56:23Z</time>
      </trkpt>
      <trkpt lat="43.82969" lon="3.59328">
        <ele>666.81</ele>
        <time>2015-01-11T10:56:25Z</time>
      </trkpt>
      <trkpt lat="43.82957" lon="3.59305">
        <ele>666.81</ele>
        <time>2015-01-11T10:56:41Z</time>
      </trkpt>
      <trkpt lat="43.8295" lon="3.59297">
        <ele>667.29</ele>
        <time>2015-01-11T10:56:50Z</time>
      </trkpt>
      <trkpt lat="43.82938" lon="3.59302">
        <ele>670.18</ele>
        <time>2015-01-11T10:57:01Z</time>
      </trkpt>
      <trkpt lat="43.82932" lon="3.59307">
        <ele>670.66</ele>
        <time>2015-01-11T10:57:08Z</time>
      </trkpt>
      <trkpt lat="43.82926" lon="3.59311">
        <ele>671.62</ele>
        <time>2015-01-11T10:57:14Z</time>
      </trkpt>
      <trkpt lat="43.82914" lon="3.59313">
        <ele>673.06</ele>
        <time>2015-01-11T10:57:26Z</time>
      </trkpt>
      <trkpt lat="43.82913" lon="3.59314">
        <ele>672.58</ele>
        <time>2015-01-11T10:57:27Z</time>
      </trkpt>
      <trkpt lat="43.82908" lon="3.59318">
        <ele>673.06</ele>
        <time>2015-01-11T10:57:32Z</time>
      </trkpt>
      <trkpt lat="43.82902" lon="3.59318">
        <ele>673.06</ele>
        <time>2015-01-11T10:57:37Z</time>
      </trkpt>
      <trkpt lat="43.82899" lon="3.59316">
        <ele>673.06</ele>
        <time>2015-01-11T10:57:40Z</time>
      </trkpt>
      <trkpt lat="43.82898" lon="3.59313">
        <ele>673.06</ele>
        <time>2015-01-11T10:57:42Z</time>
      </trkpt>
      <trkpt lat="43.82884" lon="3.59312">
        <ele>674.02</ele>
        <time>2015-01-11T10:57:57Z</time>
      </trkpt>
      <trkpt lat="43.82876" lon="3.59314">
        <ele>671.62</ele>
        <time>2015-01-11T10:58:11Z</time>
      </trkpt>
      <trkpt lat="43.82871" lon="3.59311">
        <ele>671.14</ele>
        <time>2015-01-11T10:58:24Z</time>
      </trkpt>
      <trkpt lat="43.82868" lon="3.59311">
        <ele>669.7</ele>
        <time>2015-01-11T10:58:43Z</time>
      </trkpt>
      <trkpt lat="43.82869" lon="3.59312">
        <ele>669.22</ele>
        <time>2015-01-11T10:59:07Z</time>
      </trkpt>
      <trkpt lat="43.82869" lon="3.59311">
        <ele>669.22</ele>
        <time>2015-01-11T10:59:30Z</time>
      </trkpt>
      <trkpt lat="43.82866" lon="3.59309">
        <ele>669.22</ele>
        <time>2015-01-11T10:59:56Z</time>
      </trkpt>
      <trkpt lat="43.82861" lon="3.59307">
        <ele>666.81</ele>
        <time>2015-01-11T11:00:14Z</time>
      </trkpt>
      <trkpt lat="43.82862" lon="3.59305">
        <ele>664.41</ele>
        <time>2015-01-11T11:00:31Z</time>
      </trkpt>
      <trkpt lat="43.82862" lon="3.59305">
        <ele>667.77</ele>
        <time>2015-01-11T11:00:32Z</time>
      </trkpt>
      <trkpt lat="43.82862" lon="3.59305">
        <ele>664.41</ele>
        <time>2015-01-11T11:00:35Z</time>
      </trkpt>
      <trkpt lat="43.82862" lon="3.59307">
        <ele>663.93</ele>
        <time>2015-01-11T11:00:44Z</time>
      </trkpt>
      <trkpt lat="43.82863" lon="3.59307">
        <ele>654.31</ele>
        <time>2015-01-11T11:00:46Z</time>
      </trkpt>
      <trkpt lat="43.82865" lon="3.59307">
        <ele>664.41</ele>
        <time>2015-01-11T11:00:49Z</time>
      </trkpt>
      <trkpt lat="43.82864" lon="3.59308">
        <ele>661.04</ele>
        <time>2015-01-11T11:00:51Z</time>
      </trkpt>
      <trkpt lat="43.82864" lon="3.59308">
        <ele>666.81</ele>
        <time>2015-01-11T11:00:52Z</time>
      </trkpt>
      <trkpt lat="43.82863" lon="3.59308">
        <ele>662.97</ele>
        <time>2015-01-11T11:00:53Z</time>
      </trkpt>
      <trkpt lat="43.82858" lon="3.59305">
        <ele>661.52</ele>
        <time>2015-01-11T11:01:11Z</time>
      </trkpt>
      <trkpt lat="43.82857" lon="3.59307">
        <ele>649.03</ele>
        <time>2015-01-11T11:01:26Z</time>
      </trkpt>
      <trkpt lat="43.82857" lon="3.59307">
        <ele>671.62</ele>
        <time>2015-01-11T11:01:27Z</time>
      </trkpt>
      <trkpt lat="43.82857" lon="3.59307">
        <ele>660.56</ele>
        <time>2015-01-11T11:01:28Z</time>
      </trkpt>
      <trkpt lat="43.82857" lon="3.59308">
        <ele>653.35</ele>
        <time>2015-01-11T11:01:29Z</time>
      </trkpt>
      <trkpt lat="43.82858" lon="3.59306">
        <ele>671.62</ele>
        <time>2015-01-11T11:01:31Z</time>
      </trkpt>
      <trkpt lat="43.82858" lon="3.59306">
        <ele>662.97</ele>
        <time>2015-01-11T11:01:32Z</time>
      </trkpt>
      <trkpt lat="43.82858" lon="3.59306">
        <ele>659.6</ele>
        <time>2015-01-11T11:01:34Z</time>
      </trkpt>
      <trkpt lat="43.82855" lon="3.59309">
        <ele>655.28</ele>
        <time>2015-01-11T11:01:47Z</time>
      </trkpt>
      <trkpt lat="43.82854" lon="3.59309">
        <ele>659.12</ele>
        <time>2015-01-11T11:01:48Z</time>
      </trkpt>
      <trkpt lat="43.82853" lon="3.59308">
        <ele>654.31</ele>
        <time>2015-01-11T11:01:56Z</time>
      </trkpt>
      <trkpt lat="43.82853" lon="3.59308">
        <ele>658.16</ele>
        <time>2015-01-11T11:01:57Z</time>
      </trkpt>
      <trkpt lat="43.8285" lon="3.59308">
        <ele>656.24</ele>
        <time>2015-01-11T11:02:07Z</time>
      </trkpt>
      <trkpt lat="43.8285" lon="3.59307">
        <ele>652.39</ele>
        <time>2015-01-11T11:02:12Z</time>
      </trkpt>
      <trkpt lat="43.8285" lon="3.59307">
        <ele>656.72</ele>
        <time>2015-01-11T11:02:13Z</time>
      </trkpt>
      <trkpt lat="43.82852" lon="3.59312">
        <ele>653.35</ele>
        <time>2015-01-11T11:02:24Z</time>
      </trkpt>
      <trkpt lat="43.82852" lon="3.59313">
        <ele>651.91</ele>
        <time>2015-01-11T11:02:34Z</time>
      </trkpt>
      <trkpt lat="43.8285" lon="3.59316">
        <ele>644.7</ele>
        <time>2015-01-11T11:02:50Z</time>
      </trkpt>
      <trkpt lat="43.82851" lon="3.59316">
        <ele>654.8</ele>
        <time>2015-01-11T11:02:51Z</time>
      </trkpt>
      <trkpt lat="43.8285" lon="3.59316">
        <ele>649.99</ele>
        <time>2015-01-11T11:02:52Z</time>
      </trkpt>
      <trkpt lat="43.82846" lon="3.59317">
        <ele>645.66</ele>
        <time>2015-01-11T11:03:05Z</time>
      </trkpt>
      <trkpt lat="43.82846" lon="3.59317">
        <ele>649.51</ele>
        <time>2015-01-11T11:03:06Z</time>
      </trkpt>
      <trkpt lat="43.82845" lon="3.59319">
        <ele>646.14</ele>
        <time>2015-01-11T11:03:16Z</time>
      </trkpt>
      <trkpt lat="43.82845" lon="3.59319">
        <ele>641.82</ele>
        <time>2015-01-11T11:03:18Z</time>
      </trkpt>
      <trkpt lat="43.82845" lon="3.59319">
        <ele>648.07</ele>
        <time>2015-01-11T11:03:19Z</time>
      </trkpt>
      <trkpt lat="43.82845" lon="3.59319">
        <ele>644.22</ele>
        <time>2015-01-11T11:03:20Z</time>
      </trkpt>
      <trkpt lat="43.82845" lon="3.5932">
        <ele>648.55</ele>
        <time>2015-01-11T11:03:21Z</time>
      </trkpt>
      <trkpt lat="43.82845" lon="3.59319">
        <ele>646.14</ele>
        <time>2015-01-11T11:03:24Z</time>
      </trkpt>
      <trkpt lat="43.82844" lon="3.59321">
        <ele>632.2</ele>
        <time>2015-01-11T11:03:33Z</time>
      </trkpt>
      <trkpt lat="43.82844" lon="3.59321">
        <ele>649.51</ele>
        <time>2015-01-11T11:03:34Z</time>
      </trkpt>
      <trkpt lat="43.82844" lon="3.59321">
        <ele>645.18</ele>
        <time>2015-01-11T11:03:36Z</time>
      </trkpt>
      <trkpt lat="43.82844" lon="3.59321">
        <ele>645.18</ele>
        <time>2015-01-11T11:03:37Z</time>
      </trkpt>
      <trkpt lat="43.82845" lon="3.59321">
        <ele>641.34</ele>
        <time>2015-01-11T11:03:39Z</time>
      </trkpt>
      <trkpt lat="43.82845" lon="3.59321">
        <ele>649.03</ele>
        <time>2015-01-11T11:03:40Z</time>
      </trkpt>
      <trkpt lat="43.82845" lon="3.59321">
        <ele>645.18</ele>
        <time>2015-01-11T11:03:41Z</time>
      </trkpt>
      <trkpt lat="43.82845" lon="3.59322">
        <ele>641.82</ele>
        <time>2015-01-11T11:03:50Z</time>
      </trkpt>
      <trkpt lat="43.82841" lon="3.59322">
        <ele>640.86</ele>
        <time>2015-01-11T11:04:03Z</time>
      </trkpt>
      <trkpt lat="43.8284" lon="3.59318">
        <ele>638.45</ele>
        <time>2015-01-11T11:04:22Z</time>
      </trkpt>
      <trkpt lat="43.82837" lon="3.5931">
        <ele>638.93</ele>
        <time>2015-01-11T11:04:37Z</time>
      </trkpt>
      <trkpt lat="43.82833" lon="3.59306">
        <ele>640.38</ele>
        <time>2015-01-11T11:04:51Z</time>
      </trkpt>
      <trkpt lat="43.82832" lon="3.59303">
        <ele>637.49</ele>
        <time>2015-01-11T11:04:55Z</time>
      </trkpt>
      <trkpt lat="43.82832" lon="3.59303">
        <ele>646.14</ele>
        <time>2015-01-11T11:04:56Z</time>
      </trkpt>
      <trkpt lat="43.82831" lon="3.59302">
        <ele>639.41</ele>
        <time>2015-01-11T11:04:57Z</time>
      </trkpt>
      <trkpt lat="43.82831" lon="3.593">
        <ele>643.74</ele>
        <time>2015-01-11T11:05:00Z</time>
      </trkpt>
      <trkpt lat="43.82833" lon="3.59293">
        <ele>645.18</ele>
        <time>2015-01-11T11:05:18Z</time>
      </trkpt>
      <trkpt lat="43.82836" lon="3.59294">
        <ele>644.22</ele>
        <time>2015-01-11T11:05:34Z</time>
      </trkpt>
      <trkpt lat="43.82836" lon="3.59294">
        <ele>651.43</ele>
        <time>2015-01-11T11:05:35Z</time>
      </trkpt>
      <trkpt lat="43.82836" lon="3.59293">
        <ele>647.59</ele>
        <time>2015-01-11T11:05:36Z</time>
      </trkpt>
      <trkpt lat="43.8284" lon="3.5929">
        <ele>649.99</ele>
        <time>2015-01-11T11:05:46Z</time>
      </trkpt>
      <trkpt lat="43.82841" lon="3.59287">
        <ele>649.99</ele>
        <time>2015-01-11T11:05:54Z</time>
      </trkpt>
      <trkpt lat="43.82842" lon="3.59287">
        <ele>647.59</ele>
        <time>2015-01-11T11:05:55Z</time>
      </trkpt>
      <trkpt lat="43.82842" lon="3.59286">
        <ele>651.91</ele>
        <time>2015-01-11T11:05:56Z</time>
      </trkpt>
      <trkpt lat="43.82842" lon="3.59286">
        <ele>651.91</ele>
        <time>2015-01-11T11:05:57Z</time>
      </trkpt>
      <trkpt lat="43.82842" lon="3.59286">
        <ele>649.51</ele>
        <time>2015-01-11T11:05:58Z</time>
      </trkpt>
      <trkpt lat="43.82845" lon="3.5928">
        <ele>648.55</ele>
        <time>2015-01-11T11:06:11Z</time>
      </trkpt>
      <trkpt lat="43.82845" lon="3.5928">
        <ele>650.47</ele>
        <time>2015-01-11T11:06:12Z</time>
      </trkpt>
      <trkpt lat="43.82848" lon="3.59257">
        <ele>647.59</ele>
        <time>2015-01-11T11:06:42Z</time>
      </trkpt>
      <trkpt lat="43.82843" lon="3.59281">
        <ele>644.22</ele>
        <time>2015-01-11T11:06:52Z</time>
      </trkpt>
      <trkpt lat="43.82842" lon="3.59281">
        <ele>650.47</ele>
        <time>2015-01-11T11:06:53Z</time>
      </trkpt>
      <trkpt lat="43.82842" lon="3.59281">
        <ele>647.1</ele>
        <time>2015-01-11T11:06:54Z</time>
      </trkpt>
      <trkpt lat="43.82819" lon="3.59295">
        <ele>646.14</ele>
        <time>2015-01-11T11:07:12Z</time>
      </trkpt>
      <trkpt lat="43.82824" lon="3.59297">
        <ele>645.66</ele>
        <time>2015-01-11T11:07:24Z</time>
      </trkpt>
      <trkpt lat="43.82825" lon="3.59297">
        <ele>646.14</ele>
        <time>2015-01-11T11:07:44Z</time>
      </trkpt>
      <trkpt lat="43.82828" lon="3.59299">
        <ele>645.66</ele>
        <time>2015-01-11T11:08:03Z</time>
      </trkpt>
      <trkpt lat="43.82826" lon="3.59299">
        <ele>645.66</ele>
        <time>2015-01-11T11:08:19Z</time>
      </trkpt>
      <trkpt lat="43.82825" lon="3.59301">
        <ele>644.7</ele>
        <time>2015-01-11T11:08:38Z</time>
      </trkpt>
      <trkpt lat="43.82823" lon="3.59297">
        <ele>642.78</ele>
        <time>2015-01-11T11:08:52Z</time>
      </trkpt>
      <trkpt lat="43.82821" lon="3.59293">
        <ele>642.78</ele>
        <time>2015-01-11T11:09:04Z</time>
      </trkpt>
      <trkpt lat="43.82819" lon="3.59287">
        <ele>639.41</ele>
        <time>2015-01-11T11:09:18Z</time>
      </trkpt>
      <trkpt lat="43.82816" lon="3.59286">
        <ele>636.53</ele>
        <time>2015-01-11T11:09:33Z</time>
      </trkpt>
      <trkpt lat="43.82815" lon="3.59286">
        <ele>636.05</ele>
        <time>2015-01-11T11:09:48Z</time>
      </trkpt>
      <trkpt lat="43.82813" lon="3.59284">
        <ele>633.17</ele>
        <time>2015-01-11T11:10:03Z</time>
      </trkpt>
      <trkpt lat="43.82811" lon="3.59279">
        <ele>633.17</ele>
        <time>2015-01-11T11:10:22Z</time>
      </trkpt>
      <trkpt lat="43.82812" lon="3.59277">
        <ele>637.01</ele>
        <time>2015-01-11T11:10:36Z</time>
      </trkpt>
      <trkpt lat="43.82812" lon="3.59276">
        <ele>634.13</ele>
        <time>2015-01-11T11:10:39Z</time>
      </trkpt>
      <trkpt lat="43.82811" lon="3.59275">
        <ele>635.57</ele>
        <time>2015-01-11T11:10:55Z</time>
      </trkpt>
      <trkpt lat="43.82814" lon="3.59276">
        <ele>635.57</ele>
        <time>2015-01-11T11:11:15Z</time>
      </trkpt>
      <trkpt lat="43.82812" lon="3.5928">
        <ele>630.76</ele>
        <time>2015-01-11T11:11:44Z</time>
      </trkpt>
      <trkpt lat="43.82812" lon="3.5928">
        <ele>637.49</ele>
        <time>2015-01-11T11:11:45Z</time>
      </trkpt>
      <trkpt lat="43.82812" lon="3.5928">
        <ele>632.2</ele>
        <time>2015-01-11T11:11:47Z</time>
      </trkpt>
      <trkpt lat="43.82812" lon="3.5928">
        <ele>635.57</ele>
        <time>2015-01-11T11:11:49Z</time>
      </trkpt>
      <trkpt lat="43.82813" lon="3.59281">
        <ele>635.57</ele>
        <time>2015-01-11T11:11:50Z</time>
      </trkpt>
      <trkpt lat="43.82812" lon="3.59282">
        <ele>629.8</ele>
        <time>2015-01-11T11:12:08Z</time>
      </trkpt>
      <trkpt lat="43.82811" lon="3.59282">
        <ele>638.45</ele>
        <time>2015-01-11T11:12:09Z</time>
      </trkpt>
      <trkpt lat="43.82811" lon="3.59282">
        <ele>634.61</ele>
        <time>2015-01-11T11:12:10Z</time>
      </trkpt>
      <trkpt lat="43.82815" lon="3.59283">
        <ele>634.13</ele>
        <time>2015-01-11T11:12:32Z</time>
      </trkpt>
      <trkpt lat="43.82817" lon="3.59282">
        <ele>637.97</ele>
        <time>2015-01-11T11:12:37Z</time>
      </trkpt>
      <trkpt lat="43.82817" lon="3.59282">
        <ele>636.05</ele>
        <time>2015-01-11T11:12:38Z</time>
      </trkpt>
      <trkpt lat="43.82819" lon="3.59286">
        <ele>639.41</ele>
        <time>2015-01-11T11:12:45Z</time>
      </trkpt>
      <trkpt lat="43.82821" lon="3.59286">
        <ele>638.45</ele>
        <time>2015-01-11T11:13:03Z</time>
      </trkpt>
      <trkpt lat="43.82824" lon="3.59289">
        <ele>641.34</ele>
        <time>2015-01-11T11:13:15Z</time>
      </trkpt>
      <trkpt lat="43.82824" lon="3.59294">
        <ele>642.3</ele>
        <time>2015-01-11T11:13:29Z</time>
      </trkpt>
      <trkpt lat="43.82825" lon="3.59299">
        <ele>641.82</ele>
        <time>2015-01-11T11:13:46Z</time>
      </trkpt>
      <trkpt lat="43.82826" lon="3.59301">
        <ele>642.78</ele>
        <time>2015-01-11T11:13:59Z</time>
      </trkpt>
      <trkpt lat="43.82827" lon="3.59303">
        <ele>640.86</ele>
        <time>2015-01-11T11:14:02Z</time>
      </trkpt>
      <trkpt lat="43.82828" lon="3.59303">
        <ele>647.1</ele>
        <time>2015-01-11T11:14:03Z</time>
      </trkpt>
      <trkpt lat="43.82828" lon="3.59302">
        <ele>643.26</ele>
        <time>2015-01-11T11:14:04Z</time>
      </trkpt>
      <trkpt lat="43.82829" lon="3.59299">
        <ele>649.51</ele>
        <time>2015-01-11T11:14:08Z</time>
      </trkpt>
      <trkpt lat="43.82829" lon="3.59299">
        <ele>646.14</ele>
        <time>2015-01-11T11:14:09Z</time>
      </trkpt>
      <trkpt lat="43.82831" lon="3.59295">
        <ele>647.1</ele>
        <time>2015-01-11T11:14:28Z</time>
      </trkpt>
      <trkpt lat="43.82829" lon="3.59293">
        <ele>639.89</ele>
        <time>2015-01-11T11:14:39Z</time>
      </trkpt>
      <trkpt lat="43.82829" lon="3.59292">
        <ele>650.95</ele>
        <time>2015-01-11T11:14:40Z</time>
      </trkpt>
      <trkpt lat="43.82829" lon="3.59292">
        <ele>648.55</ele>
        <time>2015-01-11T11:14:41Z</time>
      </trkpt>
      <trkpt lat="43.82829" lon="3.59292">
        <ele>645.66</ele>
        <time>2015-01-11T11:14:55Z</time>
      </trkpt>
      <trkpt lat="43.82831" lon="3.59292">
        <ele>645.18</ele>
        <time>2015-01-11T11:15:20Z</time>
      </trkpt>
      <trkpt lat="43.8283" lon="3.59293">
        <ele>646.14</ele>
        <time>2015-01-11T11:15:50Z</time>
      </trkpt>
      <trkpt lat="43.82832" lon="3.59291">
        <ele>646.62</ele>
        <time>2015-01-11T11:16:24Z</time>
      </trkpt>
      <trkpt lat="43.8283" lon="3.59295">
        <ele>645.18</ele>
        <time>2015-01-11T11:16:57Z</time>
      </trkpt>
      <trkpt lat="43.82829" lon="3.59295">
        <ele>646.14</ele>
        <time>2015-01-11T11:17:32Z</time>
      </trkpt>
      <trkpt lat="43.82829" lon="3.59294">
        <ele>645.18</ele>
        <time>2015-01-11T11:18:04Z</time>
      </trkpt>
      <trkpt lat="43.82828" lon="3.59297">
        <ele>646.14</ele>
        <time>2015-01-11T11:18:31Z</time>
      </trkpt>
      <trkpt lat="43.82828" lon="3.59298">
        <ele>622.59</ele>
        <time>2015-01-11T11:18:33Z</time>
      </trkpt>
      <trkpt lat="43.82829" lon="3.59297">
        <ele>666.81</ele>
        <time>2015-01-11T11:18:34Z</time>
      </trkpt>
      <trkpt lat="43.82829" lon="3.59298">
        <ele>646.62</ele>
        <time>2015-01-11T11:18:35Z</time>
      </trkpt>
      <trkpt lat="43.8283" lon="3.59298">
        <ele>646.14</ele>
        <time>2015-01-11T11:18:52Z</time>
      </trkpt>
      <trkpt lat="43.82831" lon="3.59296">
        <ele>645.66</ele>
        <time>2015-01-11T11:19:14Z</time>
      </trkpt>
      <trkpt lat="43.82832" lon="3.59298">
        <ele>647.1</ele>
        <time>2015-01-11T11:19:35Z</time>
      </trkpt>
      <trkpt lat="43.82831" lon="3.593">
        <ele>647.59</ele>
        <time>2015-01-11T11:20:02Z</time>
      </trkpt>
      <trkpt lat="43.82828" lon="3.59296">
        <ele>646.62</ele>
        <time>2015-01-11T11:20:24Z</time>
      </trkpt>
      <trkpt lat="43.82829" lon="3.59295">
        <ele>642.78</ele>
        <time>2015-01-11T11:20:32Z</time>
      </trkpt>
      <trkpt lat="43.82829" lon="3.59295">
        <ele>646.62</ele>
        <time>2015-01-11T11:20:33Z</time>
      </trkpt>
      <trkpt lat="43.8283" lon="3.59294">
        <ele>646.62</ele>
        <time>2015-01-11T11:20:34Z</time>
      </trkpt>
      <trkpt lat="43.8283" lon="3.59294">
        <ele>646.14</ele>
        <time>2015-01-11T11:20:43Z</time>
      </trkpt>
      <trkpt lat="43.8283" lon="3.59296">
        <ele>645.66</ele>
        <time>2015-01-11T11:21:01Z</time>
      </trkpt>
      <trkpt lat="43.82832" lon="3.59294">
        <ele>646.14</ele>
        <time>2015-01-11T11:21:30Z</time>
      </trkpt>
      <trkpt lat="43.82831" lon="3.59293">
        <ele>647.59</ele>
        <time>2015-01-11T11:22:03Z</time>
      </trkpt>
      <trkpt lat="43.8283" lon="3.59294">
        <ele>647.1</ele>
        <time>2015-01-11T11:22:35Z</time>
      </trkpt>
      <trkpt lat="43.8283" lon="3.59296">
        <ele>638.45</ele>
        <time>2015-01-11T11:23:03Z</time>
      </trkpt>
      <trkpt lat="43.82831" lon="3.59296">
        <ele>650.47</ele>
        <time>2015-01-11T11:23:04Z</time>
      </trkpt>
      <trkpt lat="43.82831" lon="3.59296">
        <ele>649.51</ele>
        <time>2015-01-11T11:23:05Z</time>
      </trkpt>
      <trkpt lat="43.82831" lon="3.59296">
        <ele>647.1</ele>
        <time>2015-01-11T11:23:07Z</time>
      </trkpt>
      <trkpt lat="43.82831" lon="3.59295">
        <ele>643.26</ele>
        <time>2015-01-11T11:23:11Z</time>
      </trkpt>
      <trkpt lat="43.82831" lon="3.59295">
        <ele>651.43</ele>
        <time>2015-01-11T11:23:13Z</time>
      </trkpt>
      <trkpt lat="43.82831" lon="3.59296">
        <ele>650.95</ele>
        <time>2015-01-11T11:23:14Z</time>
      </trkpt>
      <trkpt lat="43.82831" lon="3.59296">
        <ele>645.18</ele>
        <time>2015-01-11T11:23:15Z</time>
      </trkpt>
      <trkpt lat="43.82831" lon="3.59296">
        <ele>648.07</ele>
        <time>2015-01-11T11:23:16Z</time>
      </trkpt>
      <trkpt lat="43.8283" lon="3.59294">
        <ele>647.1</ele>
        <time>2015-01-11T11:23:45Z</time>
      </trkpt>
      <trkpt lat="43.8283" lon="3.59296">
        <ele>647.59</ele>
        <time>2015-01-11T11:24:19Z</time>
      </trkpt>
      <trkpt lat="43.82825" lon="3.59298">
        <ele>647.1</ele>
        <time>2015-01-11T11:24:51Z</time>
      </trkpt>
      <trkpt lat="43.82815" lon="3.59303">
        <ele>643.26</ele>
        <time>2015-01-11T11:25:02Z</time>
      </trkpt>
      <trkpt lat="43.82815" lon="3.59303">
        <ele>650.47</ele>
        <time>2015-01-11T11:25:03Z</time>
      </trkpt>
      <trkpt lat="43.82817" lon="3.59303">
        <ele>647.1</ele>
        <time>2015-01-11T11:25:07Z</time>
      </trkpt>
      <trkpt lat="43.82823" lon="3.59296">
        <ele>646.14</ele>
        <time>2015-01-11T11:25:34Z</time>
      </trkpt>
      <trkpt lat="43.82827" lon="3.59295">
        <ele>646.62</ele>
        <time>2015-01-11T11:25:59Z</time>
      </trkpt>
      <trkpt lat="43.82829" lon="3.59301">
        <ele>647.1</ele>
        <time>2015-01-11T11:26:33Z</time>
      </trkpt>
      <trkpt lat="43.82829" lon="3.59303">
        <ele>645.18</ele>
        <time>2015-01-11T11:26:42Z</time>
      </trkpt>
      <trkpt lat="43.82829" lon="3.59295">
        <ele>647.1</ele>
        <time>2015-01-11T11:26:59Z</time>
      </trkpt>
      <trkpt lat="43.82829" lon="3.59295">
        <ele>643.26</ele>
        <time>2015-01-11T11:27:05Z</time>
      </trkpt>
      <trkpt lat="43.82829" lon="3.59295">
        <ele>647.1</ele>
        <time>2015-01-11T11:27:07Z</time>
      </trkpt>
      <trkpt lat="43.82829" lon="3.59296">
        <ele>647.1</ele>
        <time>2015-01-11T11:27:08Z</time>
      </trkpt>
      <trkpt lat="43.82829" lon="3.59295">
        <ele>652.87</ele>
        <time>2015-01-11T11:27:10Z</time>
      </trkpt>
      <trkpt lat="43.82829" lon="3.59295">
        <ele>649.03</ele>
        <time>2015-01-11T11:27:11Z</time>
      </trkpt>
      <trkpt lat="43.82829" lon="3.59296">
        <ele>646.14</ele>
        <time>2015-01-11T11:27:13Z</time>
      </trkpt>
      <trkpt lat="43.82829" lon="3.59297">
        <ele>650.47</ele>
        <time>2015-01-11T11:27:15Z</time>
      </trkpt>
      <trkpt lat="43.8283" lon="3.59297">
        <ele>647.59</ele>
        <time>2015-01-11T11:27:16Z</time>
      </trkpt>
      <trkpt lat="43.82829" lon="3.59298">
        <ele>643.26</ele>
        <time>2015-01-11T11:27:17Z</time>
      </trkpt>
      <trkpt lat="43.82829" lon="3.59298">
        <ele>650.95</ele>
        <time>2015-01-11T11:27:18Z</time>
      </trkpt>
      <trkpt lat="43.82829" lon="3.59298">
        <ele>647.1</ele>
        <time>2015-01-11T11:27:19Z</time>
      </trkpt>
      <trkpt lat="43.82829" lon="3.59297">
        <ele>647.59</ele>
        <time>2015-01-11T11:27:51Z</time>
      </trkpt>
      <trkpt lat="43.82829" lon="3.59296">
        <ele>648.07</ele>
        <time>2015-01-11T11:28:26Z</time>
      </trkpt>
      <trkpt lat="43.82829" lon="3.59296">
        <ele>648.07</ele>
        <time>2015-01-11T11:28:49Z</time>
      </trkpt>
      <trkpt lat="43.82826" lon="3.59298">
        <ele>648.55</ele>
        <time>2015-01-11T11:29:23Z</time>
      </trkpt>
      <trkpt lat="43.82828" lon="3.59299">
        <ele>648.55</ele>
        <time>2015-01-11T11:29:55Z</time>
      </trkpt>
      <trkpt lat="43.82828" lon="3.593">
        <ele>647.59</ele>
        <time>2015-01-11T11:30:26Z</time>
      </trkpt>
      <trkpt lat="43.82829" lon="3.59301">
        <ele>649.03</ele>
        <time>2015-01-11T11:30:53Z</time>
      </trkpt>
      <trkpt lat="43.82828" lon="3.59299">
        <ele>649.51</ele>
        <time>2015-01-11T11:31:30Z</time>
      </trkpt>
      <trkpt lat="43.82831" lon="3.59294">
        <ele>650.95</ele>
        <time>2015-01-11T11:32:11Z</time>
      </trkpt>
      <trkpt lat="43.8283" lon="3.59295">
        <ele>649.51</ele>
        <time>2015-01-11T11:32:17Z</time>
      </trkpt>
      <trkpt lat="43.8283" lon="3.59295">
        <ele>652.87</ele>
        <time>2015-01-11T11:32:19Z</time>
      </trkpt>
      <trkpt lat="43.82828" lon="3.59298">
        <ele>649.51</ele>
        <time>2015-01-11T11:32:38Z</time>
      </trkpt>
      <trkpt lat="43.82828" lon="3.59298">
        <ele>654.31</ele>
        <time>2015-01-11T11:32:41Z</time>
      </trkpt>
      <trkpt lat="43.82828" lon="3.59298">
        <ele>649.99</ele>
        <time>2015-01-11T11:32:42Z</time>
      </trkpt>
      <trkpt lat="43.82828" lon="3.59298">
        <ele>646.62</ele>
        <time>2015-01-11T11:32:45Z</time>
      </trkpt>
      <trkpt lat="43.82828" lon="3.59298">
        <ele>653.35</ele>
        <time>2015-01-11T11:32:46Z</time>
      </trkpt>
      <trkpt lat="43.82828" lon="3.59298">
        <ele>649.51</ele>
        <time>2015-01-11T11:32:47Z</time>
      </trkpt>
      <trkpt lat="43.82827" lon="3.59298">
        <ele>650.47</ele>
        <time>2015-01-11T11:33:00Z</time>
      </trkpt>
      <trkpt lat="43.82828" lon="3.59298">
        <ele>653.83</ele>
        <time>2015-01-11T11:33:01Z</time>
      </trkpt>
      <trkpt lat="43.82828" lon="3.59298">
        <ele>650.95</ele>
        <time>2015-01-11T11:33:03Z</time>
      </trkpt>
      <trkpt lat="43.82828" lon="3.59297">
        <ele>654.31</ele>
        <time>2015-01-11T11:33:09Z</time>
      </trkpt>
      <trkpt lat="43.82828" lon="3.59297">
        <ele>651.43</ele>
        <time>2015-01-11T11:33:10Z</time>
      </trkpt>
      <trkpt lat="43.82828" lon="3.59297">
        <ele>650.47</ele>
        <time>2015-01-11T11:33:12Z</time>
      </trkpt>
      <trkpt lat="43.82829" lon="3.59298">
        <ele>650.95</ele>
        <time>2015-01-11T11:33:47Z</time>
      </trkpt>
      <trkpt lat="43.8283" lon="3.59297">
        <ele>650.95</ele>
        <time>2015-01-11T11:34:27Z</time>
      </trkpt>
      <trkpt lat="43.82832" lon="3.59294">
        <ele>651.43</ele>
        <time>2015-01-11T11:35:09Z</time>
      </trkpt>
      <trkpt lat="43.82832" lon="3.59293">
        <ele>651.43</ele>
        <time>2015-01-11T11:35:45Z</time>
      </trkpt>
      <trkpt lat="43.82833" lon="3.59295">
        <ele>651.91</ele>
        <time>2015-01-11T11:36:23Z</time>
      </trkpt>
      <trkpt lat="43.82832" lon="3.59295">
        <ele>651.91</ele>
        <time>2015-01-11T11:37:01Z</time>
      </trkpt>
      <trkpt lat="43.82832" lon="3.59293">
        <ele>651.91</ele>
        <time>2015-01-11T11:37:36Z</time>
      </trkpt>
      <trkpt lat="43.82832" lon="3.59295">
        <ele>651.91</ele>
        <time>2015-01-11T11:38:12Z</time>
      </trkpt>
      <trkpt lat="43.8283" lon="3.59296">
        <ele>651.43</ele>
        <time>2015-01-11T11:38:53Z</time>
      </trkpt>
      <trkpt lat="43.82829" lon="3.593">
        <ele>651.91</ele>
        <time>2015-01-11T11:39:26Z</time>
      </trkpt>
      <trkpt lat="43.82829" lon="3.59299">
        <ele>648.07</ele>
        <time>2015-01-11T11:39:59Z</time>
      </trkpt>
      <trkpt lat="43.82829" lon="3.59299">
        <ele>654.8</ele>
        <time>2015-01-11T11:40:00Z</time>
      </trkpt>
      <trkpt lat="43.82829" lon="3.59299">
        <ele>650.47</ele>
        <time>2015-01-11T11:40:01Z</time>
      </trkpt>
      <trkpt lat="43.82826" lon="3.59301">
        <ele>653.83</ele>
        <time>2015-01-11T11:40:27Z</time>
      </trkpt>
      <trkpt lat="43.82826" lon="3.59302">
        <ele>649.99</ele>
        <time>2015-01-11T11:40:33Z</time>
      </trkpt>
      <trkpt lat="43.82828" lon="3.593">
        <ele>651.43</ele>
        <time>2015-01-11T11:41:10Z</time>
      </trkpt>
      <trkpt lat="43.82826" lon="3.59302">
        <ele>651.43</ele>
        <time>2015-01-11T11:41:43Z</time>
      </trkpt>
      <trkpt lat="43.82826" lon="3.59302">
        <ele>654.31</ele>
        <time>2015-01-11T11:42:03Z</time>
      </trkpt>
      <trkpt lat="43.82826" lon="3.59302">
        <ele>651.43</ele>
        <time>2015-01-11T11:42:05Z</time>
      </trkpt>
      <trkpt lat="43.82826" lon="3.59303">
        <ele>652.87</ele>
        <time>2015-01-11T11:42:46Z</time>
      </trkpt>
      <trkpt lat="43.82827" lon="3.593">
        <ele>651.91</ele>
        <time>2015-01-11T11:43:24Z</time>
      </trkpt>
      <trkpt lat="43.82828" lon="3.593">
        <ele>646.14</ele>
        <time>2015-01-11T11:43:38Z</time>
      </trkpt>
      <trkpt lat="43.82828" lon="3.593">
        <ele>653.83</ele>
        <time>2015-01-11T11:43:39Z</time>
      </trkpt>
      <trkpt lat="43.82828" lon="3.59301">
        <ele>653.35</ele>
        <time>2015-01-11T11:43:40Z</time>
      </trkpt>
      <trkpt lat="43.82828" lon="3.593">
        <ele>650.47</ele>
        <time>2015-01-11T11:43:42Z</time>
      </trkpt>
      <trkpt lat="43.82829" lon="3.59303">
        <ele>651.91</ele>
        <time>2015-01-11T11:44:10Z</time>
      </trkpt>
      <trkpt lat="43.82829" lon="3.59301">
        <ele>651.43</ele>
        <time>2015-01-11T11:44:44Z</time>
      </trkpt>
      <trkpt lat="43.8283" lon="3.59301">
        <ele>651.43</ele>
        <time>2015-01-11T11:45:01Z</time>
      </trkpt>
      <trkpt lat="43.8283" lon="3.59301">
        <ele>649.99</ele>
        <time>2015-01-11T11:45:05Z</time>
      </trkpt>
      <trkpt lat="43.8283" lon="3.59301">
        <ele>655.76</ele>
        <time>2015-01-11T11:45:06Z</time>
      </trkpt>
      <trkpt lat="43.8283" lon="3.593">
        <ele>651.91</ele>
        <time>2015-01-11T11:45:07Z</time>
      </trkpt>
      <trkpt lat="43.82829" lon="3.593">
        <ele>655.28</ele>
        <time>2015-01-11T11:45:24Z</time>
      </trkpt>
      <trkpt lat="43.82829" lon="3.593">
        <ele>651.91</ele>
        <time>2015-01-11T11:45:25Z</time>
      </trkpt>
      <trkpt lat="43.8283" lon="3.59301">
        <ele>648.55</ele>
        <time>2015-01-11T11:45:39Z</time>
      </trkpt>
      <trkpt lat="43.8283" lon="3.59301">
        <ele>655.28</ele>
        <time>2015-01-11T11:45:40Z</time>
      </trkpt>
      <trkpt lat="43.8283" lon="3.59302">
        <ele>650.95</ele>
        <time>2015-01-11T11:45:41Z</time>
      </trkpt>
      <trkpt lat="43.82828" lon="3.59302">
        <ele>655.28</ele>
        <time>2015-01-11T11:45:52Z</time>
      </trkpt>
      <trkpt lat="43.82828" lon="3.59302">
        <ele>651.43</ele>
        <time>2015-01-11T11:45:53Z</time>
      </trkpt>
      <trkpt lat="43.82828" lon="3.59301">
        <ele>648.55</ele>
        <time>2015-01-11T11:45:56Z</time>
      </trkpt>
      <trkpt lat="43.82828" lon="3.59301">
        <ele>649.51</ele>
        <time>2015-01-11T11:45:57Z</time>
      </trkpt>
      <trkpt lat="43.82828" lon="3.59301">
        <ele>656.24</ele>
        <time>2015-01-11T11:45:58Z</time>
      </trkpt>
      <trkpt lat="43.82828" lon="3.59301">
        <ele>653.35</ele>
        <time>2015-01-11T11:45:59Z</time>
      </trkpt>
      <trkpt lat="43.82828" lon="3.59301">
        <ele>651.43</ele>
        <time>2015-01-11T11:46:01Z</time>
      </trkpt>
      <trkpt lat="43.8283" lon="3.593">
        <ele>651.43</ele>
        <time>2015-01-11T11:46:44Z</time>
      </trkpt>
      <trkpt lat="43.8283" lon="3.59298">
        <ele>651.43</ele>
        <time>2015-01-11T11:47:28Z</time>
      </trkpt>
      <trkpt lat="43.82829" lon="3.59299">
        <ele>651.91</ele>
        <time>2015-01-11T11:48:12Z</time>
      </trkpt>
      <trkpt lat="43.82832" lon="3.59296">
        <ele>651.43</ele>
        <time>2015-01-11T11:48:47Z</time>
      </trkpt>
      <trkpt lat="43.82831" lon="3.59296">
        <ele>650.95</ele>
        <time>2015-01-11T11:49:21Z</time>
      </trkpt>
      <trkpt lat="43.82832" lon="3.59296">
        <ele>654.8</ele>
        <time>2015-01-11T11:49:34Z</time>
      </trkpt>
      <trkpt lat="43.82831" lon="3.59297">
        <ele>650.47</ele>
        <time>2015-01-11T11:49:43Z</time>
      </trkpt>
      <trkpt lat="43.82831" lon="3.59297">
        <ele>654.31</ele>
        <time>2015-01-11T11:49:45Z</time>
      </trkpt>
      <trkpt lat="43.82831" lon="3.59297">
        <ele>651.91</ele>
        <time>2015-01-11T11:49:46Z</time>
      </trkpt>
      <trkpt lat="43.82828" lon="3.593">
        <ele>651.91</ele>
        <time>2015-01-11T11:50:24Z</time>
      </trkpt>
      <trkpt lat="43.8283" lon="3.59299">
        <ele>651.91</ele>
        <time>2015-01-11T11:51:07Z</time>
      </trkpt>
      <trkpt lat="43.82831" lon="3.59301">
        <ele>647.1</ele>
        <time>2015-01-11T11:51:33Z</time>
      </trkpt>
      <trkpt lat="43.82831" lon="3.59301">
        <ele>656.24</ele>
        <time>2015-01-11T11:51:34Z</time>
      </trkpt>
      <trkpt lat="43.82831" lon="3.593">
        <ele>652.39</ele>
        <time>2015-01-11T11:51:36Z</time>
      </trkpt>
      <trkpt lat="43.82831" lon="3.59295">
        <ele>652.39</ele>
        <time>2015-01-11T11:52:00Z</time>
      </trkpt>
      <trkpt lat="43.82832" lon="3.59295">
        <ele>653.83</ele>
        <time>2015-01-11T11:52:27Z</time>
      </trkpt>
      <trkpt lat="43.82828" lon="3.59297">
        <ele>653.35</ele>
        <time>2015-01-11T11:52:53Z</time>
      </trkpt>
      <trkpt lat="43.82828" lon="3.59301">
        <ele>653.83</ele>
        <time>2015-01-11T11:53:22Z</time>
      </trkpt>
      <trkpt lat="43.8283" lon="3.59301">
        <ele>653.35</ele>
        <time>2015-01-11T11:53:53Z</time>
      </trkpt>
      <trkpt lat="43.82829" lon="3.59298">
        <ele>654.31</ele>
        <time>2015-01-11T11:54:28Z</time>
      </trkpt>
      <trkpt lat="43.82829" lon="3.59298">
        <ele>654.8</ele>
        <time>2015-01-11T11:55:03Z</time>
      </trkpt>
      <trkpt lat="43.82828" lon="3.59297">
        <ele>654.8</ele>
        <time>2015-01-11T11:55:22Z</time>
      </trkpt>
      <trkpt lat="43.82827" lon="3.59299">
        <ele>655.28</ele>
        <time>2015-01-11T11:55:38Z</time>
      </trkpt>
      <trkpt lat="43.82827" lon="3.59297">
        <ele>654.8</ele>
        <time>2015-01-11T11:56:02Z</time>
      </trkpt>
      <trkpt lat="43.82826" lon="3.59297">
        <ele>654.8</ele>
        <time>2015-01-11T11:56:31Z</time>
      </trkpt>
      <trkpt lat="43.82826" lon="3.59296">
        <ele>654.31</ele>
        <time>2015-01-11T11:56:58Z</time>
      </trkpt>
      <trkpt lat="43.82827" lon="3.59295">
        <ele>654.31</ele>
        <time>2015-01-11T11:57:38Z</time>
      </trkpt>
      <trkpt lat="43.8283" lon="3.59295">
        <ele>653.83</ele>
        <time>2015-01-11T11:58:08Z</time>
      </trkpt>
      <trkpt lat="43.8283" lon="3.59294">
        <ele>654.31</ele>
        <time>2015-01-11T11:58:36Z</time>
      </trkpt>
      <trkpt lat="43.82831" lon="3.59295">
        <ele>654.31</ele>
        <time>2015-01-11T11:59:08Z</time>
      </trkpt>
      <trkpt lat="43.82833" lon="3.59291">
        <ele>654.31</ele>
        <time>2015-01-11T11:59:36Z</time>
      </trkpt>
      <trkpt lat="43.82832" lon="3.59294">
        <ele>654.31</ele>
        <time>2015-01-11T12:00:07Z</time>
      </trkpt>
      <trkpt lat="43.82831" lon="3.59295">
        <ele>654.31</ele>
        <time>2015-01-11T12:00:32Z</time>
      </trkpt>
      <trkpt lat="43.82832" lon="3.59297">
        <ele>654.8</ele>
        <time>2015-01-11T12:00:57Z</time>
      </trkpt>
      <trkpt lat="43.8283" lon="3.59295">
        <ele>654.8</ele>
        <time>2015-01-11T12:01:13Z</time>
      </trkpt>
      <trkpt lat="43.82828" lon="3.59301">
        <ele>652.39</ele>
        <time>2015-01-11T12:01:26Z</time>
      </trkpt>
      <trkpt lat="43.82831" lon="3.593">
        <ele>651.91</ele>
        <time>2015-01-11T12:01:45Z</time>
      </trkpt>
      <trkpt lat="43.82831" lon="3.59307">
        <ele>650.95</ele>
        <time>2015-01-11T12:02:00Z</time>
      </trkpt>
      <trkpt lat="43.82832" lon="3.59308">
        <ele>649.03</ele>
        <time>2015-01-11T12:02:03Z</time>
      </trkpt>
      <trkpt lat="43.82835" lon="3.59309">
        <ele>649.03</ele>
        <time>2015-01-11T12:02:08Z</time>
      </trkpt>
      <trkpt lat="43.82837" lon="3.59311">
        <ele>651.43</ele>
        <time>2015-01-11T12:02:10Z</time>
      </trkpt>
      <trkpt lat="43.82839" lon="3.59313">
        <ele>649.99</ele>
        <time>2015-01-11T12:02:23Z</time>
      </trkpt>
      <trkpt lat="43.82842" lon="3.59319">
        <ele>649.03</ele>
        <time>2015-01-11T12:02:36Z</time>
      </trkpt>
      <trkpt lat="43.82845" lon="3.59322">
        <ele>651.91</ele>
        <time>2015-01-11T12:02:54Z</time>
      </trkpt>
      <trkpt lat="43.82845" lon="3.59323">
        <ele>651.91</ele>
        <time>2015-01-11T12:02:55Z</time>
      </trkpt>
      <trkpt lat="43.82847" lon="3.59325">
        <ele>652.87</ele>
        <time>2015-01-11T12:03:25Z</time>
      </trkpt>
      <trkpt lat="43.82848" lon="3.59323">
        <ele>652.87</ele>
        <time>2015-01-11T12:03:48Z</time>
      </trkpt>
      <trkpt lat="43.82848" lon="3.59323">
        <ele>649.99</ele>
        <time>2015-01-11T12:03:53Z</time>
      </trkpt>
      <trkpt lat="43.82848" lon="3.59323">
        <ele>656.24</ele>
        <time>2015-01-11T12:03:54Z</time>
      </trkpt>
      <trkpt lat="43.82848" lon="3.59323">
        <ele>654.8</ele>
        <time>2015-01-11T12:03:55Z</time>
      </trkpt>
      <trkpt lat="43.82848" lon="3.5932">
        <ele>659.12</ele>
        <time>2015-01-11T12:04:05Z</time>
      </trkpt>
      <trkpt lat="43.82848" lon="3.5932">
        <ele>653.35</ele>
        <time>2015-01-11T12:04:06Z</time>
      </trkpt>
      <trkpt lat="43.82849" lon="3.5932">
        <ele>660.08</ele>
        <time>2015-01-11T12:04:07Z</time>
      </trkpt>
      <trkpt lat="43.82851" lon="3.59318">
        <ele>659.6</ele>
        <time>2015-01-11T12:04:17Z</time>
      </trkpt>
      <trkpt lat="43.82852" lon="3.59317">
        <ele>657.2</ele>
        <time>2015-01-11T12:04:31Z</time>
      </trkpt>
      <trkpt lat="43.82852" lon="3.59316">
        <ele>662.49</ele>
        <time>2015-01-11T12:04:32Z</time>
      </trkpt>
      <trkpt lat="43.82853" lon="3.59316">
        <ele>659.6</ele>
        <time>2015-01-11T12:04:33Z</time>
      </trkpt>
      <trkpt lat="43.82852" lon="3.59316">
        <ele>661.04</ele>
        <time>2015-01-11T12:04:40Z</time>
      </trkpt>
      <trkpt lat="43.82851" lon="3.59314">
        <ele>661.04</ele>
        <time>2015-01-11T12:05:01Z</time>
      </trkpt>
      <trkpt lat="43.82854" lon="3.59314">
        <ele>662.01</ele>
        <time>2015-01-11T12:05:13Z</time>
      </trkpt>
      <trkpt lat="43.82855" lon="3.59314">
        <ele>662.01</ele>
        <time>2015-01-11T12:05:37Z</time>
      </trkpt>
      <trkpt lat="43.82856" lon="3.59313">
        <ele>664.41</ele>
        <time>2015-01-11T12:05:43Z</time>
      </trkpt>
      <trkpt lat="43.82856" lon="3.59314">
        <ele>661.52</ele>
        <time>2015-01-11T12:05:46Z</time>
      </trkpt>
      <trkpt lat="43.82855" lon="3.59314">
        <ele>662.49</ele>
        <time>2015-01-11T12:05:47Z</time>
      </trkpt>
      <trkpt lat="43.82855" lon="3.59313">
        <ele>664.41</ele>
        <time>2015-01-11T12:05:49Z</time>
      </trkpt>
      <trkpt lat="43.82856" lon="3.59314">
        <ele>666.33</ele>
        <time>2015-01-11T12:06:04Z</time>
      </trkpt>
      <trkpt lat="43.82858" lon="3.5931">
        <ele>668.25</ele>
        <time>2015-01-11T12:06:16Z</time>
      </trkpt>
      <trkpt lat="43.8286" lon="3.5931">
        <ele>672.1</ele>
        <time>2015-01-11T12:06:31Z</time>
      </trkpt>
      <trkpt lat="43.82861" lon="3.59308">
        <ele>668.25</ele>
        <time>2015-01-11T12:06:37Z</time>
      </trkpt>
      <trkpt lat="43.82862" lon="3.59308">
        <ele>673.54</ele>
        <time>2015-01-11T12:06:38Z</time>
      </trkpt>
      <trkpt lat="43.82863" lon="3.59308">
        <ele>670.18</ele>
        <time>2015-01-11T12:06:45Z</time>
      </trkpt>
      <trkpt lat="43.82864" lon="3.59306">
        <ele>673.54</ele>
        <time>2015-01-11T12:07:01Z</time>
      </trkpt>
      <trkpt lat="43.82868" lon="3.59305">
        <ele>674.98</ele>
        <time>2015-01-11T12:07:12Z</time>
      </trkpt>
      <trkpt lat="43.82869" lon="3.59305">
        <ele>675.46</ele>
        <time>2015-01-11T12:07:18Z</time>
      </trkpt>
      <trkpt lat="43.8287" lon="3.59306">
        <ele>679.31</ele>
        <time>2015-01-11T12:07:21Z</time>
      </trkpt>
      <trkpt lat="43.82871" lon="3.59306">
        <ele>675.46</ele>
        <time>2015-01-11T12:07:24Z</time>
      </trkpt>
      <trkpt lat="43.82872" lon="3.59306">
        <ele>677.39</ele>
        <time>2015-01-11T12:07:27Z</time>
      </trkpt>
      <trkpt lat="43.82873" lon="3.59306">
        <ele>676.91</ele>
        <time>2015-01-11T12:07:29Z</time>
      </trkpt>
      <trkpt lat="43.82874" lon="3.59306">
        <ele>678.35</ele>
        <time>2015-01-11T12:07:31Z</time>
      </trkpt>
      <trkpt lat="43.82879" lon="3.59308">
        <ele>679.79</ele>
        <time>2015-01-11T12:07:40Z</time>
      </trkpt>
      <trkpt lat="43.82882" lon="3.59311">
        <ele>679.79</ele>
        <time>2015-01-11T12:07:47Z</time>
      </trkpt>
      <trkpt lat="43.82887" lon="3.59313">
        <ele>679.79</ele>
        <time>2015-01-11T12:07:57Z</time>
      </trkpt>
      <trkpt lat="43.82888" lon="3.59314">
        <ele>680.75</ele>
        <time>2015-01-11T12:07:59Z</time>
      </trkpt>
      <trkpt lat="43.8289" lon="3.59315">
        <ele>680.27</ele>
        <time>2015-01-11T12:08:11Z</time>
      </trkpt>
      <trkpt lat="43.8289" lon="3.59314">
        <ele>681.23</ele>
        <time>2015-01-11T12:08:31Z</time>
      </trkpt>
      <trkpt lat="43.82893" lon="3.59317">
        <ele>680.75</ele>
        <time>2015-01-11T12:08:48Z</time>
      </trkpt>
      <trkpt lat="43.82892" lon="3.59318">
        <ele>681.23</ele>
        <time>2015-01-11T12:09:06Z</time>
      </trkpt>
      <trkpt lat="43.8289" lon="3.59319">
        <ele>680.75</ele>
        <time>2015-01-11T12:09:30Z</time>
      </trkpt>
      <trkpt lat="43.82889" lon="3.59316">
        <ele>681.23</ele>
        <time>2015-01-11T12:09:44Z</time>
      </trkpt>
      <trkpt lat="43.82887" lon="3.59317">
        <ele>681.71</ele>
        <time>2015-01-11T12:10:12Z</time>
      </trkpt>
      <trkpt lat="43.82887" lon="3.59317">
        <ele>680.75</ele>
        <time>2015-01-11T12:10:17Z</time>
      </trkpt>
      <trkpt lat="43.82887" lon="3.59318">
        <ele>682.19</ele>
        <time>2015-01-11T12:10:19Z</time>
      </trkpt>
      <trkpt lat="43.82889" lon="3.59318">
        <ele>680.27</ele>
        <time>2015-01-11T12:10:31Z</time>
      </trkpt>
      <trkpt lat="43.8289" lon="3.59318">
        <ele>680.75</ele>
        <time>2015-01-11T12:10:45Z</time>
      </trkpt>
      <trkpt lat="43.8289" lon="3.59319">
        <ele>680.75</ele>
        <time>2015-01-11T12:11:03Z</time>
      </trkpt>
      <trkpt lat="43.82889" lon="3.59318">
        <ele>680.75</ele>
        <time>2015-01-11T12:11:19Z</time>
      </trkpt>
      <trkpt lat="43.82891" lon="3.59318">
        <ele>681.23</ele>
        <time>2015-01-11T12:11:38Z</time>
      </trkpt>
      <trkpt lat="43.82892" lon="3.59318">
        <ele>680.27</ele>
        <time>2015-01-11T12:12:05Z</time>
      </trkpt>
      <trkpt lat="43.82897" lon="3.59321">
        <ele>679.31</ele>
        <time>2015-01-11T12:12:26Z</time>
      </trkpt>
      <trkpt lat="43.82903" lon="3.59318">
        <ele>680.27</ele>
        <time>2015-01-11T12:12:37Z</time>
      </trkpt>
      <trkpt lat="43.82914" lon="3.59313">
        <ele>680.27</ele>
        <time>2015-01-11T12:12:49Z</time>
      </trkpt>
      <trkpt lat="43.82916" lon="3.59312">
        <ele>679.31</ele>
        <time>2015-01-11T12:12:51Z</time>
      </trkpt>
      <trkpt lat="43.82922" lon="3.59311">
        <ele>681.23</ele>
        <time>2015-01-11T12:13:02Z</time>
      </trkpt>
      <trkpt lat="43.82924" lon="3.59311">
        <ele>679.79</ele>
        <time>2015-01-11T12:13:04Z</time>
      </trkpt>
      <trkpt lat="43.82938" lon="3.59302">
        <ele>677.87</ele>
        <time>2015-01-11T12:13:20Z</time>
      </trkpt>
      <trkpt lat="43.82953" lon="3.59294">
        <ele>674.5</ele>
        <time>2015-01-11T12:13:34Z</time>
      </trkpt>
      <trkpt lat="43.82961" lon="3.59272">
        <ele>676.42</ele>
        <time>2015-01-11T12:13:47Z</time>
      </trkpt>
      <trkpt lat="43.82962" lon="3.59269">
        <ele>675.46</ele>
        <time>2015-01-11T12:13:50Z</time>
      </trkpt>
      <trkpt lat="43.82965" lon="3.59263">
        <ele>674.5</ele>
        <time>2015-01-11T12:13:54Z</time>
      </trkpt>
      <trkpt lat="43.82975" lon="3.59243">
        <ele>674.5</ele>
        <time>2015-01-11T12:14:06Z</time>
      </trkpt>
      <trkpt lat="43.82977" lon="3.59229">
        <ele>674.98</ele>
        <time>2015-01-11T12:14:15Z</time>
      </trkpt>
      <trkpt lat="43.82976" lon="3.59227">
        <ele>675.46</ele>
        <time>2015-01-11T12:14:16Z</time>
      </trkpt>
      <trkpt lat="43.82976" lon="3.59225">
        <ele>674.5</ele>
        <time>2015-01-11T12:14:17Z</time>
      </trkpt>
      <trkpt lat="43.82976" lon="3.59222">
        <ele>674.98</ele>
        <time>2015-01-11T12:14:18Z</time>
      </trkpt>
      <trkpt lat="43.82976" lon="3.5922">
        <ele>674.98</ele>
        <time>2015-01-11T12:14:19Z</time>
      </trkpt>
      <trkpt lat="43.82975" lon="3.59218">
        <ele>674.98</ele>
        <time>2015-01-11T12:14:20Z</time>
      </trkpt>
      <trkpt lat="43.82975" lon="3.59216">
        <ele>674.98</ele>
        <time>2015-01-11T12:14:21Z</time>
      </trkpt>
      <trkpt lat="43.82981" lon="3.59197">
        <ele>675.94</ele>
        <time>2015-01-11T12:14:32Z</time>
      </trkpt>
      <trkpt lat="43.82982" lon="3.59196">
        <ele>676.91</ele>
        <time>2015-01-11T12:14:33Z</time>
      </trkpt>
      <trkpt lat="43.82986" lon="3.59191">
        <ele>675.94</ele>
        <time>2015-01-11T12:14:38Z</time>
      </trkpt>
      <trkpt lat="43.82987" lon="3.5919">
        <ele>675.46</ele>
        <time>2015-01-11T12:14:39Z</time>
      </trkpt>
      <trkpt lat="43.82989" lon="3.59189">
        <ele>675.46</ele>
        <time>2015-01-11T12:14:40Z</time>
      </trkpt>
      <trkpt lat="43.8299" lon="3.59188">
        <ele>674.98</ele>
        <time>2015-01-11T12:14:41Z</time>
      </trkpt>
      <trkpt lat="43.82991" lon="3.59188">
        <ele>674.98</ele>
        <time>2015-01-11T12:14:42Z</time>
      </trkpt>
      <trkpt lat="43.82992" lon="3.59186">
        <ele>675.46</ele>
        <time>2015-01-11T12:14:43Z</time>
      </trkpt>
      <trkpt lat="43.82993" lon="3.59185">
        <ele>676.42</ele>
        <time>2015-01-11T12:14:44Z</time>
      </trkpt>
      <trkpt lat="43.82994" lon="3.59184">
        <ele>676.42</ele>
        <time>2015-01-11T12:14:45Z</time>
      </trkpt>
      <trkpt lat="43.82995" lon="3.59183">
        <ele>676.42</ele>
        <time>2015-01-11T12:14:46Z</time>
      </trkpt>
      <trkpt lat="43.82997" lon="3.59182">
        <ele>675.94</ele>
        <time>2015-01-11T12:14:47Z</time>
      </trkpt>
      <trkpt lat="43.82998" lon="3.59181">
        <ele>676.91</ele>
        <time>2015-01-11T12:14:48Z</time>
      </trkpt>
      <trkpt lat="43.82999" lon="3.5918">
        <ele>678.35</ele>
        <time>2015-01-11T12:14:49Z</time>
      </trkpt>
      <trkpt lat="43.83" lon="3.59179">
        <ele>677.87</ele>
        <time>2015-01-11T12:14:50Z</time>
      </trkpt>
      <trkpt lat="43.83001" lon="3.59177">
        <ele>676.42</ele>
        <time>2015-01-11T12:14:51Z</time>
      </trkpt>
      <trkpt lat="43.83002" lon="3.59175">
        <ele>675.94</ele>
        <time>2015-01-11T12:14:52Z</time>
      </trkpt>
      <trkpt lat="43.83019" lon="3.59164">
        <ele>677.39</ele>
        <time>2015-01-11T12:15:06Z</time>
      </trkpt>
      <trkpt lat="43.83038" lon="3.59153">
        <ele>678.83</ele>
        <time>2015-01-11T12:15:21Z</time>
      </trkpt>
      <trkpt lat="43.83056" lon="3.59147">
        <ele>678.83</ele>
        <time>2015-01-11T12:15:34Z</time>
      </trkpt>
      <trkpt lat="43.83067" lon="3.59134">
        <ele>679.79</ele>
        <time>2015-01-11T12:15:46Z</time>
      </trkpt>
      <trkpt lat="43.83084" lon="3.59117">
        <ele>680.75</ele>
        <time>2015-01-11T12:16:02Z</time>
      </trkpt>
      <trkpt lat="43.83098" lon="3.59099">
        <ele>681.23</ele>
        <time>2015-01-11T12:16:17Z</time>
      </trkpt>
      <trkpt lat="43.83112" lon="3.59085">
        <ele>682.19</ele>
        <time>2015-01-11T12:16:29Z</time>
      </trkpt>
      <trkpt lat="43.83116" lon="3.59079">
        <ele>683.15</ele>
        <time>2015-01-11T12:16:34Z</time>
      </trkpt>
      <trkpt lat="43.83119" lon="3.59073">
        <ele>683.63</ele>
        <time>2015-01-11T12:16:38Z</time>
      </trkpt>
      <trkpt lat="43.83134" lon="3.59049">
        <ele>686.04</ele>
        <time>2015-01-11T12:16:57Z</time>
      </trkpt>
      <trkpt lat="43.83136" lon="3.59046">
        <ele>686.04</ele>
        <time>2015-01-11T12:17:00Z</time>
      </trkpt>
      <trkpt lat="43.83133" lon="3.59033">
        <ele>687.96</ele>
        <time>2015-01-11T12:17:10Z</time>
      </trkpt>
      <trkpt lat="43.8313" lon="3.5903">
        <ele>687.48</ele>
        <time>2015-01-11T12:17:13Z</time>
      </trkpt>
      <trkpt lat="43.83124" lon="3.59018">
        <ele>687.48</ele>
        <time>2015-01-11T12:17:22Z</time>
      </trkpt>
      <trkpt lat="43.83121" lon="3.59013">
        <ele>687.96</ele>
        <time>2015-01-11T12:17:26Z</time>
      </trkpt>
      <trkpt lat="43.8312" lon="3.59009">
        <ele>689.88</ele>
        <time>2015-01-11T12:17:29Z</time>
      </trkpt>
      <trkpt lat="43.83118" lon="3.59004">
        <ele>690.36</ele>
        <time>2015-01-11T12:17:33Z</time>
      </trkpt>
      <trkpt lat="43.83116" lon="3.58989">
        <ele>691.81</ele>
        <time>2015-01-11T12:17:39Z</time>
      </trkpt>
      <trkpt lat="43.83116" lon="3.58986">
        <ele>691.81</ele>
        <time>2015-01-11T12:17:41Z</time>
      </trkpt>
      <trkpt lat="43.83112" lon="3.58967">
        <ele>694.21</ele>
        <time>2015-01-11T12:17:55Z</time>
      </trkpt>
      <trkpt lat="43.83108" lon="3.58956">
        <ele>694.21</ele>
        <time>2015-01-11T12:18:08Z</time>
      </trkpt>
      <trkpt lat="43.83095" lon="3.58949">
        <ele>697.09</ele>
        <time>2015-01-11T12:18:25Z</time>
      </trkpt>
      <trkpt lat="43.83089" lon="3.58948">
        <ele>697.57</ele>
        <time>2015-01-11T12:18:31Z</time>
      </trkpt>
      <trkpt lat="43.83079" lon="3.5894">
        <ele>697.57</ele>
        <time>2015-01-11T12:18:43Z</time>
      </trkpt>
      <trkpt lat="43.8307" lon="3.5893">
        <ele>697.09</ele>
        <time>2015-01-11T12:18:55Z</time>
      </trkpt>
      <trkpt lat="43.83066" lon="3.58927">
        <ele>697.09</ele>
        <time>2015-01-11T12:19:00Z</time>
      </trkpt>
      <trkpt lat="43.8306" lon="3.58916">
        <ele>698.05</ele>
        <time>2015-01-11T12:19:15Z</time>
      </trkpt>
      <trkpt lat="43.83058" lon="3.58903">
        <ele>700.94</ele>
        <time>2015-01-11T12:19:26Z</time>
      </trkpt>
      <trkpt lat="43.83059" lon="3.58885">
        <ele>703.34</ele>
        <time>2015-01-11T12:19:41Z</time>
      </trkpt>
      <trkpt lat="43.83063" lon="3.58861">
        <ele>705.26</ele>
        <time>2015-01-11T12:19:55Z</time>
      </trkpt>
      <trkpt lat="43.83064" lon="3.58845">
        <ele>707.19</ele>
        <time>2015-01-11T12:20:08Z</time>
      </trkpt>
      <trkpt lat="43.83062" lon="3.58829">
        <ele>711.51</ele>
        <time>2015-01-11T12:20:22Z</time>
      </trkpt>
      <trkpt lat="43.83062" lon="3.58828">
        <ele>711.51</ele>
        <time>2015-01-11T12:20:23Z</time>
      </trkpt>
      <trkpt lat="43.83058" lon="3.58816">
        <ele>712.47</ele>
        <time>2015-01-11T12:20:33Z</time>
      </trkpt>
      <trkpt lat="43.83052" lon="3.5881">
        <ele>712.95</ele>
        <time>2015-01-11T12:20:41Z</time>
      </trkpt>
      <trkpt lat="43.83051" lon="3.58806">
        <ele>713.92</ele>
        <time>2015-01-11T12:20:44Z</time>
      </trkpt>
      <trkpt lat="43.83039" lon="3.58797">
        <ele>715.36</ele>
        <time>2015-01-11T12:21:01Z</time>
      </trkpt>
      <trkpt lat="43.83038" lon="3.58796">
        <ele>715.84</ele>
        <time>2015-01-11T12:21:02Z</time>
      </trkpt>
      <trkpt lat="43.83034" lon="3.58787">
        <ele>717.76</ele>
        <time>2015-01-11T12:21:10Z</time>
      </trkpt>
      <trkpt lat="43.83026" lon="3.58773">
        <ele>718.24</ele>
        <time>2015-01-11T12:21:22Z</time>
      </trkpt>
      <trkpt lat="43.83024" lon="3.58763">
        <ele>722.09</ele>
        <time>2015-01-11T12:21:32Z</time>
      </trkpt>
      <trkpt lat="43.83017" lon="3.58754">
        <ele>725.45</ele>
        <time>2015-01-11T12:21:45Z</time>
      </trkpt>
      <trkpt lat="43.83011" lon="3.58744">
        <ele>726.89</ele>
        <time>2015-01-11T12:21:58Z</time>
      </trkpt>
      <trkpt lat="43.83005" lon="3.58747">
        <ele>728.34</ele>
        <time>2015-01-11T12:22:04Z</time>
      </trkpt>
      <trkpt lat="43.83004" lon="3.58747">
        <ele>727.37</ele>
        <time>2015-01-11T12:22:06Z</time>
      </trkpt>
      <trkpt lat="43.83" lon="3.58739">
        <ele>730.26</ele>
        <time>2015-01-11T12:22:16Z</time>
      </trkpt>
      <trkpt lat="43.82993" lon="3.58732">
        <ele>732.18</ele>
        <time>2015-01-11T12:22:27Z</time>
      </trkpt>
      <trkpt lat="43.82991" lon="3.58728">
        <ele>733.62</ele>
        <time>2015-01-11T12:22:34Z</time>
      </trkpt>
      <trkpt lat="43.82987" lon="3.58719">
        <ele>734.58</ele>
        <time>2015-01-11T12:22:46Z</time>
      </trkpt>
      <trkpt lat="43.82985" lon="3.58715">
        <ele>737.47</ele>
        <time>2015-01-11T12:22:54Z</time>
      </trkpt>
      <trkpt lat="43.82984" lon="3.58713">
        <ele>737.95</ele>
        <time>2015-01-11T12:23:18Z</time>
      </trkpt>
      <trkpt lat="43.82984" lon="3.58712">
        <ele>737.95</ele>
        <time>2015-01-11T12:23:47Z</time>
      </trkpt>
      <trkpt lat="43.82984" lon="3.58705">
        <ele>738.43</ele>
        <time>2015-01-11T12:24:09Z</time>
      </trkpt>
      <trkpt lat="43.82982" lon="3.58696">
        <ele>741.79</ele>
        <time>2015-01-11T12:24:18Z</time>
      </trkpt>
      <trkpt lat="43.82979" lon="3.58684">
        <ele>744.68</ele>
        <time>2015-01-11T12:24:32Z</time>
      </trkpt>
      <trkpt lat="43.82977" lon="3.58671">
        <ele>746.6</ele>
        <time>2015-01-11T12:24:45Z</time>
      </trkpt>
      <trkpt lat="43.82976" lon="3.5866">
        <ele>749.97</ele>
        <time>2015-01-11T12:24:56Z</time>
      </trkpt>
      <trkpt lat="43.82976" lon="3.58659">
        <ele>749.49</ele>
        <time>2015-01-11T12:24:57Z</time>
      </trkpt>
      <trkpt lat="43.82974" lon="3.58652">
        <ele>749.97</ele>
        <time>2015-01-11T12:25:03Z</time>
      </trkpt>
      <trkpt lat="43.82969" lon="3.58642">
        <ele>751.41</ele>
        <time>2015-01-11T12:25:14Z</time>
      </trkpt>
      <trkpt lat="43.82968" lon="3.58639">
        <ele>751.89</ele>
        <time>2015-01-11T12:25:17Z</time>
      </trkpt>
      <trkpt lat="43.82966" lon="3.58627">
        <ele>753.81</ele>
        <time>2015-01-11T12:25:27Z</time>
      </trkpt>
      <trkpt lat="43.82959" lon="3.58617">
        <ele>755.73</ele>
        <time>2015-01-11T12:25:40Z</time>
      </trkpt>
      <trkpt lat="43.82954" lon="3.58605">
        <ele>757.66</ele>
        <time>2015-01-11T12:25:54Z</time>
      </trkpt>
      <trkpt lat="43.82951" lon="3.58601">
        <ele>758.62</ele>
        <time>2015-01-11T12:26:07Z</time>
      </trkpt>
      <trkpt lat="43.82951" lon="3.58599">
        <ele>759.1</ele>
        <time>2015-01-11T12:26:21Z</time>
      </trkpt>
      <trkpt lat="43.82951" lon="3.58597">
        <ele>758.62</ele>
        <time>2015-01-11T12:26:38Z</time>
      </trkpt>
      <trkpt lat="43.8295" lon="3.58594">
        <ele>759.1</ele>
        <time>2015-01-11T12:26:41Z</time>
      </trkpt>
      <trkpt lat="43.82945" lon="3.58584">
        <ele>759.58</ele>
        <time>2015-01-11T12:26:49Z</time>
      </trkpt>
      <trkpt lat="43.82943" lon="3.58575">
        <ele>759.1</ele>
        <time>2015-01-11T12:26:55Z</time>
      </trkpt>
      <trkpt lat="43.82935" lon="3.58552">
        <ele>758.14</ele>
        <time>2015-01-11T12:27:09Z</time>
      </trkpt>
      <trkpt lat="43.8293" lon="3.58544">
        <ele>757.66</ele>
        <time>2015-01-11T12:27:16Z</time>
      </trkpt>
      <trkpt lat="43.82919" lon="3.58532">
        <ele>757.66</ele>
        <time>2015-01-11T12:27:29Z</time>
      </trkpt>
      <trkpt lat="43.82918" lon="3.58531">
        <ele>758.14</ele>
        <time>2015-01-11T12:27:30Z</time>
      </trkpt>
      <trkpt lat="43.82914" lon="3.58527">
        <ele>758.62</ele>
        <time>2015-01-11T12:27:35Z</time>
      </trkpt>
      <trkpt lat="43.8291" lon="3.58525">
        <ele>758.62</ele>
        <time>2015-01-11T12:27:39Z</time>
      </trkpt>
      <trkpt lat="43.82905" lon="3.5852">
        <ele>758.14</ele>
        <time>2015-01-11T12:27:45Z</time>
      </trkpt>
      <trkpt lat="43.82898" lon="3.58517">
        <ele>760.06</ele>
        <time>2015-01-11T12:27:53Z</time>
      </trkpt>
      <trkpt lat="43.82896" lon="3.58516">
        <ele>759.58</ele>
        <time>2015-01-11T12:27:55Z</time>
      </trkpt>
      <trkpt lat="43.82889" lon="3.58512">
        <ele>760.06</ele>
        <time>2015-01-11T12:28:04Z</time>
      </trkpt>
      <trkpt lat="43.82884" lon="3.58514">
        <ele>760.54</ele>
        <time>2015-01-11T12:28:10Z</time>
      </trkpt>
      <trkpt lat="43.82881" lon="3.58516">
        <ele>760.54</ele>
        <time>2015-01-11T12:28:14Z</time>
      </trkpt>
      <trkpt lat="43.8287" lon="3.58518">
        <ele>761.02</ele>
        <time>2015-01-11T12:28:25Z</time>
      </trkpt>
      <trkpt lat="43.82859" lon="3.58518">
        <ele>760.06</ele>
        <time>2015-01-11T12:28:34Z</time>
      </trkpt>
      <trkpt lat="43.82845" lon="3.58521">
        <ele>759.58</ele>
        <time>2015-01-11T12:28:48Z</time>
      </trkpt>
      <trkpt lat="43.82837" lon="3.58521">
        <ele>758.62</ele>
        <time>2015-01-11T12:28:55Z</time>
      </trkpt>
      <trkpt lat="43.82833" lon="3.58521">
        <ele>758.14</ele>
        <time>2015-01-11T12:28:58Z</time>
      </trkpt>
      <trkpt lat="43.82827" lon="3.58519">
        <ele>756.69</ele>
        <time>2015-01-11T12:29:04Z</time>
      </trkpt>
      <trkpt lat="43.82819" lon="3.58515">
        <ele>755.25</ele>
        <time>2015-01-11T12:29:13Z</time>
      </trkpt>
      <trkpt lat="43.82816" lon="3.58512">
        <ele>753.33</ele>
        <time>2015-01-11T12:29:17Z</time>
      </trkpt>
      <trkpt lat="43.82811" lon="3.58516">
        <ele>753.81</ele>
        <time>2015-01-11T12:29:23Z</time>
      </trkpt>
      <trkpt lat="43.82806" lon="3.58521">
        <ele>753.33</ele>
        <time>2015-01-11T12:29:29Z</time>
      </trkpt>
      <trkpt lat="43.82802" lon="3.58524">
        <ele>753.33</ele>
        <time>2015-01-11T12:29:35Z</time>
      </trkpt>
      <trkpt lat="43.82799" lon="3.58527">
        <ele>753.33</ele>
        <time>2015-01-11T12:29:38Z</time>
      </trkpt>
      <trkpt lat="43.82796" lon="3.58529">
        <ele>753.33</ele>
        <time>2015-01-11T12:29:42Z</time>
      </trkpt>
      <trkpt lat="43.82785" lon="3.58539">
        <ele>751.89</ele>
        <time>2015-01-11T12:29:54Z</time>
      </trkpt>
      <trkpt lat="43.82767" lon="3.58544">
        <ele>750.45</ele>
        <time>2015-01-11T12:30:08Z</time>
      </trkpt>
      <trkpt lat="43.82762" lon="3.58547">
        <ele>749.49</ele>
        <time>2015-01-11T12:30:12Z</time>
      </trkpt>
      <trkpt lat="43.82751" lon="3.5855">
        <ele>747.56</ele>
        <time>2015-01-11T12:30:25Z</time>
      </trkpt>
      <trkpt lat="43.82745" lon="3.58552">
        <ele>747.08</ele>
        <time>2015-01-11T12:30:32Z</time>
      </trkpt>
      <trkpt lat="43.82737" lon="3.5856">
        <ele>747.56</ele>
        <time>2015-01-11T12:30:41Z</time>
      </trkpt>
      <trkpt lat="43.82725" lon="3.5857">
        <ele>745.64</ele>
        <time>2015-01-11T12:30:54Z</time>
      </trkpt>
      <trkpt lat="43.82723" lon="3.58571">
        <ele>745.64</ele>
        <time>2015-01-11T12:30:57Z</time>
      </trkpt>
      <trkpt lat="43.82721" lon="3.58573">
        <ele>745.64</ele>
        <time>2015-01-11T12:30:59Z</time>
      </trkpt>
      <trkpt lat="43.82716" lon="3.58578">
        <ele>745.64</ele>
        <time>2015-01-11T12:31:05Z</time>
      </trkpt>
      <trkpt lat="43.8271" lon="3.58582">
        <ele>745.16</ele>
        <time>2015-01-11T12:31:10Z</time>
      </trkpt>
      <trkpt lat="43.82699" lon="3.5858">
        <ele>743.72</ele>
        <time>2015-01-11T12:31:23Z</time>
      </trkpt>
      <trkpt lat="43.82695" lon="3.58578">
        <ele>743.24</ele>
        <time>2015-01-11T12:31:27Z</time>
      </trkpt>
      <trkpt lat="43.82693" lon="3.58575">
        <ele>743.24</ele>
        <time>2015-01-11T12:31:30Z</time>
      </trkpt>
      <trkpt lat="43.82688" lon="3.58573">
        <ele>742.28</ele>
        <time>2015-01-11T12:31:43Z</time>
      </trkpt>
      <trkpt lat="43.82685" lon="3.58574">
        <ele>743.72</ele>
        <time>2015-01-11T12:31:58Z</time>
      </trkpt>
      <trkpt lat="43.82687" lon="3.58574">
        <ele>742.76</ele>
        <time>2015-01-11T12:32:14Z</time>
      </trkpt>
      <trkpt lat="43.82687" lon="3.58573">
        <ele>742.76</ele>
        <time>2015-01-11T12:32:32Z</time>
      </trkpt>
      <trkpt lat="43.82686" lon="3.58574">
        <ele>742.76</ele>
        <time>2015-01-11T12:32:52Z</time>
      </trkpt>
      <trkpt lat="43.82689" lon="3.58573">
        <ele>742.76</ele>
        <time>2015-01-11T12:33:15Z</time>
      </trkpt>
      <trkpt lat="43.82685" lon="3.5857">
        <ele>742.28</ele>
        <time>2015-01-11T12:33:28Z</time>
      </trkpt>
      <trkpt lat="43.82685" lon="3.58572">
        <ele>742.76</ele>
        <time>2015-01-11T12:33:42Z</time>
      </trkpt>
      <trkpt lat="43.82685" lon="3.58571">
        <ele>741.79</ele>
        <time>2015-01-11T12:33:56Z</time>
      </trkpt>
      <trkpt lat="43.82684" lon="3.58572">
        <ele>742.76</ele>
        <time>2015-01-11T12:34:08Z</time>
      </trkpt>
      <trkpt lat="43.82684" lon="3.58571">
        <ele>741.31</ele>
        <time>2015-01-11T12:34:20Z</time>
      </trkpt>
      <trkpt lat="43.82684" lon="3.5857">
        <ele>741.31</ele>
        <time>2015-01-11T12:34:31Z</time>
      </trkpt>
      <trkpt lat="43.82684" lon="3.58571">
        <ele>742.28</ele>
        <time>2015-01-11T12:34:50Z</time>
      </trkpt>
      <trkpt lat="43.82681" lon="3.58565">
        <ele>741.31</ele>
        <time>2015-01-11T12:35:04Z</time>
      </trkpt>
      <trkpt lat="43.8268" lon="3.58567">
        <ele>740.83</ele>
        <time>2015-01-11T12:35:14Z</time>
      </trkpt>
      <trkpt lat="43.8268" lon="3.58566">
        <ele>740.35</ele>
        <time>2015-01-11T12:35:28Z</time>
      </trkpt>
      <trkpt lat="43.82681" lon="3.58567">
        <ele>740.35</ele>
        <time>2015-01-11T12:35:47Z</time>
      </trkpt>
      <trkpt lat="43.8268" lon="3.58567">
        <ele>740.83</ele>
        <time>2015-01-11T12:36:16Z</time>
      </trkpt>
      <trkpt lat="43.8268" lon="3.58566">
        <ele>740.35</ele>
        <time>2015-01-11T12:36:34Z</time>
      </trkpt>
      <trkpt lat="43.82681" lon="3.58566">
        <ele>739.87</ele>
        <time>2015-01-11T12:37:00Z</time>
      </trkpt>
      <trkpt lat="43.8268" lon="3.58566">
        <ele>739.87</ele>
        <time>2015-01-11T12:37:14Z</time>
      </trkpt>
      <trkpt lat="43.82681" lon="3.58566">
        <ele>740.35</ele>
        <time>2015-01-11T12:37:35Z</time>
      </trkpt>
      <trkpt lat="43.8268" lon="3.58566">
        <ele>739.39</ele>
        <time>2015-01-11T12:37:40Z</time>
      </trkpt>
      <trkpt lat="43.8268" lon="3.58566">
        <ele>739.39</ele>
        <time>2015-01-11T12:37:45Z</time>
      </trkpt>
      <trkpt lat="43.82681" lon="3.58567">
        <ele>739.87</ele>
        <time>2015-01-11T12:38:00Z</time>
      </trkpt>
      <trkpt lat="43.82681" lon="3.58568">
        <ele>740.35</ele>
        <time>2015-01-11T12:38:27Z</time>
      </trkpt>
      <trkpt lat="43.82681" lon="3.58568">
        <ele>741.31</ele>
        <time>2015-01-11T12:38:56Z</time>
      </trkpt>
      <trkpt lat="43.82678" lon="3.58565">
        <ele>741.31</ele>
        <time>2015-01-11T12:39:15Z</time>
      </trkpt>
      <trkpt lat="43.82677" lon="3.58566">
        <ele>740.35</ele>
        <time>2015-01-11T12:39:35Z</time>
      </trkpt>
      <trkpt lat="43.82676" lon="3.58563">
        <ele>740.35</ele>
        <time>2015-01-11T12:39:51Z</time>
      </trkpt>
      <trkpt lat="43.82675" lon="3.58563">
        <ele>740.35</ele>
        <time>2015-01-11T12:39:52Z</time>
      </trkpt>
      <trkpt lat="43.8267" lon="3.5856">
        <ele>741.31</ele>
        <time>2015-01-11T12:39:57Z</time>
      </trkpt>
      <trkpt lat="43.82656" lon="3.58557">
        <ele>741.31</ele>
        <time>2015-01-11T12:40:10Z</time>
      </trkpt>
      <trkpt lat="43.82647" lon="3.58565">
        <ele>741.31</ele>
        <time>2015-01-11T12:40:21Z</time>
      </trkpt>
      <trkpt lat="43.82644" lon="3.58567">
        <ele>741.31</ele>
        <time>2015-01-11T12:40:25Z</time>
      </trkpt>
      <trkpt lat="43.82639" lon="3.58552">
        <ele>742.28</ele>
        <time>2015-01-11T12:40:39Z</time>
      </trkpt>
      <trkpt lat="43.82637" lon="3.58544">
        <ele>742.76</ele>
        <time>2015-01-11T12:40:46Z</time>
      </trkpt>
      <trkpt lat="43.82632" lon="3.58534">
        <ele>743.72</ele>
        <time>2015-01-11T12:40:56Z</time>
      </trkpt>
      <trkpt lat="43.82633" lon="3.58522">
        <ele>744.2</ele>
        <time>2015-01-11T12:41:04Z</time>
      </trkpt>
      <trkpt lat="43.82625" lon="3.58508">
        <ele>745.64</ele>
        <time>2015-01-11T12:41:15Z</time>
      </trkpt>
      <trkpt lat="43.82625" lon="3.58505">
        <ele>745.16</ele>
        <time>2015-01-11T12:41:17Z</time>
      </trkpt>
      <trkpt lat="43.82624" lon="3.58497">
        <ele>743.24</ele>
        <time>2015-01-11T12:41:22Z</time>
      </trkpt>
      <trkpt lat="43.82623" lon="3.58493">
        <ele>746.6</ele>
        <time>2015-01-11T12:41:25Z</time>
      </trkpt>
      <trkpt lat="43.8262" lon="3.58481">
        <ele>748.04</ele>
        <time>2015-01-11T12:41:38Z</time>
      </trkpt>
      <trkpt lat="43.82616" lon="3.58468">
        <ele>749</ele>
        <time>2015-01-11T12:41:52Z</time>
      </trkpt>
      <trkpt lat="43.82614" lon="3.58456">
        <ele>749.97</ele>
        <time>2015-01-11T12:42:00Z</time>
      </trkpt>
      <trkpt lat="43.82608" lon="3.58429">
        <ele>752.37</ele>
        <time>2015-01-11T12:42:19Z</time>
      </trkpt>
      <trkpt lat="43.82606" lon="3.58411">
        <ele>754.77</ele>
        <time>2015-01-11T12:42:33Z</time>
      </trkpt>
      <trkpt lat="43.82605" lon="3.58409">
        <ele>754.29</ele>
        <time>2015-01-11T12:42:34Z</time>
      </trkpt>
      <trkpt lat="43.82606" lon="3.58396">
        <ele>753.81</ele>
        <time>2015-01-11T12:42:43Z</time>
      </trkpt>
      <trkpt lat="43.82607" lon="3.58383">
        <ele>751.89</ele>
        <time>2015-01-11T12:42:52Z</time>
      </trkpt>
      <trkpt lat="43.826" lon="3.58374">
        <ele>756.21</ele>
        <time>2015-01-11T12:43:04Z</time>
      </trkpt>
      <trkpt lat="43.82594" lon="3.58373">
        <ele>759.1</ele>
        <time>2015-01-11T12:43:15Z</time>
      </trkpt>
      <trkpt lat="43.82586" lon="3.58375">
        <ele>761.98</ele>
        <time>2015-01-11T12:43:29Z</time>
      </trkpt>
      <trkpt lat="43.82578" lon="3.58367">
        <ele>765.35</ele>
        <time>2015-01-11T12:43:43Z</time>
      </trkpt>
      <trkpt lat="43.82574" lon="3.58363">
        <ele>766.31</ele>
        <time>2015-01-11T12:43:49Z</time>
      </trkpt>
      <trkpt lat="43.82562" lon="3.58351">
        <ele>767.75</ele>
        <time>2015-01-11T12:44:04Z</time>
      </trkpt>
      <trkpt lat="43.82553" lon="3.58349">
        <ele>769.19</ele>
        <time>2015-01-11T12:44:16Z</time>
      </trkpt>
      <trkpt lat="43.82544" lon="3.58344">
        <ele>772.08</ele>
        <time>2015-01-11T12:44:28Z</time>
      </trkpt>
      <trkpt lat="43.82542" lon="3.58342">
        <ele>772.56</ele>
        <time>2015-01-11T12:44:31Z</time>
      </trkpt>
      <trkpt lat="43.82535" lon="3.58333">
        <ele>774</ele>
        <time>2015-01-11T12:44:43Z</time>
      </trkpt>
      <trkpt lat="43.82533" lon="3.58332">
        <ele>774</ele>
        <time>2015-01-11T12:44:45Z</time>
      </trkpt>
      <trkpt lat="43.82531" lon="3.5833">
        <ele>774.48</ele>
        <time>2015-01-11T12:44:48Z</time>
      </trkpt>
      <trkpt lat="43.82528" lon="3.58326">
        <ele>774.48</ele>
        <time>2015-01-11T12:44:52Z</time>
      </trkpt>
      <trkpt lat="43.82526" lon="3.5832">
        <ele>775.44</ele>
        <time>2015-01-11T12:45:03Z</time>
      </trkpt>
      <trkpt lat="43.82526" lon="3.58319">
        <ele>775.44</ele>
        <time>2015-01-11T12:45:18Z</time>
      </trkpt>
      <trkpt lat="43.82526" lon="3.58317">
        <ele>775.44</ele>
        <time>2015-01-11T12:45:39Z</time>
      </trkpt>
      <trkpt lat="43.82527" lon="3.58317">
        <ele>774.48</ele>
        <time>2015-01-11T12:46:03Z</time>
      </trkpt>
      <trkpt lat="43.82526" lon="3.58314">
        <ele>774.96</ele>
        <time>2015-01-11T12:46:11Z</time>
      </trkpt>
      <trkpt lat="43.82526" lon="3.58299">
        <ele>774</ele>
        <time>2015-01-11T12:46:23Z</time>
      </trkpt>
      <trkpt lat="43.82527" lon="3.58284">
        <ele>771.6</ele>
        <time>2015-01-11T12:46:37Z</time>
      </trkpt>
      <trkpt lat="43.82527" lon="3.58274">
        <ele>771.11</ele>
        <time>2015-01-11T12:46:44Z</time>
      </trkpt>
      <trkpt lat="43.82533" lon="3.58258">
        <ele>769.67</ele>
        <time>2015-01-11T12:46:56Z</time>
      </trkpt>
      <trkpt lat="43.82534" lon="3.58257">
        <ele>770.15</ele>
        <time>2015-01-11T12:46:58Z</time>
      </trkpt>
      <trkpt lat="43.82531" lon="3.58239">
        <ele>767.75</ele>
        <time>2015-01-11T12:47:12Z</time>
      </trkpt>
      <trkpt lat="43.82528" lon="3.58233">
        <ele>766.79</ele>
        <time>2015-01-11T12:47:20Z</time>
      </trkpt>
      <trkpt lat="43.82525" lon="3.58223">
        <ele>764.39</ele>
        <time>2015-01-11T12:47:33Z</time>
      </trkpt>
      <trkpt lat="43.82525" lon="3.58207">
        <ele>761.5</ele>
        <time>2015-01-11T12:47:47Z</time>
      </trkpt>
      <trkpt lat="43.82532" lon="3.58191">
        <ele>758.62</ele>
        <time>2015-01-11T12:48:01Z</time>
      </trkpt>
      <trkpt lat="43.82534" lon="3.58186">
        <ele>757.66</ele>
        <time>2015-01-11T12:48:06Z</time>
      </trkpt>
      <trkpt lat="43.82531" lon="3.58181">
        <ele>756.69</ele>
        <time>2015-01-11T12:48:12Z</time>
      </trkpt>
      <trkpt lat="43.82533" lon="3.58177">
        <ele>754.77</ele>
        <time>2015-01-11T12:48:15Z</time>
      </trkpt>
      <trkpt lat="43.8253" lon="3.5817">
        <ele>754.29</ele>
        <time>2015-01-11T12:48:24Z</time>
      </trkpt>
      <trkpt lat="43.82533" lon="3.58167">
        <ele>752.85</ele>
        <time>2015-01-11T12:48:28Z</time>
      </trkpt>
      <trkpt lat="43.82538" lon="3.58155">
        <ele>750.93</ele>
        <time>2015-01-11T12:48:39Z</time>
      </trkpt>
      <trkpt lat="43.82533" lon="3.58149">
        <ele>749.49</ele>
        <time>2015-01-11T12:48:48Z</time>
      </trkpt>
      <trkpt lat="43.82531" lon="3.58149">
        <ele>749</ele>
        <time>2015-01-11T12:48:51Z</time>
      </trkpt>
      <trkpt lat="43.82523" lon="3.58146">
        <ele>746.6</ele>
        <time>2015-01-11T12:48:59Z</time>
      </trkpt>
      <trkpt lat="43.8252" lon="3.58142">
        <ele>745.64</ele>
        <time>2015-01-11T12:49:03Z</time>
      </trkpt>
      <trkpt lat="43.82514" lon="3.58143">
        <ele>743.72</ele>
        <time>2015-01-11T12:49:08Z</time>
      </trkpt>
      <trkpt lat="43.82512" lon="3.58143">
        <ele>742.28</ele>
        <time>2015-01-11T12:49:11Z</time>
      </trkpt>
      <trkpt lat="43.82505" lon="3.5813">
        <ele>739.39</ele>
        <time>2015-01-11T12:49:23Z</time>
      </trkpt>
      <trkpt lat="43.82505" lon="3.5812">
        <ele>736.99</ele>
        <time>2015-01-11T12:49:31Z</time>
      </trkpt>
      <trkpt lat="43.82503" lon="3.58104">
        <ele>733.62</ele>
        <time>2015-01-11T12:49:41Z</time>
      </trkpt>
      <trkpt lat="43.82503" lon="3.58099">
        <ele>732.18</ele>
        <time>2015-01-11T12:49:44Z</time>
      </trkpt>
      <trkpt lat="43.82498" lon="3.58087">
        <ele>728.82</ele>
        <time>2015-01-11T12:49:54Z</time>
      </trkpt>
      <trkpt lat="43.82494" lon="3.5808">
        <ele>728.34</ele>
        <time>2015-01-11T12:49:59Z</time>
      </trkpt>
      <trkpt lat="43.82495" lon="3.58075">
        <ele>726.89</ele>
        <time>2015-01-11T12:50:02Z</time>
      </trkpt>
      <trkpt lat="43.82494" lon="3.5806">
        <ele>724.97</ele>
        <time>2015-01-11T12:50:10Z</time>
      </trkpt>
      <trkpt lat="43.82495" lon="3.58044">
        <ele>723.05</ele>
        <time>2015-01-11T12:50:19Z</time>
      </trkpt>
      <trkpt lat="43.82494" lon="3.58041">
        <ele>722.57</ele>
        <time>2015-01-11T12:50:21Z</time>
      </trkpt>
      <trkpt lat="43.82489" lon="3.58034">
        <ele>721.13</ele>
        <time>2015-01-11T12:50:25Z</time>
      </trkpt>
      <trkpt lat="43.82487" lon="3.58027">
        <ele>719.2</ele>
        <time>2015-01-11T12:50:29Z</time>
      </trkpt>
      <trkpt lat="43.82482" lon="3.58009">
        <ele>716.32</ele>
        <time>2015-01-11T12:50:40Z</time>
      </trkpt>
      <trkpt lat="43.82481" lon="3.58006">
        <ele>715.84</ele>
        <time>2015-01-11T12:50:42Z</time>
      </trkpt>
      <trkpt lat="43.82479" lon="3.58001">
        <ele>714.88</ele>
        <time>2015-01-11T12:50:45Z</time>
      </trkpt>
      <trkpt lat="43.8248" lon="3.57989">
        <ele>713.92</ele>
        <time>2015-01-11T12:50:52Z</time>
      </trkpt>
      <trkpt lat="43.82477" lon="3.57969">
        <ele>711.99</ele>
        <time>2015-01-11T12:51:05Z</time>
      </trkpt>
      <trkpt lat="43.82476" lon="3.57962">
        <ele>709.59</ele>
        <time>2015-01-11T12:51:14Z</time>
      </trkpt>
      <trkpt lat="43.82477" lon="3.57958">
        <ele>709.11</ele>
        <time>2015-01-11T12:51:17Z</time>
      </trkpt>
      <trkpt lat="43.82477" lon="3.57954">
        <ele>708.63</ele>
        <time>2015-01-11T12:51:21Z</time>
      </trkpt>
      <trkpt lat="43.82473" lon="3.5794">
        <ele>706.23</ele>
        <time>2015-01-11T12:51:31Z</time>
      </trkpt>
      <trkpt lat="43.82469" lon="3.57935">
        <ele>705.75</ele>
        <time>2015-01-11T12:51:35Z</time>
      </trkpt>
      <trkpt lat="43.82467" lon="3.57927">
        <ele>703.82</ele>
        <time>2015-01-11T12:51:42Z</time>
      </trkpt>
      <trkpt lat="43.82461" lon="3.57924">
        <ele>704.78</ele>
        <time>2015-01-11T12:51:46Z</time>
      </trkpt>
      <trkpt lat="43.82459" lon="3.57922">
        <ele>704.3</ele>
        <time>2015-01-11T12:51:49Z</time>
      </trkpt>
      <trkpt lat="43.82455" lon="3.57919">
        <ele>704.3</ele>
        <time>2015-01-11T12:51:53Z</time>
      </trkpt>
      <trkpt lat="43.82455" lon="3.57914">
        <ele>704.3</ele>
        <time>2015-01-11T12:51:56Z</time>
      </trkpt>
      <trkpt lat="43.82451" lon="3.57892">
        <ele>704.3</ele>
        <time>2015-01-11T12:52:10Z</time>
      </trkpt>
      <trkpt lat="43.82449" lon="3.57885">
        <ele>704.3</ele>
        <time>2015-01-11T12:52:16Z</time>
      </trkpt>
      <trkpt lat="43.82448" lon="3.57876">
        <ele>702.86</ele>
        <time>2015-01-11T12:52:24Z</time>
      </trkpt>
      <trkpt lat="43.82439" lon="3.57865">
        <ele>702.38</ele>
        <time>2015-01-11T12:52:36Z</time>
      </trkpt>
      <trkpt lat="43.82435" lon="3.57857">
        <ele>702.38</ele>
        <time>2015-01-11T12:52:42Z</time>
      </trkpt>
      <trkpt lat="43.82423" lon="3.57843">
        <ele>700.46</ele>
        <time>2015-01-11T12:52:53Z</time>
      </trkpt>
      <trkpt lat="43.8242" lon="3.57839">
        <ele>699.98</ele>
        <time>2015-01-11T12:52:58Z</time>
      </trkpt>
      <trkpt lat="43.82422" lon="3.5783">
        <ele>699.98</ele>
        <time>2015-01-11T12:53:04Z</time>
      </trkpt>
      <trkpt lat="43.8242" lon="3.57818">
        <ele>698.53</ele>
        <time>2015-01-11T12:53:13Z</time>
      </trkpt>
      <trkpt lat="43.82419" lon="3.57813">
        <ele>696.61</ele>
        <time>2015-01-11T12:53:16Z</time>
      </trkpt>
      <trkpt lat="43.82415" lon="3.57804">
        <ele>696.61</ele>
        <time>2015-01-11T12:53:23Z</time>
      </trkpt>
      <trkpt lat="43.82415" lon="3.57798">
        <ele>696.13</ele>
        <time>2015-01-11T12:53:27Z</time>
      </trkpt>
      <trkpt lat="43.82414" lon="3.57793">
        <ele>696.13</ele>
        <time>2015-01-11T12:53:31Z</time>
      </trkpt>
      <trkpt lat="43.82414" lon="3.57784">
        <ele>695.65</ele>
        <time>2015-01-11T12:53:37Z</time>
      </trkpt>
      <trkpt lat="43.82409" lon="3.5777">
        <ele>696.61</ele>
        <time>2015-01-11T12:53:49Z</time>
      </trkpt>
      <trkpt lat="43.82408" lon="3.57764">
        <ele>697.09</ele>
        <time>2015-01-11T12:53:55Z</time>
      </trkpt>
      <trkpt lat="43.82409" lon="3.57758">
        <ele>696.13</ele>
        <time>2015-01-11T12:53:59Z</time>
      </trkpt>
      <trkpt lat="43.82405" lon="3.57747">
        <ele>695.65</ele>
        <time>2015-01-11T12:54:10Z</time>
      </trkpt>
      <trkpt lat="43.82404" lon="3.57747">
        <ele>695.65</ele>
        <time>2015-01-11T12:54:11Z</time>
      </trkpt>
      <trkpt lat="43.82398" lon="3.57742">
        <ele>695.65</ele>
        <time>2015-01-11T12:54:21Z</time>
      </trkpt>
      <trkpt lat="43.82396" lon="3.5774">
        <ele>695.65</ele>
        <time>2015-01-11T12:54:26Z</time>
      </trkpt>
      <trkpt lat="43.8239" lon="3.57734">
        <ele>694.21</ele>
        <time>2015-01-11T12:54:37Z</time>
      </trkpt>
      <trkpt lat="43.82389" lon="3.57731">
        <ele>694.21</ele>
        <time>2015-01-11T12:54:49Z</time>
      </trkpt>
      <trkpt lat="43.8239" lon="3.57733">
        <ele>693.73</ele>
        <time>2015-01-11T12:54:56Z</time>
      </trkpt>
      <trkpt lat="43.82397" lon="3.57737">
        <ele>695.65</ele>
        <time>2015-01-11T12:55:03Z</time>
      </trkpt>
      <trkpt lat="43.82403" lon="3.57737">
        <ele>696.13</ele>
        <time>2015-01-11T12:55:12Z</time>
      </trkpt>
      <trkpt lat="43.82404" lon="3.57732">
        <ele>693.73</ele>
        <time>2015-01-11T12:55:18Z</time>
      </trkpt>
      <trkpt lat="43.82405" lon="3.57729">
        <ele>692.77</ele>
        <time>2015-01-11T12:55:21Z</time>
      </trkpt>
      <trkpt lat="43.82408" lon="3.57727">
        <ele>692.77</ele>
        <time>2015-01-11T12:55:24Z</time>
      </trkpt>
      <trkpt lat="43.82411" lon="3.57723">
        <ele>690.84</ele>
        <time>2015-01-11T12:55:30Z</time>
      </trkpt>
      <trkpt lat="43.82411" lon="3.57722">
        <ele>690.84</ele>
        <time>2015-01-11T12:55:31Z</time>
      </trkpt>
      <trkpt lat="43.82413" lon="3.57719">
        <ele>689.4</ele>
        <time>2015-01-11T12:55:35Z</time>
      </trkpt>
      <trkpt lat="43.82413" lon="3.5771">
        <ele>687.96</ele>
        <time>2015-01-11T12:55:45Z</time>
      </trkpt>
      <trkpt lat="43.82413" lon="3.57709">
        <ele>687.48</ele>
        <time>2015-01-11T12:55:48Z</time>
      </trkpt>
      <trkpt lat="43.82411" lon="3.57697">
        <ele>686.52</ele>
        <time>2015-01-11T12:56:02Z</time>
      </trkpt>
      <trkpt lat="43.82411" lon="3.57694">
        <ele>685.56</ele>
        <time>2015-01-11T12:56:05Z</time>
      </trkpt>
      <trkpt lat="43.82407" lon="3.57684">
        <ele>684.6</ele>
        <time>2015-01-11T12:56:13Z</time>
      </trkpt>
      <trkpt lat="43.82405" lon="3.57682">
        <ele>683.15</ele>
        <time>2015-01-11T12:56:15Z</time>
      </trkpt>
      <trkpt lat="43.82404" lon="3.57674">
        <ele>683.63</ele>
        <time>2015-01-11T12:56:21Z</time>
      </trkpt>
      <trkpt lat="43.82403" lon="3.5767">
        <ele>683.15</ele>
        <time>2015-01-11T12:56:23Z</time>
      </trkpt>
      <trkpt lat="43.82399" lon="3.57661">
        <ele>682.67</ele>
        <time>2015-01-11T12:56:30Z</time>
      </trkpt>
      <trkpt lat="43.824" lon="3.57655">
        <ele>681.71</ele>
        <time>2015-01-11T12:56:35Z</time>
      </trkpt>
      <trkpt lat="43.82402" lon="3.5765">
        <ele>682.19</ele>
        <time>2015-01-11T12:56:38Z</time>
      </trkpt>
      <trkpt lat="43.82405" lon="3.57647">
        <ele>681.71</ele>
        <time>2015-01-11T12:56:42Z</time>
      </trkpt>
      <trkpt lat="43.82407" lon="3.57644">
        <ele>681.23</ele>
        <time>2015-01-11T12:56:45Z</time>
      </trkpt>
      <trkpt lat="43.82407" lon="3.57638">
        <ele>680.27</ele>
        <time>2015-01-11T12:56:50Z</time>
      </trkpt>
      <trkpt lat="43.82403" lon="3.57634">
        <ele>680.27</ele>
        <time>2015-01-11T12:57:01Z</time>
      </trkpt>
      <trkpt lat="43.82402" lon="3.5763">
        <ele>678.35</ele>
        <time>2015-01-11T12:57:10Z</time>
      </trkpt>
      <trkpt lat="43.82402" lon="3.57629">
        <ele>678.35</ele>
        <time>2015-01-11T12:57:11Z</time>
      </trkpt>
      <trkpt lat="43.824" lon="3.57624">
        <ele>676.91</ele>
        <time>2015-01-11T12:57:15Z</time>
      </trkpt>
      <trkpt lat="43.82398" lon="3.57616">
        <ele>676.42</ele>
        <time>2015-01-11T12:57:22Z</time>
      </trkpt>
      <trkpt lat="43.82396" lon="3.57613">
        <ele>676.91</ele>
        <time>2015-01-11T12:57:25Z</time>
      </trkpt>
      <trkpt lat="43.82391" lon="3.57606">
        <ele>676.42</ele>
        <time>2015-01-11T12:57:31Z</time>
      </trkpt>
      <trkpt lat="43.82388" lon="3.57606">
        <ele>676.42</ele>
        <time>2015-01-11T12:57:33Z</time>
      </trkpt>
      <trkpt lat="43.82376" lon="3.576">
        <ele>675.46</ele>
        <time>2015-01-11T12:57:45Z</time>
      </trkpt>
      <trkpt lat="43.82371" lon="3.57597">
        <ele>674.5</ele>
        <time>2015-01-11T12:57:50Z</time>
      </trkpt>
      <trkpt lat="43.82368" lon="3.57597">
        <ele>673.54</ele>
        <time>2015-01-11T12:57:53Z</time>
      </trkpt>
      <trkpt lat="43.82362" lon="3.57594">
        <ele>673.06</ele>
        <time>2015-01-11T12:57:59Z</time>
      </trkpt>
      <trkpt lat="43.8235" lon="3.57588">
        <ele>670.66</ele>
        <time>2015-01-11T12:58:10Z</time>
      </trkpt>
      <trkpt lat="43.82347" lon="3.57586">
        <ele>670.18</ele>
        <time>2015-01-11T12:58:12Z</time>
      </trkpt>
      <trkpt lat="43.82345" lon="3.57579">
        <ele>669.7</ele>
        <time>2015-01-11T12:58:17Z</time>
      </trkpt>
      <trkpt lat="43.82335" lon="3.57564">
        <ele>667.77</ele>
        <time>2015-01-11T12:58:29Z</time>
      </trkpt>
      <trkpt lat="43.82334" lon="3.57562">
        <ele>667.77</ele>
        <time>2015-01-11T12:58:30Z</time>
      </trkpt>
      <trkpt lat="43.82331" lon="3.57556">
        <ele>667.29</ele>
        <time>2015-01-11T12:58:35Z</time>
      </trkpt>
      <trkpt lat="43.82327" lon="3.57551">
        <ele>666.33</ele>
        <time>2015-01-11T12:58:40Z</time>
      </trkpt>
      <trkpt lat="43.82321" lon="3.57543">
        <ele>664.89</ele>
        <time>2015-01-11T12:58:49Z</time>
      </trkpt>
      <trkpt lat="43.8232" lon="3.57538">
        <ele>664.89</ele>
        <time>2015-01-11T12:58:53Z</time>
      </trkpt>
      <trkpt lat="43.82313" lon="3.57534">
        <ele>664.41</ele>
        <time>2015-01-11T12:58:59Z</time>
      </trkpt>
      <trkpt lat="43.82308" lon="3.57531">
        <ele>664.41</ele>
        <time>2015-01-11T12:59:03Z</time>
      </trkpt>
      <trkpt lat="43.82305" lon="3.57529">
        <ele>664.41</ele>
        <time>2015-01-11T12:59:06Z</time>
      </trkpt>
      <trkpt lat="43.82294" lon="3.5752">
        <ele>663.45</ele>
        <time>2015-01-11T12:59:17Z</time>
      </trkpt>
      <trkpt lat="43.82292" lon="3.57514">
        <ele>664.41</ele>
        <time>2015-01-11T12:59:21Z</time>
      </trkpt>
      <trkpt lat="43.82287" lon="3.57509">
        <ele>663.93</ele>
        <time>2015-01-11T12:59:25Z</time>
      </trkpt>
      <trkpt lat="43.82284" lon="3.57504">
        <ele>662.97</ele>
        <time>2015-01-11T12:59:29Z</time>
      </trkpt>
      <trkpt lat="43.82279" lon="3.57497">
        <ele>664.41</ele>
        <time>2015-01-11T12:59:36Z</time>
      </trkpt>
      <trkpt lat="43.82275" lon="3.57494">
        <ele>662.97</ele>
        <time>2015-01-11T12:59:40Z</time>
      </trkpt>
      <trkpt lat="43.8226" lon="3.57483">
        <ele>665.85</ele>
        <time>2015-01-11T12:59:56Z</time>
      </trkpt>
      <trkpt lat="43.82257" lon="3.57475">
        <ele>664.41</ele>
        <time>2015-01-11T13:00:03Z</time>
      </trkpt>
      <trkpt lat="43.82251" lon="3.57467">
        <ele>664.89</ele>
        <time>2015-01-11T13:00:11Z</time>
      </trkpt>
      <trkpt lat="43.82247" lon="3.5746">
        <ele>666.81</ele>
        <time>2015-01-11T13:00:16Z</time>
      </trkpt>
      <trkpt lat="43.82236" lon="3.57446">
        <ele>665.37</ele>
        <time>2015-01-11T13:00:28Z</time>
      </trkpt>
      <trkpt lat="43.82235" lon="3.57441">
        <ele>664.89</ele>
        <time>2015-01-11T13:00:32Z</time>
      </trkpt>
      <trkpt lat="43.8223" lon="3.5743">
        <ele>664.89</ele>
        <time>2015-01-11T13:00:40Z</time>
      </trkpt>
      <trkpt lat="43.82227" lon="3.57418">
        <ele>663.45</ele>
        <time>2015-01-11T13:00:49Z</time>
      </trkpt>
      <trkpt lat="43.82229" lon="3.57411">
        <ele>662.01</ele>
        <time>2015-01-11T13:00:54Z</time>
      </trkpt>
      <trkpt lat="43.82227" lon="3.5741">
        <ele>662.49</ele>
        <time>2015-01-11T13:00:56Z</time>
      </trkpt>
      <trkpt lat="43.82224" lon="3.57403">
        <ele>662.01</ele>
        <time>2015-01-11T13:01:01Z</time>
      </trkpt>
      <trkpt lat="43.8222" lon="3.57396">
        <ele>662.49</ele>
        <time>2015-01-11T13:01:13Z</time>
      </trkpt>
      <trkpt lat="43.8222" lon="3.57396">
        <ele>662.49</ele>
        <time>2015-01-11T13:01:14Z</time>
      </trkpt>
      <trkpt lat="43.82214" lon="3.57399">
        <ele>662.01</ele>
        <time>2015-01-11T13:01:23Z</time>
      </trkpt>
      <trkpt lat="43.82206" lon="3.57407">
        <ele>663.45</ele>
        <time>2015-01-11T13:01:36Z</time>
      </trkpt>
      <trkpt lat="43.82209" lon="3.57411">
        <ele>662.49</ele>
        <time>2015-01-11T13:01:51Z</time>
      </trkpt>
      <trkpt lat="43.82211" lon="3.57411">
        <ele>667.29</ele>
        <time>2015-01-11T13:02:02Z</time>
      </trkpt>
      <trkpt lat="43.82211" lon="3.57411">
        <ele>664.89</ele>
        <time>2015-01-11T13:02:03Z</time>
      </trkpt>
      <trkpt lat="43.82212" lon="3.57409">
        <ele>662.97</ele>
        <time>2015-01-11T13:02:20Z</time>
      </trkpt>
      <trkpt lat="43.82213" lon="3.57409">
        <ele>663.45</ele>
        <time>2015-01-11T13:02:26Z</time>
      </trkpt>
      <trkpt lat="43.82215" lon="3.57412">
        <ele>665.37</ele>
        <time>2015-01-11T13:02:30Z</time>
      </trkpt>
      <trkpt lat="43.82215" lon="3.57415">
        <ele>665.37</ele>
        <time>2015-01-11T13:02:35Z</time>
      </trkpt>
      <trkpt lat="43.82214" lon="3.57415">
        <ele>669.22</ele>
        <time>2015-01-11T13:02:46Z</time>
      </trkpt>
      <trkpt lat="43.82214" lon="3.57416">
        <ele>668.73</ele>
        <time>2015-01-11T13:02:47Z</time>
      </trkpt>
      <trkpt lat="43.82212" lon="3.57413">
        <ele>668.73</ele>
        <time>2015-01-11T13:02:58Z</time>
      </trkpt>
      <trkpt lat="43.82212" lon="3.57413">
        <ele>668.73</ele>
        <time>2015-01-11T13:03:02Z</time>
      </trkpt>
      <trkpt lat="43.82211" lon="3.57415">
        <ele>665.85</ele>
        <time>2015-01-11T13:03:08Z</time>
      </trkpt>
      <trkpt lat="43.82211" lon="3.57414">
        <ele>666.33</ele>
        <time>2015-01-11T13:03:09Z</time>
      </trkpt>
      <trkpt lat="43.82212" lon="3.57416">
        <ele>662.97</ele>
        <time>2015-01-11T13:03:12Z</time>
      </trkpt>
      <trkpt lat="43.82214" lon="3.57417">
        <ele>665.85</ele>
        <time>2015-01-11T13:03:18Z</time>
      </trkpt>
      <trkpt lat="43.82213" lon="3.57418">
        <ele>668.25</ele>
        <time>2015-01-11T13:03:25Z</time>
      </trkpt>
      <trkpt lat="43.82213" lon="3.57415">
        <ele>668.73</ele>
        <time>2015-01-11T13:03:36Z</time>
      </trkpt>
      <trkpt lat="43.82212" lon="3.57417">
        <ele>669.7</ele>
        <time>2015-01-11T13:03:48Z</time>
      </trkpt>
      <trkpt lat="43.82212" lon="3.57417">
        <ele>669.22</ele>
        <time>2015-01-11T13:03:49Z</time>
      </trkpt>
      <trkpt lat="43.82212" lon="3.57418">
        <ele>667.77</ele>
        <time>2015-01-11T13:03:51Z</time>
      </trkpt>
      <trkpt lat="43.82211" lon="3.57416">
        <ele>667.29</ele>
        <time>2015-01-11T13:04:02Z</time>
      </trkpt>
      <trkpt lat="43.82211" lon="3.57416">
        <ele>666.33</ele>
        <time>2015-01-11T13:04:04Z</time>
      </trkpt>
      <trkpt lat="43.82212" lon="3.57417">
        <ele>668.25</ele>
        <time>2015-01-11T13:04:13Z</time>
      </trkpt>
      <trkpt lat="43.82211" lon="3.57417">
        <ele>669.7</ele>
        <time>2015-01-11T13:04:26Z</time>
      </trkpt>
      <trkpt lat="43.8221" lon="3.57418">
        <ele>668.25</ele>
        <time>2015-01-11T13:04:29Z</time>
      </trkpt>
      <trkpt lat="43.82211" lon="3.57418">
        <ele>667.29</ele>
        <time>2015-01-11T13:04:37Z</time>
      </trkpt>
      <trkpt lat="43.8221" lon="3.57419">
        <ele>668.73</ele>
        <time>2015-01-11T13:04:56Z</time>
      </trkpt>
      <trkpt lat="43.8221" lon="3.57417">
        <ele>669.22</ele>
        <time>2015-01-11T13:05:17Z</time>
      </trkpt>
      <trkpt lat="43.82211" lon="3.57415">
        <ele>667.77</ele>
        <time>2015-01-11T13:05:31Z</time>
      </trkpt>
      <trkpt lat="43.82211" lon="3.57415">
        <ele>665.85</ele>
        <time>2015-01-11T13:05:34Z</time>
      </trkpt>
      <trkpt lat="43.82213" lon="3.57416">
        <ele>666.81</ele>
        <time>2015-01-11T13:05:45Z</time>
      </trkpt>
      <trkpt lat="43.82215" lon="3.57416">
        <ele>665.37</ele>
        <time>2015-01-11T13:05:47Z</time>
      </trkpt>
      <trkpt lat="43.82215" lon="3.57415">
        <ele>665.37</ele>
        <time>2015-01-11T13:05:48Z</time>
      </trkpt>
      <trkpt lat="43.82217" lon="3.57414">
        <ele>662.49</ele>
        <time>2015-01-11T13:05:54Z</time>
      </trkpt>
      <trkpt lat="43.82217" lon="3.57414">
        <ele>662.01</ele>
        <time>2015-01-11T13:05:55Z</time>
      </trkpt>
      <trkpt lat="43.82215" lon="3.5741">
        <ele>661.52</ele>
        <time>2015-01-11T13:06:01Z</time>
      </trkpt>
      <trkpt lat="43.82218" lon="3.57407">
        <ele>662.01</ele>
        <time>2015-01-11T13:06:05Z</time>
      </trkpt>
      <trkpt lat="43.82219" lon="3.57406">
        <ele>659.12</ele>
        <time>2015-01-11T13:06:06Z</time>
      </trkpt>
      <trkpt lat="43.82222" lon="3.57402">
        <ele>660.56</ele>
        <time>2015-01-11T13:06:10Z</time>
      </trkpt>
      <trkpt lat="43.82221" lon="3.57397">
        <ele>659.12</ele>
        <time>2015-01-11T13:06:21Z</time>
      </trkpt>
      <trkpt lat="43.82219" lon="3.57394">
        <ele>660.56</ele>
        <time>2015-01-11T13:06:25Z</time>
      </trkpt>
      <trkpt lat="43.82219" lon="3.57391">
        <ele>658.64</ele>
        <time>2015-01-11T13:06:28Z</time>
      </trkpt>
      <trkpt lat="43.82219" lon="3.57383">
        <ele>660.08</ele>
        <time>2015-01-11T13:06:33Z</time>
      </trkpt>
      <trkpt lat="43.82217" lon="3.57381">
        <ele>660.56</ele>
        <time>2015-01-11T13:06:36Z</time>
      </trkpt>
      <trkpt lat="43.82215" lon="3.57367">
        <ele>659.12</ele>
        <time>2015-01-11T13:06:49Z</time>
      </trkpt>
      <trkpt lat="43.82215" lon="3.57354">
        <ele>659.12</ele>
        <time>2015-01-11T13:07:01Z</time>
      </trkpt>
      <trkpt lat="43.82216" lon="3.57352">
        <ele>660.56</ele>
        <time>2015-01-11T13:07:05Z</time>
      </trkpt>
      <trkpt lat="43.82216" lon="3.57349">
        <ele>660.08</ele>
        <time>2015-01-11T13:07:08Z</time>
      </trkpt>
      <trkpt lat="43.82214" lon="3.57335">
        <ele>660.56</ele>
        <time>2015-01-11T13:07:20Z</time>
      </trkpt>
      <trkpt lat="43.82215" lon="3.57321">
        <ele>661.04</ele>
        <time>2015-01-11T13:07:29Z</time>
      </trkpt>
      <trkpt lat="43.8221" lon="3.57308">
        <ele>662.01</ele>
        <time>2015-01-11T13:07:38Z</time>
      </trkpt>
      <trkpt lat="43.82208" lon="3.57302">
        <ele>662.01</ele>
        <time>2015-01-11T13:07:43Z</time>
      </trkpt>
      <trkpt lat="43.82207" lon="3.57299">
        <ele>661.52</ele>
        <time>2015-01-11T13:07:46Z</time>
      </trkpt>
      <trkpt lat="43.82205" lon="3.57286">
        <ele>662.97</ele>
        <time>2015-01-11T13:07:56Z</time>
      </trkpt>
      <trkpt lat="43.82203" lon="3.57279">
        <ele>663.45</ele>
        <time>2015-01-11T13:08:01Z</time>
      </trkpt>
      <trkpt lat="43.82199" lon="3.57272">
        <ele>663.93</ele>
        <time>2015-01-11T13:08:07Z</time>
      </trkpt>
      <trkpt lat="43.82197" lon="3.57264">
        <ele>665.37</ele>
        <time>2015-01-11T13:08:13Z</time>
      </trkpt>
      <trkpt lat="43.82192" lon="3.57264">
        <ele>664.89</ele>
        <time>2015-01-11T13:08:18Z</time>
      </trkpt>
      <trkpt lat="43.82182" lon="3.5725">
        <ele>663.45</ele>
        <time>2015-01-11T13:08:30Z</time>
      </trkpt>
      <trkpt lat="43.82181" lon="3.57246">
        <ele>662.97</ele>
        <time>2015-01-11T13:08:33Z</time>
      </trkpt>
      <trkpt lat="43.82173" lon="3.5724">
        <ele>662.49</ele>
        <time>2015-01-11T13:08:41Z</time>
      </trkpt>
      <trkpt lat="43.82167" lon="3.57243">
        <ele>661.52</ele>
        <time>2015-01-11T13:08:46Z</time>
      </trkpt>
      <trkpt lat="43.82152" lon="3.5724">
        <ele>660.56</ele>
        <time>2015-01-11T13:08:58Z</time>
      </trkpt>
      <trkpt lat="43.82149" lon="3.57236">
        <ele>661.04</ele>
        <time>2015-01-11T13:09:02Z</time>
      </trkpt>
      <trkpt lat="43.82141" lon="3.57234">
        <ele>661.04</ele>
        <time>2015-01-11T13:09:10Z</time>
      </trkpt>
      <trkpt lat="43.82138" lon="3.57232">
        <ele>661.04</ele>
        <time>2015-01-11T13:09:13Z</time>
      </trkpt>
      <trkpt lat="43.82125" lon="3.57225">
        <ele>660.56</ele>
        <time>2015-01-11T13:09:24Z</time>
      </trkpt>
      <trkpt lat="43.82114" lon="3.57214">
        <ele>660.56</ele>
        <time>2015-01-11T13:09:35Z</time>
      </trkpt>
      <trkpt lat="43.82109" lon="3.57211">
        <ele>660.56</ele>
        <time>2015-01-11T13:09:39Z</time>
      </trkpt>
      <trkpt lat="43.82107" lon="3.57207">
        <ele>661.04</ele>
        <time>2015-01-11T13:09:42Z</time>
      </trkpt>
      <trkpt lat="43.82093" lon="3.57202">
        <ele>661.52</ele>
        <time>2015-01-11T13:09:54Z</time>
      </trkpt>
      <trkpt lat="43.82091" lon="3.57199">
        <ele>662.01</ele>
        <time>2015-01-11T13:09:57Z</time>
      </trkpt>
      <trkpt lat="43.82084" lon="3.57195">
        <ele>662.49</ele>
        <time>2015-01-11T13:10:03Z</time>
      </trkpt>
      <trkpt lat="43.82079" lon="3.57188">
        <ele>663.45</ele>
        <time>2015-01-11T13:10:10Z</time>
      </trkpt>
      <trkpt lat="43.82075" lon="3.57185">
        <ele>664.41</ele>
        <time>2015-01-11T13:10:14Z</time>
      </trkpt>
      <trkpt lat="43.82069" lon="3.57177">
        <ele>665.37</ele>
        <time>2015-01-11T13:10:22Z</time>
      </trkpt>
      <trkpt lat="43.82065" lon="3.5717">
        <ele>666.81</ele>
        <time>2015-01-11T13:10:27Z</time>
      </trkpt>
      <trkpt lat="43.82057" lon="3.57155">
        <ele>669.22</ele>
        <time>2015-01-11T13:10:39Z</time>
      </trkpt>
      <trkpt lat="43.82051" lon="3.57149">
        <ele>669.22</ele>
        <time>2015-01-11T13:10:45Z</time>
      </trkpt>
      <trkpt lat="43.82049" lon="3.5714">
        <ele>669.22</ele>
        <time>2015-01-11T13:10:51Z</time>
      </trkpt>
      <trkpt lat="43.82052" lon="3.57131">
        <ele>670.18</ele>
        <time>2015-01-11T13:10:57Z</time>
      </trkpt>
      <trkpt lat="43.82051" lon="3.57126">
        <ele>673.06</ele>
        <time>2015-01-11T13:11:00Z</time>
      </trkpt>
      <trkpt lat="43.82051" lon="3.57124">
        <ele>672.58</ele>
        <time>2015-01-11T13:11:03Z</time>
      </trkpt>
      <trkpt lat="43.82049" lon="3.57117">
        <ele>672.58</ele>
        <time>2015-01-11T13:11:07Z</time>
      </trkpt>
      <trkpt lat="43.82048" lon="3.57115">
        <ele>672.58</ele>
        <time>2015-01-11T13:11:09Z</time>
      </trkpt>
      <trkpt lat="43.82045" lon="3.57111">
        <ele>673.54</ele>
        <time>2015-01-11T13:11:13Z</time>
      </trkpt>
      <trkpt lat="43.82041" lon="3.57091">
        <ele>672.58</ele>
        <time>2015-01-11T13:11:24Z</time>
      </trkpt>
      <trkpt lat="43.82039" lon="3.57088">
        <ele>673.54</ele>
        <time>2015-01-11T13:11:27Z</time>
      </trkpt>
      <trkpt lat="43.82034" lon="3.57084">
        <ele>674.5</ele>
        <time>2015-01-11T13:11:32Z</time>
      </trkpt>
      <trkpt lat="43.82028" lon="3.57081">
        <ele>674.5</ele>
        <time>2015-01-11T13:11:37Z</time>
      </trkpt>
      <trkpt lat="43.82015" lon="3.57081">
        <ele>674.98</ele>
        <time>2015-01-11T13:11:49Z</time>
      </trkpt>
      <trkpt lat="43.8201" lon="3.57084">
        <ele>674.98</ele>
        <time>2015-01-11T13:11:52Z</time>
      </trkpt>
      <trkpt lat="43.82008" lon="3.57089">
        <ele>674.98</ele>
        <time>2015-01-11T13:11:56Z</time>
      </trkpt>
      <trkpt lat="43.82005" lon="3.57093">
        <ele>675.94</ele>
        <time>2015-01-11T13:12:00Z</time>
      </trkpt>
      <trkpt lat="43.82004" lon="3.57095">
        <ele>675.94</ele>
        <time>2015-01-11T13:12:02Z</time>
      </trkpt>
      <trkpt lat="43.81996" lon="3.57102">
        <ele>675.46</ele>
        <time>2015-01-11T13:12:11Z</time>
      </trkpt>
      <trkpt lat="43.81995" lon="3.57103">
        <ele>676.42</ele>
        <time>2015-01-11T13:12:12Z</time>
      </trkpt>
      <trkpt lat="43.81992" lon="3.57106">
        <ele>675.94</ele>
        <time>2015-01-11T13:12:15Z</time>
      </trkpt>
      <trkpt lat="43.81986" lon="3.57113">
        <ele>676.42</ele>
        <time>2015-01-11T13:12:22Z</time>
      </trkpt>
      <trkpt lat="43.81983" lon="3.57118">
        <ele>675.94</ele>
        <time>2015-01-11T13:12:25Z</time>
      </trkpt>
      <trkpt lat="43.8198" lon="3.5712">
        <ele>676.91</ele>
        <time>2015-01-11T13:12:28Z</time>
      </trkpt>
      <trkpt lat="43.81976" lon="3.57129">
        <ele>677.39</ele>
        <time>2015-01-11T13:12:36Z</time>
      </trkpt>
      <trkpt lat="43.81973" lon="3.57131">
        <ele>677.87</ele>
        <time>2015-01-11T13:12:39Z</time>
      </trkpt>
      <trkpt lat="43.81958" lon="3.57144">
        <ele>679.31</ele>
        <time>2015-01-11T13:12:56Z</time>
      </trkpt>
      <trkpt lat="43.81947" lon="3.57145">
        <ele>679.31</ele>
        <time>2015-01-11T13:13:09Z</time>
      </trkpt>
      <trkpt lat="43.81943" lon="3.57147">
        <ele>678.83</ele>
        <time>2015-01-11T13:13:13Z</time>
      </trkpt>
      <trkpt lat="43.81937" lon="3.57145">
        <ele>679.79</ele>
        <time>2015-01-11T13:13:19Z</time>
      </trkpt>
      <trkpt lat="43.81932" lon="3.57147">
        <ele>678.83</ele>
        <time>2015-01-11T13:13:26Z</time>
      </trkpt>
      <trkpt lat="43.8192" lon="3.5715">
        <ele>679.31</ele>
        <time>2015-01-11T13:13:37Z</time>
      </trkpt>
      <trkpt lat="43.81914" lon="3.57147">
        <ele>677.87</ele>
        <time>2015-01-11T13:13:41Z</time>
      </trkpt>
      <trkpt lat="43.81912" lon="3.57144">
        <ele>678.83</ele>
        <time>2015-01-11T13:13:43Z</time>
      </trkpt>
      <trkpt lat="43.81905" lon="3.57131">
        <ele>679.79</ele>
        <time>2015-01-11T13:13:53Z</time>
      </trkpt>
      <trkpt lat="43.819" lon="3.57126">
        <ele>680.27</ele>
        <time>2015-01-11T13:13:58Z</time>
      </trkpt>
      <trkpt lat="43.81896" lon="3.57125">
        <ele>682.19</ele>
        <time>2015-01-11T13:14:01Z</time>
      </trkpt>
      <trkpt lat="43.81892" lon="3.57126">
        <ele>681.71</ele>
        <time>2015-01-11T13:14:05Z</time>
      </trkpt>
      <trkpt lat="43.8189" lon="3.57126">
        <ele>680.75</ele>
        <time>2015-01-11T13:14:07Z</time>
      </trkpt>
      <trkpt lat="43.81875" lon="3.57141">
        <ele>681.23</ele>
        <time>2015-01-11T13:14:22Z</time>
      </trkpt>
      <trkpt lat="43.81874" lon="3.57141">
        <ele>680.75</ele>
        <time>2015-01-11T13:14:23Z</time>
      </trkpt>
      <trkpt lat="43.81872" lon="3.57141">
        <ele>681.23</ele>
        <time>2015-01-11T13:14:25Z</time>
      </trkpt>
      <trkpt lat="43.81865" lon="3.57141">
        <ele>681.71</ele>
        <time>2015-01-11T13:14:31Z</time>
      </trkpt>
      <trkpt lat="43.81858" lon="3.57141">
        <ele>683.63</ele>
        <time>2015-01-11T13:14:36Z</time>
      </trkpt>
      <trkpt lat="43.81848" lon="3.57148">
        <ele>681.71</ele>
        <time>2015-01-11T13:14:46Z</time>
      </trkpt>
      <trkpt lat="43.81848" lon="3.57148">
        <ele>681.71</ele>
        <time>2015-01-11T13:14:47Z</time>
      </trkpt>
      <trkpt lat="43.81841" lon="3.57151">
        <ele>681.23</ele>
        <time>2015-01-11T13:14:53Z</time>
      </trkpt>
      <trkpt lat="43.81837" lon="3.57151">
        <ele>682.19</ele>
        <time>2015-01-11T13:14:56Z</time>
      </trkpt>
      <trkpt lat="43.81833" lon="3.57149">
        <ele>682.67</ele>
        <time>2015-01-11T13:15:00Z</time>
      </trkpt>
      <trkpt lat="43.81822" lon="3.57153">
        <ele>685.56</ele>
        <time>2015-01-11T13:15:10Z</time>
      </trkpt>
      <trkpt lat="43.81814" lon="3.57153">
        <ele>686.52</ele>
        <time>2015-01-11T13:15:22Z</time>
      </trkpt>
      <trkpt lat="43.81814" lon="3.57154">
        <ele>686.04</ele>
        <time>2015-01-11T13:15:34Z</time>
      </trkpt>
      <trkpt lat="43.81814" lon="3.57155">
        <ele>687</ele>
        <time>2015-01-11T13:15:46Z</time>
      </trkpt>
      <trkpt lat="43.81813" lon="3.57154">
        <ele>686.04</ele>
        <time>2015-01-11T13:15:59Z</time>
      </trkpt>
      <trkpt lat="43.81813" lon="3.57154">
        <ele>685.56</ele>
        <time>2015-01-11T13:16:20Z</time>
      </trkpt>
      <trkpt lat="43.81812" lon="3.57155">
        <ele>685.08</ele>
        <time>2015-01-11T13:16:36Z</time>
      </trkpt>
      <trkpt lat="43.81813" lon="3.57155">
        <ele>685.56</ele>
        <time>2015-01-11T13:16:58Z</time>
      </trkpt>
      <trkpt lat="43.81809" lon="3.57155">
        <ele>685.08</ele>
        <time>2015-01-11T13:17:15Z</time>
      </trkpt>
      <trkpt lat="43.81808" lon="3.57155">
        <ele>685.08</ele>
        <time>2015-01-11T13:17:16Z</time>
      </trkpt>
      <trkpt lat="43.81802" lon="3.57166">
        <ele>685.56</ele>
        <time>2015-01-11T13:17:28Z</time>
      </trkpt>
      <trkpt lat="43.81798" lon="3.57166">
        <ele>686.52</ele>
        <time>2015-01-11T13:17:32Z</time>
      </trkpt>
      <trkpt lat="43.81791" lon="3.57168">
        <ele>687</ele>
        <time>2015-01-11T13:17:38Z</time>
      </trkpt>
      <trkpt lat="43.81788" lon="3.57169">
        <ele>686.52</ele>
        <time>2015-01-11T13:17:41Z</time>
      </trkpt>
      <trkpt lat="43.81785" lon="3.57173">
        <ele>686.52</ele>
        <time>2015-01-11T13:17:45Z</time>
      </trkpt>
      <trkpt lat="43.81781" lon="3.57177">
        <ele>688.92</ele>
        <time>2015-01-11T13:17:50Z</time>
      </trkpt>
      <trkpt lat="43.81779" lon="3.57179">
        <ele>687.48</ele>
        <time>2015-01-11T13:17:52Z</time>
      </trkpt>
      <trkpt lat="43.81769" lon="3.57178">
        <ele>688.44</ele>
        <time>2015-01-11T13:18:02Z</time>
      </trkpt>
      <trkpt lat="43.81761" lon="3.5718">
        <ele>687</ele>
        <time>2015-01-11T13:18:09Z</time>
      </trkpt>
      <trkpt lat="43.81751" lon="3.57182">
        <ele>687.96</ele>
        <time>2015-01-11T13:18:16Z</time>
      </trkpt>
      <trkpt lat="43.81745" lon="3.57184">
        <ele>687.96</ele>
        <time>2015-01-11T13:18:23Z</time>
      </trkpt>
      <trkpt lat="43.81734" lon="3.57185">
        <ele>689.4</ele>
        <time>2015-01-11T13:18:34Z</time>
      </trkpt>
      <trkpt lat="43.81727" lon="3.57189">
        <ele>689.88</ele>
        <time>2015-01-11T13:18:41Z</time>
      </trkpt>
      <trkpt lat="43.81719" lon="3.57192">
        <ele>692.77</ele>
        <time>2015-01-11T13:18:49Z</time>
      </trkpt>
      <trkpt lat="43.81702" lon="3.572">
        <ele>695.17</ele>
        <time>2015-01-11T13:19:05Z</time>
      </trkpt>
      <trkpt lat="43.81689" lon="3.57199">
        <ele>695.17</ele>
        <time>2015-01-11T13:19:18Z</time>
      </trkpt>
      <trkpt lat="43.81685" lon="3.57197">
        <ele>696.13</ele>
        <time>2015-01-11T13:19:22Z</time>
      </trkpt>
      <trkpt lat="43.81683" lon="3.57198">
        <ele>695.17</ele>
        <time>2015-01-11T13:19:24Z</time>
      </trkpt>
      <trkpt lat="43.81681" lon="3.57198">
        <ele>695.17</ele>
        <time>2015-01-11T13:19:25Z</time>
      </trkpt>
      <trkpt lat="43.81679" lon="3.572">
        <ele>695.17</ele>
        <time>2015-01-11T13:19:27Z</time>
      </trkpt>
      <trkpt lat="43.81676" lon="3.57199">
        <ele>695.17</ele>
        <time>2015-01-11T13:19:30Z</time>
      </trkpt>
      <trkpt lat="43.8167" lon="3.57195">
        <ele>695.65</ele>
        <time>2015-01-11T13:19:36Z</time>
      </trkpt>
      <trkpt lat="43.81666" lon="3.57196">
        <ele>694.69</ele>
        <time>2015-01-11T13:19:40Z</time>
      </trkpt>
      <trkpt lat="43.81663" lon="3.57198">
        <ele>696.13</ele>
        <time>2015-01-11T13:19:45Z</time>
      </trkpt>
      <trkpt lat="43.81659" lon="3.572">
        <ele>695.65</ele>
        <time>2015-01-11T13:19:51Z</time>
      </trkpt>
      <trkpt lat="43.81656" lon="3.57198">
        <ele>695.65</ele>
        <time>2015-01-11T13:19:54Z</time>
      </trkpt>
      <trkpt lat="43.81651" lon="3.57191">
        <ele>695.65</ele>
        <time>2015-01-11T13:19:59Z</time>
      </trkpt>
      <trkpt lat="43.81646" lon="3.57189">
        <ele>694.69</ele>
        <time>2015-01-11T13:20:03Z</time>
      </trkpt>
      <trkpt lat="43.81644" lon="3.57187">
        <ele>696.13</ele>
        <time>2015-01-11T13:20:06Z</time>
      </trkpt>
      <trkpt lat="43.81638" lon="3.57186">
        <ele>694.69</ele>
        <time>2015-01-11T13:20:10Z</time>
      </trkpt>
      <trkpt lat="43.81632" lon="3.57185">
        <ele>693.25</ele>
        <time>2015-01-11T13:20:15Z</time>
      </trkpt>
      <trkpt lat="43.81618" lon="3.57179">
        <ele>694.69</ele>
        <time>2015-01-11T13:20:27Z</time>
      </trkpt>
      <trkpt lat="43.81615" lon="3.57175">
        <ele>695.17</ele>
        <time>2015-01-11T13:20:31Z</time>
      </trkpt>
      <trkpt lat="43.81613" lon="3.57175">
        <ele>695.17</ele>
        <time>2015-01-11T13:20:33Z</time>
      </trkpt>
      <trkpt lat="43.8161" lon="3.57174">
        <ele>695.65</ele>
        <time>2015-01-11T13:20:36Z</time>
      </trkpt>
      <trkpt lat="43.81603" lon="3.5717">
        <ele>695.17</ele>
        <time>2015-01-11T13:20:42Z</time>
      </trkpt>
      <trkpt lat="43.81589" lon="3.57165">
        <ele>694.21</ele>
        <time>2015-01-11T13:20:54Z</time>
      </trkpt>
      <trkpt lat="43.81582" lon="3.57169">
        <ele>692.77</ele>
        <time>2015-01-11T13:21:02Z</time>
      </trkpt>
      <trkpt lat="43.81574" lon="3.5718">
        <ele>689.88</ele>
        <time>2015-01-11T13:21:13Z</time>
      </trkpt>
      <trkpt lat="43.81573" lon="3.57181">
        <ele>689.4</ele>
        <time>2015-01-11T13:21:14Z</time>
      </trkpt>
      <trkpt lat="43.81564" lon="3.57182">
        <ele>688.92</ele>
        <time>2015-01-11T13:21:22Z</time>
      </trkpt>
      <trkpt lat="43.81556" lon="3.5718">
        <ele>688.92</ele>
        <time>2015-01-11T13:21:29Z</time>
      </trkpt>
      <trkpt lat="43.81554" lon="3.57179">
        <ele>688.44</ele>
        <time>2015-01-11T13:21:31Z</time>
      </trkpt>
      <trkpt lat="43.81547" lon="3.57176">
        <ele>687.96</ele>
        <time>2015-01-11T13:21:37Z</time>
      </trkpt>
      <trkpt lat="43.81538" lon="3.57181">
        <ele>688.44</ele>
        <time>2015-01-11T13:21:45Z</time>
      </trkpt>
      <trkpt lat="43.81536" lon="3.57183">
        <ele>687</ele>
        <time>2015-01-11T13:21:48Z</time>
      </trkpt>
      <trkpt lat="43.8153" lon="3.57189">
        <ele>686.52</ele>
        <time>2015-01-11T13:21:55Z</time>
      </trkpt>
      <trkpt lat="43.81519" lon="3.57185">
        <ele>685.56</ele>
        <time>2015-01-11T13:22:04Z</time>
      </trkpt>
      <trkpt lat="43.81508" lon="3.57187">
        <ele>686.52</ele>
        <time>2015-01-11T13:22:14Z</time>
      </trkpt>
      <trkpt lat="43.81501" lon="3.5719">
        <ele>685.56</ele>
        <time>2015-01-11T13:22:20Z</time>
      </trkpt>
      <trkpt lat="43.81488" lon="3.57187">
        <ele>687</ele>
        <time>2015-01-11T13:22:31Z</time>
      </trkpt>
      <trkpt lat="43.81474" lon="3.57184">
        <ele>686.52</ele>
        <time>2015-01-11T13:22:43Z</time>
      </trkpt>
      <trkpt lat="43.81465" lon="3.57185">
        <ele>687.48</ele>
        <time>2015-01-11T13:22:51Z</time>
      </trkpt>
      <trkpt lat="43.81464" lon="3.57185">
        <ele>687.48</ele>
        <time>2015-01-11T13:22:52Z</time>
      </trkpt>
      <trkpt lat="43.81461" lon="3.57187">
        <ele>687.48</ele>
        <time>2015-01-11T13:22:55Z</time>
      </trkpt>
      <trkpt lat="43.81452" lon="3.57186">
        <ele>686.52</ele>
        <time>2015-01-11T13:23:02Z</time>
      </trkpt>
      <trkpt lat="43.81447" lon="3.57185">
        <ele>686.52</ele>
        <time>2015-01-11T13:23:07Z</time>
      </trkpt>
      <trkpt lat="43.8144" lon="3.57184">
        <ele>686.52</ele>
        <time>2015-01-11T13:23:13Z</time>
      </trkpt>
      <trkpt lat="43.81431" lon="3.57167">
        <ele>689.4</ele>
        <time>2015-01-11T13:23:27Z</time>
      </trkpt>
      <trkpt lat="43.81424" lon="3.57161">
        <ele>690.84</ele>
        <time>2015-01-11T13:23:34Z</time>
      </trkpt>
      <trkpt lat="43.81422" lon="3.57156">
        <ele>689.4</ele>
        <time>2015-01-11T13:23:37Z</time>
      </trkpt>
      <trkpt lat="43.81413" lon="3.57146">
        <ele>686.04</ele>
        <time>2015-01-11T13:23:46Z</time>
      </trkpt>
      <trkpt lat="43.81411" lon="3.57144">
        <ele>686.04</ele>
        <time>2015-01-11T13:23:49Z</time>
      </trkpt>
      <trkpt lat="43.81406" lon="3.57134">
        <ele>685.56</ele>
        <time>2015-01-11T13:23:56Z</time>
      </trkpt>
      <trkpt lat="43.81398" lon="3.57127">
        <ele>685.56</ele>
        <time>2015-01-11T13:24:01Z</time>
      </trkpt>
      <trkpt lat="43.81396" lon="3.57123">
        <ele>684.6</ele>
        <time>2015-01-11T13:24:04Z</time>
      </trkpt>
      <trkpt lat="43.81392" lon="3.57109">
        <ele>684.12</ele>
        <time>2015-01-11T13:24:13Z</time>
      </trkpt>
      <trkpt lat="43.81387" lon="3.57103">
        <ele>684.12</ele>
        <time>2015-01-11T13:24:18Z</time>
      </trkpt>
      <trkpt lat="43.81386" lon="3.57099">
        <ele>685.08</ele>
        <time>2015-01-11T13:24:21Z</time>
      </trkpt>
      <trkpt lat="43.81377" lon="3.57084">
        <ele>682.67</ele>
        <time>2015-01-11T13:24:32Z</time>
      </trkpt>
      <trkpt lat="43.81366" lon="3.57069">
        <ele>683.15</ele>
        <time>2015-01-11T13:24:45Z</time>
      </trkpt>
      <trkpt lat="43.81349" lon="3.57059">
        <ele>681.23</ele>
        <time>2015-01-11T13:24:58Z</time>
      </trkpt>
      <trkpt lat="43.81332" lon="3.57045">
        <ele>682.19</ele>
        <time>2015-01-11T13:25:13Z</time>
      </trkpt>
      <trkpt lat="43.8133" lon="3.57043">
        <ele>681.23</ele>
        <time>2015-01-11T13:25:16Z</time>
      </trkpt>
      <trkpt lat="43.81324" lon="3.57042">
        <ele>680.27</ele>
        <time>2015-01-11T13:25:20Z</time>
      </trkpt>
      <trkpt lat="43.81322" lon="3.57041">
        <ele>680.27</ele>
        <time>2015-01-11T13:25:22Z</time>
      </trkpt>
      <trkpt lat="43.81318" lon="3.57034">
        <ele>680.75</ele>
        <time>2015-01-11T13:25:27Z</time>
      </trkpt>
      <trkpt lat="43.81314" lon="3.57027">
        <ele>680.75</ele>
        <time>2015-01-11T13:25:32Z</time>
      </trkpt>
      <trkpt lat="43.81307" lon="3.57021">
        <ele>679.79</ele>
        <time>2015-01-11T13:25:38Z</time>
      </trkpt>
      <trkpt lat="43.81304" lon="3.57016">
        <ele>680.27</ele>
        <time>2015-01-11T13:25:42Z</time>
      </trkpt>
      <trkpt lat="43.81293" lon="3.57004">
        <ele>679.31</ele>
        <time>2015-01-11T13:25:54Z</time>
      </trkpt>
      <trkpt lat="43.81292" lon="3.57003">
        <ele>679.31</ele>
        <time>2015-01-11T13:25:55Z</time>
      </trkpt>
      <trkpt lat="43.81281" lon="3.56988">
        <ele>678.83</ele>
        <time>2015-01-11T13:26:06Z</time>
      </trkpt>
      <trkpt lat="43.81276" lon="3.56981">
        <ele>676.91</ele>
        <time>2015-01-11T13:26:12Z</time>
      </trkpt>
      <trkpt lat="43.8127" lon="3.56972">
        <ele>677.87</ele>
        <time>2015-01-11T13:26:19Z</time>
      </trkpt>
      <trkpt lat="43.81268" lon="3.56958">
        <ele>678.35</ele>
        <time>2015-01-11T13:26:27Z</time>
      </trkpt>
      <trkpt lat="43.81258" lon="3.56944">
        <ele>675.94</ele>
        <time>2015-01-11T13:26:37Z</time>
      </trkpt>
      <trkpt lat="43.81256" lon="3.5694">
        <ele>677.39</ele>
        <time>2015-01-11T13:26:39Z</time>
      </trkpt>
      <trkpt lat="43.81254" lon="3.56938">
        <ele>675.94</ele>
        <time>2015-01-11T13:26:42Z</time>
      </trkpt>
      <trkpt lat="43.81247" lon="3.56928">
        <ele>675.94</ele>
        <time>2015-01-11T13:26:50Z</time>
      </trkpt>
      <trkpt lat="43.81241" lon="3.56921">
        <ele>676.91</ele>
        <time>2015-01-11T13:26:55Z</time>
      </trkpt>
      <trkpt lat="43.8124" lon="3.5692">
        <ele>675.94</ele>
        <time>2015-01-11T13:26:57Z</time>
      </trkpt>
      <trkpt lat="43.81234" lon="3.56911">
        <ele>676.42</ele>
        <time>2015-01-11T13:27:03Z</time>
      </trkpt>
      <trkpt lat="43.81228" lon="3.56896">
        <ele>675.94</ele>
        <time>2015-01-11T13:27:13Z</time>
      </trkpt>
      <trkpt lat="43.81217" lon="3.56891">
        <ele>673.06</ele>
        <time>2015-01-11T13:27:24Z</time>
      </trkpt>
      <trkpt lat="43.81215" lon="3.56891">
        <ele>672.58</ele>
        <time>2015-01-11T13:27:26Z</time>
      </trkpt>
      <trkpt lat="43.81205" lon="3.56887">
        <ele>671.62</ele>
        <time>2015-01-11T13:27:39Z</time>
      </trkpt>
      <trkpt lat="43.81204" lon="3.56886">
        <ele>671.62</ele>
        <time>2015-01-11T13:27:40Z</time>
      </trkpt>
      <trkpt lat="43.812" lon="3.56885">
        <ele>671.14</ele>
        <time>2015-01-11T13:27:44Z</time>
      </trkpt>
      <trkpt lat="43.81196" lon="3.56886">
        <ele>671.14</ele>
        <time>2015-01-11T13:27:49Z</time>
      </trkpt>
      <trkpt lat="43.81189" lon="3.56884">
        <ele>670.66</ele>
        <time>2015-01-11T13:27:56Z</time>
      </trkpt>
      <trkpt lat="43.81183" lon="3.56884">
        <ele>668.73</ele>
        <time>2015-01-11T13:28:02Z</time>
      </trkpt>
      <trkpt lat="43.81181" lon="3.56882">
        <ele>668.73</ele>
        <time>2015-01-11T13:28:04Z</time>
      </trkpt>
      <trkpt lat="43.81179" lon="3.56881">
        <ele>667.29</ele>
        <time>2015-01-11T13:28:06Z</time>
      </trkpt>
      <trkpt lat="43.81171" lon="3.56878">
        <ele>666.81</ele>
        <time>2015-01-11T13:28:14Z</time>
      </trkpt>
      <trkpt lat="43.81168" lon="3.56877">
        <ele>667.29</ele>
        <time>2015-01-11T13:28:18Z</time>
      </trkpt>
      <trkpt lat="43.81155" lon="3.56875">
        <ele>667.29</ele>
        <time>2015-01-11T13:28:30Z</time>
      </trkpt>
      <trkpt lat="43.81152" lon="3.56869">
        <ele>667.29</ele>
        <time>2015-01-11T13:28:38Z</time>
      </trkpt>
      <trkpt lat="43.81152" lon="3.56869">
        <ele>666.81</ele>
        <time>2015-01-11T13:28:39Z</time>
      </trkpt>
      <trkpt lat="43.81148" lon="3.5687">
        <ele>666.33</ele>
        <time>2015-01-11T13:28:42Z</time>
      </trkpt>
      <trkpt lat="43.81141" lon="3.56863">
        <ele>664.89</ele>
        <time>2015-01-11T13:28:49Z</time>
      </trkpt>
      <trkpt lat="43.81138" lon="3.56863">
        <ele>664.41</ele>
        <time>2015-01-11T13:28:51Z</time>
      </trkpt>
      <trkpt lat="43.81134" lon="3.56859">
        <ele>664.41</ele>
        <time>2015-01-11T13:29:05Z</time>
      </trkpt>
      <trkpt lat="43.81135" lon="3.56859">
        <ele>663.93</ele>
        <time>2015-01-11T13:29:16Z</time>
      </trkpt>
      <trkpt lat="43.81136" lon="3.56858">
        <ele>664.41</ele>
        <time>2015-01-11T13:29:26Z</time>
      </trkpt>
      <trkpt lat="43.81136" lon="3.56858">
        <ele>664.89</ele>
        <time>2015-01-11T13:29:31Z</time>
      </trkpt>
      <trkpt lat="43.81135" lon="3.56859">
        <ele>664.89</ele>
        <time>2015-01-11T13:29:42Z</time>
      </trkpt>
      <trkpt lat="43.81134" lon="3.56859">
        <ele>663.93</ele>
        <time>2015-01-11T13:29:50Z</time>
      </trkpt>
      <trkpt lat="43.81132" lon="3.56857">
        <ele>664.41</ele>
        <time>2015-01-11T13:29:52Z</time>
      </trkpt>
      <trkpt lat="43.81121" lon="3.56847">
        <ele>664.89</ele>
        <time>2015-01-11T13:30:04Z</time>
      </trkpt>
      <trkpt lat="43.81111" lon="3.56836">
        <ele>664.41</ele>
        <time>2015-01-11T13:30:17Z</time>
      </trkpt>
      <trkpt lat="43.81103" lon="3.56829">
        <ele>661.52</ele>
        <time>2015-01-11T13:30:26Z</time>
      </trkpt>
      <trkpt lat="43.81099" lon="3.56823">
        <ele>664.41</ele>
        <time>2015-01-11T13:30:32Z</time>
      </trkpt>
      <trkpt lat="43.81095" lon="3.56816">
        <ele>663.45</ele>
        <time>2015-01-11T13:30:51Z</time>
      </trkpt>
      <trkpt lat="43.81095" lon="3.56816">
        <ele>657.2</ele>
        <time>2015-01-11T13:30:57Z</time>
      </trkpt>
      <trkpt lat="43.81095" lon="3.56816">
        <ele>670.18</ele>
        <time>2015-01-11T13:30:58Z</time>
      </trkpt>
      <trkpt lat="43.81096" lon="3.56816">
        <ele>666.81</ele>
        <time>2015-01-11T13:30:59Z</time>
      </trkpt>
      <trkpt lat="43.81096" lon="3.56818">
        <ele>664.89</ele>
        <time>2015-01-11T13:31:01Z</time>
      </trkpt>
      <trkpt lat="43.81096" lon="3.56818">
        <ele>662.49</ele>
        <time>2015-01-11T13:31:05Z</time>
      </trkpt>
      <trkpt lat="43.81096" lon="3.56817">
        <ele>664.41</ele>
        <time>2015-01-11T13:31:15Z</time>
      </trkpt>
      <trkpt lat="43.81097" lon="3.56817">
        <ele>664.41</ele>
        <time>2015-01-11T13:31:26Z</time>
      </trkpt>
      <trkpt lat="43.81097" lon="3.56818">
        <ele>662.49</ele>
        <time>2015-01-11T13:31:31Z</time>
      </trkpt>
      <trkpt lat="43.81096" lon="3.56818">
        <ele>666.81</ele>
        <time>2015-01-11T13:31:36Z</time>
      </trkpt>
      <trkpt lat="43.81096" lon="3.56818">
        <ele>662.97</ele>
        <time>2015-01-11T13:31:49Z</time>
      </trkpt>
      <trkpt lat="43.81096" lon="3.56818">
        <ele>663.45</ele>
        <time>2015-01-11T13:31:54Z</time>
      </trkpt>
      <trkpt lat="43.81097" lon="3.56819">
        <ele>663.45</ele>
        <time>2015-01-11T13:32:03Z</time>
      </trkpt>
      <trkpt lat="43.81097" lon="3.56819">
        <ele>662.97</ele>
        <time>2015-01-11T13:32:08Z</time>
      </trkpt>
      <trkpt lat="43.81096" lon="3.56818">
        <ele>664.89</ele>
        <time>2015-01-11T13:32:14Z</time>
      </trkpt>
      <trkpt lat="43.81098" lon="3.56818">
        <ele>663.45</ele>
        <time>2015-01-11T13:32:40Z</time>
      </trkpt>
      <trkpt lat="43.81099" lon="3.56819">
        <ele>668.25</ele>
        <time>2015-01-11T13:32:45Z</time>
      </trkpt>
      <trkpt lat="43.81098" lon="3.56819">
        <ele>664.89</ele>
        <time>2015-01-11T13:32:46Z</time>
      </trkpt>
      <trkpt lat="43.81097" lon="3.56821">
        <ele>664.89</ele>
        <time>2015-01-11T13:33:17Z</time>
      </trkpt>
      <trkpt lat="43.81098" lon="3.56815">
        <ele>664.41</ele>
        <time>2015-01-11T13:33:29Z</time>
      </trkpt>
      <trkpt lat="43.81098" lon="3.56816">
        <ele>660.56</ele>
        <time>2015-01-11T13:33:34Z</time>
      </trkpt>
      <trkpt lat="43.81098" lon="3.56816">
        <ele>665.85</ele>
        <time>2015-01-11T13:33:35Z</time>
      </trkpt>
      <trkpt lat="43.81099" lon="3.56815">
        <ele>662.97</ele>
        <time>2015-01-11T13:33:39Z</time>
      </trkpt>
      <trkpt lat="43.81092" lon="3.56821">
        <ele>664.89</ele>
        <time>2015-01-11T13:42:23Z</time>
      </trkpt>
      <trkpt lat="43.81094" lon="3.56817">
        <ele>663.93</ele>
        <time>2015-01-11T13:42:37Z</time>
      </trkpt>
      <trkpt lat="43.81095" lon="3.56818">
        <ele>662.97</ele>
        <time>2015-01-11T13:42:45Z</time>
      </trkpt>
      <trkpt lat="43.81096" lon="3.56818">
        <ele>663.93</ele>
        <time>2015-01-11T13:42:47Z</time>
      </trkpt>
      <trkpt lat="43.81096" lon="3.56818">
        <ele>662.97</ele>
        <time>2015-01-11T13:42:58Z</time>
      </trkpt>
      <trkpt lat="43.81097" lon="3.56816">
        <ele>662.01</ele>
        <time>2015-01-11T13:43:18Z</time>
      </trkpt>
      <trkpt lat="43.81096" lon="3.56816">
        <ele>662.49</ele>
        <time>2015-01-11T13:43:43Z</time>
      </trkpt>
      <trkpt lat="43.81097" lon="3.56814">
        <ele>663.45</ele>
        <time>2015-01-11T13:44:05Z</time>
      </trkpt>
      <trkpt lat="43.81097" lon="3.56817">
        <ele>661.04</ele>
        <time>2015-01-11T13:44:34Z</time>
      </trkpt>
      <trkpt lat="43.81097" lon="3.56818">
        <ele>662.97</ele>
        <time>2015-01-11T13:44:39Z</time>
      </trkpt>
      <trkpt lat="43.81097" lon="3.56818">
        <ele>661.52</ele>
        <time>2015-01-11T13:44:41Z</time>
      </trkpt>
      <trkpt lat="43.81097" lon="3.5682">
        <ele>661.04</ele>
        <time>2015-01-11T13:45:16Z</time>
      </trkpt>
      <trkpt lat="43.81096" lon="3.56819">
        <ele>661.04</ele>
        <time>2015-01-11T13:45:50Z</time>
      </trkpt>
      <trkpt lat="43.81096" lon="3.56819">
        <ele>661.52</ele>
        <time>2015-01-11T13:46:22Z</time>
      </trkpt>
      <trkpt lat="43.81096" lon="3.56817">
        <ele>660.08</ele>
        <time>2015-01-11T13:46:51Z</time>
      </trkpt>
      <trkpt lat="43.81096" lon="3.56816">
        <ele>659.6</ele>
        <time>2015-01-11T13:47:36Z</time>
      </trkpt>
      <trkpt lat="43.81096" lon="3.56816">
        <ele>661.04</ele>
        <time>2015-01-11T13:47:42Z</time>
      </trkpt>
      <trkpt lat="43.81097" lon="3.56816">
        <ele>661.52</ele>
        <time>2015-01-11T13:48:17Z</time>
      </trkpt>
      <trkpt lat="43.81096" lon="3.56815">
        <ele>660.56</ele>
        <time>2015-01-11T13:48:45Z</time>
      </trkpt>
      <trkpt lat="43.81096" lon="3.56818">
        <ele>661.04</ele>
        <time>2015-01-11T13:49:08Z</time>
      </trkpt>
      <trkpt lat="43.81096" lon="3.56818">
        <ele>660.08</ele>
        <time>2015-01-11T13:49:31Z</time>
      </trkpt>
      <trkpt lat="43.81096" lon="3.56817">
        <ele>660.56</ele>
        <time>2015-01-11T13:49:45Z</time>
      </trkpt>
      <trkpt lat="43.81096" lon="3.56818">
        <ele>660.56</ele>
        <time>2015-01-11T13:49:58Z</time>
      </trkpt>
      <trkpt lat="43.81096" lon="3.56818">
        <ele>660.56</ele>
        <time>2015-01-11T13:50:07Z</time>
      </trkpt>
      <trkpt lat="43.81096" lon="3.56818">
        <ele>660.08</ele>
        <time>2015-01-11T13:50:24Z</time>
      </trkpt>
      <trkpt lat="43.81096" lon="3.56819">
        <ele>660.56</ele>
        <time>2015-01-11T13:50:40Z</time>
      </trkpt>
      <trkpt lat="43.81097" lon="3.56818">
        <ele>660.08</ele>
        <time>2015-01-11T13:50:54Z</time>
      </trkpt>
      <trkpt lat="43.81096" lon="3.56818">
        <ele>661.04</ele>
        <time>2015-01-11T13:51:09Z</time>
      </trkpt>
      <trkpt lat="43.81096" lon="3.56817">
        <ele>659.6</ele>
        <time>2015-01-11T13:51:24Z</time>
      </trkpt>
      <trkpt lat="43.81097" lon="3.56816">
        <ele>659.6</ele>
        <time>2015-01-11T13:51:39Z</time>
      </trkpt>
      <trkpt lat="43.81096" lon="3.56816">
        <ele>659.12</ele>
        <time>2015-01-11T13:51:55Z</time>
      </trkpt>
      <trkpt lat="43.81096" lon="3.56816">
        <ele>660.08</ele>
        <time>2015-01-11T13:52:12Z</time>
      </trkpt>
      <trkpt lat="43.81096" lon="3.56815">
        <ele>658.16</ele>
        <time>2015-01-11T13:52:27Z</time>
      </trkpt>
      <trkpt lat="43.81095" lon="3.56812">
        <ele>657.68</ele>
        <time>2015-01-11T13:52:38Z</time>
      </trkpt>
      <trkpt lat="43.81095" lon="3.56811">
        <ele>659.6</ele>
        <time>2015-01-11T13:52:40Z</time>
      </trkpt>
      <trkpt lat="43.81095" lon="3.56808">
        <ele>660.08</ele>
        <time>2015-01-11T13:52:47Z</time>
      </trkpt>
      <trkpt lat="43.81095" lon="3.56804">
        <ele>661.04</ele>
        <time>2015-01-11T13:52:51Z</time>
      </trkpt>
      <trkpt lat="43.81094" lon="3.56794">
        <ele>662.49</ele>
        <time>2015-01-11T13:53:04Z</time>
      </trkpt>
      <trkpt lat="43.81089" lon="3.56789">
        <ele>661.52</ele>
        <time>2015-01-11T13:53:17Z</time>
      </trkpt>
      <trkpt lat="43.81083" lon="3.56785">
        <ele>661.04</ele>
        <time>2015-01-11T13:53:30Z</time>
      </trkpt>
      <trkpt lat="43.81081" lon="3.56784">
        <ele>659.6</ele>
        <time>2015-01-11T13:53:33Z</time>
      </trkpt>
      <trkpt lat="43.81072" lon="3.56776">
        <ele>659.12</ele>
        <time>2015-01-11T13:53:44Z</time>
      </trkpt>
      <trkpt lat="43.81068" lon="3.56776">
        <ele>657.2</ele>
        <time>2015-01-11T13:53:53Z</time>
      </trkpt>
      <trkpt lat="43.81066" lon="3.56778">
        <ele>655.28</ele>
        <time>2015-01-11T13:53:56Z</time>
      </trkpt>
      <trkpt lat="43.81058" lon="3.56773">
        <ele>654.31</ele>
        <time>2015-01-11T13:54:04Z</time>
      </trkpt>
      <trkpt lat="43.81054" lon="3.56775">
        <ele>652.39</ele>
        <time>2015-01-11T13:54:16Z</time>
      </trkpt>
      <trkpt lat="43.81052" lon="3.56777">
        <ele>651.43</ele>
        <time>2015-01-11T13:54:19Z</time>
      </trkpt>
      <trkpt lat="43.81046" lon="3.56775">
        <ele>649.03</ele>
        <time>2015-01-11T13:54:30Z</time>
      </trkpt>
      <trkpt lat="43.81032" lon="3.56765">
        <ele>647.59</ele>
        <time>2015-01-11T13:54:42Z</time>
      </trkpt>
      <trkpt lat="43.81024" lon="3.56758">
        <ele>647.1</ele>
        <time>2015-01-11T13:54:50Z</time>
      </trkpt>
      <trkpt lat="43.81023" lon="3.56752">
        <ele>647.1</ele>
        <time>2015-01-11T13:54:54Z</time>
      </trkpt>
      <trkpt lat="43.81013" lon="3.56738">
        <ele>644.7</ele>
        <time>2015-01-11T13:55:05Z</time>
      </trkpt>
      <trkpt lat="43.8101" lon="3.56735">
        <ele>644.22</ele>
        <time>2015-01-11T13:55:09Z</time>
      </trkpt>
      <trkpt lat="43.81007" lon="3.56732">
        <ele>643.74</ele>
        <time>2015-01-11T13:55:12Z</time>
      </trkpt>
      <trkpt lat="43.81001" lon="3.56716">
        <ele>643.74</ele>
        <time>2015-01-11T13:55:23Z</time>
      </trkpt>
      <trkpt lat="43.80994" lon="3.56699">
        <ele>641.82</ele>
        <time>2015-01-11T13:55:36Z</time>
      </trkpt>
      <trkpt lat="43.80993" lon="3.56699">
        <ele>640.86</ele>
        <time>2015-01-11T13:55:39Z</time>
      </trkpt>
      <trkpt lat="43.80987" lon="3.56694">
        <ele>639.89</ele>
        <time>2015-01-11T13:55:46Z</time>
      </trkpt>
      <trkpt lat="43.80983" lon="3.56692">
        <ele>639.41</ele>
        <time>2015-01-11T13:55:49Z</time>
      </trkpt>
      <trkpt lat="43.80977" lon="3.56689">
        <ele>638.45</ele>
        <time>2015-01-11T13:56:03Z</time>
      </trkpt>
      <trkpt lat="43.80976" lon="3.56688">
        <ele>639.41</ele>
        <time>2015-01-11T13:56:09Z</time>
      </trkpt>
      <trkpt lat="43.80976" lon="3.56689">
        <ele>638.45</ele>
        <time>2015-01-11T13:56:14Z</time>
      </trkpt>
      <trkpt lat="43.80975" lon="3.56688">
        <ele>638.45</ele>
        <time>2015-01-11T13:56:29Z</time>
      </trkpt>
      <trkpt lat="43.80974" lon="3.56689">
        <ele>638.93</ele>
        <time>2015-01-11T13:56:45Z</time>
      </trkpt>
      <trkpt lat="43.80972" lon="3.56689">
        <ele>639.41</ele>
        <time>2015-01-11T13:57:03Z</time>
      </trkpt>
      <trkpt lat="43.80972" lon="3.56688">
        <ele>638.93</ele>
        <time>2015-01-11T13:57:23Z</time>
      </trkpt>
      <trkpt lat="43.80973" lon="3.56689">
        <ele>638.45</ele>
        <time>2015-01-11T13:57:40Z</time>
      </trkpt>
      <trkpt lat="43.80973" lon="3.56694">
        <ele>638.93</ele>
        <time>2015-01-11T13:57:53Z</time>
      </trkpt>
      <trkpt lat="43.80973" lon="3.5669">
        <ele>638.45</ele>
        <time>2015-01-11T13:58:06Z</time>
      </trkpt>
      <trkpt lat="43.80966" lon="3.56682">
        <ele>637.49</ele>
        <time>2015-01-11T13:58:15Z</time>
      </trkpt>
      <trkpt lat="43.80966" lon="3.56682">
        <ele>637.97</ele>
        <time>2015-01-11T13:58:16Z</time>
      </trkpt>
      <trkpt lat="43.80952" lon="3.56669">
        <ele>636.05</ele>
        <time>2015-01-11T13:58:29Z</time>
      </trkpt>
      <trkpt lat="43.80938" lon="3.56655">
        <ele>635.09</ele>
        <time>2015-01-11T13:58:42Z</time>
      </trkpt>
      <trkpt lat="43.80925" lon="3.56649">
        <ele>635.57</ele>
        <time>2015-01-11T13:58:54Z</time>
      </trkpt>
      <trkpt lat="43.80919" lon="3.56652">
        <ele>633.65</ele>
        <time>2015-01-11T13:58:59Z</time>
      </trkpt>
      <trkpt lat="43.80918" lon="3.56653">
        <ele>634.13</ele>
        <time>2015-01-11T13:59:01Z</time>
      </trkpt>
      <trkpt lat="43.80911" lon="3.5666">
        <ele>634.61</ele>
        <time>2015-01-11T13:59:07Z</time>
      </trkpt>
      <trkpt lat="43.80902" lon="3.56665">
        <ele>633.17</ele>
        <time>2015-01-11T13:59:16Z</time>
      </trkpt>
      <trkpt lat="43.80897" lon="3.56668">
        <ele>633.17</ele>
        <time>2015-01-11T13:59:22Z</time>
      </trkpt>
      <trkpt lat="43.80894" lon="3.56675">
        <ele>633.17</ele>
        <time>2015-01-11T13:59:28Z</time>
      </trkpt>
      <trkpt lat="43.80893" lon="3.56678">
        <ele>632.68</ele>
        <time>2015-01-11T13:59:39Z</time>
      </trkpt>
      <trkpt lat="43.8089" lon="3.56678">
        <ele>634.13</ele>
        <time>2015-01-11T13:59:51Z</time>
      </trkpt>
      <trkpt lat="43.80889" lon="3.56676">
        <ele>633.65</ele>
        <time>2015-01-11T14:00:05Z</time>
      </trkpt>
      <trkpt lat="43.80889" lon="3.56676">
        <ele>633.17</ele>
        <time>2015-01-11T14:00:19Z</time>
      </trkpt>
      <trkpt lat="43.80893" lon="3.56668">
        <ele>633.65</ele>
        <time>2015-01-11T14:00:31Z</time>
      </trkpt>
      <trkpt lat="43.80898" lon="3.56663">
        <ele>633.65</ele>
        <time>2015-01-11T14:00:41Z</time>
      </trkpt>
      <trkpt lat="43.80899" lon="3.56663">
        <ele>633.65</ele>
        <time>2015-01-11T14:00:42Z</time>
      </trkpt>
      <trkpt lat="43.809" lon="3.56661">
        <ele>635.57</ele>
        <time>2015-01-11T14:00:45Z</time>
      </trkpt>
      <trkpt lat="43.80907" lon="3.56661">
        <ele>635.09</ele>
        <time>2015-01-11T14:00:54Z</time>
      </trkpt>
      <trkpt lat="43.8091" lon="3.56662">
        <ele>635.57</ele>
        <time>2015-01-11T14:00:57Z</time>
      </trkpt>
      <trkpt lat="43.80914" lon="3.56668">
        <ele>633.65</ele>
        <time>2015-01-11T14:01:09Z</time>
      </trkpt>
      <trkpt lat="43.80916" lon="3.56669">
        <ele>634.61</ele>
        <time>2015-01-11T14:01:26Z</time>
      </trkpt>
      <trkpt lat="43.80925" lon="3.56678">
        <ele>634.13</ele>
        <time>2015-01-11T14:01:36Z</time>
      </trkpt>
      <trkpt lat="43.80931" lon="3.56682">
        <ele>633.65</ele>
        <time>2015-01-11T14:01:43Z</time>
      </trkpt>
      <trkpt lat="43.80936" lon="3.56688">
        <ele>634.13</ele>
        <time>2015-01-11T14:01:49Z</time>
      </trkpt>
      <trkpt lat="43.80942" lon="3.5669">
        <ele>633.17</ele>
        <time>2015-01-11T14:01:55Z</time>
      </trkpt>
      <trkpt lat="43.80946" lon="3.56691">
        <ele>633.65</ele>
        <time>2015-01-11T14:01:59Z</time>
      </trkpt>
      <trkpt lat="43.80947" lon="3.56688">
        <ele>635.57</ele>
        <time>2015-01-11T14:02:01Z</time>
      </trkpt>
      <trkpt lat="43.80948" lon="3.56686">
        <ele>633.65</ele>
        <time>2015-01-11T14:02:03Z</time>
      </trkpt>
      <trkpt lat="43.80952" lon="3.56683">
        <ele>635.09</ele>
        <time>2015-01-11T14:02:09Z</time>
      </trkpt>
      <trkpt lat="43.80962" lon="3.56689">
        <ele>637.97</ele>
        <time>2015-01-11T14:02:19Z</time>
      </trkpt>
      <trkpt lat="43.80965" lon="3.56688">
        <ele>637.01</ele>
        <time>2015-01-11T14:02:29Z</time>
      </trkpt>
      <trkpt lat="43.80967" lon="3.56686">
        <ele>637.49</ele>
        <time>2015-01-11T14:02:33Z</time>
      </trkpt>
      <trkpt lat="43.80971" lon="3.56686">
        <ele>636.53</ele>
        <time>2015-01-11T14:02:36Z</time>
      </trkpt>
      <trkpt lat="43.80974" lon="3.56706">
        <ele>637.49</ele>
        <time>2015-01-11T14:02:48Z</time>
      </trkpt>
      <trkpt lat="43.80974" lon="3.56712">
        <ele>636.05</ele>
        <time>2015-01-11T14:02:52Z</time>
      </trkpt>
      <trkpt lat="43.80973" lon="3.56716">
        <ele>635.09</ele>
        <time>2015-01-11T14:02:55Z</time>
      </trkpt>
      <trkpt lat="43.80969" lon="3.56725">
        <ele>634.61</ele>
        <time>2015-01-11T14:03:01Z</time>
      </trkpt>
      <trkpt lat="43.8097" lon="3.56729">
        <ele>634.61</ele>
        <time>2015-01-11T14:03:11Z</time>
      </trkpt>
      <trkpt lat="43.80969" lon="3.56743">
        <ele>635.09</ele>
        <time>2015-01-11T14:03:20Z</time>
      </trkpt>
      <trkpt lat="43.8097" lon="3.5675">
        <ele>633.65</ele>
        <time>2015-01-11T14:03:24Z</time>
      </trkpt>
      <trkpt lat="43.80964" lon="3.56757">
        <ele>632.68</ele>
        <time>2015-01-11T14:03:33Z</time>
      </trkpt>
      <trkpt lat="43.80961" lon="3.56762">
        <ele>631.24</ele>
        <time>2015-01-11T14:03:39Z</time>
      </trkpt>
      <trkpt lat="43.80957" lon="3.56767">
        <ele>630.28</ele>
        <time>2015-01-11T14:03:45Z</time>
      </trkpt>
      <trkpt lat="43.80954" lon="3.56773">
        <ele>630.76</ele>
        <time>2015-01-11T14:03:49Z</time>
      </trkpt>
      <trkpt lat="43.80954" lon="3.56774">
        <ele>632.2</ele>
        <time>2015-01-11T14:03:51Z</time>
      </trkpt>
      <trkpt lat="43.80959" lon="3.56785">
        <ele>629.8</ele>
        <time>2015-01-11T14:03:59Z</time>
      </trkpt>
      <trkpt lat="43.80965" lon="3.56794">
        <ele>628.36</ele>
        <time>2015-01-11T14:04:06Z</time>
      </trkpt>
      <trkpt lat="43.80962" lon="3.5681">
        <ele>627.4</ele>
        <time>2015-01-11T14:04:17Z</time>
      </trkpt>
      <trkpt lat="43.80959" lon="3.56814">
        <ele>627.4</ele>
        <time>2015-01-11T14:04:23Z</time>
      </trkpt>
      <trkpt lat="43.80957" lon="3.56832">
        <ele>624.99</ele>
        <time>2015-01-11T14:04:35Z</time>
      </trkpt>
      <trkpt lat="43.80956" lon="3.56837">
        <ele>624.99</ele>
        <time>2015-01-11T14:04:39Z</time>
      </trkpt>
      <trkpt lat="43.8096" lon="3.56853">
        <ele>622.59</ele>
        <time>2015-01-11T14:04:50Z</time>
      </trkpt>
      <trkpt lat="43.80961" lon="3.56863">
        <ele>622.59</ele>
        <time>2015-01-11T14:04:56Z</time>
      </trkpt>
      <trkpt lat="43.80964" lon="3.56875">
        <ele>621.63</ele>
        <time>2015-01-11T14:05:09Z</time>
      </trkpt>
      <trkpt lat="43.80966" lon="3.56881">
        <ele>619.71</ele>
        <time>2015-01-11T14:05:19Z</time>
      </trkpt>
      <trkpt lat="43.80966" lon="3.5689">
        <ele>618.75</ele>
        <time>2015-01-11T14:05:25Z</time>
      </trkpt>
      <trkpt lat="43.80964" lon="3.56894">
        <ele>617.78</ele>
        <time>2015-01-11T14:05:28Z</time>
      </trkpt>
      <trkpt lat="43.80961" lon="3.56897">
        <ele>618.75</ele>
        <time>2015-01-11T14:05:32Z</time>
      </trkpt>
      <trkpt lat="43.80958" lon="3.56904">
        <ele>617.3</ele>
        <time>2015-01-11T14:05:36Z</time>
      </trkpt>
      <trkpt lat="43.80959" lon="3.56908">
        <ele>616.34</ele>
        <time>2015-01-11T14:05:39Z</time>
      </trkpt>
      <trkpt lat="43.80961" lon="3.56911">
        <ele>616.34</ele>
        <time>2015-01-11T14:05:41Z</time>
      </trkpt>
      <trkpt lat="43.80965" lon="3.56925">
        <ele>615.86</ele>
        <time>2015-01-11T14:05:54Z</time>
      </trkpt>
      <trkpt lat="43.80966" lon="3.56935">
        <ele>613.94</ele>
        <time>2015-01-11T14:06:04Z</time>
      </trkpt>
      <trkpt lat="43.80967" lon="3.56939">
        <ele>612.02</ele>
        <time>2015-01-11T14:06:08Z</time>
      </trkpt>
      <trkpt lat="43.80971" lon="3.56955">
        <ele>611.06</ele>
        <time>2015-01-11T14:06:20Z</time>
      </trkpt>
      <trkpt lat="43.80975" lon="3.56966">
        <ele>609.13</ele>
        <time>2015-01-11T14:06:31Z</time>
      </trkpt>
      <trkpt lat="43.80974" lon="3.56967">
        <ele>609.13</ele>
        <time>2015-01-11T14:06:32Z</time>
      </trkpt>
      <trkpt lat="43.80974" lon="3.5697">
        <ele>608.65</ele>
        <time>2015-01-11T14:06:34Z</time>
      </trkpt>
      <trkpt lat="43.80979" lon="3.56986">
        <ele>607.21</ele>
        <time>2015-01-11T14:06:49Z</time>
      </trkpt>
      <trkpt lat="43.80983" lon="3.56999">
        <ele>604.81</ele>
        <time>2015-01-11T14:07:02Z</time>
      </trkpt>
      <trkpt lat="43.80989" lon="3.57009">
        <ele>603.36</ele>
        <time>2015-01-11T14:07:13Z</time>
      </trkpt>
      <trkpt lat="43.80991" lon="3.57017">
        <ele>602.88</ele>
        <time>2015-01-11T14:07:20Z</time>
      </trkpt>
      <trkpt lat="43.80994" lon="3.57035">
        <ele>601.92</ele>
        <time>2015-01-11T14:07:32Z</time>
      </trkpt>
      <trkpt lat="43.80994" lon="3.57036">
        <ele>602.4</ele>
        <time>2015-01-11T14:07:33Z</time>
      </trkpt>
      <trkpt lat="43.80994" lon="3.57054">
        <ele>600.96</ele>
        <time>2015-01-11T14:07:44Z</time>
      </trkpt>
      <trkpt lat="43.80999" lon="3.57067">
        <ele>599.52</ele>
        <time>2015-01-11T14:07:54Z</time>
      </trkpt>
      <trkpt lat="43.81004" lon="3.5708">
        <ele>599.04</ele>
        <time>2015-01-11T14:08:04Z</time>
      </trkpt>
      <trkpt lat="43.81007" lon="3.57088">
        <ele>597.6</ele>
        <time>2015-01-11T14:08:11Z</time>
      </trkpt>
      <trkpt lat="43.81007" lon="3.57096">
        <ele>596.15</ele>
        <time>2015-01-11T14:08:18Z</time>
      </trkpt>
      <trkpt lat="43.81005" lon="3.57105">
        <ele>595.67</ele>
        <time>2015-01-11T14:08:30Z</time>
      </trkpt>
      <trkpt lat="43.81005" lon="3.5711">
        <ele>594.71</ele>
        <time>2015-01-11T14:08:35Z</time>
      </trkpt>
      <trkpt lat="43.81007" lon="3.57119">
        <ele>594.23</ele>
        <time>2015-01-11T14:08:40Z</time>
      </trkpt>
      <trkpt lat="43.81006" lon="3.57126">
        <ele>593.27</ele>
        <time>2015-01-11T14:08:46Z</time>
      </trkpt>
      <trkpt lat="43.81005" lon="3.57138">
        <ele>591.35</ele>
        <time>2015-01-11T14:08:59Z</time>
      </trkpt>
      <trkpt lat="43.81002" lon="3.57142">
        <ele>590.87</ele>
        <time>2015-01-11T14:09:04Z</time>
      </trkpt>
      <trkpt lat="43.80997" lon="3.57153">
        <ele>588.46</ele>
        <time>2015-01-11T14:09:14Z</time>
      </trkpt>
      <trkpt lat="43.80997" lon="3.57154">
        <ele>587.98</ele>
        <time>2015-01-11T14:09:15Z</time>
      </trkpt>
      <trkpt lat="43.80998" lon="3.57157">
        <ele>586.54</ele>
        <time>2015-01-11T14:09:18Z</time>
      </trkpt>
      <trkpt lat="43.81001" lon="3.57167">
        <ele>585.1</ele>
        <time>2015-01-11T14:09:27Z</time>
      </trkpt>
      <trkpt lat="43.81006" lon="3.57185">
        <ele>582.7</ele>
        <time>2015-01-11T14:09:40Z</time>
      </trkpt>
      <trkpt lat="43.81011" lon="3.57195">
        <ele>581.73</ele>
        <time>2015-01-11T14:09:53Z</time>
      </trkpt>
      <trkpt lat="43.81008" lon="3.57199">
        <ele>580.77</ele>
        <time>2015-01-11T14:10:00Z</time>
      </trkpt>
      <trkpt lat="43.81004" lon="3.572">
        <ele>580.77</ele>
        <time>2015-01-11T14:10:05Z</time>
      </trkpt>
      <trkpt lat="43.81" lon="3.57202">
        <ele>580.29</ele>
        <time>2015-01-11T14:10:10Z</time>
      </trkpt>
      <trkpt lat="43.80992" lon="3.57198">
        <ele>580.29</ele>
        <time>2015-01-11T14:10:21Z</time>
      </trkpt>
      <trkpt lat="43.80991" lon="3.57197">
        <ele>578.37</ele>
        <time>2015-01-11T14:10:24Z</time>
      </trkpt>
      <trkpt lat="43.80986" lon="3.57193">
        <ele>575.49</ele>
        <time>2015-01-11T14:10:31Z</time>
      </trkpt>
      <trkpt lat="43.80982" lon="3.57192">
        <ele>575.49</ele>
        <time>2015-01-11T14:10:36Z</time>
      </trkpt>
      <trkpt lat="43.80978" lon="3.57193">
        <ele>574.53</ele>
        <time>2015-01-11T14:10:41Z</time>
      </trkpt>
      <trkpt lat="43.80971" lon="3.57201">
        <ele>572.6</ele>
        <time>2015-01-11T14:10:53Z</time>
      </trkpt>
      <trkpt lat="43.8097" lon="3.57203">
        <ele>572.12</ele>
        <time>2015-01-11T14:10:55Z</time>
      </trkpt>
      <trkpt lat="43.80966" lon="3.57211">
        <ele>571.16</ele>
        <time>2015-01-11T14:11:03Z</time>
      </trkpt>
      <trkpt lat="43.80958" lon="3.57217">
        <ele>569.24</ele>
        <time>2015-01-11T14:11:15Z</time>
      </trkpt>
      <trkpt lat="43.80953" lon="3.57219">
        <ele>569.24</ele>
        <time>2015-01-11T14:11:27Z</time>
      </trkpt>
      <trkpt lat="43.80952" lon="3.5722">
        <ele>568.76</ele>
        <time>2015-01-11T14:11:28Z</time>
      </trkpt>
      <trkpt lat="43.80946" lon="3.57226">
        <ele>567.8</ele>
        <time>2015-01-11T14:11:37Z</time>
      </trkpt>
      <trkpt lat="43.80942" lon="3.57232">
        <ele>566.35</ele>
        <time>2015-01-11T14:11:46Z</time>
      </trkpt>
      <trkpt lat="43.80937" lon="3.57234">
        <ele>566.35</ele>
        <time>2015-01-11T14:11:51Z</time>
      </trkpt>
      <trkpt lat="43.80935" lon="3.57239">
        <ele>567.32</ele>
        <time>2015-01-11T14:11:56Z</time>
      </trkpt>
      <trkpt lat="43.80932" lon="3.57245">
        <ele>567.32</ele>
        <time>2015-01-11T14:12:01Z</time>
      </trkpt>
      <trkpt lat="43.80932" lon="3.57258">
        <ele>565.87</ele>
        <time>2015-01-11T14:12:10Z</time>
      </trkpt>
      <trkpt lat="43.80927" lon="3.5727">
        <ele>564.91</ele>
        <time>2015-01-11T14:12:23Z</time>
      </trkpt>
      <trkpt lat="43.80921" lon="3.57281">
        <ele>563.47</ele>
        <time>2015-01-11T14:12:36Z</time>
      </trkpt>
      <trkpt lat="43.80915" lon="3.57291">
        <ele>562.03</ele>
        <time>2015-01-11T14:12:49Z</time>
      </trkpt>
      <trkpt lat="43.80909" lon="3.57298">
        <ele>562.03</ele>
        <time>2015-01-11T14:12:58Z</time>
      </trkpt>
      <trkpt lat="43.80907" lon="3.57299">
        <ele>561.07</ele>
        <time>2015-01-11T14:13:00Z</time>
      </trkpt>
      <trkpt lat="43.80895" lon="3.5731">
        <ele>560.59</ele>
        <time>2015-01-11T14:13:15Z</time>
      </trkpt>
      <trkpt lat="43.80888" lon="3.57318">
        <ele>560.11</ele>
        <time>2015-01-11T14:13:23Z</time>
      </trkpt>
      <trkpt lat="43.80884" lon="3.57327">
        <ele>556.74</ele>
        <time>2015-01-11T14:13:32Z</time>
      </trkpt>
      <trkpt lat="43.8088" lon="3.57332">
        <ele>556.26</ele>
        <time>2015-01-11T14:13:39Z</time>
      </trkpt>
      <trkpt lat="43.80876" lon="3.57336">
        <ele>554.82</ele>
        <time>2015-01-11T14:13:44Z</time>
      </trkpt>
      <trkpt lat="43.80869" lon="3.57344">
        <ele>553.38</ele>
        <time>2015-01-11T14:13:51Z</time>
      </trkpt>
      <trkpt lat="43.80869" lon="3.57346">
        <ele>554.34</ele>
        <time>2015-01-11T14:13:53Z</time>
      </trkpt>
      <trkpt lat="43.80867" lon="3.57348">
        <ele>552.41</ele>
        <time>2015-01-11T14:13:57Z</time>
      </trkpt>
      <trkpt lat="43.80858" lon="3.57355">
        <ele>550.97</ele>
        <time>2015-01-11T14:14:07Z</time>
      </trkpt>
      <trkpt lat="43.80853" lon="3.57363">
        <ele>550.01</ele>
        <time>2015-01-11T14:14:15Z</time>
      </trkpt>
      <trkpt lat="43.80842" lon="3.57374">
        <ele>549.53</ele>
        <time>2015-01-11T14:14:29Z</time>
      </trkpt>
      <trkpt lat="43.8084" lon="3.57376">
        <ele>549.05</ele>
        <time>2015-01-11T14:14:32Z</time>
      </trkpt>
      <trkpt lat="43.80835" lon="3.5738">
        <ele>548.57</ele>
        <time>2015-01-11T14:14:37Z</time>
      </trkpt>
      <trkpt lat="43.80832" lon="3.57383">
        <ele>548.57</ele>
        <time>2015-01-11T14:14:40Z</time>
      </trkpt>
      <trkpt lat="43.80828" lon="3.57385">
        <ele>547.61</ele>
        <time>2015-01-11T14:14:42Z</time>
      </trkpt>
      <trkpt lat="43.80817" lon="3.57393">
        <ele>546.17</ele>
        <time>2015-01-11T14:14:54Z</time>
      </trkpt>
      <trkpt lat="43.80815" lon="3.57393">
        <ele>546.17</ele>
        <time>2015-01-11T14:14:56Z</time>
      </trkpt>
      <trkpt lat="43.80807" lon="3.57398">
        <ele>543.76</ele>
        <time>2015-01-11T14:15:05Z</time>
      </trkpt>
      <trkpt lat="43.80795" lon="3.574">
        <ele>543.28</ele>
        <time>2015-01-11T14:15:16Z</time>
      </trkpt>
      <trkpt lat="43.80789" lon="3.57401">
        <ele>542.8</ele>
        <time>2015-01-11T14:15:21Z</time>
      </trkpt>
      <trkpt lat="43.80777" lon="3.57406">
        <ele>540.88</ele>
        <time>2015-01-11T14:15:31Z</time>
      </trkpt>
      <trkpt lat="43.80766" lon="3.57407">
        <ele>540.4</ele>
        <time>2015-01-11T14:15:43Z</time>
      </trkpt>
      <trkpt lat="43.80755" lon="3.5741">
        <ele>538.96</ele>
        <time>2015-01-11T14:15:54Z</time>
      </trkpt>
      <trkpt lat="43.80746" lon="3.57412">
        <ele>535.59</ele>
        <time>2015-01-11T14:16:04Z</time>
      </trkpt>
      <trkpt lat="43.80744" lon="3.57413">
        <ele>534.63</ele>
        <time>2015-01-11T14:16:06Z</time>
      </trkpt>
      <trkpt lat="43.8073" lon="3.57414">
        <ele>532.71</ele>
        <time>2015-01-11T14:16:18Z</time>
      </trkpt>
      <trkpt lat="43.80718" lon="3.57414">
        <ele>531.27</ele>
        <time>2015-01-11T14:16:30Z</time>
      </trkpt>
      <trkpt lat="43.80712" lon="3.57414">
        <ele>529.82</ele>
        <time>2015-01-11T14:16:34Z</time>
      </trkpt>
      <trkpt lat="43.80703" lon="3.57416">
        <ele>530.3</ele>
        <time>2015-01-11T14:16:43Z</time>
      </trkpt>
      <trkpt lat="43.80695" lon="3.57416">
        <ele>526.46</ele>
        <time>2015-01-11T14:16:51Z</time>
      </trkpt>
      <trkpt lat="43.80691" lon="3.57418">
        <ele>525.02</ele>
        <time>2015-01-11T14:16:55Z</time>
      </trkpt>
      <trkpt lat="43.80687" lon="3.57419">
        <ele>524.54</ele>
        <time>2015-01-11T14:17:02Z</time>
      </trkpt>
      <trkpt lat="43.80676" lon="3.5742">
        <ele>523.58</ele>
        <time>2015-01-11T14:17:13Z</time>
      </trkpt>
      <trkpt lat="43.80675" lon="3.57421">
        <ele>524.06</ele>
        <time>2015-01-11T14:17:14Z</time>
      </trkpt>
      <trkpt lat="43.80672" lon="3.57422">
        <ele>523.58</ele>
        <time>2015-01-11T14:17:16Z</time>
      </trkpt>
      <trkpt lat="43.80669" lon="3.57421">
        <ele>522.13</ele>
        <time>2015-01-11T14:17:18Z</time>
      </trkpt>
      <trkpt lat="43.80662" lon="3.57424">
        <ele>519.73</ele>
        <time>2015-01-11T14:17:23Z</time>
      </trkpt>
      <trkpt lat="43.80649" lon="3.57427">
        <ele>516.85</ele>
        <time>2015-01-11T14:17:32Z</time>
      </trkpt>
      <trkpt lat="43.80648" lon="3.57427">
        <ele>516.85</ele>
        <time>2015-01-11T14:17:35Z</time>
      </trkpt>
      <trkpt lat="43.80639" lon="3.57429">
        <ele>513</ele>
        <time>2015-01-11T14:17:46Z</time>
      </trkpt>
      <trkpt lat="43.8063" lon="3.57427">
        <ele>513</ele>
        <time>2015-01-11T14:17:53Z</time>
      </trkpt>
      <trkpt lat="43.80621" lon="3.57429">
        <ele>511.08</ele>
        <time>2015-01-11T14:17:59Z</time>
      </trkpt>
      <trkpt lat="43.80611" lon="3.57424">
        <ele>512.04</ele>
        <time>2015-01-11T14:18:09Z</time>
      </trkpt>
      <trkpt lat="43.80606" lon="3.57424">
        <ele>511.08</ele>
        <time>2015-01-11T14:18:22Z</time>
      </trkpt>
      <trkpt lat="43.80605" lon="3.57424">
        <ele>509.16</ele>
        <time>2015-01-11T14:18:24Z</time>
      </trkpt>
      <trkpt lat="43.80602" lon="3.57423">
        <ele>507.71</ele>
        <time>2015-01-11T14:18:26Z</time>
      </trkpt>
      <trkpt lat="43.80586" lon="3.57418">
        <ele>505.79</ele>
        <time>2015-01-11T14:18:38Z</time>
      </trkpt>
      <trkpt lat="43.80584" lon="3.57416">
        <ele>505.31</ele>
        <time>2015-01-11T14:18:41Z</time>
      </trkpt>
      <trkpt lat="43.80578" lon="3.57413">
        <ele>504.35</ele>
        <time>2015-01-11T14:18:45Z</time>
      </trkpt>
      <trkpt lat="43.80576" lon="3.57411">
        <ele>504.83</ele>
        <time>2015-01-11T14:18:46Z</time>
      </trkpt>
      <trkpt lat="43.80573" lon="3.57408">
        <ele>503.87</ele>
        <time>2015-01-11T14:18:50Z</time>
      </trkpt>
      <trkpt lat="43.80564" lon="3.57403">
        <ele>502.43</ele>
        <time>2015-01-11T14:19:00Z</time>
      </trkpt>
      <trkpt lat="43.80561" lon="3.574">
        <ele>502.91</ele>
        <time>2015-01-11T14:19:02Z</time>
      </trkpt>
      <trkpt lat="43.80558" lon="3.57397">
        <ele>502.91</ele>
        <time>2015-01-11T14:19:06Z</time>
      </trkpt>
      <trkpt lat="43.80553" lon="3.57393">
        <ele>501.95</ele>
        <time>2015-01-11T14:19:11Z</time>
      </trkpt>
      <trkpt lat="43.80545" lon="3.57389">
        <ele>502.43</ele>
        <time>2015-01-11T14:19:18Z</time>
      </trkpt>
      <trkpt lat="43.80535" lon="3.57387">
        <ele>502.91</ele>
        <time>2015-01-11T14:19:27Z</time>
      </trkpt>
      <trkpt lat="43.80527" lon="3.57385">
        <ele>500.5</ele>
        <time>2015-01-11T14:19:33Z</time>
      </trkpt>
      <trkpt lat="43.80522" lon="3.57385">
        <ele>500.02</ele>
        <time>2015-01-11T14:19:37Z</time>
      </trkpt>
      <trkpt lat="43.80519" lon="3.57386">
        <ele>499.54</ele>
        <time>2015-01-11T14:19:42Z</time>
      </trkpt>
      <trkpt lat="43.80515" lon="3.57387">
        <ele>499.06</ele>
        <time>2015-01-11T14:19:47Z</time>
      </trkpt>
      <trkpt lat="43.80501" lon="3.5739">
        <ele>495.7</ele>
        <time>2015-01-11T14:19:59Z</time>
      </trkpt>
      <trkpt lat="43.80493" lon="3.57389">
        <ele>496.66</ele>
        <time>2015-01-11T14:20:05Z</time>
      </trkpt>
      <trkpt lat="43.80486" lon="3.57389">
        <ele>496.18</ele>
        <time>2015-01-11T14:20:11Z</time>
      </trkpt>
      <trkpt lat="43.80474" lon="3.5739">
        <ele>495.22</ele>
        <time>2015-01-11T14:20:23Z</time>
      </trkpt>
      <trkpt lat="43.80472" lon="3.57391">
        <ele>494.74</ele>
        <time>2015-01-11T14:20:27Z</time>
      </trkpt>
      <trkpt lat="43.80457" lon="3.57392">
        <ele>492.33</ele>
        <time>2015-01-11T14:20:40Z</time>
      </trkpt>
      <trkpt lat="43.80446" lon="3.57392">
        <ele>489.93</ele>
        <time>2015-01-11T14:20:49Z</time>
      </trkpt>
      <trkpt lat="43.8044" lon="3.57393">
        <ele>488.49</ele>
        <time>2015-01-11T14:20:56Z</time>
      </trkpt>
      <trkpt lat="43.80426" lon="3.57395">
        <ele>487.53</ele>
        <time>2015-01-11T14:21:07Z</time>
      </trkpt>
      <trkpt lat="43.80424" lon="3.57395">
        <ele>487.05</ele>
        <time>2015-01-11T14:21:08Z</time>
      </trkpt>
      <trkpt lat="43.8042" lon="3.57393">
        <ele>487.05</ele>
        <time>2015-01-11T14:21:12Z</time>
      </trkpt>
      <trkpt lat="43.80417" lon="3.57394">
        <ele>486.56</ele>
        <time>2015-01-11T14:21:15Z</time>
      </trkpt>
      <trkpt lat="43.80407" lon="3.57389">
        <ele>483.2</ele>
        <time>2015-01-11T14:21:24Z</time>
      </trkpt>
      <trkpt lat="43.80398" lon="3.57385">
        <ele>483.68</ele>
        <time>2015-01-11T14:21:30Z</time>
      </trkpt>
      <trkpt lat="43.80386" lon="3.57377">
        <ele>481.76</ele>
        <time>2015-01-11T14:21:42Z</time>
      </trkpt>
      <trkpt lat="43.80385" lon="3.57377">
        <ele>481.76</ele>
        <time>2015-01-11T14:21:43Z</time>
      </trkpt>
      <trkpt lat="43.80381" lon="3.57375">
        <ele>482.24</ele>
        <time>2015-01-11T14:21:47Z</time>
      </trkpt>
      <trkpt lat="43.80379" lon="3.57374">
        <ele>481.28</ele>
        <time>2015-01-11T14:21:49Z</time>
      </trkpt>
      <trkpt lat="43.80376" lon="3.57374">
        <ele>478.87</ele>
        <time>2015-01-11T14:21:53Z</time>
      </trkpt>
      <trkpt lat="43.80375" lon="3.57375">
        <ele>478.87</ele>
        <time>2015-01-11T14:21:54Z</time>
      </trkpt>
      <trkpt lat="43.80372" lon="3.57375">
        <ele>477.91</ele>
        <time>2015-01-11T14:21:56Z</time>
      </trkpt>
      <trkpt lat="43.80367" lon="3.57374">
        <ele>476.95</ele>
        <time>2015-01-11T14:22:00Z</time>
      </trkpt>
      <trkpt lat="43.80351" lon="3.57375">
        <ele>476.95</ele>
        <time>2015-01-11T14:22:14Z</time>
      </trkpt>
      <trkpt lat="43.80335" lon="3.57378">
        <ele>474.07</ele>
        <time>2015-01-11T14:22:24Z</time>
      </trkpt>
      <trkpt lat="43.80319" lon="3.57379">
        <ele>471.66</ele>
        <time>2015-01-11T14:22:37Z</time>
      </trkpt>
      <trkpt lat="43.80318" lon="3.5738">
        <ele>471.18</ele>
        <time>2015-01-11T14:22:38Z</time>
      </trkpt>
      <trkpt lat="43.80298" lon="3.57374">
        <ele>470.22</ele>
        <time>2015-01-11T14:22:53Z</time>
      </trkpt>
      <trkpt lat="43.80289" lon="3.57371">
        <ele>469.26</ele>
        <time>2015-01-11T14:23:00Z</time>
      </trkpt>
      <trkpt lat="43.80279" lon="3.57365">
        <ele>470.7</ele>
        <time>2015-01-11T14:23:07Z</time>
      </trkpt>
      <trkpt lat="43.80264" lon="3.57354">
        <ele>470.7</ele>
        <time>2015-01-11T14:23:19Z</time>
      </trkpt>
      <trkpt lat="43.80256" lon="3.57346">
        <ele>468.78</ele>
        <time>2015-01-11T14:23:27Z</time>
      </trkpt>
      <trkpt lat="43.80254" lon="3.57345">
        <ele>469.26</ele>
        <time>2015-01-11T14:23:29Z</time>
      </trkpt>
      <trkpt lat="43.8025" lon="3.57343">
        <ele>469.26</ele>
        <time>2015-01-11T14:23:33Z</time>
      </trkpt>
      <trkpt lat="43.80248" lon="3.57346">
        <ele>466.86</ele>
        <time>2015-01-11T14:23:38Z</time>
      </trkpt>
      <trkpt lat="43.8024" lon="3.57344">
        <ele>465.9</ele>
        <time>2015-01-11T14:23:45Z</time>
      </trkpt>
      <trkpt lat="43.80234" lon="3.57334">
        <ele>466.38</ele>
        <time>2015-01-11T14:23:53Z</time>
      </trkpt>
      <trkpt lat="43.80233" lon="3.57332">
        <ele>465.9</ele>
        <time>2015-01-11T14:23:54Z</time>
      </trkpt>
      <trkpt lat="43.80229" lon="3.57327">
        <ele>462.53</ele>
        <time>2015-01-11T14:23:59Z</time>
      </trkpt>
      <trkpt lat="43.80217" lon="3.57314">
        <ele>459.17</ele>
        <time>2015-01-11T14:24:12Z</time>
      </trkpt>
      <trkpt lat="43.80206" lon="3.57308">
        <ele>457.72</ele>
        <time>2015-01-11T14:24:21Z</time>
      </trkpt>
      <trkpt lat="43.80198" lon="3.57307">
        <ele>454.84</ele>
        <time>2015-01-11T14:24:29Z</time>
      </trkpt>
      <trkpt lat="43.80187" lon="3.57307">
        <ele>452.92</ele>
        <time>2015-01-11T14:24:37Z</time>
      </trkpt>
      <trkpt lat="43.80191" lon="3.57314">
        <ele>448.11</ele>
        <time>2015-01-11T14:24:44Z</time>
      </trkpt>
      <trkpt lat="43.80195" lon="3.57317">
        <ele>451.48</ele>
        <time>2015-01-11T14:24:48Z</time>
      </trkpt>
      <trkpt lat="43.80198" lon="3.5732">
        <ele>449.07</ele>
        <time>2015-01-11T14:24:52Z</time>
      </trkpt>
      <trkpt lat="43.802" lon="3.57322">
        <ele>448.11</ele>
        <time>2015-01-11T14:24:54Z</time>
      </trkpt>
      <trkpt lat="43.80212" lon="3.57337">
        <ele>445.23</ele>
        <time>2015-01-11T14:25:07Z</time>
      </trkpt>
      <trkpt lat="43.80216" lon="3.57347">
        <ele>444.75</ele>
        <time>2015-01-11T14:25:15Z</time>
      </trkpt>
      <trkpt lat="43.80218" lon="3.57351">
        <ele>443.31</ele>
        <time>2015-01-11T14:25:18Z</time>
      </trkpt>
      <trkpt lat="43.80225" lon="3.57367">
        <ele>442.82</ele>
        <time>2015-01-11T14:25:30Z</time>
      </trkpt>
      <trkpt lat="43.80235" lon="3.57378">
        <ele>441.38</ele>
        <time>2015-01-11T14:25:41Z</time>
      </trkpt>
      <trkpt lat="43.80242" lon="3.57386">
        <ele>439.46</ele>
        <time>2015-01-11T14:25:50Z</time>
      </trkpt>
      <trkpt lat="43.80238" lon="3.57389">
        <ele>437.54</ele>
        <time>2015-01-11T14:25:54Z</time>
      </trkpt>
      <trkpt lat="43.80231" lon="3.57386">
        <ele>436.1</ele>
        <time>2015-01-11T14:26:03Z</time>
      </trkpt>
      <trkpt lat="43.80224" lon="3.57384">
        <ele>435.13</ele>
        <time>2015-01-11T14:26:11Z</time>
      </trkpt>
      <trkpt lat="43.80211" lon="3.57378">
        <ele>431.77</ele>
        <time>2015-01-11T14:26:22Z</time>
      </trkpt>
      <trkpt lat="43.80202" lon="3.57368">
        <ele>431.29</ele>
        <time>2015-01-11T14:26:34Z</time>
      </trkpt>
      <trkpt lat="43.80197" lon="3.5736">
        <ele>427.92</ele>
        <time>2015-01-11T14:26:41Z</time>
      </trkpt>
      <trkpt lat="43.80196" lon="3.57359">
        <ele>427.92</ele>
        <time>2015-01-11T14:26:42Z</time>
      </trkpt>
      <trkpt lat="43.80194" lon="3.57356">
        <ele>427.44</ele>
        <time>2015-01-11T14:26:45Z</time>
      </trkpt>
      <trkpt lat="43.80176" lon="3.57351">
        <ele>425.04</ele>
        <time>2015-01-11T14:27:00Z</time>
      </trkpt>
      <trkpt lat="43.80166" lon="3.57347">
        <ele>424.56</ele>
        <time>2015-01-11T14:27:08Z</time>
      </trkpt>
      <trkpt lat="43.80164" lon="3.57353">
        <ele>423.12</ele>
        <time>2015-01-11T14:27:15Z</time>
      </trkpt>
      <trkpt lat="43.80171" lon="3.57361">
        <ele>419.75</ele>
        <time>2015-01-11T14:27:24Z</time>
      </trkpt>
      <trkpt lat="43.80179" lon="3.57368">
        <ele>422.16</ele>
        <time>2015-01-11T14:27:32Z</time>
      </trkpt>
      <trkpt lat="43.80184" lon="3.57387">
        <ele>420.23</ele>
        <time>2015-01-11T14:27:44Z</time>
      </trkpt>
      <trkpt lat="43.80185" lon="3.5739">
        <ele>419.75</ele>
        <time>2015-01-11T14:27:45Z</time>
      </trkpt>
      <trkpt lat="43.80184" lon="3.5739">
        <ele>417.83</ele>
        <time>2015-01-11T14:27:53Z</time>
      </trkpt>
      <trkpt lat="43.80179" lon="3.57384">
        <ele>416.87</ele>
        <time>2015-01-11T14:27:57Z</time>
      </trkpt>
      <trkpt lat="43.80164" lon="3.57382">
        <ele>413.02</ele>
        <time>2015-01-11T14:28:10Z</time>
      </trkpt>
      <trkpt lat="43.80159" lon="3.57381">
        <ele>411.58</ele>
        <time>2015-01-11T14:28:17Z</time>
      </trkpt>
      <trkpt lat="43.80147" lon="3.57368">
        <ele>410.14</ele>
        <time>2015-01-11T14:28:28Z</time>
      </trkpt>
      <trkpt lat="43.80143" lon="3.57366">
        <ele>409.18</ele>
        <time>2015-01-11T14:28:33Z</time>
      </trkpt>
      <trkpt lat="43.80131" lon="3.57358">
        <ele>407.26</ele>
        <time>2015-01-11T14:28:44Z</time>
      </trkpt>
      <trkpt lat="43.80123" lon="3.57351">
        <ele>405.81</ele>
        <time>2015-01-11T14:28:51Z</time>
      </trkpt>
      <trkpt lat="43.80122" lon="3.57357">
        <ele>404.85</ele>
        <time>2015-01-11T14:28:58Z</time>
      </trkpt>
      <trkpt lat="43.80123" lon="3.57358">
        <ele>404.37</ele>
        <time>2015-01-11T14:29:00Z</time>
      </trkpt>
      <trkpt lat="43.8013" lon="3.5737">
        <ele>403.41</ele>
        <time>2015-01-11T14:29:09Z</time>
      </trkpt>
      <trkpt lat="43.80133" lon="3.57377">
        <ele>401.97</ele>
        <time>2015-01-11T14:29:15Z</time>
      </trkpt>
      <trkpt lat="43.80136" lon="3.57398">
        <ele>399.57</ele>
        <time>2015-01-11T14:29:28Z</time>
      </trkpt>
      <trkpt lat="43.80132" lon="3.57414">
        <ele>397.64</ele>
        <time>2015-01-11T14:29:38Z</time>
      </trkpt>
      <trkpt lat="43.8013" lon="3.57414">
        <ele>397.16</ele>
        <time>2015-01-11T14:29:42Z</time>
      </trkpt>
      <trkpt lat="43.80122" lon="3.57399">
        <ele>394.28</ele>
        <time>2015-01-11T14:29:55Z</time>
      </trkpt>
      <trkpt lat="43.80112" lon="3.57386">
        <ele>392.84</ele>
        <time>2015-01-11T14:30:07Z</time>
      </trkpt>
      <trkpt lat="43.80111" lon="3.57385">
        <ele>392.84</ele>
        <time>2015-01-11T14:30:08Z</time>
      </trkpt>
      <trkpt lat="43.80104" lon="3.5738">
        <ele>391.39</ele>
        <time>2015-01-11T14:30:12Z</time>
      </trkpt>
      <trkpt lat="43.80106" lon="3.57387">
        <ele>389.47</ele>
        <time>2015-01-11T14:30:21Z</time>
      </trkpt>
      <trkpt lat="43.80109" lon="3.57404">
        <ele>386.59</ele>
        <time>2015-01-11T14:30:33Z</time>
      </trkpt>
      <trkpt lat="43.80109" lon="3.57408">
        <ele>386.11</ele>
        <time>2015-01-11T14:30:36Z</time>
      </trkpt>
      <trkpt lat="43.80107" lon="3.57415">
        <ele>384.18</ele>
        <time>2015-01-11T14:30:41Z</time>
      </trkpt>
      <trkpt lat="43.80105" lon="3.57421">
        <ele>382.26</ele>
        <time>2015-01-11T14:30:48Z</time>
      </trkpt>
      <trkpt lat="43.80098" lon="3.57413">
        <ele>380.82</ele>
        <time>2015-01-11T14:30:54Z</time>
      </trkpt>
      <trkpt lat="43.80096" lon="3.57409">
        <ele>380.34</ele>
        <time>2015-01-11T14:30:56Z</time>
      </trkpt>
      <trkpt lat="43.80092" lon="3.57395">
        <ele>379.38</ele>
        <time>2015-01-11T14:31:05Z</time>
      </trkpt>
      <trkpt lat="43.80083" lon="3.57387">
        <ele>377.45</ele>
        <time>2015-01-11T14:31:16Z</time>
      </trkpt>
      <trkpt lat="43.8008" lon="3.57389">
        <ele>376.97</ele>
        <time>2015-01-11T14:31:19Z</time>
      </trkpt>
      <trkpt lat="43.80082" lon="3.57391">
        <ele>376.49</ele>
        <time>2015-01-11T14:31:22Z</time>
      </trkpt>
      <trkpt lat="43.80088" lon="3.57401">
        <ele>374.57</ele>
        <time>2015-01-11T14:31:32Z</time>
      </trkpt>
      <trkpt lat="43.80091" lon="3.57406">
        <ele>374.09</ele>
        <time>2015-01-11T14:31:36Z</time>
      </trkpt>
      <trkpt lat="43.80089" lon="3.57412">
        <ele>373.13</ele>
        <time>2015-01-11T14:31:45Z</time>
      </trkpt>
      <trkpt lat="43.80086" lon="3.57407">
        <ele>372.65</ele>
        <time>2015-01-11T14:31:48Z</time>
      </trkpt>
      <trkpt lat="43.8008" lon="3.57403">
        <ele>371.21</ele>
        <time>2015-01-11T14:31:58Z</time>
      </trkpt>
      <trkpt lat="43.80081" lon="3.57407">
        <ele>370.24</ele>
        <time>2015-01-11T14:32:02Z</time>
      </trkpt>
      <trkpt lat="43.80083" lon="3.57413">
        <ele>366.88</ele>
        <time>2015-01-11T14:32:09Z</time>
      </trkpt>
      <trkpt lat="43.80083" lon="3.57417">
        <ele>365.92</ele>
        <time>2015-01-11T14:32:12Z</time>
      </trkpt>
      <trkpt lat="43.80075" lon="3.57409">
        <ele>363.52</ele>
        <time>2015-01-11T14:32:24Z</time>
      </trkpt>
      <trkpt lat="43.80074" lon="3.57409">
        <ele>363.52</ele>
        <time>2015-01-11T14:32:25Z</time>
      </trkpt>
      <trkpt lat="43.80069" lon="3.57394">
        <ele>360.15</ele>
        <time>2015-01-11T14:32:37Z</time>
      </trkpt>
      <trkpt lat="43.80059" lon="3.57387">
        <ele>356.31</ele>
        <time>2015-01-11T14:32:48Z</time>
      </trkpt>
      <trkpt lat="43.80053" lon="3.57385">
        <ele>357.27</ele>
        <time>2015-01-11T14:32:53Z</time>
      </trkpt>
      <trkpt lat="43.80051" lon="3.57383">
        <ele>357.75</ele>
        <time>2015-01-11T14:32:55Z</time>
      </trkpt>
      <trkpt lat="43.80039" lon="3.57372">
        <ele>356.31</ele>
        <time>2015-01-11T14:33:08Z</time>
      </trkpt>
      <trkpt lat="43.80036" lon="3.57372">
        <ele>354.38</ele>
        <time>2015-01-11T14:33:19Z</time>
      </trkpt>
      <trkpt lat="43.80043" lon="3.57379">
        <ele>351.5</ele>
        <time>2015-01-11T14:33:30Z</time>
      </trkpt>
      <trkpt lat="43.80051" lon="3.57383">
        <ele>349.58</ele>
        <time>2015-01-11T14:33:39Z</time>
      </trkpt>
      <trkpt lat="43.80058" lon="3.57392">
        <ele>348.13</ele>
        <time>2015-01-11T14:33:50Z</time>
      </trkpt>
      <trkpt lat="43.80064" lon="3.57409">
        <ele>346.21</ele>
        <time>2015-01-11T14:34:01Z</time>
      </trkpt>
      <trkpt lat="43.80072" lon="3.5742">
        <ele>343.33</ele>
        <time>2015-01-11T14:34:13Z</time>
      </trkpt>
      <trkpt lat="43.80076" lon="3.57429">
        <ele>341.89</ele>
        <time>2015-01-11T14:34:20Z</time>
      </trkpt>
      <trkpt lat="43.80078" lon="3.57432">
        <ele>341.41</ele>
        <time>2015-01-11T14:34:22Z</time>
      </trkpt>
      <trkpt lat="43.80086" lon="3.57442">
        <ele>341.89</ele>
        <time>2015-01-11T14:34:32Z</time>
      </trkpt>
      <trkpt lat="43.80092" lon="3.5746">
        <ele>338.04</ele>
        <time>2015-01-11T14:34:43Z</time>
      </trkpt>
      <trkpt lat="43.801" lon="3.57478">
        <ele>335.64</ele>
        <time>2015-01-11T14:34:56Z</time>
      </trkpt>
      <trkpt lat="43.801" lon="3.5748">
        <ele>335.16</ele>
        <time>2015-01-11T14:34:57Z</time>
      </trkpt>
      <trkpt lat="43.80108" lon="3.57501">
        <ele>332.27</ele>
        <time>2015-01-11T14:35:10Z</time>
      </trkpt>
      <trkpt lat="43.80109" lon="3.57512">
        <ele>330.83</ele>
        <time>2015-01-11T14:35:21Z</time>
      </trkpt>
      <trkpt lat="43.80111" lon="3.57519">
        <ele>327.95</ele>
        <time>2015-01-11T14:35:31Z</time>
      </trkpt>
      <trkpt lat="43.80112" lon="3.57524">
        <ele>326.02</ele>
        <time>2015-01-11T14:35:37Z</time>
      </trkpt>
      <trkpt lat="43.80113" lon="3.57528">
        <ele>325.06</ele>
        <time>2015-01-11T14:35:41Z</time>
      </trkpt>
      <trkpt lat="43.80119" lon="3.57537">
        <ele>324.1</ele>
        <time>2015-01-11T14:35:49Z</time>
      </trkpt>
      <trkpt lat="43.80122" lon="3.57541">
        <ele>323.62</ele>
        <time>2015-01-11T14:35:53Z</time>
      </trkpt>
      <trkpt lat="43.80124" lon="3.57548">
        <ele>322.66</ele>
        <time>2015-01-11T14:35:57Z</time>
      </trkpt>
      <trkpt lat="43.80125" lon="3.57572">
        <ele>320.74</ele>
        <time>2015-01-11T14:36:08Z</time>
      </trkpt>
      <trkpt lat="43.80125" lon="3.57581">
        <ele>320.26</ele>
        <time>2015-01-11T14:36:12Z</time>
      </trkpt>
      <trkpt lat="43.80126" lon="3.5761">
        <ele>316.41</ele>
        <time>2015-01-11T14:36:28Z</time>
      </trkpt>
      <trkpt lat="43.80127" lon="3.57624">
        <ele>313.53</ele>
        <time>2015-01-11T14:36:40Z</time>
      </trkpt>
      <trkpt lat="43.80129" lon="3.57634">
        <ele>310.64</ele>
        <time>2015-01-11T14:36:51Z</time>
      </trkpt>
      <trkpt lat="43.80124" lon="3.57661">
        <ele>307.76</ele>
        <time>2015-01-11T14:37:06Z</time>
      </trkpt>
      <trkpt lat="43.80124" lon="3.5768">
        <ele>305.84</ele>
        <time>2015-01-11T14:37:18Z</time>
      </trkpt>
      <trkpt lat="43.8012" lon="3.57696">
        <ele>303.91</ele>
        <time>2015-01-11T14:37:31Z</time>
      </trkpt>
      <trkpt lat="43.80114" lon="3.57705">
        <ele>302.47</ele>
        <time>2015-01-11T14:37:44Z</time>
      </trkpt>
      <trkpt lat="43.80112" lon="3.57714">
        <ele>300.55</ele>
        <time>2015-01-11T14:37:54Z</time>
      </trkpt>
      <trkpt lat="43.80106" lon="3.57724">
        <ele>297.67</ele>
        <time>2015-01-11T14:38:04Z</time>
      </trkpt>
      <trkpt lat="43.80103" lon="3.57727">
        <ele>297.18</ele>
        <time>2015-01-11T14:38:08Z</time>
      </trkpt>
      <trkpt lat="43.80103" lon="3.57733">
        <ele>296.7</ele>
        <time>2015-01-11T14:38:13Z</time>
      </trkpt>
      <trkpt lat="43.80106" lon="3.57744">
        <ele>297.18</ele>
        <time>2015-01-11T14:38:20Z</time>
      </trkpt>
      <trkpt lat="43.80114" lon="3.57758">
        <ele>295.74</ele>
        <time>2015-01-11T14:38:34Z</time>
      </trkpt>
      <trkpt lat="43.8012" lon="3.5777">
        <ele>293.34</ele>
        <time>2015-01-11T14:38:45Z</time>
      </trkpt>
      <trkpt lat="43.80122" lon="3.57775">
        <ele>292.86</ele>
        <time>2015-01-11T14:38:52Z</time>
      </trkpt>
      <trkpt lat="43.80123" lon="3.57789">
        <ele>290.94</ele>
        <time>2015-01-11T14:39:04Z</time>
      </trkpt>
      <trkpt lat="43.80123" lon="3.57801">
        <ele>290.46</ele>
        <time>2015-01-11T14:39:12Z</time>
      </trkpt>
      <trkpt lat="43.80132" lon="3.57814">
        <ele>289.49</ele>
        <time>2015-01-11T14:39:24Z</time>
      </trkpt>
      <trkpt lat="43.80137" lon="3.57817">
        <ele>286.61</ele>
        <time>2015-01-11T14:39:31Z</time>
      </trkpt>
      <trkpt lat="43.80147" lon="3.57834">
        <ele>285.17</ele>
        <time>2015-01-11T14:39:45Z</time>
      </trkpt>
      <trkpt lat="43.80153" lon="3.57854">
        <ele>282.28</ele>
        <time>2015-01-11T14:39:58Z</time>
      </trkpt>
      <trkpt lat="43.80153" lon="3.57855">
        <ele>281.8</ele>
        <time>2015-01-11T14:39:59Z</time>
      </trkpt>
      <trkpt lat="43.80157" lon="3.57867">
        <ele>280.36</ele>
        <time>2015-01-11T14:40:07Z</time>
      </trkpt>
      <trkpt lat="43.80158" lon="3.57871">
        <ele>279.88</ele>
        <time>2015-01-11T14:40:09Z</time>
      </trkpt>
      <trkpt lat="43.80168" lon="3.57884">
        <ele>278.92</ele>
        <time>2015-01-11T14:40:21Z</time>
      </trkpt>
      <trkpt lat="43.8017" lon="3.57893">
        <ele>277.48</ele>
        <time>2015-01-11T14:40:29Z</time>
      </trkpt>
      <trkpt lat="43.80176" lon="3.57907">
        <ele>275.56</ele>
        <time>2015-01-11T14:40:38Z</time>
      </trkpt>
      <trkpt lat="43.8018" lon="3.57919">
        <ele>273.63</ele>
        <time>2015-01-11T14:40:48Z</time>
      </trkpt>
      <trkpt lat="43.8018" lon="3.57929">
        <ele>272.67</ele>
        <time>2015-01-11T14:40:56Z</time>
      </trkpt>
      <trkpt lat="43.80184" lon="3.57932">
        <ele>272.67</ele>
        <time>2015-01-11T14:40:59Z</time>
      </trkpt>
      <trkpt lat="43.80185" lon="3.57934">
        <ele>272.19</ele>
        <time>2015-01-11T14:41:00Z</time>
      </trkpt>
      <trkpt lat="43.80194" lon="3.57941">
        <ele>271.71</ele>
        <time>2015-01-11T14:41:08Z</time>
      </trkpt>
      <trkpt lat="43.80195" lon="3.57942">
        <ele>271.23</ele>
        <time>2015-01-11T14:41:09Z</time>
      </trkpt>
      <trkpt lat="43.80195" lon="3.57943">
        <ele>271.23</ele>
        <time>2015-01-11T14:41:10Z</time>
      </trkpt>
      <trkpt lat="43.80201" lon="3.5795">
        <ele>270.75</ele>
        <time>2015-01-11T14:41:18Z</time>
      </trkpt>
      <trkpt lat="43.80202" lon="3.57951">
        <ele>270.27</ele>
        <time>2015-01-11T14:41:19Z</time>
      </trkpt>
      <trkpt lat="43.80204" lon="3.57954">
        <ele>270.27</ele>
        <time>2015-01-11T14:41:20Z</time>
      </trkpt>
      <trkpt lat="43.8021" lon="3.57962">
        <ele>269.79</ele>
        <time>2015-01-11T14:41:27Z</time>
      </trkpt>
      <trkpt lat="43.80214" lon="3.57967">
        <ele>269.79</ele>
        <time>2015-01-11T14:41:31Z</time>
      </trkpt>
      <trkpt lat="43.80215" lon="3.57968">
        <ele>269.31</ele>
        <time>2015-01-11T14:41:32Z</time>
      </trkpt>
      <trkpt lat="43.80222" lon="3.57979">
        <ele>268.35</ele>
        <time>2015-01-11T14:41:41Z</time>
      </trkpt>
      <trkpt lat="43.80224" lon="3.5798">
        <ele>268.35</ele>
        <time>2015-01-11T14:41:42Z</time>
      </trkpt>
      <trkpt lat="43.80229" lon="3.57988">
        <ele>266.42</ele>
        <time>2015-01-11T14:41:49Z</time>
      </trkpt>
      <trkpt lat="43.80234" lon="3.57999">
        <ele>265.94</ele>
        <time>2015-01-11T14:41:57Z</time>
      </trkpt>
      <trkpt lat="43.80237" lon="3.58006">
        <ele>264.98</ele>
        <time>2015-01-11T14:42:00Z</time>
      </trkpt>
      <trkpt lat="43.80244" lon="3.58017">
        <ele>264.98</ele>
        <time>2015-01-11T14:42:09Z</time>
      </trkpt>
      <trkpt lat="43.80253" lon="3.58034">
        <ele>263.06</ele>
        <time>2015-01-11T14:42:24Z</time>
      </trkpt>
      <trkpt lat="43.80255" lon="3.58038">
        <ele>261.14</ele>
        <time>2015-01-11T14:42:31Z</time>
      </trkpt>
      <trkpt lat="43.80255" lon="3.58049">
        <ele>263.06</ele>
        <time>2015-01-11T14:42:45Z</time>
      </trkpt>
      <trkpt lat="43.80255" lon="3.58053">
        <ele>264.02</ele>
        <time>2015-01-11T14:42:57Z</time>
      </trkpt>
      <trkpt lat="43.80255" lon="3.58055">
        <ele>264.02</ele>
        <time>2015-01-11T14:43:14Z</time>
      </trkpt>
      <trkpt lat="43.80254" lon="3.58052">
        <ele>263.54</ele>
        <time>2015-01-11T14:43:25Z</time>
      </trkpt>
      <trkpt lat="43.80255" lon="3.58047">
        <ele>263.06</ele>
        <time>2015-01-11T14:43:38Z</time>
      </trkpt>
      <trkpt lat="43.80255" lon="3.58047">
        <ele>263.54</ele>
        <time>2015-01-11T14:43:55Z</time>
      </trkpt>
      <trkpt lat="43.80257" lon="3.58046">
        <ele>263.06</ele>
        <time>2015-01-11T14:44:23Z</time>
      </trkpt>
      <trkpt lat="43.80258" lon="3.58046">
        <ele>262.58</ele>
        <time>2015-01-11T14:44:52Z</time>
      </trkpt>
      <trkpt lat="43.80256" lon="3.58047">
        <ele>263.06</ele>
        <time>2015-01-11T14:45:07Z</time>
      </trkpt>
      <trkpt lat="43.8026" lon="3.58062">
        <ele>265.46</ele>
        <time>2015-01-11T14:45:19Z</time>
      </trkpt>
      <trkpt lat="43.80262" lon="3.58081">
        <ele>264.98</ele>
        <time>2015-01-11T14:45:32Z</time>
      </trkpt>
      <trkpt lat="43.80263" lon="3.58086">
        <ele>264.5</ele>
        <time>2015-01-11T14:45:35Z</time>
      </trkpt>
      <trkpt lat="43.80268" lon="3.58099">
        <ele>264.5</ele>
        <time>2015-01-11T14:45:45Z</time>
      </trkpt>
      <trkpt lat="43.80276" lon="3.58113">
        <ele>263.54</ele>
        <time>2015-01-11T14:45:56Z</time>
      </trkpt>
      <trkpt lat="43.80278" lon="3.58116">
        <ele>263.06</ele>
        <time>2015-01-11T14:45:58Z</time>
      </trkpt>
      <trkpt lat="43.80283" lon="3.5813">
        <ele>261.62</ele>
        <time>2015-01-11T14:46:08Z</time>
      </trkpt>
      <trkpt lat="43.80283" lon="3.58131">
        <ele>261.14</ele>
        <time>2015-01-11T14:46:09Z</time>
      </trkpt>
      <trkpt lat="43.80285" lon="3.58136">
        <ele>260.17</ele>
        <time>2015-01-11T14:46:14Z</time>
      </trkpt>
      <trkpt lat="43.80286" lon="3.58138">
        <ele>260.17</ele>
        <time>2015-01-11T14:46:16Z</time>
      </trkpt>
      <trkpt lat="43.80291" lon="3.58144">
        <ele>259.69</ele>
        <time>2015-01-11T14:46:23Z</time>
      </trkpt>
      <trkpt lat="43.80297" lon="3.58154">
        <ele>257.77</ele>
        <time>2015-01-11T14:46:33Z</time>
      </trkpt>
      <trkpt lat="43.80298" lon="3.58157">
        <ele>256.81</ele>
        <time>2015-01-11T14:46:35Z</time>
      </trkpt>
      <trkpt lat="43.80305" lon="3.58163">
        <ele>253.44</ele>
        <time>2015-01-11T14:46:45Z</time>
      </trkpt>
      <trkpt lat="43.80309" lon="3.58166">
        <ele>252</ele>
        <time>2015-01-11T14:46:52Z</time>
      </trkpt>
      <trkpt lat="43.80317" lon="3.58174">
        <ele>250.56</ele>
        <time>2015-01-11T14:47:02Z</time>
      </trkpt>
      <trkpt lat="43.8032" lon="3.58177">
        <ele>251.04</ele>
        <time>2015-01-11T14:47:06Z</time>
      </trkpt>
      <trkpt lat="43.80325" lon="3.58185">
        <ele>251.04</ele>
        <time>2015-01-11T14:47:11Z</time>
      </trkpt>
      <trkpt lat="43.80329" lon="3.58192">
        <ele>251.04</ele>
        <time>2015-01-11T14:47:17Z</time>
      </trkpt>
      <trkpt lat="43.80331" lon="3.58202">
        <ele>250.56</ele>
        <time>2015-01-11T14:47:23Z</time>
      </trkpt>
      <trkpt lat="43.80334" lon="3.58219">
        <ele>251.04</ele>
        <time>2015-01-11T14:47:32Z</time>
      </trkpt>
      <trkpt lat="43.80335" lon="3.58229">
        <ele>252</ele>
        <time>2015-01-11T14:47:49Z</time>
      </trkpt>
      <trkpt lat="43.80334" lon="3.58237">
        <ele>251.52</ele>
        <time>2015-01-11T14:48:07Z</time>
      </trkpt>
      <trkpt lat="43.80331" lon="3.58253">
        <ele>252</ele>
        <time>2015-01-11T14:48:19Z</time>
      </trkpt>
      <trkpt lat="43.80329" lon="3.58269">
        <ele>250.56</ele>
        <time>2015-01-11T14:48:32Z</time>
      </trkpt>
      <trkpt lat="43.80333" lon="3.58279">
        <ele>248.16</ele>
        <time>2015-01-11T14:48:41Z</time>
      </trkpt>
      <trkpt lat="43.80341" lon="3.58292">
        <ele>246.23</ele>
        <time>2015-01-11T14:48:55Z</time>
      </trkpt>
      <trkpt lat="43.80349" lon="3.58304">
        <ele>242.87</ele>
        <time>2015-01-11T14:49:05Z</time>
      </trkpt>
      <trkpt lat="43.80352" lon="3.58309">
        <ele>242.39</ele>
        <time>2015-01-11T14:49:10Z</time>
      </trkpt>
      <trkpt lat="43.80354" lon="3.58323">
        <ele>240.95</ele>
        <time>2015-01-11T14:49:19Z</time>
      </trkpt>
      <trkpt lat="43.80356" lon="3.58344">
        <ele>238.54</ele>
        <time>2015-01-11T14:49:33Z</time>
      </trkpt>
      <trkpt lat="43.80358" lon="3.58351">
        <ele>237.58</ele>
        <time>2015-01-11T14:49:38Z</time>
      </trkpt>
      <trkpt lat="43.80358" lon="3.5836">
        <ele>236.14</ele>
        <time>2015-01-11T14:49:44Z</time>
      </trkpt>
      <trkpt lat="43.80363" lon="3.5837">
        <ele>235.18</ele>
        <time>2015-01-11T14:49:51Z</time>
      </trkpt>
      <trkpt lat="43.80374" lon="3.58383">
        <ele>233.26</ele>
        <time>2015-01-11T14:50:03Z</time>
      </trkpt>
      <trkpt lat="43.80376" lon="3.58388">
        <ele>232.78</ele>
        <time>2015-01-11T14:50:07Z</time>
      </trkpt>
      <trkpt lat="43.8038" lon="3.58411">
        <ele>231.33</ele>
        <time>2015-01-11T14:50:20Z</time>
      </trkpt>
      <trkpt lat="43.8038" lon="3.58419">
        <ele>230.37</ele>
        <time>2015-01-11T14:50:25Z</time>
      </trkpt>
      <trkpt lat="43.80385" lon="3.58441">
        <ele>229.41</ele>
        <time>2015-01-11T14:50:38Z</time>
      </trkpt>
      <trkpt lat="43.80386" lon="3.58456">
        <ele>227.97</ele>
        <time>2015-01-11T14:50:48Z</time>
      </trkpt>
      <trkpt lat="43.80389" lon="3.58463">
        <ele>227.49</ele>
        <time>2015-01-11T14:50:52Z</time>
      </trkpt>
      <trkpt lat="43.8039" lon="3.5847">
        <ele>227.49</ele>
        <time>2015-01-11T14:50:55Z</time>
      </trkpt>
      <trkpt lat="43.80392" lon="3.58475">
        <ele>227.01</ele>
        <time>2015-01-11T14:50:59Z</time>
      </trkpt>
      <trkpt lat="43.80398" lon="3.58495">
        <ele>226.05</ele>
        <time>2015-01-11T14:51:12Z</time>
      </trkpt>
      <trkpt lat="43.80406" lon="3.58511">
        <ele>226.05</ele>
        <time>2015-01-11T14:51:23Z</time>
      </trkpt>
      <trkpt lat="43.80413" lon="3.5853">
        <ele>226.05</ele>
        <time>2015-01-11T14:51:35Z</time>
      </trkpt>
      <trkpt lat="43.80422" lon="3.5854">
        <ele>227.01</ele>
        <time>2015-01-11T14:51:47Z</time>
      </trkpt>
      <trkpt lat="43.80426" lon="3.58546">
        <ele>228.45</ele>
        <time>2015-01-11T14:51:52Z</time>
      </trkpt>
      <trkpt lat="43.80429" lon="3.58557">
        <ele>229.41</ele>
        <time>2015-01-11T14:52:03Z</time>
      </trkpt>
      <trkpt lat="43.80437" lon="3.58557">
        <ele>228.93</ele>
        <time>2015-01-11T14:52:14Z</time>
      </trkpt>
      <trkpt lat="43.80437" lon="3.58558">
        <ele>228.93</ele>
        <time>2015-01-11T14:52:16Z</time>
      </trkpt>
      <trkpt lat="43.80447" lon="3.58568">
        <ele>231.33</ele>
        <time>2015-01-11T14:52:30Z</time>
      </trkpt>
      <trkpt lat="43.80454" lon="3.58593">
        <ele>233.26</ele>
        <time>2015-01-11T14:52:50Z</time>
      </trkpt>
      <trkpt lat="43.80458" lon="3.58616">
        <ele>235.18</ele>
        <time>2015-01-11T14:53:06Z</time>
      </trkpt>
      <trkpt lat="43.80459" lon="3.5864">
        <ele>238.06</ele>
        <time>2015-01-11T14:53:24Z</time>
      </trkpt>
      <trkpt lat="43.80464" lon="3.58648">
        <ele>240.47</ele>
        <time>2015-01-11T14:53:39Z</time>
      </trkpt>
      <trkpt lat="43.80469" lon="3.58644">
        <ele>241.91</ele>
        <time>2015-01-11T14:53:52Z</time>
      </trkpt>
      <trkpt lat="43.80474" lon="3.58642">
        <ele>244.79</ele>
        <time>2015-01-11T14:54:02Z</time>
      </trkpt>
      <trkpt lat="43.80478" lon="3.58623">
        <ele>247.2</ele>
        <time>2015-01-11T14:54:18Z</time>
      </trkpt>
      <trkpt lat="43.8048" lon="3.58606">
        <ele>250.08</ele>
        <time>2015-01-11T14:54:34Z</time>
      </trkpt>
      <trkpt lat="43.80484" lon="3.58598">
        <ele>252</ele>
        <time>2015-01-11T14:54:47Z</time>
      </trkpt>
      <trkpt lat="43.80487" lon="3.58597">
        <ele>252.48</ele>
        <time>2015-01-11T14:55:05Z</time>
      </trkpt>
      <trkpt lat="43.80486" lon="3.58596">
        <ele>252</ele>
        <time>2015-01-11T14:55:28Z</time>
      </trkpt>
      <trkpt lat="43.8049" lon="3.58607">
        <ele>252.96</ele>
        <time>2015-01-11T14:55:43Z</time>
      </trkpt>
      <trkpt lat="43.80499" lon="3.58624">
        <ele>253.93</ele>
        <time>2015-01-11T14:55:58Z</time>
      </trkpt>
      <trkpt lat="43.80505" lon="3.58641">
        <ele>255.85</ele>
        <time>2015-01-11T14:56:15Z</time>
      </trkpt>
      <trkpt lat="43.80514" lon="3.58652">
        <ele>256.33</ele>
        <time>2015-01-11T14:56:27Z</time>
      </trkpt>
      <trkpt lat="43.80516" lon="3.58655">
        <ele>256.81</ele>
        <time>2015-01-11T14:56:29Z</time>
      </trkpt>
      <trkpt lat="43.80524" lon="3.58664">
        <ele>257.29</ele>
        <time>2015-01-11T14:56:37Z</time>
      </trkpt>
      <trkpt lat="43.80533" lon="3.58671">
        <ele>257.77</ele>
        <time>2015-01-11T14:56:46Z</time>
      </trkpt>
      <trkpt lat="43.80535" lon="3.58671">
        <ele>258.73</ele>
        <time>2015-01-11T14:56:48Z</time>
      </trkpt>
      <trkpt lat="43.80538" lon="3.58673">
        <ele>259.69</ele>
        <time>2015-01-11T14:56:54Z</time>
      </trkpt>
      <trkpt lat="43.80546" lon="3.5868">
        <ele>261.14</ele>
        <time>2015-01-11T14:57:04Z</time>
      </trkpt>
      <trkpt lat="43.80555" lon="3.58681">
        <ele>262.58</ele>
        <time>2015-01-11T14:57:16Z</time>
      </trkpt>
      <trkpt lat="43.80564" lon="3.58687">
        <ele>264.98</ele>
        <time>2015-01-11T14:57:29Z</time>
      </trkpt>
      <trkpt lat="43.80567" lon="3.58694">
        <ele>267.86</ele>
        <time>2015-01-11T14:57:44Z</time>
      </trkpt>
      <trkpt lat="43.80576" lon="3.58693">
        <ele>268.83</ele>
        <time>2015-01-11T14:58:02Z</time>
      </trkpt>
      <trkpt lat="43.80577" lon="3.58694">
        <ele>268.35</ele>
        <time>2015-01-11T14:58:09Z</time>
      </trkpt>
      <trkpt lat="43.80588" lon="3.58689">
        <ele>267.38</ele>
        <time>2015-01-11T14:58:20Z</time>
      </trkpt>
      <trkpt lat="43.80596" lon="3.58692">
        <ele>264.5</ele>
        <time>2015-01-11T14:58:35Z</time>
      </trkpt>
      <trkpt lat="43.80598" lon="3.58692">
        <ele>264.02</ele>
        <time>2015-01-11T14:58:37Z</time>
      </trkpt>
      <trkpt lat="43.80609" lon="3.58701">
        <ele>262.58</ele>
        <time>2015-01-11T14:58:51Z</time>
      </trkpt>
      <trkpt lat="43.80614" lon="3.58704">
        <ele>261.62</ele>
        <time>2015-01-11T14:59:05Z</time>
      </trkpt>
      <trkpt lat="43.80616" lon="3.58716">
        <ele>261.62</ele>
        <time>2015-01-11T14:59:18Z</time>
      </trkpt>
      <trkpt lat="43.80617" lon="3.58717">
        <ele>259.69</ele>
        <time>2015-01-11T14:59:23Z</time>
      </trkpt>
      <trkpt lat="43.8062" lon="3.58711">
        <ele>259.69</ele>
        <time>2015-01-11T14:59:35Z</time>
      </trkpt>
      <trkpt lat="43.8062" lon="3.58712">
        <ele>258.25</ele>
        <time>2015-01-11T14:59:42Z</time>
      </trkpt>
      <trkpt lat="43.80623" lon="3.58718">
        <ele>257.77</ele>
        <time>2015-01-11T14:59:48Z</time>
      </trkpt>
      <trkpt lat="43.80623" lon="3.5872">
        <ele>257.29</ele>
        <time>2015-01-11T14:59:50Z</time>
      </trkpt>
      <trkpt lat="43.80624" lon="3.58731">
        <ele>255.85</ele>
        <time>2015-01-11T15:00:00Z</time>
      </trkpt>
      <trkpt lat="43.80623" lon="3.58743">
        <ele>253.93</ele>
        <time>2015-01-11T15:00:12Z</time>
      </trkpt>
      <trkpt lat="43.80623" lon="3.58745">
        <ele>253.44</ele>
        <time>2015-01-11T15:00:13Z</time>
      </trkpt>
      <trkpt lat="43.80623" lon="3.58757">
        <ele>251.04</ele>
        <time>2015-01-11T15:00:21Z</time>
      </trkpt>
      <trkpt lat="43.80631" lon="3.5876">
        <ele>249.6</ele>
        <time>2015-01-11T15:00:30Z</time>
      </trkpt>
      <trkpt lat="43.80641" lon="3.58752">
        <ele>248.16</ele>
        <time>2015-01-11T15:00:39Z</time>
      </trkpt>
      <trkpt lat="43.80642" lon="3.5875">
        <ele>247.68</ele>
        <time>2015-01-11T15:00:40Z</time>
      </trkpt>
      <trkpt lat="43.80649" lon="3.5874">
        <ele>247.2</ele>
        <time>2015-01-11T15:00:45Z</time>
      </trkpt>
      <trkpt lat="43.8065" lon="3.58727">
        <ele>245.27</ele>
        <time>2015-01-11T15:00:55Z</time>
      </trkpt>
      <trkpt lat="43.80651" lon="3.58715">
        <ele>244.79</ele>
        <time>2015-01-11T15:01:00Z</time>
      </trkpt>
      <trkpt lat="43.8065" lon="3.58712">
        <ele>245.27</ele>
        <time>2015-01-11T15:01:01Z</time>
      </trkpt>
      <trkpt lat="43.8065" lon="3.58709">
        <ele>244.79</ele>
        <time>2015-01-11T15:01:02Z</time>
      </trkpt>
      <trkpt lat="43.8065" lon="3.58707">
        <ele>244.79</ele>
        <time>2015-01-11T15:01:03Z</time>
      </trkpt>
      <trkpt lat="43.8065" lon="3.58705">
        <ele>244.79</ele>
        <time>2015-01-11T15:01:04Z</time>
      </trkpt>
      <trkpt lat="43.8065" lon="3.58703">
        <ele>244.31</ele>
        <time>2015-01-11T15:01:05Z</time>
      </trkpt>
      <trkpt lat="43.8065" lon="3.58701">
        <ele>244.31</ele>
        <time>2015-01-11T15:01:06Z</time>
      </trkpt>
      <trkpt lat="43.8065" lon="3.58693">
        <ele>243.35</ele>
        <time>2015-01-11T15:01:12Z</time>
      </trkpt>
      <trkpt lat="43.80651" lon="3.58691">
        <ele>243.35</ele>
        <time>2015-01-11T15:01:13Z</time>
      </trkpt>
      <trkpt lat="43.80652" lon="3.58689">
        <ele>242.87</ele>
        <time>2015-01-11T15:01:14Z</time>
      </trkpt>
      <trkpt lat="43.80653" lon="3.58688">
        <ele>243.35</ele>
        <time>2015-01-11T15:01:15Z</time>
      </trkpt>
      <trkpt lat="43.80654" lon="3.58687">
        <ele>242.87</ele>
        <time>2015-01-11T15:01:16Z</time>
      </trkpt>
      <trkpt lat="43.80656" lon="3.58686">
        <ele>242.39</ele>
        <time>2015-01-11T15:01:17Z</time>
      </trkpt>
      <trkpt lat="43.8066" lon="3.58688">
        <ele>241.91</ele>
        <time>2015-01-11T15:01:22Z</time>
      </trkpt>
      <trkpt lat="43.80661" lon="3.5869">
        <ele>241.91</ele>
        <time>2015-01-11T15:01:23Z</time>
      </trkpt>
      <trkpt lat="43.80662" lon="3.58692">
        <ele>241.43</ele>
        <time>2015-01-11T15:01:24Z</time>
      </trkpt>
      <trkpt lat="43.80662" lon="3.58695">
        <ele>241.91</ele>
        <time>2015-01-11T15:01:25Z</time>
      </trkpt>
      <trkpt lat="43.80662" lon="3.58698">
        <ele>241.43</ele>
        <time>2015-01-11T15:01:26Z</time>
      </trkpt>
      <trkpt lat="43.80666" lon="3.58709">
        <ele>239.51</ele>
        <time>2015-01-11T15:01:34Z</time>
      </trkpt>
      <trkpt lat="43.80666" lon="3.58711">
        <ele>239.02</ele>
        <time>2015-01-11T15:01:35Z</time>
      </trkpt>
      <trkpt lat="43.80666" lon="3.58713">
        <ele>239.51</ele>
        <time>2015-01-11T15:01:36Z</time>
      </trkpt>
      <trkpt lat="43.80666" lon="3.58715">
        <ele>239.51</ele>
        <time>2015-01-11T15:01:37Z</time>
      </trkpt>
      <trkpt lat="43.80666" lon="3.58717">
        <ele>239.99</ele>
        <time>2015-01-11T15:01:38Z</time>
      </trkpt>
      <trkpt lat="43.80666" lon="3.58719">
        <ele>239.99</ele>
        <time>2015-01-11T15:01:39Z</time>
      </trkpt>
      <trkpt lat="43.80666" lon="3.5872">
        <ele>239.99</ele>
        <time>2015-01-11T15:01:40Z</time>
      </trkpt>
      <trkpt lat="43.80662" lon="3.58742">
        <ele>238.06</ele>
        <time>2015-01-11T15:01:53Z</time>
      </trkpt>
      <trkpt lat="43.80658" lon="3.58763">
        <ele>236.62</ele>
        <time>2015-01-11T15:02:05Z</time>
      </trkpt>
      <trkpt lat="43.8066" lon="3.58766">
        <ele>236.14</ele>
        <time>2015-01-11T15:02:09Z</time>
      </trkpt>
      <trkpt lat="43.80661" lon="3.58767">
        <ele>236.14</ele>
        <time>2015-01-11T15:02:10Z</time>
      </trkpt>
      <trkpt lat="43.80662" lon="3.58768">
        <ele>235.66</ele>
        <time>2015-01-11T15:02:11Z</time>
      </trkpt>
      <trkpt lat="43.80666" lon="3.58764">
        <ele>234.7</ele>
        <time>2015-01-11T15:02:18Z</time>
      </trkpt>
      <trkpt lat="43.80667" lon="3.58762">
        <ele>235.18</ele>
        <time>2015-01-11T15:02:19Z</time>
      </trkpt>
      <trkpt lat="43.80668" lon="3.5876">
        <ele>234.7</ele>
        <time>2015-01-11T15:02:20Z</time>
      </trkpt>
      <trkpt lat="43.8067" lon="3.58756">
        <ele>234.22</ele>
        <time>2015-01-11T15:02:24Z</time>
      </trkpt>
      <trkpt lat="43.8067" lon="3.58754">
        <ele>234.22</ele>
        <time>2015-01-11T15:02:25Z</time>
      </trkpt>
      <trkpt lat="43.80671" lon="3.58752">
        <ele>234.22</ele>
        <time>2015-01-11T15:02:26Z</time>
      </trkpt>
      <trkpt lat="43.80672" lon="3.58749">
        <ele>233.74</ele>
        <time>2015-01-11T15:02:29Z</time>
      </trkpt>
      <trkpt lat="43.80673" lon="3.58748">
        <ele>233.74</ele>
        <time>2015-01-11T15:02:30Z</time>
      </trkpt>
      <trkpt lat="43.80674" lon="3.58746">
        <ele>233.26</ele>
        <time>2015-01-11T15:02:31Z</time>
      </trkpt>
      <trkpt lat="43.80674" lon="3.58744">
        <ele>233.74</ele>
        <time>2015-01-11T15:02:32Z</time>
      </trkpt>
      <trkpt lat="43.80676" lon="3.58746">
        <ele>232.3</ele>
        <time>2015-01-11T15:02:42Z</time>
      </trkpt>
      <trkpt lat="43.80674" lon="3.58752">
        <ele>230.85</ele>
        <time>2015-01-11T15:02:49Z</time>
      </trkpt>
      <trkpt lat="43.80674" lon="3.58757">
        <ele>228.93</ele>
        <time>2015-01-11T15:03:00Z</time>
      </trkpt>
      <trkpt lat="43.80676" lon="3.58754">
        <ele>228.45</ele>
        <time>2015-01-11T15:03:07Z</time>
      </trkpt>
      <trkpt lat="43.80685" lon="3.58748">
        <ele>226.05</ele>
        <time>2015-01-11T15:03:19Z</time>
      </trkpt>
      <trkpt lat="43.80691" lon="3.58751">
        <ele>224.12</ele>
        <time>2015-01-11T15:03:28Z</time>
      </trkpt>
      <trkpt lat="43.80689" lon="3.58756">
        <ele>223.64</ele>
        <time>2015-01-11T15:03:31Z</time>
      </trkpt>
      <trkpt lat="43.80688" lon="3.58763">
        <ele>222.68</ele>
        <time>2015-01-11T15:03:37Z</time>
      </trkpt>
      <trkpt lat="43.80688" lon="3.58767">
        <ele>222.2</ele>
        <time>2015-01-11T15:03:40Z</time>
      </trkpt>
      <trkpt lat="43.80687" lon="3.58782">
        <ele>219.32</ele>
        <time>2015-01-11T15:03:52Z</time>
      </trkpt>
      <trkpt lat="43.80686" lon="3.58794">
        <ele>217.88</ele>
        <time>2015-01-11T15:04:00Z</time>
      </trkpt>
      <trkpt lat="43.80686" lon="3.58796">
        <ele>217.88</ele>
        <time>2015-01-11T15:04:01Z</time>
      </trkpt>
      <trkpt lat="43.80687" lon="3.58806">
        <ele>216.43</ele>
        <time>2015-01-11T15:04:06Z</time>
      </trkpt>
      <trkpt lat="43.80688" lon="3.5881">
        <ele>215.47</ele>
        <time>2015-01-11T15:04:09Z</time>
      </trkpt>
      <trkpt lat="43.80692" lon="3.58822">
        <ele>214.03</ele>
        <time>2015-01-11T15:04:23Z</time>
      </trkpt>
      <trkpt lat="43.80692" lon="3.58823">
        <ele>214.03</ele>
        <time>2015-01-11T15:04:27Z</time>
      </trkpt>
      <trkpt lat="43.80691" lon="3.58838">
        <ele>213.07</ele>
        <time>2015-01-11T15:04:37Z</time>
      </trkpt>
      <trkpt lat="43.8069" lon="3.58845">
        <ele>212.59</ele>
        <time>2015-01-11T15:04:41Z</time>
      </trkpt>
      <trkpt lat="43.8069" lon="3.58856">
        <ele>211.15</ele>
        <time>2015-01-11T15:04:50Z</time>
      </trkpt>
      <trkpt lat="43.80691" lon="3.58871">
        <ele>210.67</ele>
        <time>2015-01-11T15:04:58Z</time>
      </trkpt>
      <trkpt lat="43.80689" lon="3.58884">
        <ele>210.19</ele>
        <time>2015-01-11T15:05:06Z</time>
      </trkpt>
      <trkpt lat="43.80687" lon="3.58896">
        <ele>209.22</ele>
        <time>2015-01-11T15:05:14Z</time>
      </trkpt>
      <trkpt lat="43.80692" lon="3.58915">
        <ele>208.26</ele>
        <time>2015-01-11T15:05:25Z</time>
      </trkpt>
      <trkpt lat="43.80693" lon="3.58922">
        <ele>207.78</ele>
        <time>2015-01-11T15:05:29Z</time>
      </trkpt>
      <trkpt lat="43.80696" lon="3.58944">
        <ele>206.82</ele>
        <time>2015-01-11T15:05:41Z</time>
      </trkpt>
      <trkpt lat="43.80696" lon="3.5895">
        <ele>206.34</ele>
        <time>2015-01-11T15:05:44Z</time>
      </trkpt>
      <trkpt lat="43.80695" lon="3.58955">
        <ele>206.82</ele>
        <time>2015-01-11T15:05:50Z</time>
      </trkpt>
      <trkpt lat="43.80701" lon="3.58969">
        <ele>203.94</ele>
        <time>2015-01-11T15:06:02Z</time>
      </trkpt>
      <trkpt lat="43.80699" lon="3.5899">
        <ele>200.57</ele>
        <time>2015-01-11T15:06:19Z</time>
      </trkpt>
      <trkpt lat="43.80698" lon="3.58991">
        <ele>200.57</ele>
        <time>2015-01-11T15:06:20Z</time>
      </trkpt>
      <trkpt lat="43.80694" lon="3.5901">
        <ele>198.65</ele>
        <time>2015-01-11T15:06:33Z</time>
      </trkpt>
      <trkpt lat="43.80692" lon="3.59026">
        <ele>197.21</ele>
        <time>2015-01-11T15:06:45Z</time>
      </trkpt>
      <trkpt lat="43.80694" lon="3.59042">
        <ele>195.77</ele>
        <time>2015-01-11T15:06:56Z</time>
      </trkpt>
      <trkpt lat="43.80694" lon="3.59055">
        <ele>193.84</ele>
        <time>2015-01-11T15:07:04Z</time>
      </trkpt>
      <trkpt lat="43.80698" lon="3.59075">
        <ele>192.88</ele>
        <time>2015-01-11T15:07:15Z</time>
      </trkpt>
      <trkpt lat="43.80697" lon="3.59086">
        <ele>191.92</ele>
        <time>2015-01-11T15:07:22Z</time>
      </trkpt>
      <trkpt lat="43.8069" lon="3.59094">
        <ele>190</ele>
        <time>2015-01-11T15:07:29Z</time>
      </trkpt>
      <trkpt lat="43.80685" lon="3.59112">
        <ele>188.56</ele>
        <time>2015-01-11T15:07:41Z</time>
      </trkpt>
      <trkpt lat="43.80686" lon="3.59133">
        <ele>186.15</ele>
        <time>2015-01-11T15:07:56Z</time>
      </trkpt>
      <trkpt lat="43.80687" lon="3.59137">
        <ele>185.19</ele>
        <time>2015-01-11T15:08:00Z</time>
      </trkpt>
      <trkpt lat="43.80701" lon="3.59149">
        <ele>186.63</ele>
        <time>2015-01-11T15:08:15Z</time>
      </trkpt>
      <trkpt lat="43.80718" lon="3.5916">
        <ele>184.71</ele>
        <time>2015-01-11T15:08:29Z</time>
      </trkpt>
      <trkpt lat="43.8072" lon="3.59163">
        <ele>183.75</ele>
        <time>2015-01-11T15:08:33Z</time>
      </trkpt>
      <trkpt lat="43.80723" lon="3.59171">
        <ele>182.79</ele>
        <time>2015-01-11T15:08:37Z</time>
      </trkpt>
      <trkpt lat="43.80728" lon="3.5918">
        <ele>182.79</ele>
        <time>2015-01-11T15:08:44Z</time>
      </trkpt>
      <trkpt lat="43.8074" lon="3.59173">
        <ele>181.83</ele>
        <time>2015-01-11T15:08:52Z</time>
      </trkpt>
      <trkpt lat="43.80749" lon="3.59182">
        <ele>179.42</ele>
        <time>2015-01-11T15:09:03Z</time>
      </trkpt>
      <trkpt lat="43.8075" lon="3.59204">
        <ele>176.06</ele>
        <time>2015-01-11T15:09:14Z</time>
      </trkpt>
      <trkpt lat="43.80752" lon="3.59207">
        <ele>175.58</ele>
        <time>2015-01-11T15:09:17Z</time>
      </trkpt>
      <trkpt lat="43.80769" lon="3.5921">
        <ele>174.14</ele>
        <time>2015-01-11T15:09:29Z</time>
      </trkpt>
      <trkpt lat="43.80783" lon="3.59215">
        <ele>173.17</ele>
        <time>2015-01-11T15:09:39Z</time>
      </trkpt>
      <trkpt lat="43.80798" lon="3.59215">
        <ele>172.69</ele>
        <time>2015-01-11T15:09:49Z</time>
      </trkpt>
      <trkpt lat="43.80802" lon="3.59223">
        <ele>170.77</ele>
        <time>2015-01-11T15:09:57Z</time>
      </trkpt>
      <trkpt lat="43.80812" lon="3.59237">
        <ele>169.33</ele>
        <time>2015-01-11T15:10:10Z</time>
      </trkpt>
      <trkpt lat="43.80824" lon="3.59244">
        <ele>167.89</ele>
        <time>2015-01-11T15:10:21Z</time>
      </trkpt>
      <trkpt lat="43.80831" lon="3.59248">
        <ele>166.93</ele>
        <time>2015-01-11T15:10:31Z</time>
      </trkpt>
      <trkpt lat="43.80839" lon="3.59249">
        <ele>168.37</ele>
        <time>2015-01-11T15:10:43Z</time>
      </trkpt>
      <trkpt lat="43.80833" lon="3.5925">
        <ele>167.41</ele>
        <time>2015-01-11T15:10:55Z</time>
      </trkpt>
      <trkpt lat="43.80834" lon="3.59253">
        <ele>168.37</ele>
        <time>2015-01-11T15:11:09Z</time>
      </trkpt>
      <trkpt lat="43.80836" lon="3.59257">
        <ele>169.33</ele>
        <time>2015-01-11T15:11:27Z</time>
      </trkpt>
      <trkpt lat="43.80835" lon="3.59262">
        <ele>169.33</ele>
        <time>2015-01-11T15:11:32Z</time>
      </trkpt>
      <trkpt lat="43.80833" lon="3.59259">
        <ele>169.81</ele>
        <time>2015-01-11T15:11:42Z</time>
      </trkpt>
      <trkpt lat="43.80835" lon="3.59255">
        <ele>169.33</ele>
        <time>2015-01-11T15:11:57Z</time>
      </trkpt>
      <trkpt lat="43.80836" lon="3.59255">
        <ele>168.85</ele>
        <time>2015-01-11T15:12:01Z</time>
      </trkpt>
      <trkpt lat="43.80835" lon="3.59259">
        <ele>168.85</ele>
        <time>2015-01-11T15:12:13Z</time>
      </trkpt>
      <trkpt lat="43.80833" lon="3.59273">
        <ele>167.41</ele>
        <time>2015-01-11T15:12:28Z</time>
      </trkpt>
      <trkpt lat="43.8083" lon="3.59287">
        <ele>167.41</ele>
        <time>2015-01-11T15:12:42Z</time>
      </trkpt>
      <trkpt lat="43.80829" lon="3.59282">
        <ele>167.41</ele>
        <time>2015-01-11T15:12:57Z</time>
      </trkpt>
      <trkpt lat="43.80826" lon="3.59283">
        <ele>166.93</ele>
        <time>2015-01-11T15:13:21Z</time>
      </trkpt>
      <trkpt lat="43.80828" lon="3.59284">
        <ele>167.41</ele>
        <time>2015-01-11T15:13:41Z</time>
      </trkpt>
      <trkpt lat="43.80829" lon="3.59284">
        <ele>167.41</ele>
        <time>2015-01-11T15:13:45Z</time>
      </trkpt>
      <trkpt lat="43.80828" lon="3.59302">
        <ele>168.37</ele>
        <time>2015-01-11T15:13:55Z</time>
      </trkpt>
      <trkpt lat="43.80827" lon="3.59305">
        <ele>168.37</ele>
        <time>2015-01-11T15:13:57Z</time>
      </trkpt>
      <trkpt lat="43.8083" lon="3.59316">
        <ele>168.37</ele>
        <time>2015-01-11T15:14:02Z</time>
      </trkpt>
      <trkpt lat="43.80832" lon="3.59319">
        <ele>168.37</ele>
        <time>2015-01-11T15:14:05Z</time>
      </trkpt>
      <trkpt lat="43.80848" lon="3.5932">
        <ele>168.37</ele>
        <time>2015-01-11T15:14:19Z</time>
      </trkpt>
      <trkpt lat="43.80863" lon="3.59321">
        <ele>168.37</ele>
        <time>2015-01-11T15:14:30Z</time>
      </trkpt>
      <trkpt lat="43.80875" lon="3.59321">
        <ele>167.89</ele>
        <time>2015-01-11T15:14:42Z</time>
      </trkpt>
      <trkpt lat="43.80888" lon="3.59318">
        <ele>166.93</ele>
        <time>2015-01-11T15:14:53Z</time>
      </trkpt>
      <trkpt lat="43.80904" lon="3.59319">
        <ele>166.93</ele>
        <time>2015-01-11T15:15:06Z</time>
      </trkpt>
      <trkpt lat="43.80918" lon="3.59319">
        <ele>165.96</ele>
        <time>2015-01-11T15:15:17Z</time>
      </trkpt>
      <trkpt lat="43.8092" lon="3.59318">
        <ele>165.96</ele>
        <time>2015-01-11T15:15:19Z</time>
      </trkpt>
      <trkpt lat="43.80933" lon="3.59318">
        <ele>165.48</ele>
        <time>2015-01-11T15:15:29Z</time>
      </trkpt>
      <trkpt lat="43.80938" lon="3.59317">
        <ele>165</ele>
        <time>2015-01-11T15:15:34Z</time>
      </trkpt>
      <trkpt lat="43.8094" lon="3.59317">
        <ele>165.48</ele>
        <time>2015-01-11T15:15:36Z</time>
      </trkpt>
      <trkpt lat="43.80954" lon="3.59305">
        <ele>165</ele>
        <time>2015-01-11T15:15:49Z</time>
      </trkpt>
      <trkpt lat="43.80965" lon="3.59285">
        <ele>165</ele>
        <time>2015-01-11T15:16:04Z</time>
      </trkpt>
      <trkpt lat="43.80973" lon="3.59276">
        <ele>164.52</ele>
        <time>2015-01-11T15:16:12Z</time>
      </trkpt>
      <trkpt lat="43.80976" lon="3.59272">
        <ele>164.52</ele>
        <time>2015-01-11T15:16:16Z</time>
      </trkpt>
      <trkpt lat="43.80977" lon="3.5927">
        <ele>164.04</ele>
        <time>2015-01-11T15:16:17Z</time>
      </trkpt>
      <trkpt lat="43.8098" lon="3.59265">
        <ele>164.52</ele>
        <time>2015-01-11T15:16:21Z</time>
      </trkpt>
      <trkpt lat="43.80983" lon="3.59261">
        <ele>163.56</ele>
        <time>2015-01-11T15:16:26Z</time>
      </trkpt>
      <trkpt lat="43.80984" lon="3.59259">
        <ele>163.08</ele>
        <time>2015-01-11T15:16:27Z</time>
      </trkpt>
      <trkpt lat="43.80985" lon="3.59258">
        <ele>163.08</ele>
        <time>2015-01-11T15:16:28Z</time>
      </trkpt>
      <trkpt lat="43.80986" lon="3.59256">
        <ele>163.08</ele>
        <time>2015-01-11T15:16:29Z</time>
      </trkpt>
      <trkpt lat="43.80987" lon="3.59254">
        <ele>163.56</ele>
        <time>2015-01-11T15:16:30Z</time>
      </trkpt>
      <trkpt lat="43.80988" lon="3.59253">
        <ele>163.08</ele>
        <time>2015-01-11T15:16:31Z</time>
      </trkpt>
      <trkpt lat="43.80989" lon="3.59251">
        <ele>163.08</ele>
        <time>2015-01-11T15:16:32Z</time>
      </trkpt>
      <trkpt lat="43.80991" lon="3.5925">
        <ele>163.08</ele>
        <time>2015-01-11T15:16:33Z</time>
      </trkpt>
      <trkpt lat="43.81004" lon="3.5924">
        <ele>162.6</ele>
        <time>2015-01-11T15:16:45Z</time>
      </trkpt>
      <trkpt lat="43.81015" lon="3.59232">
        <ele>162.12</ele>
        <time>2015-01-11T15:16:55Z</time>
      </trkpt>
      <trkpt lat="43.81016" lon="3.59232">
        <ele>161.64</ele>
        <time>2015-01-11T15:16:56Z</time>
      </trkpt>
      <trkpt lat="43.81017" lon="3.59231">
        <ele>161.64</ele>
        <time>2015-01-11T15:16:57Z</time>
      </trkpt>
      <trkpt lat="43.81019" lon="3.59231">
        <ele>161.64</ele>
        <time>2015-01-11T15:16:58Z</time>
      </trkpt>
      <trkpt lat="43.8102" lon="3.5923">
        <ele>162.12</ele>
        <time>2015-01-11T15:16:59Z</time>
      </trkpt>
      <trkpt lat="43.81022" lon="3.5923">
        <ele>161.64</ele>
        <time>2015-01-11T15:17:00Z</time>
      </trkpt>
      <trkpt lat="43.81023" lon="3.5923">
        <ele>161.64</ele>
        <time>2015-01-11T15:17:01Z</time>
      </trkpt>
      <trkpt lat="43.8104" lon="3.59221">
        <ele>161.16</ele>
        <time>2015-01-11T15:17:15Z</time>
      </trkpt>
      <trkpt lat="43.81051" lon="3.59214">
        <ele>161.64</ele>
        <time>2015-01-11T15:17:25Z</time>
      </trkpt>
      <trkpt lat="43.81051" lon="3.59213">
        <ele>162.12</ele>
        <time>2015-01-11T15:17:26Z</time>
      </trkpt>
      <trkpt lat="43.81052" lon="3.59212">
        <ele>162.6</ele>
        <time>2015-01-11T15:17:27Z</time>
      </trkpt>
      <trkpt lat="43.81053" lon="3.59211">
        <ele>162.6</ele>
        <time>2015-01-11T15:17:28Z</time>
      </trkpt>
      <trkpt lat="43.81055" lon="3.59211">
        <ele>162.12</ele>
        <time>2015-01-11T15:17:29Z</time>
      </trkpt>
      <trkpt lat="43.81056" lon="3.5921">
        <ele>162.6</ele>
        <time>2015-01-11T15:17:30Z</time>
      </trkpt>
      <trkpt lat="43.8107" lon="3.59205">
        <ele>162.6</ele>
        <time>2015-01-11T15:17:41Z</time>
      </trkpt>
      <trkpt lat="43.81081" lon="3.59202">
        <ele>162.12</ele>
        <time>2015-01-11T15:17:50Z</time>
      </trkpt>
      <trkpt lat="43.81082" lon="3.59202">
        <ele>162.12</ele>
        <time>2015-01-11T15:17:51Z</time>
      </trkpt>
      <trkpt lat="43.81084" lon="3.59201">
        <ele>162.12</ele>
        <time>2015-01-11T15:17:52Z</time>
      </trkpt>
      <trkpt lat="43.81085" lon="3.59201">
        <ele>162.6</ele>
        <time>2015-01-11T15:17:53Z</time>
      </trkpt>
      <trkpt lat="43.81097" lon="3.592">
        <ele>162.6</ele>
        <time>2015-01-11T15:18:03Z</time>
      </trkpt>
      <trkpt lat="43.81107" lon="3.592">
        <ele>164.04</ele>
        <time>2015-01-11T15:18:12Z</time>
      </trkpt>
      <trkpt lat="43.81111" lon="3.59198">
        <ele>164.52</ele>
        <time>2015-01-11T15:18:15Z</time>
      </trkpt>
      <trkpt lat="43.81112" lon="3.59196">
        <ele>164.52</ele>
        <time>2015-01-11T15:18:16Z</time>
      </trkpt>
      <trkpt lat="43.81113" lon="3.59194">
        <ele>164.52</ele>
        <time>2015-01-11T15:18:17Z</time>
      </trkpt>
      <trkpt lat="43.81113" lon="3.59193">
        <ele>164.52</ele>
        <time>2015-01-11T15:18:18Z</time>
      </trkpt>
      <trkpt lat="43.81114" lon="3.59191">
        <ele>164.52</ele>
        <time>2015-01-11T15:18:19Z</time>
      </trkpt>
      <trkpt lat="43.81114" lon="3.59189">
        <ele>164.52</ele>
        <time>2015-01-11T15:18:20Z</time>
      </trkpt>
      <trkpt lat="43.81114" lon="3.59174">
        <ele>163.56</ele>
        <time>2015-01-11T15:18:33Z</time>
      </trkpt>
      <trkpt lat="43.81114" lon="3.59171">
        <ele>163.08</ele>
        <time>2015-01-11T15:18:48Z</time>
      </trkpt>
      <trkpt lat="43.81113" lon="3.59172">
        <ele>163.08</ele>
        <time>2015-01-11T15:19:00Z</time>
      </trkpt>
      <trkpt lat="43.81114" lon="3.59175">
        <ele>162.6</ele>
        <time>2015-01-11T15:19:14Z</time>
      </trkpt>
      <trkpt lat="43.81114" lon="3.59176">
        <ele>162.6</ele>
        <time>2015-01-11T15:19:33Z</time>
      </trkpt>
      <trkpt lat="43.81115" lon="3.59175">
        <ele>163.08</ele>
        <time>2015-01-11T15:19:49Z</time>
      </trkpt>
      <trkpt lat="43.81115" lon="3.59175">
        <ele>162.6</ele>
        <time>2015-01-11T15:20:09Z</time>
      </trkpt>
      <trkpt lat="43.81114" lon="3.59176">
        <ele>163.56</ele>
        <time>2015-01-11T15:20:27Z</time>
      </trkpt>
      <trkpt lat="43.81113" lon="3.59174">
        <ele>163.56</ele>
        <time>2015-01-11T15:20:49Z</time>
      </trkpt>
      <trkpt lat="43.81115" lon="3.59175">
        <ele>163.56</ele>
        <time>2015-01-11T15:21:08Z</time>
      </trkpt>
      <trkpt lat="43.81115" lon="3.59174">
        <ele>163.08</ele>
        <time>2015-01-11T15:21:28Z</time>
      </trkpt>
      <trkpt lat="43.81116" lon="3.59174">
        <ele>163.56</ele>
        <time>2015-01-11T15:21:29Z</time>
      </trkpt>
      <trkpt lat="43.81117" lon="3.59171">
        <ele>163.56</ele>
        <time>2015-01-11T15:21:31Z</time>
      </trkpt>
      <trkpt lat="43.81118" lon="3.59169">
        <ele>164.04</ele>
        <time>2015-01-11T15:21:32Z</time>
      </trkpt>
      <trkpt lat="43.81119" lon="3.59168">
        <ele>163.56</ele>
        <time>2015-01-11T15:21:33Z</time>
      </trkpt>
      <trkpt lat="43.81129" lon="3.59162">
        <ele>163.08</ele>
        <time>2015-01-11T15:21:43Z</time>
      </trkpt>
      <trkpt lat="43.81146" lon="3.59157">
        <ele>163.56</ele>
        <time>2015-01-11T15:21:58Z</time>
      </trkpt>
      <trkpt lat="43.81158" lon="3.59149">
        <ele>163.08</ele>
        <time>2015-01-11T15:22:09Z</time>
      </trkpt>
      <trkpt lat="43.81173" lon="3.59141">
        <ele>163.08</ele>
        <time>2015-01-11T15:22:21Z</time>
      </trkpt>
      <trkpt lat="43.81177" lon="3.59141">
        <ele>163.08</ele>
        <time>2015-01-11T15:22:27Z</time>
      </trkpt>
      <trkpt lat="43.81179" lon="3.5914">
        <ele>162.6</ele>
        <time>2015-01-11T15:22:28Z</time>
      </trkpt>
      <trkpt lat="43.81191" lon="3.59135">
        <ele>163.08</ele>
        <time>2015-01-11T15:22:38Z</time>
      </trkpt>
      <trkpt lat="43.81201" lon="3.59127">
        <ele>163.08</ele>
        <time>2015-01-11T15:22:49Z</time>
      </trkpt>
      <trkpt lat="43.81214" lon="3.59121">
        <ele>163.08</ele>
        <time>2015-01-11T15:22:59Z</time>
      </trkpt>
      <trkpt lat="43.81229" lon="3.59118">
        <ele>164.04</ele>
        <time>2015-01-11T15:23:12Z</time>
      </trkpt>
      <trkpt lat="43.81244" lon="3.59111">
        <ele>163.56</ele>
        <time>2015-01-11T15:23:25Z</time>
      </trkpt>
      <trkpt lat="43.81253" lon="3.591">
        <ele>164.52</ele>
        <time>2015-01-11T15:23:34Z</time>
      </trkpt>
      <trkpt lat="43.81254" lon="3.59099">
        <ele>164.04</ele>
        <time>2015-01-11T15:23:35Z</time>
      </trkpt>
      <trkpt lat="43.81255" lon="3.59095">
        <ele>164.04</ele>
        <time>2015-01-11T15:23:38Z</time>
      </trkpt>
      <trkpt lat="43.81256" lon="3.59095">
        <ele>164.52</ele>
        <time>2015-01-11T15:23:40Z</time>
      </trkpt>
      <trkpt lat="43.8126" lon="3.59094">
        <ele>164.52</ele>
        <time>2015-01-11T15:23:45Z</time>
      </trkpt>
      <trkpt lat="43.81262" lon="3.59093">
        <ele>165</ele>
        <time>2015-01-11T15:23:46Z</time>
      </trkpt>
      <trkpt lat="43.81264" lon="3.5909">
        <ele>165</ele>
        <time>2015-01-11T15:23:50Z</time>
      </trkpt>
      <trkpt lat="43.81265" lon="3.59088">
        <ele>165</ele>
        <time>2015-01-11T15:23:51Z</time>
      </trkpt>
      <trkpt lat="43.81266" lon="3.59086">
        <ele>165</ele>
        <time>2015-01-11T15:23:52Z</time>
      </trkpt>
      <trkpt lat="43.8127" lon="3.5908">
        <ele>165.48</ele>
        <time>2015-01-11T15:23:57Z</time>
      </trkpt>
      <trkpt lat="43.81277" lon="3.59073">
        <ele>166.45</ele>
        <time>2015-01-11T15:24:04Z</time>
      </trkpt>
      <trkpt lat="43.81282" lon="3.59067">
        <ele>166.45</ele>
        <time>2015-01-11T15:24:09Z</time>
      </trkpt>
      <trkpt lat="43.81289" lon="3.59055">
        <ele>167.41</ele>
        <time>2015-01-11T15:24:20Z</time>
      </trkpt>
      <trkpt lat="43.81296" lon="3.59053">
        <ele>166.45</ele>
        <time>2015-01-11T15:24:33Z</time>
      </trkpt>
      <trkpt lat="43.81297" lon="3.59053">
        <ele>166.45</ele>
        <time>2015-01-11T15:24:34Z</time>
      </trkpt>
      <trkpt lat="43.81302" lon="3.59049">
        <ele>165.96</ele>
        <time>2015-01-11T15:24:37Z</time>
      </trkpt>
      <trkpt lat="43.81305" lon="3.59047">
        <ele>165.48</ele>
        <time>2015-01-11T15:24:39Z</time>
      </trkpt>
      <trkpt lat="43.81308" lon="3.59047">
        <ele>165.48</ele>
        <time>2015-01-11T15:24:43Z</time>
      </trkpt>
      <trkpt lat="43.8131" lon="3.59046">
        <ele>165</ele>
        <time>2015-01-11T15:24:44Z</time>
      </trkpt>
      <trkpt lat="43.81312" lon="3.59046">
        <ele>165</ele>
        <time>2015-01-11T15:24:45Z</time>
      </trkpt>
      <trkpt lat="43.81313" lon="3.59046">
        <ele>165</ele>
        <time>2015-01-11T15:24:46Z</time>
      </trkpt>
      <trkpt lat="43.81316" lon="3.59047">
        <ele>165.48</ele>
        <time>2015-01-11T15:24:50Z</time>
      </trkpt>
      <trkpt lat="43.81318" lon="3.59047">
        <ele>165</ele>
        <time>2015-01-11T15:24:51Z</time>
      </trkpt>
      <trkpt lat="43.81331" lon="3.59052">
        <ele>163.56</ele>
        <time>2015-01-11T15:25:04Z</time>
      </trkpt>
      <trkpt lat="43.81332" lon="3.59053">
        <ele>164.04</ele>
        <time>2015-01-11T15:25:05Z</time>
      </trkpt>
      <trkpt lat="43.81333" lon="3.59055">
        <ele>164.04</ele>
        <time>2015-01-11T15:25:06Z</time>
      </trkpt>
      <trkpt lat="43.81343" lon="3.59077">
        <ele>163.08</ele>
        <time>2015-01-11T15:25:20Z</time>
      </trkpt>
      <trkpt lat="43.81347" lon="3.59094">
        <ele>162.6</ele>
        <time>2015-01-11T15:25:34Z</time>
      </trkpt>
      <trkpt lat="43.81353" lon="3.5911">
        <ele>163.08</ele>
        <time>2015-01-11T15:25:48Z</time>
      </trkpt>
      <trkpt lat="43.81363" lon="3.59132">
        <ele>163.08</ele>
        <time>2015-01-11T15:26:03Z</time>
      </trkpt>
      <trkpt lat="43.81364" lon="3.59136">
        <ele>163.08</ele>
        <time>2015-01-11T15:26:05Z</time>
      </trkpt>
      <trkpt lat="43.81374" lon="3.59148">
        <ele>163.08</ele>
        <time>2015-01-11T15:26:17Z</time>
      </trkpt>
      <trkpt lat="43.81377" lon="3.59151">
        <ele>163.08</ele>
        <time>2015-01-11T15:26:28Z</time>
      </trkpt>
      <trkpt lat="43.81378" lon="3.59155">
        <ele>163.08</ele>
        <time>2015-01-11T15:26:44Z</time>
      </trkpt>
      <trkpt lat="43.81376" lon="3.59158">
        <ele>162.12</ele>
        <time>2015-01-11T15:27:05Z</time>
      </trkpt>
      <trkpt lat="43.81377" lon="3.59165">
        <ele>162.12</ele>
        <time>2015-01-11T15:27:27Z</time>
      </trkpt>
      <trkpt lat="43.81383" lon="3.59167">
        <ele>161.64</ele>
        <time>2015-01-11T15:27:41Z</time>
      </trkpt>
      <trkpt lat="43.81393" lon="3.59172">
        <ele>163.08</ele>
        <time>2015-01-11T15:27:54Z</time>
      </trkpt>
      <trkpt lat="43.81401" lon="3.59183">
        <ele>165</ele>
        <time>2015-01-11T15:28:06Z</time>
      </trkpt>
      <trkpt lat="43.81406" lon="3.59188">
        <ele>165.96</ele>
        <time>2015-01-11T15:28:11Z</time>
      </trkpt>
      <trkpt lat="43.81413" lon="3.59201">
        <ele>166.93</ele>
        <time>2015-01-11T15:28:22Z</time>
      </trkpt>
      <trkpt lat="43.81419" lon="3.59213">
        <ele>168.37</ele>
        <time>2015-01-11T15:28:34Z</time>
      </trkpt>
      <trkpt lat="43.81425" lon="3.59223">
        <ele>169.81</ele>
        <time>2015-01-11T15:28:46Z</time>
      </trkpt>
      <trkpt lat="43.81426" lon="3.59229">
        <ele>170.29</ele>
        <time>2015-01-11T15:28:50Z</time>
      </trkpt>
      <trkpt lat="43.8143" lon="3.59244">
        <ele>171.25</ele>
        <time>2015-01-11T15:29:01Z</time>
      </trkpt>
      <trkpt lat="43.81431" lon="3.5925">
        <ele>171.73</ele>
        <time>2015-01-11T15:29:07Z</time>
      </trkpt>
      <trkpt lat="43.81436" lon="3.59268">
        <ele>173.17</ele>
        <time>2015-01-11T15:29:20Z</time>
      </trkpt>
      <trkpt lat="43.81441" lon="3.5928">
        <ele>174.62</ele>
        <time>2015-01-11T15:29:32Z</time>
      </trkpt>
      <trkpt lat="43.81446" lon="3.59295">
        <ele>177.02</ele>
        <time>2015-01-11T15:29:44Z</time>
      </trkpt>
      <trkpt lat="43.8145" lon="3.59307">
        <ele>178.46</ele>
        <time>2015-01-11T15:29:55Z</time>
      </trkpt>
      <trkpt lat="43.81451" lon="3.59308">
        <ele>178.46</ele>
        <time>2015-01-11T15:29:56Z</time>
      </trkpt>
      <trkpt lat="43.81453" lon="3.59316">
        <ele>179.9</ele>
        <time>2015-01-11T15:30:03Z</time>
      </trkpt>
      <trkpt lat="43.81454" lon="3.59323">
        <ele>180.38</ele>
        <time>2015-01-11T15:30:08Z</time>
      </trkpt>
      <trkpt lat="43.81456" lon="3.59326">
        <ele>181.35</ele>
        <time>2015-01-11T15:30:11Z</time>
      </trkpt>
      <trkpt lat="43.81455" lon="3.59343">
        <ele>183.27</ele>
        <time>2015-01-11T15:30:25Z</time>
      </trkpt>
      <trkpt lat="43.81457" lon="3.59358">
        <ele>185.67</ele>
        <time>2015-01-11T15:30:40Z</time>
      </trkpt>
      <trkpt lat="43.81456" lon="3.59377">
        <ele>187.59</ele>
        <time>2015-01-11T15:30:55Z</time>
      </trkpt>
      <trkpt lat="43.81448" lon="3.59389">
        <ele>190.48</ele>
        <time>2015-01-11T15:31:10Z</time>
      </trkpt>
      <trkpt lat="43.8144" lon="3.594">
        <ele>192.88</ele>
        <time>2015-01-11T15:31:23Z</time>
      </trkpt>
      <trkpt lat="43.81437" lon="3.59406">
        <ele>193.84</ele>
        <time>2015-01-11T15:31:29Z</time>
      </trkpt>
      <trkpt lat="43.81431" lon="3.59427">
        <ele>195.28</ele>
        <time>2015-01-11T15:31:44Z</time>
      </trkpt>
      <trkpt lat="43.81431" lon="3.59434">
        <ele>196.25</ele>
        <time>2015-01-11T15:31:48Z</time>
      </trkpt>
      <trkpt lat="43.81433" lon="3.59438">
        <ele>196.25</ele>
        <time>2015-01-11T15:31:51Z</time>
      </trkpt>
      <trkpt lat="43.81435" lon="3.59448">
        <ele>197.21</ele>
        <time>2015-01-11T15:31:58Z</time>
      </trkpt>
      <trkpt lat="43.81444" lon="3.59465">
        <ele>199.61</ele>
        <time>2015-01-11T15:32:14Z</time>
      </trkpt>
      <trkpt lat="43.81448" lon="3.59475">
        <ele>200.09</ele>
        <time>2015-01-11T15:32:21Z</time>
      </trkpt>
      <trkpt lat="43.8146" lon="3.59486">
        <ele>201.53</ele>
        <time>2015-01-11T15:32:35Z</time>
      </trkpt>
      <trkpt lat="43.81471" lon="3.59492">
        <ele>204.42</ele>
        <time>2015-01-11T15:32:48Z</time>
      </trkpt>
      <trkpt lat="43.81473" lon="3.59496">
        <ele>205.86</ele>
        <time>2015-01-11T15:32:53Z</time>
      </trkpt>
      <trkpt lat="43.81477" lon="3.59504">
        <ele>205.86</ele>
        <time>2015-01-11T15:32:59Z</time>
      </trkpt>
      <trkpt lat="43.81481" lon="3.5951">
        <ele>205.86</ele>
        <time>2015-01-11T15:33:13Z</time>
      </trkpt>
      <trkpt lat="43.81487" lon="3.59518">
        <ele>204.42</ele>
        <time>2015-01-11T15:33:23Z</time>
      </trkpt>
      <trkpt lat="43.81496" lon="3.59536">
        <ele>202.98</ele>
        <time>2015-01-11T15:33:35Z</time>
      </trkpt>
      <trkpt lat="43.81503" lon="3.59554">
        <ele>201.53</ele>
        <time>2015-01-11T15:33:46Z</time>
      </trkpt>
      <trkpt lat="43.81513" lon="3.59574">
        <ele>201.05</ele>
        <time>2015-01-11T15:33:58Z</time>
      </trkpt>
      <trkpt lat="43.81524" lon="3.5959">
        <ele>201.05</ele>
        <time>2015-01-11T15:34:10Z</time>
      </trkpt>
      <trkpt lat="43.81538" lon="3.59604">
        <ele>200.57</ele>
        <time>2015-01-11T15:34:23Z</time>
      </trkpt>
      <trkpt lat="43.81551" lon="3.5962">
        <ele>201.05</ele>
        <time>2015-01-11T15:34:35Z</time>
      </trkpt>
      <trkpt lat="43.81561" lon="3.59634">
        <ele>201.53</ele>
        <time>2015-01-11T15:34:47Z</time>
      </trkpt>
      <trkpt lat="43.81562" lon="3.59631">
        <ele>201.53</ele>
        <time>2015-01-11T15:34:57Z</time>
      </trkpt>
      <trkpt lat="43.81562" lon="3.59635">
        <ele>201.53</ele>
        <time>2015-01-11T15:35:08Z</time>
      </trkpt>
      <trkpt lat="43.81569" lon="3.5965">
        <ele>202.01</ele>
        <time>2015-01-11T15:35:19Z</time>
      </trkpt>
      <trkpt lat="43.81573" lon="3.59669">
        <ele>202.49</ele>
        <time>2015-01-11T15:35:30Z</time>
      </trkpt>
      <trkpt lat="43.81575" lon="3.59688">
        <ele>203.94</ele>
        <time>2015-01-11T15:35:41Z</time>
      </trkpt>
      <trkpt lat="43.81575" lon="3.59692">
        <ele>203.94</ele>
        <time>2015-01-11T15:35:44Z</time>
      </trkpt>
      <trkpt lat="43.81577" lon="3.59706">
        <ele>204.42</ele>
        <time>2015-01-11T15:35:52Z</time>
      </trkpt>
      <trkpt lat="43.81576" lon="3.59714">
        <ele>204.42</ele>
        <time>2015-01-11T15:36:03Z</time>
      </trkpt>
      <trkpt lat="43.81579" lon="3.59728">
        <ele>203.46</ele>
        <time>2015-01-11T15:36:15Z</time>
      </trkpt>
      <trkpt lat="43.81593" lon="3.59729">
        <ele>203.94</ele>
        <time>2015-01-11T15:36:28Z</time>
      </trkpt>
      <trkpt lat="43.81607" lon="3.59737">
        <ele>202.98</ele>
        <time>2015-01-11T15:36:40Z</time>
      </trkpt>
      <trkpt lat="43.81619" lon="3.59748">
        <ele>202.01</ele>
        <time>2015-01-11T15:36:51Z</time>
      </trkpt>
      <trkpt lat="43.81632" lon="3.59755">
        <ele>200.57</ele>
        <time>2015-01-11T15:37:02Z</time>
      </trkpt>
      <trkpt lat="43.81645" lon="3.59758">
        <ele>200.09</ele>
        <time>2015-01-11T15:37:12Z</time>
      </trkpt>
      <trkpt lat="43.81657" lon="3.59764">
        <ele>199.13</ele>
        <time>2015-01-11T15:37:22Z</time>
      </trkpt>
      <trkpt lat="43.81669" lon="3.59785">
        <ele>198.65</ele>
        <time>2015-01-11T15:37:36Z</time>
      </trkpt>
      <trkpt lat="43.81671" lon="3.59786">
        <ele>199.13</ele>
        <time>2015-01-11T15:37:50Z</time>
      </trkpt>
      <trkpt lat="43.8167" lon="3.59788">
        <ele>199.13</ele>
        <time>2015-01-11T15:38:15Z</time>
      </trkpt>
      <trkpt lat="43.81673" lon="3.59792">
        <ele>198.17</ele>
        <time>2015-01-11T15:38:19Z</time>
      </trkpt>
      <trkpt lat="43.81677" lon="3.598">
        <ele>197.69</ele>
        <time>2015-01-11T15:38:25Z</time>
      </trkpt>
      <trkpt lat="43.81678" lon="3.598">
        <ele>198.17</ele>
        <time>2015-01-11T15:38:38Z</time>
      </trkpt>
      <trkpt lat="43.81679" lon="3.59802">
        <ele>198.65</ele>
        <time>2015-01-11T15:38:47Z</time>
      </trkpt>
      <trkpt lat="43.81685" lon="3.5982">
        <ele>197.21</ele>
        <time>2015-01-11T15:38:59Z</time>
      </trkpt>
      <trkpt lat="43.81697" lon="3.59836">
        <ele>196.25</ele>
        <time>2015-01-11T15:39:11Z</time>
      </trkpt>
      <trkpt lat="43.81712" lon="3.59852">
        <ele>196.25</ele>
        <time>2015-01-11T15:39:24Z</time>
      </trkpt>
      <trkpt lat="43.81728" lon="3.59867">
        <ele>195.77</ele>
        <time>2015-01-11T15:39:39Z</time>
      </trkpt>
      <trkpt lat="43.81739" lon="3.59877">
        <ele>194.8</ele>
        <time>2015-01-11T15:39:50Z</time>
      </trkpt>
      <trkpt lat="43.81752" lon="3.59892">
        <ele>193.36</ele>
        <time>2015-01-11T15:40:01Z</time>
      </trkpt>
      <trkpt lat="43.81759" lon="3.59916">
        <ele>190.96</ele>
        <time>2015-01-11T15:40:14Z</time>
      </trkpt>
      <trkpt lat="43.81767" lon="3.59941">
        <ele>189.52</ele>
        <time>2015-01-11T15:40:28Z</time>
      </trkpt>
      <trkpt lat="43.81772" lon="3.59952">
        <ele>189.52</ele>
        <time>2015-01-11T15:40:34Z</time>
      </trkpt>
      <trkpt lat="43.81773" lon="3.59957">
        <ele>189.52</ele>
        <time>2015-01-11T15:40:38Z</time>
      </trkpt>
      <trkpt lat="43.81782" lon="3.59977">
        <ele>189.04</ele>
        <time>2015-01-11T15:40:50Z</time>
      </trkpt>
      <trkpt lat="43.8179" lon="3.59993">
        <ele>189.52</ele>
        <time>2015-01-11T15:41:00Z</time>
      </trkpt>
      <trkpt lat="43.81798" lon="3.60009">
        <ele>190</ele>
        <time>2015-01-11T15:41:10Z</time>
      </trkpt>
      <trkpt lat="43.81804" lon="3.6002">
        <ele>190.96</ele>
        <time>2015-01-11T15:41:19Z</time>
      </trkpt>
      <trkpt lat="43.81804" lon="3.60021">
        <ele>190.48</ele>
        <time>2015-01-11T15:41:20Z</time>
      </trkpt>
      <trkpt lat="43.81825" lon="3.60036">
        <ele>192.88</ele>
        <time>2015-01-11T15:41:39Z</time>
      </trkpt>
      <trkpt lat="43.8184" lon="3.60042">
        <ele>194.32</ele>
        <time>2015-01-11T15:41:53Z</time>
      </trkpt>
      <trkpt lat="43.81857" lon="3.60046">
        <ele>196.73</ele>
        <time>2015-01-11T15:42:08Z</time>
      </trkpt>
      <trkpt lat="43.81876" lon="3.60049">
        <ele>198.65</ele>
        <time>2015-01-11T15:42:23Z</time>
      </trkpt>
      <trkpt lat="43.81893" lon="3.60055">
        <ele>200.57</ele>
        <time>2015-01-11T15:42:37Z</time>
      </trkpt>
      <trkpt lat="43.81899" lon="3.60068">
        <ele>202.01</ele>
        <time>2015-01-11T15:42:47Z</time>
      </trkpt>
      <trkpt lat="43.81903" lon="3.60093">
        <ele>202.98</ele>
        <time>2015-01-11T15:43:02Z</time>
      </trkpt>
      <trkpt lat="43.81908" lon="3.6012">
        <ele>203.46</ele>
        <time>2015-01-11T15:43:17Z</time>
      </trkpt>
      <trkpt lat="43.81913" lon="3.60142">
        <ele>204.9</ele>
        <time>2015-01-11T15:43:31Z</time>
      </trkpt>
      <trkpt lat="43.81919" lon="3.60174">
        <ele>205.38</ele>
        <time>2015-01-11T15:43:49Z</time>
      </trkpt>
      <trkpt lat="43.81925" lon="3.60201">
        <ele>205.38</ele>
        <time>2015-01-11T15:44:04Z</time>
      </trkpt>
      <trkpt lat="43.8193" lon="3.60223">
        <ele>205.38</ele>
        <time>2015-01-11T15:44:19Z</time>
      </trkpt>
      <trkpt lat="43.81936" lon="3.6025">
        <ele>205.86</ele>
        <time>2015-01-11T15:44:34Z</time>
      </trkpt>
      <trkpt lat="43.81939" lon="3.60261">
        <ele>205.38</ele>
        <time>2015-01-11T15:44:40Z</time>
      </trkpt>
      <trkpt lat="43.81945" lon="3.60291">
        <ele>203.46</ele>
        <time>2015-01-11T15:44:56Z</time>
      </trkpt>
      <trkpt lat="43.81946" lon="3.60302">
        <ele>203.46</ele>
        <time>2015-01-11T15:45:02Z</time>
      </trkpt>
      <trkpt lat="43.8195" lon="3.60313">
        <ele>202.98</ele>
        <time>2015-01-11T15:45:08Z</time>
      </trkpt>
      <trkpt lat="43.81953" lon="3.60336">
        <ele>202.49</ele>
        <time>2015-01-11T15:45:22Z</time>
      </trkpt>
      <trkpt lat="43.81957" lon="3.60356">
        <ele>202.49</ele>
        <time>2015-01-11T15:45:34Z</time>
      </trkpt>
      <trkpt lat="43.81958" lon="3.60361">
        <ele>202.49</ele>
        <time>2015-01-11T15:45:36Z</time>
      </trkpt>
      <trkpt lat="43.81959" lon="3.60366">
        <ele>199.13</ele>
        <time>2015-01-11T15:45:39Z</time>
      </trkpt>
      <trkpt lat="43.81964" lon="3.60385">
        <ele>199.13</ele>
        <time>2015-01-11T15:45:50Z</time>
      </trkpt>
      <trkpt lat="43.81965" lon="3.60389">
        <ele>197.69</ele>
        <time>2015-01-11T15:45:52Z</time>
      </trkpt>
      <trkpt lat="43.81981" lon="3.60402">
        <ele>198.17</ele>
        <time>2015-01-11T15:46:04Z</time>
      </trkpt>
      <trkpt lat="43.81994" lon="3.6041">
        <ele>197.69</ele>
        <time>2015-01-11T15:46:15Z</time>
      </trkpt>
      <trkpt lat="43.82007" lon="3.60419">
        <ele>196.25</ele>
        <time>2015-01-11T15:46:27Z</time>
      </trkpt>
      <trkpt lat="43.82019" lon="3.60425">
        <ele>195.28</ele>
        <time>2015-01-11T15:46:36Z</time>
      </trkpt>
      <trkpt lat="43.82033" lon="3.60434">
        <ele>193.84</ele>
        <time>2015-01-11T15:46:47Z</time>
      </trkpt>
      <trkpt lat="43.82036" lon="3.60439">
        <ele>192.88</ele>
        <time>2015-01-11T15:46:53Z</time>
      </trkpt>
      <trkpt lat="43.82037" lon="3.60441">
        <ele>192.88</ele>
        <time>2015-01-11T15:46:54Z</time>
      </trkpt>
      <trkpt lat="43.82038" lon="3.60444">
        <ele>192.4</ele>
        <time>2015-01-11T15:46:55Z</time>
      </trkpt>
      <trkpt lat="43.82039" lon="3.60449">
        <ele>192.88</ele>
        <time>2015-01-11T15:46:57Z</time>
      </trkpt>
      <trkpt lat="43.82037" lon="3.60467">
        <ele>191.44</ele>
        <time>2015-01-11T15:47:07Z</time>
      </trkpt>
      <trkpt lat="43.82036" lon="3.60469">
        <ele>191.44</ele>
        <time>2015-01-11T15:47:08Z</time>
      </trkpt>
      <trkpt lat="43.82036" lon="3.6047">
        <ele>191.44</ele>
        <time>2015-01-11T15:47:09Z</time>
      </trkpt>
      <trkpt lat="43.82026" lon="3.60476">
        <ele>190.48</ele>
        <time>2015-01-11T15:47:21Z</time>
      </trkpt>
      <trkpt lat="43.82017" lon="3.60479">
        <ele>189.04</ele>
        <time>2015-01-11T15:47:30Z</time>
      </trkpt>
      <trkpt lat="43.8201" lon="3.60483">
        <ele>188.08</ele>
        <time>2015-01-11T15:47:37Z</time>
      </trkpt>
      <trkpt lat="43.82009" lon="3.60484">
        <ele>187.59</ele>
        <time>2015-01-11T15:47:38Z</time>
      </trkpt>
      <trkpt lat="43.81995" lon="3.60501">
        <ele>185.67</ele>
        <time>2015-01-11T15:47:54Z</time>
      </trkpt>
      <trkpt lat="43.8198" lon="3.60525">
        <ele>183.27</ele>
        <time>2015-01-11T15:48:13Z</time>
      </trkpt>
      <trkpt lat="43.8197" lon="3.60548">
        <ele>179.9</ele>
        <time>2015-01-11T15:48:29Z</time>
      </trkpt>
      <trkpt lat="43.81969" lon="3.60553">
        <ele>179.42</ele>
        <time>2015-01-11T15:48:32Z</time>
      </trkpt>
      <trkpt lat="43.81968" lon="3.60554">
        <ele>179.42</ele>
        <time>2015-01-11T15:48:33Z</time>
      </trkpt>
      <trkpt lat="43.81961" lon="3.60574">
        <ele>177.02</ele>
        <time>2015-01-11T15:48:46Z</time>
      </trkpt>
      <trkpt lat="43.81956" lon="3.60589">
        <ele>176.06</ele>
        <time>2015-01-11T15:48:54Z</time>
      </trkpt>
      <trkpt lat="43.81955" lon="3.6059">
        <ele>175.58</ele>
        <time>2015-01-11T15:48:55Z</time>
      </trkpt>
      <trkpt lat="43.81954" lon="3.60592">
        <ele>176.06</ele>
        <time>2015-01-11T15:48:56Z</time>
      </trkpt>
      <trkpt lat="43.81953" lon="3.60594">
        <ele>175.58</ele>
        <time>2015-01-11T15:48:57Z</time>
      </trkpt>
      <trkpt lat="43.81942" lon="3.60621">
        <ele>173.66</ele>
        <time>2015-01-11T15:49:14Z</time>
      </trkpt>
      <trkpt lat="43.81932" lon="3.60656">
        <ele>171.73</ele>
        <time>2015-01-11T15:49:33Z</time>
      </trkpt>
      <trkpt lat="43.81926" lon="3.6068">
        <ele>170.77</ele>
        <time>2015-01-11T15:49:47Z</time>
      </trkpt>
      <trkpt lat="43.81919" lon="3.60703">
        <ele>169.81</ele>
        <time>2015-01-11T15:50:00Z</time>
      </trkpt>
      <trkpt lat="43.81919" lon="3.60705">
        <ele>169.81</ele>
        <time>2015-01-11T15:50:01Z</time>
      </trkpt>
      <trkpt lat="43.81921" lon="3.60729">
        <ele>169.33</ele>
        <time>2015-01-11T15:50:15Z</time>
      </trkpt>
      <trkpt lat="43.81921" lon="3.60754">
        <ele>169.33</ele>
        <time>2015-01-11T15:50:27Z</time>
      </trkpt>
      <trkpt lat="43.81923" lon="3.60773">
        <ele>169.33</ele>
        <time>2015-01-11T15:50:38Z</time>
      </trkpt>
      <trkpt lat="43.81923" lon="3.60778">
        <ele>169.33</ele>
        <time>2015-01-11T15:50:41Z</time>
      </trkpt>
      <trkpt lat="43.81927" lon="3.60801">
        <ele>170.29</ele>
        <time>2015-01-11T15:50:53Z</time>
      </trkpt>
      <trkpt lat="43.81931" lon="3.60819">
        <ele>171.25</ele>
        <time>2015-01-11T15:51:05Z</time>
      </trkpt>
      <trkpt lat="43.81936" lon="3.60851">
        <ele>170.77</ele>
        <time>2015-01-11T15:51:22Z</time>
      </trkpt>
      <trkpt lat="43.8194" lon="3.60877">
        <ele>170.29</ele>
        <time>2015-01-11T15:51:35Z</time>
      </trkpt>
      <trkpt lat="43.81941" lon="3.60899">
        <ele>168.85</ele>
        <time>2015-01-11T15:51:47Z</time>
      </trkpt>
      <trkpt lat="43.81943" lon="3.60919">
        <ele>167.89</ele>
        <time>2015-01-11T15:51:58Z</time>
      </trkpt>
      <trkpt lat="43.8195" lon="3.60945">
        <ele>166.45</ele>
        <time>2015-01-11T15:52:11Z</time>
      </trkpt>
      <trkpt lat="43.81952" lon="3.60954">
        <ele>165.96</ele>
        <time>2015-01-11T15:52:17Z</time>
      </trkpt>
      <trkpt lat="43.81953" lon="3.60956">
        <ele>165.96</ele>
        <time>2015-01-11T15:52:18Z</time>
      </trkpt>
      <trkpt lat="43.81954" lon="3.60958">
        <ele>165.96</ele>
        <time>2015-01-11T15:52:19Z</time>
      </trkpt>
      <trkpt lat="43.81955" lon="3.6096">
        <ele>165.96</ele>
        <time>2015-01-11T15:52:20Z</time>
      </trkpt>
      <trkpt lat="43.81955" lon="3.60962">
        <ele>165.48</ele>
        <time>2015-01-11T15:52:21Z</time>
      </trkpt>
      <trkpt lat="43.81955" lon="3.60964">
        <ele>165.48</ele>
        <time>2015-01-11T15:52:22Z</time>
      </trkpt>
      <trkpt lat="43.81955" lon="3.60966">
        <ele>165.48</ele>
        <time>2015-01-11T15:52:23Z</time>
      </trkpt>
      <trkpt lat="43.81955" lon="3.60968">
        <ele>165</ele>
        <time>2015-01-11T15:52:24Z</time>
      </trkpt>
      <trkpt lat="43.81961" lon="3.60988">
        <ele>164.04</ele>
        <time>2015-01-11T15:52:35Z</time>
      </trkpt>
      <trkpt lat="43.81966" lon="3.61021">
        <ele>161.64</ele>
        <time>2015-01-11T15:52:53Z</time>
      </trkpt>
      <trkpt lat="43.81971" lon="3.61043">
        <ele>160.2</ele>
        <time>2015-01-11T15:53:05Z</time>
      </trkpt>
      <trkpt lat="43.81974" lon="3.61055">
        <ele>159.72</ele>
        <time>2015-01-11T15:53:12Z</time>
      </trkpt>
      <trkpt lat="43.81975" lon="3.61057">
        <ele>159.72</ele>
        <time>2015-01-11T15:53:13Z</time>
      </trkpt>
      <trkpt lat="43.81976" lon="3.6106">
        <ele>159.72</ele>
        <time>2015-01-11T15:53:15Z</time>
      </trkpt>
      <trkpt lat="43.81977" lon="3.61061">
        <ele>159.72</ele>
        <time>2015-01-11T15:53:16Z</time>
      </trkpt>
      <trkpt lat="43.81985" lon="3.61085">
        <ele>158.75</ele>
        <time>2015-01-11T15:53:31Z</time>
      </trkpt>
      <trkpt lat="43.81988" lon="3.61096">
        <ele>158.27</ele>
        <time>2015-01-11T15:53:38Z</time>
      </trkpt>
      <trkpt lat="43.81989" lon="3.61098">
        <ele>158.27</ele>
        <time>2015-01-11T15:53:39Z</time>
      </trkpt>
      <trkpt lat="43.81991" lon="3.611">
        <ele>158.27</ele>
        <time>2015-01-11T15:53:40Z</time>
      </trkpt>
      <trkpt lat="43.81992" lon="3.61102">
        <ele>157.79</ele>
        <time>2015-01-11T15:53:41Z</time>
      </trkpt>
      <trkpt lat="43.81997" lon="3.6112">
        <ele>157.31</ele>
        <time>2015-01-11T15:53:52Z</time>
      </trkpt>
      <trkpt lat="43.82" lon="3.61139">
        <ele>156.35</ele>
        <time>2015-01-11T15:54:02Z</time>
      </trkpt>
      <trkpt lat="43.81997" lon="3.61164">
        <ele>155.39</ele>
        <time>2015-01-11T15:54:13Z</time>
      </trkpt>
      <trkpt lat="43.81995" lon="3.61171">
        <ele>155.39</ele>
        <time>2015-01-11T15:54:19Z</time>
      </trkpt>
      <trkpt lat="43.81995" lon="3.61174">
        <ele>155.39</ele>
        <time>2015-01-11T15:54:20Z</time>
      </trkpt>
      <trkpt lat="43.81995" lon="3.61177">
        <ele>154.91</ele>
        <time>2015-01-11T15:54:21Z</time>
      </trkpt>
      <trkpt lat="43.81995" lon="3.61185">
        <ele>154.91</ele>
        <time>2015-01-11T15:54:24Z</time>
      </trkpt>
      <trkpt lat="43.81993" lon="3.61188">
        <ele>154.91</ele>
        <time>2015-01-11T15:54:27Z</time>
      </trkpt>
      <trkpt lat="43.81993" lon="3.6119">
        <ele>154.91</ele>
        <time>2015-01-11T15:54:28Z</time>
      </trkpt>
      <trkpt lat="43.81993" lon="3.61192">
        <ele>154.91</ele>
        <time>2015-01-11T15:54:29Z</time>
      </trkpt>
      <trkpt lat="43.81993" lon="3.61194">
        <ele>154.91</ele>
        <time>2015-01-11T15:54:30Z</time>
      </trkpt>
      <trkpt lat="43.81992" lon="3.61196">
        <ele>154.43</ele>
        <time>2015-01-11T15:54:31Z</time>
      </trkpt>
      <trkpt lat="43.81992" lon="3.61231">
        <ele>153.95</ele>
        <time>2015-01-11T15:54:49Z</time>
      </trkpt>
      <trkpt lat="43.81993" lon="3.61257">
        <ele>153.47</ele>
        <time>2015-01-11T15:55:03Z</time>
      </trkpt>
      <trkpt lat="43.81993" lon="3.61276">
        <ele>152.99</ele>
        <time>2015-01-11T15:55:13Z</time>
      </trkpt>
      <trkpt lat="43.81993" lon="3.61278">
        <ele>152.99</ele>
        <time>2015-01-11T15:55:14Z</time>
      </trkpt>
      <trkpt lat="43.81993" lon="3.6128">
        <ele>153.47</ele>
        <time>2015-01-11T15:55:15Z</time>
      </trkpt>
      <trkpt lat="43.81993" lon="3.61281">
        <ele>152.99</ele>
        <time>2015-01-11T15:55:16Z</time>
      </trkpt>
      <trkpt lat="43.81997" lon="3.61307">
        <ele>152.51</ele>
        <time>2015-01-11T15:55:31Z</time>
      </trkpt>
      <trkpt lat="43.82004" lon="3.61329">
        <ele>152.99</ele>
        <time>2015-01-11T15:55:43Z</time>
      </trkpt>
      <trkpt lat="43.82009" lon="3.61346">
        <ele>153.95</ele>
        <time>2015-01-11T15:55:53Z</time>
      </trkpt>
      <trkpt lat="43.82012" lon="3.61359">
        <ele>153.47</ele>
        <time>2015-01-11T15:56:01Z</time>
      </trkpt>
      <trkpt lat="43.82013" lon="3.61365">
        <ele>152.99</ele>
        <time>2015-01-11T15:56:05Z</time>
      </trkpt>
      <trkpt lat="43.82019" lon="3.6139">
        <ele>153.47</ele>
        <time>2015-01-11T15:56:18Z</time>
      </trkpt>
      <trkpt lat="43.82024" lon="3.61412">
        <ele>154.43</ele>
        <time>2015-01-11T15:56:30Z</time>
      </trkpt>
      <trkpt lat="43.82029" lon="3.61435">
        <ele>154.91</ele>
        <time>2015-01-11T15:56:42Z</time>
      </trkpt>
      <trkpt lat="43.82033" lon="3.61453">
        <ele>154.43</ele>
        <time>2015-01-11T15:56:52Z</time>
      </trkpt>
      <trkpt lat="43.82039" lon="3.61472">
        <ele>154.91</ele>
        <time>2015-01-11T15:57:03Z</time>
      </trkpt>
      <trkpt lat="43.82051" lon="3.61482">
        <ele>154.43</ele>
        <time>2015-01-11T15:57:16Z</time>
      </trkpt>
      <trkpt lat="43.82074" lon="3.61483">
        <ele>153.47</ele>
        <time>2015-01-11T15:57:33Z</time>
      </trkpt>
      <trkpt lat="43.82088" lon="3.61476">
        <ele>152.99</ele>
        <time>2015-01-11T15:57:44Z</time>
      </trkpt>
      <trkpt lat="43.8209" lon="3.61476">
        <ele>152.51</ele>
        <time>2015-01-11T15:57:46Z</time>
      </trkpt>
      <trkpt lat="43.82092" lon="3.61474">
        <ele>152.51</ele>
        <time>2015-01-11T15:57:47Z</time>
      </trkpt>
      <trkpt lat="43.82094" lon="3.61473">
        <ele>152.51</ele>
        <time>2015-01-11T15:57:48Z</time>
      </trkpt>
      <trkpt lat="43.82104" lon="3.61465">
        <ele>152.51</ele>
        <time>2015-01-11T15:57:58Z</time>
      </trkpt>
      <trkpt lat="43.82105" lon="3.61465">
        <ele>152.51</ele>
        <time>2015-01-11T15:57:59Z</time>
      </trkpt>
      <trkpt lat="43.82107" lon="3.61464">
        <ele>151.54</ele>
        <time>2015-01-11T15:58:00Z</time>
      </trkpt>
      <trkpt lat="43.82108" lon="3.61464">
        <ele>152.51</ele>
        <time>2015-01-11T15:58:01Z</time>
      </trkpt>
      <trkpt lat="43.82109" lon="3.61464">
        <ele>152.51</ele>
        <time>2015-01-11T15:58:02Z</time>
      </trkpt>
      <trkpt lat="43.8211" lon="3.61464">
        <ele>152.51</ele>
        <time>2015-01-11T15:58:03Z</time>
      </trkpt>
      <trkpt lat="43.82132" lon="3.61471">
        <ele>153.95</ele>
        <time>2015-01-11T15:58:20Z</time>
      </trkpt>
      <trkpt lat="43.82151" lon="3.6149">
        <ele>153.95</ele>
        <time>2015-01-11T15:58:39Z</time>
      </trkpt>
      <trkpt lat="43.82158" lon="3.61501">
        <ele>153.47</ele>
        <time>2015-01-11T15:58:47Z</time>
      </trkpt>
      <trkpt lat="43.82159" lon="3.61503">
        <ele>153.47</ele>
        <time>2015-01-11T15:58:48Z</time>
      </trkpt>
      <trkpt lat="43.82167" lon="3.61518">
        <ele>152.99</ele>
        <time>2015-01-11T15:58:58Z</time>
      </trkpt>
      <trkpt lat="43.82169" lon="3.61524">
        <ele>152.99</ele>
        <time>2015-01-11T15:59:02Z</time>
      </trkpt>
      <trkpt lat="43.82168" lon="3.61526">
        <ele>152.99</ele>
        <time>2015-01-11T15:59:03Z</time>
      </trkpt>
      <trkpt lat="43.82169" lon="3.61532">
        <ele>151.06</ele>
        <time>2015-01-11T15:59:07Z</time>
      </trkpt>
      <trkpt lat="43.8217" lon="3.61533">
        <ele>151.06</ele>
        <time>2015-01-11T15:59:08Z</time>
      </trkpt>
      <trkpt lat="43.82171" lon="3.61539">
        <ele>152.51</ele>
        <time>2015-01-11T15:59:11Z</time>
      </trkpt>
      <trkpt lat="43.82171" lon="3.61541">
        <ele>152.51</ele>
        <time>2015-01-11T15:59:12Z</time>
      </trkpt>
      <trkpt lat="43.82171" lon="3.61546">
        <ele>151.54</ele>
        <time>2015-01-11T15:59:14Z</time>
      </trkpt>
      <trkpt lat="43.82172" lon="3.61548">
        <ele>151.06</ele>
        <time>2015-01-11T15:59:15Z</time>
      </trkpt>
      <trkpt lat="43.82177" lon="3.61558">
        <ele>150.58</ele>
        <time>2015-01-11T15:59:21Z</time>
      </trkpt>
      <trkpt lat="43.8218" lon="3.61567">
        <ele>149.62</ele>
        <time>2015-01-11T15:59:29Z</time>
      </trkpt>
      <trkpt lat="43.82181" lon="3.61568">
        <ele>149.62</ele>
        <time>2015-01-11T15:59:30Z</time>
      </trkpt>
      <trkpt lat="43.82183" lon="3.61569">
        <ele>149.62</ele>
        <time>2015-01-11T15:59:31Z</time>
      </trkpt>
      <trkpt lat="43.82198" lon="3.61583">
        <ele>150.58</ele>
        <time>2015-01-11T15:59:43Z</time>
      </trkpt>
      <trkpt lat="43.82207" lon="3.61594">
        <ele>151.06</ele>
        <time>2015-01-11T15:59:53Z</time>
      </trkpt>
      <trkpt lat="43.82207" lon="3.61595">
        <ele>151.54</ele>
        <time>2015-01-11T15:59:54Z</time>
      </trkpt>
      <trkpt lat="43.82208" lon="3.61597">
        <ele>151.06</ele>
        <time>2015-01-11T15:59:55Z</time>
      </trkpt>
      <trkpt lat="43.82217" lon="3.61609">
        <ele>151.06</ele>
        <time>2015-01-11T16:00:04Z</time>
      </trkpt>
      <trkpt lat="43.82219" lon="3.61613">
        <ele>151.06</ele>
        <time>2015-01-11T16:00:07Z</time>
      </trkpt>
      <trkpt lat="43.8222" lon="3.61615">
        <ele>151.06</ele>
        <time>2015-01-11T16:00:08Z</time>
      </trkpt>
      <trkpt lat="43.82222" lon="3.61618">
        <ele>151.54</ele>
        <time>2015-01-11T16:00:11Z</time>
      </trkpt>
      <trkpt lat="43.82223" lon="3.6162">
        <ele>151.06</ele>
        <time>2015-01-11T16:00:12Z</time>
      </trkpt>
      <trkpt lat="43.82232" lon="3.61637">
        <ele>151.06</ele>
        <time>2015-01-11T16:00:22Z</time>
      </trkpt>
      <trkpt lat="43.82237" lon="3.6165">
        <ele>150.58</ele>
        <time>2015-01-11T16:00:31Z</time>
      </trkpt>
      <trkpt lat="43.82242" lon="3.61665">
        <ele>150.1</ele>
        <time>2015-01-11T16:00:41Z</time>
      </trkpt>
      <trkpt lat="43.82244" lon="3.61668">
        <ele>149.62</ele>
        <time>2015-01-11T16:00:43Z</time>
      </trkpt>
      <trkpt lat="43.82252" lon="3.61683">
        <ele>150.1</ele>
        <time>2015-01-11T16:00:53Z</time>
      </trkpt>
      <trkpt lat="43.82256" lon="3.61695">
        <ele>149.62</ele>
        <time>2015-01-11T16:00:59Z</time>
      </trkpt>
      <trkpt lat="43.82258" lon="3.61697">
        <ele>149.62</ele>
        <time>2015-01-11T16:01:00Z</time>
      </trkpt>
      <trkpt lat="43.82268" lon="3.61713">
        <ele>149.14</ele>
        <time>2015-01-11T16:01:11Z</time>
      </trkpt>
      <trkpt lat="43.82276" lon="3.61727">
        <ele>149.14</ele>
        <time>2015-01-11T16:01:22Z</time>
      </trkpt>
      <trkpt lat="43.82277" lon="3.61729">
        <ele>148.66</ele>
        <time>2015-01-11T16:01:23Z</time>
      </trkpt>
      <trkpt lat="43.82282" lon="3.61737">
        <ele>147.7</ele>
        <time>2015-01-11T16:01:27Z</time>
      </trkpt>
      <trkpt lat="43.82293" lon="3.61753">
        <ele>149.14</ele>
        <time>2015-01-11T16:01:39Z</time>
      </trkpt>
      <trkpt lat="43.82306" lon="3.61764">
        <ele>147.7</ele>
        <time>2015-01-11T16:01:50Z</time>
      </trkpt>
      <trkpt lat="43.8232" lon="3.61778">
        <ele>148.18</ele>
        <time>2015-01-11T16:02:02Z</time>
      </trkpt>
      <trkpt lat="43.8233" lon="3.61783">
        <ele>149.14</ele>
        <time>2015-01-11T16:02:10Z</time>
      </trkpt>
      <trkpt lat="43.82331" lon="3.61783">
        <ele>148.66</ele>
        <time>2015-01-11T16:02:11Z</time>
      </trkpt>
      <trkpt lat="43.82349" lon="3.61783">
        <ele>148.18</ele>
        <time>2015-01-11T16:02:23Z</time>
      </trkpt>
      <trkpt lat="43.82367" lon="3.61775">
        <ele>148.66</ele>
        <time>2015-01-11T16:02:37Z</time>
      </trkpt>
      <trkpt lat="43.8239" lon="3.61767">
        <ele>148.66</ele>
        <time>2015-01-11T16:02:55Z</time>
      </trkpt>
      <trkpt lat="43.82404" lon="3.61763">
        <ele>148.18</ele>
        <time>2015-01-11T16:03:05Z</time>
      </trkpt>
      <trkpt lat="43.8242" lon="3.6176">
        <ele>146.74</ele>
        <time>2015-01-11T16:03:17Z</time>
      </trkpt>
      <trkpt lat="43.82433" lon="3.61755">
        <ele>147.7</ele>
        <time>2015-01-11T16:03:26Z</time>
      </trkpt>
      <trkpt lat="43.82447" lon="3.61749">
        <ele>147.22</ele>
        <time>2015-01-11T16:03:37Z</time>
      </trkpt>
      <trkpt lat="43.82461" lon="3.61744">
        <ele>147.22</ele>
        <time>2015-01-11T16:03:48Z</time>
      </trkpt>
      <trkpt lat="43.82469" lon="3.61742">
        <ele>147.22</ele>
        <time>2015-01-11T16:03:53Z</time>
      </trkpt>
      <trkpt lat="43.8247" lon="3.61742">
        <ele>147.22</ele>
        <time>2015-01-11T16:03:54Z</time>
      </trkpt>
      <trkpt lat="43.82472" lon="3.61741">
        <ele>147.22</ele>
        <time>2015-01-11T16:03:56Z</time>
      </trkpt>
      <trkpt lat="43.82474" lon="3.61742">
        <ele>147.22</ele>
        <time>2015-01-11T16:03:58Z</time>
      </trkpt>
      <trkpt lat="43.82492" lon="3.61739">
        <ele>148.18</ele>
        <time>2015-01-11T16:04:11Z</time>
      </trkpt>
      <trkpt lat="43.82508" lon="3.61738">
        <ele>148.18</ele>
        <time>2015-01-11T16:04:22Z</time>
      </trkpt>
      <trkpt lat="43.82521" lon="3.61738">
        <ele>148.18</ele>
        <time>2015-01-11T16:04:32Z</time>
      </trkpt>
      <trkpt lat="43.82534" lon="3.61741">
        <ele>148.18</ele>
        <time>2015-01-11T16:04:42Z</time>
      </trkpt>
      <trkpt lat="43.82548" lon="3.61746">
        <ele>147.7</ele>
        <time>2015-01-11T16:04:54Z</time>
      </trkpt>
      <trkpt lat="43.8256" lon="3.61752">
        <ele>148.66</ele>
        <time>2015-01-11T16:05:04Z</time>
      </trkpt>
      <trkpt lat="43.82576" lon="3.61754">
        <ele>148.66</ele>
        <time>2015-01-11T16:05:15Z</time>
      </trkpt>
      <trkpt lat="43.82585" lon="3.61757">
        <ele>149.62</ele>
        <time>2015-01-11T16:05:24Z</time>
      </trkpt>
      <trkpt lat="43.82586" lon="3.61758">
        <ele>149.62</ele>
        <time>2015-01-11T16:05:25Z</time>
      </trkpt>
      <trkpt lat="43.82587" lon="3.6176">
        <ele>149.62</ele>
        <time>2015-01-11T16:05:26Z</time>
      </trkpt>
      <trkpt lat="43.82587" lon="3.61762">
        <ele>149.62</ele>
        <time>2015-01-11T16:05:27Z</time>
      </trkpt>
      <trkpt lat="43.82584" lon="3.61779">
        <ele>150.58</ele>
        <time>2015-01-11T16:05:37Z</time>
      </trkpt>
      <trkpt lat="43.8258" lon="3.618">
        <ele>150.58</ele>
        <time>2015-01-11T16:05:49Z</time>
      </trkpt>
      <trkpt lat="43.82576" lon="3.6181">
        <ele>150.58</ele>
        <time>2015-01-11T16:05:56Z</time>
      </trkpt>
      <trkpt lat="43.82575" lon="3.61811">
        <ele>150.58</ele>
        <time>2015-01-11T16:05:57Z</time>
      </trkpt>
      <trkpt lat="43.82571" lon="3.61817">
        <ele>150.1</ele>
        <time>2015-01-11T16:06:02Z</time>
      </trkpt>
      <trkpt lat="43.82567" lon="3.61823">
        <ele>150.1</ele>
        <time>2015-01-11T16:06:14Z</time>
      </trkpt>
      <trkpt lat="43.82566" lon="3.61825">
        <ele>150.1</ele>
        <time>2015-01-11T16:06:18Z</time>
      </trkpt>
      <trkpt lat="43.82565" lon="3.61826">
        <ele>150.1</ele>
        <time>2015-01-11T16:06:19Z</time>
      </trkpt>
      <trkpt lat="43.82564" lon="3.61826">
        <ele>149.62</ele>
        <time>2015-01-11T16:06:20Z</time>
      </trkpt>
      <trkpt lat="43.82562" lon="3.61826">
        <ele>149.62</ele>
        <time>2015-01-11T16:06:22Z</time>
      </trkpt>
      <trkpt lat="43.82549" lon="3.61825">
        <ele>150.58</ele>
        <time>2015-01-11T16:06:36Z</time>
      </trkpt>
      <trkpt lat="43.82542" lon="3.61823">
        <ele>150.58</ele>
        <time>2015-01-11T16:06:50Z</time>
      </trkpt>
      <trkpt lat="43.82541" lon="3.61826">
        <ele>150.58</ele>
        <time>2015-01-11T16:07:22Z</time>
      </trkpt>
      <trkpt lat="43.8254" lon="3.61829">
        <ele>150.1</ele>
        <time>2015-01-11T16:07:35Z</time>
      </trkpt>
      <trkpt lat="43.82542" lon="3.61828">
        <ele>150.58</ele>
        <time>2015-01-11T16:07:51Z</time>
      </trkpt>
      <trkpt lat="43.82543" lon="3.61829">
        <ele>149.62</ele>
        <time>2015-01-11T16:08:03Z</time>
      </trkpt>
      <trkpt lat="43.82542" lon="3.61827">
        <ele>151.06</ele>
        <time>2015-01-11T16:08:19Z</time>
      </trkpt>
    </trkseg>
  </trk>
</gpx>